<?xml version="1.0" encoding="UTF-8" standalone="no" ?>
<gpx xmlns="http://www.topografix.com/GPX/1/1" xmlns:xsi="http://www.w3.org/2001/XMLSchema-instance" xsi:schemaLocation="http://www.topografix.com/GPX/1/1 http://www.topografix.com/GPX/1/1/gpx.xsd" version="1.1" creator="VisuGPX - https://www.visugpx.com">
  <metadata>
    <name>Trans'Yvelines 2016. Jour 3 : Thiverval Grignon / Verneuil sur Seine</name>
    <desc><![CDATA[Retour pour Verneuil.
Chemins caillouteux par endroit (moins que le premier jour), on a eu la pluie mais heureusement quelques beaux paysages en longeant aussi la seine.]]></desc>
  </metadata>
  <trk>
    <name><![CDATA[Thiverval-Grignon / Verneuil sur Seine]]></name>
    <trkseg>
      <trkpt lat="48.84793" lon="1.92562">
        <ele>84.800003051758</ele>
        <time>2016-06-12T07:08:12.000Z</time>
      </trkpt>
      <trkpt lat="48.84793" lon="1.92561">
        <ele>84.800003051758</ele>
        <time>2016-06-12T07:08:13.000Z</time>
      </trkpt>
      <trkpt lat="48.84794" lon="1.9256">
        <ele>84.800003051758</ele>
        <time>2016-06-12T07:08:15.000Z</time>
      </trkpt>
      <trkpt lat="48.84795" lon="1.92559">
        <ele>84.800003051758</ele>
        <time>2016-06-12T07:08:16.000Z</time>
      </trkpt>
      <trkpt lat="48.84796" lon="1.92554">
        <ele>84.599998474121</ele>
        <time>2016-06-12T07:08:19.000Z</time>
      </trkpt>
      <trkpt lat="48.84796" lon="1.9255">
        <ele>84.599998474121</ele>
        <time>2016-06-12T07:08:21.000Z</time>
      </trkpt>
      <trkpt lat="48.84796" lon="1.92534">
        <ele>84.400001525879</ele>
        <time>2016-06-12T07:08:30.000Z</time>
      </trkpt>
      <trkpt lat="48.84795" lon="1.92533">
        <ele>84.400001525879</ele>
        <time>2016-06-12T07:08:33.000Z</time>
      </trkpt>
      <trkpt lat="48.84791" lon="1.92453">
        <ele>85</ele>
        <time>2016-06-12T07:09:59.000Z</time>
      </trkpt>
      <trkpt lat="48.84791" lon="1.92451">
        <ele>85</ele>
        <time>2016-06-12T07:10:00.000Z</time>
      </trkpt>
      <trkpt lat="48.84786" lon="1.92437">
        <ele>85.400001525879</ele>
        <time>2016-06-12T07:10:06.000Z</time>
      </trkpt>
      <trkpt lat="48.84782" lon="1.92432">
        <ele>85.400001525879</ele>
        <time>2016-06-12T07:10:09.000Z</time>
      </trkpt>
      <trkpt lat="48.8478" lon="1.92428">
        <ele>85.599998474121</ele>
        <time>2016-06-12T07:10:11.000Z</time>
      </trkpt>
      <trkpt lat="48.84779" lon="1.92423">
        <ele>85.599998474121</ele>
        <time>2016-06-12T07:10:14.000Z</time>
      </trkpt>
      <trkpt lat="48.84779" lon="1.92421">
        <ele>85.599998474121</ele>
        <time>2016-06-12T07:10:15.000Z</time>
      </trkpt>
      <trkpt lat="48.84779" lon="1.92412">
        <ele>85.800003051758</ele>
        <time>2016-06-12T07:10:19.000Z</time>
      </trkpt>
      <trkpt lat="48.84779" lon="1.92411">
        <ele>85.800003051758</ele>
        <time>2016-06-12T07:10:20.000Z</time>
      </trkpt>
      <trkpt lat="48.84777" lon="1.92394">
        <ele>85.800003051758</ele>
        <time>2016-06-12T07:10:28.000Z</time>
      </trkpt>
      <trkpt lat="48.84777" lon="1.92377">
        <ele>85.800003051758</ele>
        <time>2016-06-12T07:10:35.000Z</time>
      </trkpt>
      <trkpt lat="48.84776" lon="1.92367">
        <ele>85.800003051758</ele>
        <time>2016-06-12T07:10:40.000Z</time>
      </trkpt>
      <trkpt lat="48.84776" lon="1.92362">
        <ele>85.800003051758</ele>
        <time>2016-06-12T07:10:42.000Z</time>
      </trkpt>
      <trkpt lat="48.84776" lon="1.92358">
        <ele>85.800003051758</ele>
        <time>2016-06-12T07:10:44.000Z</time>
      </trkpt>
      <trkpt lat="48.84775" lon="1.92347">
        <ele>85.800003051758</ele>
        <time>2016-06-12T07:10:49.000Z</time>
      </trkpt>
      <trkpt lat="48.84774" lon="1.92345">
        <ele>86</ele>
        <time>2016-06-12T07:10:50.000Z</time>
      </trkpt>
      <trkpt lat="48.84774" lon="1.92337">
        <ele>86</ele>
        <time>2016-06-12T07:10:54.000Z</time>
      </trkpt>
      <trkpt lat="48.84774" lon="1.92334">
        <ele>86</ele>
        <time>2016-06-12T07:10:56.000Z</time>
      </trkpt>
      <trkpt lat="48.84774" lon="1.92329">
        <ele>86</ele>
        <time>2016-06-12T07:10:58.000Z</time>
      </trkpt>
      <trkpt lat="48.84774" lon="1.92323">
        <ele>86</ele>
        <time>2016-06-12T07:11:00.000Z</time>
      </trkpt>
      <trkpt lat="48.84772" lon="1.92306">
        <ele>86</ele>
        <time>2016-06-12T07:11:07.000Z</time>
      </trkpt>
      <trkpt lat="48.8477" lon="1.92295">
        <ele>86</ele>
        <time>2016-06-12T07:11:12.000Z</time>
      </trkpt>
      <trkpt lat="48.8477" lon="1.92291">
        <ele>86</ele>
        <time>2016-06-12T07:11:14.000Z</time>
      </trkpt>
      <trkpt lat="48.8477" lon="1.92288">
        <ele>86.199996948242</ele>
        <time>2016-06-12T07:11:16.000Z</time>
      </trkpt>
      <trkpt lat="48.84769" lon="1.92274">
        <ele>86.199996948242</ele>
        <time>2016-06-12T07:11:23.000Z</time>
      </trkpt>
      <trkpt lat="48.84769" lon="1.92261">
        <ele>86.199996948242</ele>
        <time>2016-06-12T07:11:30.000Z</time>
      </trkpt>
      <trkpt lat="48.84769" lon="1.92257">
        <ele>86.199996948242</ele>
        <time>2016-06-12T07:11:32.000Z</time>
      </trkpt>
      <trkpt lat="48.8477" lon="1.92252">
        <ele>86</ele>
        <time>2016-06-12T07:11:35.000Z</time>
      </trkpt>
      <trkpt lat="48.8477" lon="1.9225">
        <ele>86</ele>
        <time>2016-06-12T07:11:36.000Z</time>
      </trkpt>
      <trkpt lat="48.84771" lon="1.92243">
        <ele>86</ele>
        <time>2016-06-12T07:11:40.000Z</time>
      </trkpt>
      <trkpt lat="48.84772" lon="1.92236">
        <ele>86</ele>
        <time>2016-06-12T07:11:44.000Z</time>
      </trkpt>
      <trkpt lat="48.84773" lon="1.92227">
        <ele>86.199996948242</ele>
        <time>2016-06-12T07:11:49.000Z</time>
      </trkpt>
      <trkpt lat="48.84774" lon="1.92217">
        <ele>86.199996948242</ele>
        <time>2016-06-12T07:11:55.000Z</time>
      </trkpt>
      <trkpt lat="48.84773" lon="1.92216">
        <ele>86.199996948242</ele>
        <time>2016-06-12T07:11:56.000Z</time>
      </trkpt>
      <trkpt lat="48.84773" lon="1.92204">
        <ele>86.400001525879</ele>
        <time>2016-06-12T07:12:02.000Z</time>
      </trkpt>
      <trkpt lat="48.84773" lon="1.92201">
        <ele>86.400001525879</ele>
        <time>2016-06-12T07:12:04.000Z</time>
      </trkpt>
      <trkpt lat="48.84773" lon="1.92195">
        <ele>86.599998474121</ele>
        <time>2016-06-12T07:12:07.000Z</time>
      </trkpt>
      <trkpt lat="48.84773" lon="1.92191">
        <ele>86.599998474121</ele>
        <time>2016-06-12T07:12:09.000Z</time>
      </trkpt>
      <trkpt lat="48.84772" lon="1.92185">
        <ele>86.599998474121</ele>
        <time>2016-06-12T07:12:12.000Z</time>
      </trkpt>
      <trkpt lat="48.84772" lon="1.92183">
        <ele>86.800003051758</ele>
        <time>2016-06-12T07:12:13.000Z</time>
      </trkpt>
      <trkpt lat="48.84772" lon="1.9218">
        <ele>86.800003051758</ele>
        <time>2016-06-12T07:12:15.000Z</time>
      </trkpt>
      <trkpt lat="48.84771" lon="1.92173">
        <ele>86.800003051758</ele>
        <time>2016-06-12T07:12:19.000Z</time>
      </trkpt>
      <trkpt lat="48.84771" lon="1.92171">
        <ele>86.800003051758</ele>
        <time>2016-06-12T07:12:20.000Z</time>
      </trkpt>
      <trkpt lat="48.84771" lon="1.92156">
        <ele>87</ele>
        <time>2016-06-12T07:12:27.000Z</time>
      </trkpt>
      <trkpt lat="48.8477" lon="1.92135">
        <ele>87.400001525879</ele>
        <time>2016-06-12T07:12:36.000Z</time>
      </trkpt>
      <trkpt lat="48.84769" lon="1.92126">
        <ele>87.400001525879</ele>
        <time>2016-06-12T07:12:40.000Z</time>
      </trkpt>
      <trkpt lat="48.84769" lon="1.92121">
        <ele>87.400001525879</ele>
        <time>2016-06-12T07:12:42.000Z</time>
      </trkpt>
      <trkpt lat="48.84769" lon="1.92106">
        <ele>87.599998474121</ele>
        <time>2016-06-12T07:12:49.000Z</time>
      </trkpt>
      <trkpt lat="48.84769" lon="1.92104">
        <ele>87.599998474121</ele>
        <time>2016-06-12T07:12:50.000Z</time>
      </trkpt>
      <trkpt lat="48.84768" lon="1.92099">
        <ele>87.800003051758</ele>
        <time>2016-06-12T07:12:53.000Z</time>
      </trkpt>
      <trkpt lat="48.84767" lon="1.92097">
        <ele>87.800003051758</ele>
        <time>2016-06-12T07:12:54.000Z</time>
      </trkpt>
      <trkpt lat="48.84769" lon="1.92086">
        <ele>87.800003051758</ele>
        <time>2016-06-12T07:12:59.000Z</time>
      </trkpt>
      <trkpt lat="48.84768" lon="1.9208">
        <ele>88</ele>
        <time>2016-06-12T07:13:02.000Z</time>
      </trkpt>
      <trkpt lat="48.84765" lon="1.92075">
        <ele>88</ele>
        <time>2016-06-12T07:13:04.000Z</time>
      </trkpt>
      <trkpt lat="48.84764" lon="1.92072">
        <ele>88.199996948242</ele>
        <time>2016-06-12T07:13:05.000Z</time>
      </trkpt>
      <trkpt lat="48.84763" lon="1.92064">
        <ele>88.199996948242</ele>
        <time>2016-06-12T07:13:09.000Z</time>
      </trkpt>
      <trkpt lat="48.84761" lon="1.92054">
        <ele>88.199996948242</ele>
        <time>2016-06-12T07:13:13.000Z</time>
      </trkpt>
      <trkpt lat="48.84759" lon="1.92039">
        <ele>88.400001525879</ele>
        <time>2016-06-12T07:13:19.000Z</time>
      </trkpt>
      <trkpt lat="48.84759" lon="1.92038">
        <ele>88.400001525879</ele>
        <time>2016-06-12T07:13:20.000Z</time>
      </trkpt>
      <trkpt lat="48.84759" lon="1.92037">
        <ele>88.400001525879</ele>
        <time>2016-06-12T07:13:21.000Z</time>
      </trkpt>
      <trkpt lat="48.84759" lon="1.92035">
        <ele>88.400001525879</ele>
        <time>2016-06-12T07:13:22.000Z</time>
      </trkpt>
      <trkpt lat="48.8476" lon="1.92022">
        <ele>88.400001525879</ele>
        <time>2016-06-12T07:13:28.000Z</time>
      </trkpt>
      <trkpt lat="48.8476" lon="1.9202">
        <ele>88.199996948242</ele>
        <time>2016-06-12T07:13:29.000Z</time>
      </trkpt>
      <trkpt lat="48.8476" lon="1.92014">
        <ele>88.199996948242</ele>
        <time>2016-06-12T07:13:33.000Z</time>
      </trkpt>
      <trkpt lat="48.8476" lon="1.92007">
        <ele>88.199996948242</ele>
        <time>2016-06-12T07:13:37.000Z</time>
      </trkpt>
      <trkpt lat="48.8476" lon="1.92005">
        <ele>88.199996948242</ele>
        <time>2016-06-12T07:13:38.000Z</time>
      </trkpt>
      <trkpt lat="48.8476" lon="1.92001">
        <ele>88.199996948242</ele>
        <time>2016-06-12T07:13:41.000Z</time>
      </trkpt>
      <trkpt lat="48.8476" lon="1.91998">
        <ele>88.199996948242</ele>
        <time>2016-06-12T07:13:42.000Z</time>
      </trkpt>
      <trkpt lat="48.8476" lon="1.91997">
        <ele>88.199996948242</ele>
        <time>2016-06-12T07:13:43.000Z</time>
      </trkpt>
      <trkpt lat="48.84761" lon="1.91989">
        <ele>88.199996948242</ele>
        <time>2016-06-12T07:13:47.000Z</time>
      </trkpt>
      <trkpt lat="48.84763" lon="1.91984">
        <ele>88.400001525879</ele>
        <time>2016-06-12T07:13:50.000Z</time>
      </trkpt>
      <trkpt lat="48.84763" lon="1.91982">
        <ele>88.400001525879</ele>
        <time>2016-06-12T07:13:51.000Z</time>
      </trkpt>
      <trkpt lat="48.84764" lon="1.9198">
        <ele>88.400001525879</ele>
        <time>2016-06-12T07:13:52.000Z</time>
      </trkpt>
      <trkpt lat="48.84765" lon="1.91971">
        <ele>88.400001525879</ele>
        <time>2016-06-12T07:13:57.000Z</time>
      </trkpt>
      <trkpt lat="48.84766" lon="1.91959">
        <ele>88.599998474121</ele>
        <time>2016-06-12T07:14:02.000Z</time>
      </trkpt>
      <trkpt lat="48.84766" lon="1.91955">
        <ele>88.599998474121</ele>
        <time>2016-06-12T07:14:04.000Z</time>
      </trkpt>
      <trkpt lat="48.84765" lon="1.91948">
        <ele>88.599998474121</ele>
        <time>2016-06-12T07:14:07.000Z</time>
      </trkpt>
      <trkpt lat="48.84764" lon="1.91944">
        <ele>88.800003051758</ele>
        <time>2016-06-12T07:14:09.000Z</time>
      </trkpt>
      <trkpt lat="48.84764" lon="1.91939">
        <ele>88.800003051758</ele>
        <time>2016-06-12T07:14:11.000Z</time>
      </trkpt>
      <trkpt lat="48.84764" lon="1.91937">
        <ele>88.800003051758</ele>
        <time>2016-06-12T07:14:12.000Z</time>
      </trkpt>
      <trkpt lat="48.84765" lon="1.91929">
        <ele>89</ele>
        <time>2016-06-12T07:14:16.000Z</time>
      </trkpt>
      <trkpt lat="48.84765" lon="1.91927">
        <ele>89</ele>
        <time>2016-06-12T07:14:17.000Z</time>
      </trkpt>
      <trkpt lat="48.84765" lon="1.91925">
        <ele>89</ele>
        <time>2016-06-12T07:14:18.000Z</time>
      </trkpt>
      <trkpt lat="48.84763" lon="1.91917">
        <ele>89</ele>
        <time>2016-06-12T07:14:21.000Z</time>
      </trkpt>
      <trkpt lat="48.84763" lon="1.91908">
        <ele>89.199996948242</ele>
        <time>2016-06-12T07:14:25.000Z</time>
      </trkpt>
      <trkpt lat="48.84763" lon="1.91907">
        <ele>89.199996948242</ele>
        <time>2016-06-12T07:14:26.000Z</time>
      </trkpt>
      <trkpt lat="48.84763" lon="1.91901">
        <ele>89</ele>
        <time>2016-06-12T07:14:29.000Z</time>
      </trkpt>
      <trkpt lat="48.84764" lon="1.91896">
        <ele>89</ele>
        <time>2016-06-12T07:14:32.000Z</time>
      </trkpt>
      <trkpt lat="48.84764" lon="1.91894">
        <ele>89</ele>
        <time>2016-06-12T07:14:33.000Z</time>
      </trkpt>
      <trkpt lat="48.84763" lon="1.91886">
        <ele>88.800003051758</ele>
        <time>2016-06-12T07:14:37.000Z</time>
      </trkpt>
      <trkpt lat="48.84763" lon="1.91883">
        <ele>88.800003051758</ele>
        <time>2016-06-12T07:14:38.000Z</time>
      </trkpt>
      <trkpt lat="48.84762" lon="1.91873">
        <ele>88.800003051758</ele>
        <time>2016-06-12T07:14:43.000Z</time>
      </trkpt>
      <trkpt lat="48.84763" lon="1.91871">
        <ele>88.599998474121</ele>
        <time>2016-06-12T07:14:44.000Z</time>
      </trkpt>
      <trkpt lat="48.84766" lon="1.91865">
        <ele>88.599998474121</ele>
        <time>2016-06-12T07:14:49.000Z</time>
      </trkpt>
      <trkpt lat="48.84768" lon="1.91865">
        <ele>88.599998474121</ele>
        <time>2016-06-12T07:14:52.000Z</time>
      </trkpt>
      <trkpt lat="48.84769" lon="1.91864">
        <ele>88.599998474121</ele>
        <time>2016-06-12T07:14:54.000Z</time>
      </trkpt>
      <trkpt lat="48.8477" lon="1.91862">
        <ele>88.400001525879</ele>
        <time>2016-06-12T07:14:55.000Z</time>
      </trkpt>
      <trkpt lat="48.84777" lon="1.91853">
        <ele>88</ele>
        <time>2016-06-12T07:15:03.000Z</time>
      </trkpt>
      <trkpt lat="48.84781" lon="1.91846">
        <ele>87.800003051758</ele>
        <time>2016-06-12T07:15:11.000Z</time>
      </trkpt>
      <trkpt lat="48.84774" lon="1.91816">
        <ele>87.599998474121</ele>
        <time>2016-06-12T07:17:16.000Z</time>
      </trkpt>
      <trkpt lat="48.84776" lon="1.91811">
        <ele>87.199996948242</ele>
        <time>2016-06-12T07:17:19.000Z</time>
      </trkpt>
      <trkpt lat="48.84776" lon="1.91809">
        <ele>87</ele>
        <time>2016-06-12T07:17:21.000Z</time>
      </trkpt>
      <trkpt lat="48.84779" lon="1.91805">
        <ele>86.800003051758</ele>
        <time>2016-06-12T07:17:25.000Z</time>
      </trkpt>
      <trkpt lat="48.8478" lon="1.91805">
        <ele>86.599998474121</ele>
        <time>2016-06-12T07:17:26.000Z</time>
      </trkpt>
      <trkpt lat="48.84784" lon="1.91798">
        <ele>86</ele>
        <time>2016-06-12T07:17:32.000Z</time>
      </trkpt>
      <trkpt lat="48.84789" lon="1.91789">
        <ele>85.400001525879</ele>
        <time>2016-06-12T07:17:39.000Z</time>
      </trkpt>
      <trkpt lat="48.84791" lon="1.91787">
        <ele>85.199996948242</ele>
        <time>2016-06-12T07:17:41.000Z</time>
      </trkpt>
      <trkpt lat="48.84794" lon="1.9178">
        <ele>84.599998474121</ele>
        <time>2016-06-12T07:17:46.000Z</time>
      </trkpt>
      <trkpt lat="48.84795" lon="1.91777">
        <ele>84.400001525879</ele>
        <time>2016-06-12T07:17:48.000Z</time>
      </trkpt>
      <trkpt lat="48.84796" lon="1.91771">
        <ele>84</ele>
        <time>2016-06-12T07:17:52.000Z</time>
      </trkpt>
      <trkpt lat="48.84797" lon="1.9177">
        <ele>84</ele>
        <time>2016-06-12T07:17:53.000Z</time>
      </trkpt>
      <trkpt lat="48.84798" lon="1.91765">
        <ele>83.599998474121</ele>
        <time>2016-06-12T07:17:57.000Z</time>
      </trkpt>
      <trkpt lat="48.84798" lon="1.91764">
        <ele>83.599998474121</ele>
        <time>2016-06-12T07:17:58.000Z</time>
      </trkpt>
      <trkpt lat="48.848" lon="1.91756">
        <ele>83.599998474121</ele>
        <time>2016-06-12T07:18:03.000Z</time>
      </trkpt>
      <trkpt lat="48.848" lon="1.91749">
        <ele>83.400001525879</ele>
        <time>2016-06-12T07:18:07.000Z</time>
      </trkpt>
      <trkpt lat="48.84799" lon="1.91741">
        <ele>83.400001525879</ele>
        <time>2016-06-12T07:18:12.000Z</time>
      </trkpt>
      <trkpt lat="48.848" lon="1.9173">
        <ele>83.199996948242</ele>
        <time>2016-06-12T07:18:18.000Z</time>
      </trkpt>
      <trkpt lat="48.848" lon="1.91722">
        <ele>83.199996948242</ele>
        <time>2016-06-12T07:18:22.000Z</time>
      </trkpt>
      <trkpt lat="48.84801" lon="1.91718">
        <ele>83</ele>
        <time>2016-06-12T07:18:24.000Z</time>
      </trkpt>
      <trkpt lat="48.84804" lon="1.91709">
        <ele>82.800003051758</ele>
        <time>2016-06-12T07:18:29.000Z</time>
      </trkpt>
      <trkpt lat="48.84804" lon="1.91706">
        <ele>82.800003051758</ele>
        <time>2016-06-12T07:18:31.000Z</time>
      </trkpt>
      <trkpt lat="48.84808" lon="1.91699">
        <ele>82.599998474121</ele>
        <time>2016-06-12T07:18:35.000Z</time>
      </trkpt>
      <trkpt lat="48.84813" lon="1.91692">
        <ele>82.400001525879</ele>
        <time>2016-06-12T07:18:40.000Z</time>
      </trkpt>
      <trkpt lat="48.84816" lon="1.91688">
        <ele>82</ele>
        <time>2016-06-12T07:18:44.000Z</time>
      </trkpt>
      <trkpt lat="48.84816" lon="1.91686">
        <ele>82</ele>
        <time>2016-06-12T07:18:46.000Z</time>
      </trkpt>
      <trkpt lat="48.84816" lon="1.91686">
        <ele>82</ele>
        <time>2016-06-12T07:18:48.000Z</time>
      </trkpt>
      <trkpt lat="48.84807" lon="1.91696">
        <ele>82.599998474121</ele>
        <time>2016-06-12T07:20:14.000Z</time>
      </trkpt>
      <trkpt lat="48.84806" lon="1.917">
        <ele>82.800003051758</ele>
        <time>2016-06-12T07:20:15.000Z</time>
      </trkpt>
      <trkpt lat="48.84804" lon="1.91708">
        <ele>82.800003051758</ele>
        <time>2016-06-12T07:20:18.000Z</time>
      </trkpt>
      <trkpt lat="48.84803" lon="1.91711">
        <ele>83</ele>
        <time>2016-06-12T07:20:19.000Z</time>
      </trkpt>
      <trkpt lat="48.84802" lon="1.91723">
        <ele>83</ele>
        <time>2016-06-12T07:20:24.000Z</time>
      </trkpt>
      <trkpt lat="48.84802" lon="1.91726">
        <ele>83.199996948242</ele>
        <time>2016-06-12T07:20:28.000Z</time>
      </trkpt>
      <trkpt lat="48.84802" lon="1.91725">
        <ele>83.199996948242</ele>
        <time>2016-06-12T07:20:29.000Z</time>
      </trkpt>
      <trkpt lat="48.84802" lon="1.91725">
        <ele>83</ele>
        <time>2016-06-12T07:20:30.000Z</time>
      </trkpt>
      <trkpt lat="48.84805" lon="1.91749">
        <ele>83.400001525879</ele>
        <time>2016-06-12T07:20:46.000Z</time>
      </trkpt>
      <trkpt lat="48.84804" lon="1.91753">
        <ele>83.400001525879</ele>
        <time>2016-06-12T07:20:48.000Z</time>
      </trkpt>
      <trkpt lat="48.84801" lon="1.91764">
        <ele>83.599998474121</ele>
        <time>2016-06-12T07:20:54.000Z</time>
      </trkpt>
      <trkpt lat="48.84799" lon="1.91772">
        <ele>84</ele>
        <time>2016-06-12T07:20:59.000Z</time>
      </trkpt>
      <trkpt lat="48.84798" lon="1.91774">
        <ele>84</ele>
        <time>2016-06-12T07:21:00.000Z</time>
      </trkpt>
      <trkpt lat="48.84796" lon="1.91781">
        <ele>84.599998474121</ele>
        <time>2016-06-12T07:21:05.000Z</time>
      </trkpt>
      <trkpt lat="48.84795" lon="1.91782">
        <ele>84.599998474121</ele>
        <time>2016-06-12T07:21:06.000Z</time>
      </trkpt>
      <trkpt lat="48.84791" lon="1.9179">
        <ele>85.199996948242</ele>
        <time>2016-06-12T07:21:11.000Z</time>
      </trkpt>
      <trkpt lat="48.84791" lon="1.91791">
        <ele>85.400001525879</ele>
        <time>2016-06-12T07:21:12.000Z</time>
      </trkpt>
      <trkpt lat="48.8479" lon="1.91794">
        <ele>85.599998474121</ele>
        <time>2016-06-12T07:21:15.000Z</time>
      </trkpt>
      <trkpt lat="48.84789" lon="1.91797">
        <ele>85.800003051758</ele>
        <time>2016-06-12T07:21:17.000Z</time>
      </trkpt>
      <trkpt lat="48.84787" lon="1.918">
        <ele>86</ele>
        <time>2016-06-12T07:21:19.000Z</time>
      </trkpt>
      <trkpt lat="48.84786" lon="1.91806">
        <ele>86.400001525879</ele>
        <time>2016-06-12T07:21:23.000Z</time>
      </trkpt>
      <trkpt lat="48.84783" lon="1.91815">
        <ele>87</ele>
        <time>2016-06-12T07:21:28.000Z</time>
      </trkpt>
      <trkpt lat="48.84783" lon="1.91816">
        <ele>87</ele>
        <time>2016-06-12T07:21:29.000Z</time>
      </trkpt>
      <trkpt lat="48.84782" lon="1.91821">
        <ele>87.199996948242</ele>
        <time>2016-06-12T07:21:31.000Z</time>
      </trkpt>
      <trkpt lat="48.84781" lon="1.91828">
        <ele>87.599998474121</ele>
        <time>2016-06-12T07:21:35.000Z</time>
      </trkpt>
      <trkpt lat="48.84781" lon="1.9183">
        <ele>87.599998474121</ele>
        <time>2016-06-12T07:21:36.000Z</time>
      </trkpt>
      <trkpt lat="48.84781" lon="1.91832">
        <ele>87.599998474121</ele>
        <time>2016-06-12T07:21:37.000Z</time>
      </trkpt>
      <trkpt lat="48.84781" lon="1.91834">
        <ele>87.599998474121</ele>
        <time>2016-06-12T07:21:40.000Z</time>
      </trkpt>
      <trkpt lat="48.84784" lon="1.91797">
        <ele>86</ele>
        <time>2016-06-12T07:29:20.000Z</time>
      </trkpt>
      <trkpt lat="48.84786" lon="1.91792">
        <ele>85.599998474121</ele>
        <time>2016-06-12T07:29:24.000Z</time>
      </trkpt>
      <trkpt lat="48.84787" lon="1.91791">
        <ele>85.599998474121</ele>
        <time>2016-06-12T07:29:25.000Z</time>
      </trkpt>
      <trkpt lat="48.84788" lon="1.91789">
        <ele>85.400001525879</ele>
        <time>2016-06-12T07:29:27.000Z</time>
      </trkpt>
      <trkpt lat="48.8479" lon="1.91784">
        <ele>85</ele>
        <time>2016-06-12T07:29:30.000Z</time>
      </trkpt>
      <trkpt lat="48.84794" lon="1.91772">
        <ele>84.199996948242</ele>
        <time>2016-06-12T07:29:37.000Z</time>
      </trkpt>
      <trkpt lat="48.84795" lon="1.9177">
        <ele>84</ele>
        <time>2016-06-12T07:29:38.000Z</time>
      </trkpt>
      <trkpt lat="48.84796" lon="1.91761">
        <ele>83.599998474121</ele>
        <time>2016-06-12T07:29:43.000Z</time>
      </trkpt>
      <trkpt lat="48.84796" lon="1.91756">
        <ele>83.599998474121</ele>
        <time>2016-06-12T07:29:46.000Z</time>
      </trkpt>
      <trkpt lat="48.84797" lon="1.91752">
        <ele>83.599998474121</ele>
        <time>2016-06-12T07:29:49.000Z</time>
      </trkpt>
      <trkpt lat="48.84796" lon="1.9175">
        <ele>83.599998474121</ele>
        <time>2016-06-12T07:29:51.000Z</time>
      </trkpt>
      <trkpt lat="48.84796" lon="1.91745">
        <ele>83.599998474121</ele>
        <time>2016-06-12T07:29:53.000Z</time>
      </trkpt>
      <trkpt lat="48.84794" lon="1.91736">
        <ele>83.400001525879</ele>
        <time>2016-06-12T07:29:58.000Z</time>
      </trkpt>
      <trkpt lat="48.84794" lon="1.91733">
        <ele>83.400001525879</ele>
        <time>2016-06-12T07:30:00.000Z</time>
      </trkpt>
      <trkpt lat="48.84794" lon="1.91732">
        <ele>83.400001525879</ele>
        <time>2016-06-12T07:30:02.000Z</time>
      </trkpt>
      <trkpt lat="48.84806" lon="1.91696">
        <ele>82.599998474121</ele>
        <time>2016-06-12T07:31:15.000Z</time>
      </trkpt>
      <trkpt lat="48.84807" lon="1.91695">
        <ele>82.599998474121</ele>
        <time>2016-06-12T07:31:16.000Z</time>
      </trkpt>
      <trkpt lat="48.84814" lon="1.91686">
        <ele>82</ele>
        <time>2016-06-12T07:31:23.000Z</time>
      </trkpt>
      <trkpt lat="48.84822" lon="1.9168">
        <ele>81.400001525879</ele>
        <time>2016-06-12T07:31:31.000Z</time>
      </trkpt>
      <trkpt lat="48.8483" lon="1.91679">
        <ele>81</ele>
        <time>2016-06-12T07:31:38.000Z</time>
      </trkpt>
      <trkpt lat="48.84837" lon="1.9168">
        <ele>80.800003051758</ele>
        <time>2016-06-12T07:31:45.000Z</time>
      </trkpt>
      <trkpt lat="48.84844" lon="1.91682">
        <ele>80.599998474121</ele>
        <time>2016-06-12T07:31:51.000Z</time>
      </trkpt>
      <trkpt lat="48.84852" lon="1.91684">
        <ele>80.199996948242</ele>
        <time>2016-06-12T07:31:58.000Z</time>
      </trkpt>
      <trkpt lat="48.84863" lon="1.91684">
        <ele>79.400001525879</ele>
        <time>2016-06-12T07:32:06.000Z</time>
      </trkpt>
      <trkpt lat="48.84872" lon="1.91686">
        <ele>78.599998474121</ele>
        <time>2016-06-12T07:32:12.000Z</time>
      </trkpt>
      <trkpt lat="48.84881" lon="1.91689">
        <ele>78</ele>
        <time>2016-06-12T07:32:19.000Z</time>
      </trkpt>
      <trkpt lat="48.84891" lon="1.9169">
        <ele>77.199996948242</ele>
        <time>2016-06-12T07:32:26.000Z</time>
      </trkpt>
      <trkpt lat="48.849" lon="1.91692">
        <ele>76.800003051758</ele>
        <time>2016-06-12T07:32:34.000Z</time>
      </trkpt>
      <trkpt lat="48.84909" lon="1.91694">
        <ele>76.199996948242</ele>
        <time>2016-06-12T07:32:40.000Z</time>
      </trkpt>
      <trkpt lat="48.84919" lon="1.91694">
        <ele>75.599998474121</ele>
        <time>2016-06-12T07:32:47.000Z</time>
      </trkpt>
      <trkpt lat="48.84928" lon="1.91697">
        <ele>75.199996948242</ele>
        <time>2016-06-12T07:32:53.000Z</time>
      </trkpt>
      <trkpt lat="48.84938" lon="1.91697">
        <ele>74.599998474121</ele>
        <time>2016-06-12T07:33:00.000Z</time>
      </trkpt>
      <trkpt lat="48.84952" lon="1.91698">
        <ele>73.400001525879</ele>
        <time>2016-06-12T07:33:09.000Z</time>
      </trkpt>
      <trkpt lat="48.8496" lon="1.91706">
        <ele>72.800003051758</ele>
        <time>2016-06-12T07:33:17.000Z</time>
      </trkpt>
      <trkpt lat="48.8497" lon="1.91716">
        <ele>72.199996948242</ele>
        <time>2016-06-12T07:33:26.000Z</time>
      </trkpt>
      <trkpt lat="48.84979" lon="1.91725">
        <ele>71.400001525879</ele>
        <time>2016-06-12T07:33:34.000Z</time>
      </trkpt>
      <trkpt lat="48.84989" lon="1.91734">
        <ele>70.800003051758</ele>
        <time>2016-06-12T07:33:43.000Z</time>
      </trkpt>
      <trkpt lat="48.84999" lon="1.9174">
        <ele>70</ele>
        <time>2016-06-12T07:33:51.000Z</time>
      </trkpt>
      <trkpt lat="48.85004" lon="1.91743">
        <ele>69.599998474121</ele>
        <time>2016-06-12T07:33:56.000Z</time>
      </trkpt>
      <trkpt lat="48.85012" lon="1.91748">
        <ele>69</ele>
        <time>2016-06-12T07:34:02.000Z</time>
      </trkpt>
      <trkpt lat="48.85021" lon="1.91754">
        <ele>68.199996948242</ele>
        <time>2016-06-12T07:34:09.000Z</time>
      </trkpt>
      <trkpt lat="48.85032" lon="1.91763">
        <ele>68</ele>
        <time>2016-06-12T07:34:18.000Z</time>
      </trkpt>
      <trkpt lat="48.8504" lon="1.91766">
        <ele>68</ele>
        <time>2016-06-12T07:34:24.000Z</time>
      </trkpt>
      <trkpt lat="48.85046" lon="1.91768">
        <ele>68</ele>
        <time>2016-06-12T07:34:29.000Z</time>
      </trkpt>
      <trkpt lat="48.85058" lon="1.91771">
        <ele>68</ele>
        <time>2016-06-12T07:34:38.000Z</time>
      </trkpt>
      <trkpt lat="48.85068" lon="1.91769">
        <ele>67.800003051758</ele>
        <time>2016-06-12T07:34:46.000Z</time>
      </trkpt>
      <trkpt lat="48.85081" lon="1.91767">
        <ele>67.599998474121</ele>
        <time>2016-06-12T07:34:56.000Z</time>
      </trkpt>
      <trkpt lat="48.8509" lon="1.91765">
        <ele>67.400001525879</ele>
        <time>2016-06-12T07:35:03.000Z</time>
      </trkpt>
      <trkpt lat="48.85096" lon="1.91763">
        <ele>67.400001525879</ele>
        <time>2016-06-12T07:35:09.000Z</time>
      </trkpt>
      <trkpt lat="48.85105" lon="1.9176">
        <ele>67.199996948242</ele>
        <time>2016-06-12T07:35:16.000Z</time>
      </trkpt>
      <trkpt lat="48.85111" lon="1.91758">
        <ele>67.800003051758</ele>
        <time>2016-06-12T07:35:21.000Z</time>
      </trkpt>
      <trkpt lat="48.85111" lon="1.91757">
        <ele>67.800003051758</ele>
        <time>2016-06-12T07:35:22.000Z</time>
      </trkpt>
      <trkpt lat="48.85114" lon="1.91756">
        <ele>68.199996948242</ele>
        <time>2016-06-12T07:35:25.000Z</time>
      </trkpt>
      <trkpt lat="48.85119" lon="1.91756">
        <ele>68.800003051758</ele>
        <time>2016-06-12T07:35:28.000Z</time>
      </trkpt>
      <trkpt lat="48.85132" lon="1.91762">
        <ele>70.199996948242</ele>
        <time>2016-06-12T07:35:36.000Z</time>
      </trkpt>
      <trkpt lat="48.85142" lon="1.91768">
        <ele>71.199996948242</ele>
        <time>2016-06-12T07:35:44.000Z</time>
      </trkpt>
      <trkpt lat="48.85151" lon="1.91774">
        <ele>72.400001525879</ele>
        <time>2016-06-12T07:35:52.000Z</time>
      </trkpt>
      <trkpt lat="48.8516" lon="1.91782">
        <ele>73.400001525879</ele>
        <time>2016-06-12T07:36:00.000Z</time>
      </trkpt>
      <trkpt lat="48.85168" lon="1.91787">
        <ele>74.400001525879</ele>
        <time>2016-06-12T07:36:07.000Z</time>
      </trkpt>
      <trkpt lat="48.85178" lon="1.91792">
        <ele>75.199996948242</ele>
        <time>2016-06-12T07:36:15.000Z</time>
      </trkpt>
      <trkpt lat="48.85184" lon="1.91797">
        <ele>76</ele>
        <time>2016-06-12T07:36:21.000Z</time>
      </trkpt>
      <trkpt lat="48.85193" lon="1.918">
        <ele>77</ele>
        <time>2016-06-12T07:36:28.000Z</time>
      </trkpt>
      <trkpt lat="48.85199" lon="1.91799">
        <ele>77.599998474121</ele>
        <time>2016-06-12T07:36:34.000Z</time>
      </trkpt>
      <trkpt lat="48.85203" lon="1.91797">
        <ele>77.800003051758</ele>
        <time>2016-06-12T07:36:39.000Z</time>
      </trkpt>
      <trkpt lat="48.85204" lon="1.91796">
        <ele>78</ele>
        <time>2016-06-12T07:36:40.000Z</time>
      </trkpt>
      <trkpt lat="48.85209" lon="1.91793">
        <ele>78.199996948242</ele>
        <time>2016-06-12T07:36:45.000Z</time>
      </trkpt>
      <trkpt lat="48.8521" lon="1.91792">
        <ele>78.400001525879</ele>
        <time>2016-06-12T07:36:46.000Z</time>
      </trkpt>
      <trkpt lat="48.8522" lon="1.91786">
        <ele>79</ele>
        <time>2016-06-12T07:36:54.000Z</time>
      </trkpt>
      <trkpt lat="48.85226" lon="1.9178">
        <ele>79.400001525879</ele>
        <time>2016-06-12T07:37:00.000Z</time>
      </trkpt>
      <trkpt lat="48.8523" lon="1.91776">
        <ele>79.800003051758</ele>
        <time>2016-06-12T07:37:04.000Z</time>
      </trkpt>
      <trkpt lat="48.85233" lon="1.91774">
        <ele>80.199996948242</ele>
        <time>2016-06-12T07:37:06.000Z</time>
      </trkpt>
      <trkpt lat="48.85242" lon="1.91766">
        <ele>81.400001525879</ele>
        <time>2016-06-12T07:37:14.000Z</time>
      </trkpt>
      <trkpt lat="48.85247" lon="1.91758">
        <ele>82.199996948242</ele>
        <time>2016-06-12T07:37:19.000Z</time>
      </trkpt>
      <trkpt lat="48.85249" lon="1.91755">
        <ele>82.400001525879</ele>
        <time>2016-06-12T07:37:21.000Z</time>
      </trkpt>
      <trkpt lat="48.85254" lon="1.91741">
        <ele>83.199996948242</ele>
        <time>2016-06-12T07:37:28.000Z</time>
      </trkpt>
      <trkpt lat="48.8526" lon="1.91725">
        <ele>83.599998474121</ele>
        <time>2016-06-12T07:37:37.000Z</time>
      </trkpt>
      <trkpt lat="48.85264" lon="1.91723">
        <ele>84</ele>
        <time>2016-06-12T07:37:40.000Z</time>
      </trkpt>
      <trkpt lat="48.85266" lon="1.91724">
        <ele>84.400001525879</ele>
        <time>2016-06-12T07:37:42.000Z</time>
      </trkpt>
      <trkpt lat="48.85267" lon="1.91728">
        <ele>84.599998474121</ele>
        <time>2016-06-12T07:37:45.000Z</time>
      </trkpt>
      <trkpt lat="48.85266" lon="1.91732">
        <ele>84.599998474121</ele>
        <time>2016-06-12T07:37:48.000Z</time>
      </trkpt>
      <trkpt lat="48.85266" lon="1.91739">
        <ele>84.800003051758</ele>
        <time>2016-06-12T07:37:53.000Z</time>
      </trkpt>
      <trkpt lat="48.85266" lon="1.91742">
        <ele>85</ele>
        <time>2016-06-12T07:37:56.000Z</time>
      </trkpt>
      <trkpt lat="48.85266" lon="1.91744">
        <ele>85</ele>
        <time>2016-06-12T07:37:58.000Z</time>
      </trkpt>
      <trkpt lat="48.85266" lon="1.91747">
        <ele>85</ele>
        <time>2016-06-12T07:38:00.000Z</time>
      </trkpt>
      <trkpt lat="48.85266" lon="1.91751">
        <ele>85</ele>
        <time>2016-06-12T07:38:02.000Z</time>
      </trkpt>
      <trkpt lat="48.85266" lon="1.91761">
        <ele>85.199996948242</ele>
        <time>2016-06-12T07:38:08.000Z</time>
      </trkpt>
      <trkpt lat="48.85272" lon="1.91773">
        <ele>86.199996948242</ele>
        <time>2016-06-12T07:38:16.000Z</time>
      </trkpt>
      <trkpt lat="48.85275" lon="1.91777">
        <ele>86.800003051758</ele>
        <time>2016-06-12T07:38:19.000Z</time>
      </trkpt>
      <trkpt lat="48.85277" lon="1.9178">
        <ele>87.199996948242</ele>
        <time>2016-06-12T07:38:21.000Z</time>
      </trkpt>
      <trkpt lat="48.8528" lon="1.91783">
        <ele>88</ele>
        <time>2016-06-12T07:38:24.000Z</time>
      </trkpt>
      <trkpt lat="48.85282" lon="1.91786">
        <ele>88.199996948242</ele>
        <time>2016-06-12T07:38:26.000Z</time>
      </trkpt>
      <trkpt lat="48.85286" lon="1.9179">
        <ele>89</ele>
        <time>2016-06-12T07:38:30.000Z</time>
      </trkpt>
      <trkpt lat="48.85289" lon="1.91792">
        <ele>89.599998474121</ele>
        <time>2016-06-12T07:38:33.000Z</time>
      </trkpt>
      <trkpt lat="48.85292" lon="1.91795">
        <ele>90.199996948242</ele>
        <time>2016-06-12T07:38:36.000Z</time>
      </trkpt>
      <trkpt lat="48.85298" lon="1.91801">
        <ele>91.199996948242</ele>
        <time>2016-06-12T07:38:41.000Z</time>
      </trkpt>
      <trkpt lat="48.853" lon="1.91803">
        <ele>91.800003051758</ele>
        <time>2016-06-12T07:38:44.000Z</time>
      </trkpt>
      <trkpt lat="48.85303" lon="1.91804">
        <ele>92.199996948242</ele>
        <time>2016-06-12T07:38:46.000Z</time>
      </trkpt>
      <trkpt lat="48.85304" lon="1.91805">
        <ele>92.599998474121</ele>
        <time>2016-06-12T07:38:48.000Z</time>
      </trkpt>
      <trkpt lat="48.85306" lon="1.91805">
        <ele>92.800003051758</ele>
        <time>2016-06-12T07:38:51.000Z</time>
      </trkpt>
      <trkpt lat="48.85307" lon="1.91805">
        <ele>93</ele>
        <time>2016-06-12T07:38:53.000Z</time>
      </trkpt>
      <trkpt lat="48.85309" lon="1.91806">
        <ele>93.400001525879</ele>
        <time>2016-06-12T07:38:55.000Z</time>
      </trkpt>
      <trkpt lat="48.85314" lon="1.91807">
        <ele>94.400001525879</ele>
        <time>2016-06-12T07:39:02.000Z</time>
      </trkpt>
      <trkpt lat="48.85318" lon="1.91808">
        <ele>95</ele>
        <time>2016-06-12T07:39:07.000Z</time>
      </trkpt>
      <trkpt lat="48.85321" lon="1.9181">
        <ele>95.400001525879</ele>
        <time>2016-06-12T07:39:12.000Z</time>
      </trkpt>
      <trkpt lat="48.85325" lon="1.91812">
        <ele>96.199996948242</ele>
        <time>2016-06-12T07:39:17.000Z</time>
      </trkpt>
      <trkpt lat="48.85329" lon="1.91814">
        <ele>97.199996948242</ele>
        <time>2016-06-12T07:39:23.000Z</time>
      </trkpt>
      <trkpt lat="48.85336" lon="1.91816">
        <ele>98.400001525879</ele>
        <time>2016-06-12T07:39:29.000Z</time>
      </trkpt>
      <trkpt lat="48.85338" lon="1.91816">
        <ele>98.599998474121</ele>
        <time>2016-06-12T07:39:30.000Z</time>
      </trkpt>
      <trkpt lat="48.85343" lon="1.91817">
        <ele>99.599998474121</ele>
        <time>2016-06-12T07:39:34.000Z</time>
      </trkpt>
      <trkpt lat="48.85347" lon="1.91817">
        <ele>100.19999694824</ele>
        <time>2016-06-12T07:39:37.000Z</time>
      </trkpt>
      <trkpt lat="48.85349" lon="1.91818">
        <ele>100.80000305176</ele>
        <time>2016-06-12T07:39:39.000Z</time>
      </trkpt>
      <trkpt lat="48.85352" lon="1.91819">
        <ele>101.19999694824</ele>
        <time>2016-06-12T07:39:41.000Z</time>
      </trkpt>
      <trkpt lat="48.85354" lon="1.91819">
        <ele>101.40000152588</ele>
        <time>2016-06-12T07:39:43.000Z</time>
      </trkpt>
      <trkpt lat="48.85357" lon="1.9182">
        <ele>102</ele>
        <time>2016-06-12T07:39:48.000Z</time>
      </trkpt>
      <trkpt lat="48.85385" lon="1.91832">
        <ele>103</ele>
        <time>2016-06-12T07:40:15.000Z</time>
      </trkpt>
      <trkpt lat="48.85389" lon="1.91834">
        <ele>103.19999694824</ele>
        <time>2016-06-12T07:40:18.000Z</time>
      </trkpt>
      <trkpt lat="48.85396" lon="1.91837">
        <ele>103.40000152588</ele>
        <time>2016-06-12T07:40:23.000Z</time>
      </trkpt>
      <trkpt lat="48.85401" lon="1.9184">
        <ele>103.59999847412</ele>
        <time>2016-06-12T07:40:28.000Z</time>
      </trkpt>
      <trkpt lat="48.85403" lon="1.9184">
        <ele>103.59999847412</ele>
        <time>2016-06-12T07:40:29.000Z</time>
      </trkpt>
      <trkpt lat="48.85408" lon="1.91842">
        <ele>103.80000305176</ele>
        <time>2016-06-12T07:40:33.000Z</time>
      </trkpt>
      <trkpt lat="48.85415" lon="1.91847">
        <ele>104.19999694824</ele>
        <time>2016-06-12T07:40:40.000Z</time>
      </trkpt>
      <trkpt lat="48.85417" lon="1.91847">
        <ele>104.19999694824</ele>
        <time>2016-06-12T07:40:42.000Z</time>
      </trkpt>
      <trkpt lat="48.85419" lon="1.91849">
        <ele>104.19999694824</ele>
        <time>2016-06-12T07:40:44.000Z</time>
      </trkpt>
      <trkpt lat="48.85424" lon="1.91851">
        <ele>104.40000152588</ele>
        <time>2016-06-12T07:40:49.000Z</time>
      </trkpt>
      <trkpt lat="48.85426" lon="1.91853">
        <ele>104.59999847412</ele>
        <time>2016-06-12T07:40:52.000Z</time>
      </trkpt>
      <trkpt lat="48.85429" lon="1.91855">
        <ele>104.59999847412</ele>
        <time>2016-06-12T07:40:55.000Z</time>
      </trkpt>
      <trkpt lat="48.85431" lon="1.91858">
        <ele>104.59999847412</ele>
        <time>2016-06-12T07:40:57.000Z</time>
      </trkpt>
      <trkpt lat="48.85434" lon="1.91861">
        <ele>104.80000305176</ele>
        <time>2016-06-12T07:41:00.000Z</time>
      </trkpt>
      <trkpt lat="48.85443" lon="1.91868">
        <ele>105.19999694824</ele>
        <time>2016-06-12T07:41:08.000Z</time>
      </trkpt>
      <trkpt lat="48.85449" lon="1.91872">
        <ele>105.40000152588</ele>
        <time>2016-06-12T07:41:13.000Z</time>
      </trkpt>
      <trkpt lat="48.85453" lon="1.91875">
        <ele>105.40000152588</ele>
        <time>2016-06-12T07:41:17.000Z</time>
      </trkpt>
      <trkpt lat="48.85454" lon="1.91876">
        <ele>105.59999847412</ele>
        <time>2016-06-12T07:41:19.000Z</time>
      </trkpt>
      <trkpt lat="48.85455" lon="1.91876">
        <ele>105.59999847412</ele>
        <time>2016-06-12T07:41:21.000Z</time>
      </trkpt>
      <trkpt lat="48.85468" lon="1.91887">
        <ele>106</ele>
        <time>2016-06-12T07:41:39.000Z</time>
      </trkpt>
      <trkpt lat="48.85469" lon="1.91888">
        <ele>106</ele>
        <time>2016-06-12T07:41:40.000Z</time>
      </trkpt>
      <trkpt lat="48.85484" lon="1.919">
        <ele>106.59999847412</ele>
        <time>2016-06-12T07:41:53.000Z</time>
      </trkpt>
      <trkpt lat="48.85488" lon="1.91902">
        <ele>106.80000305176</ele>
        <time>2016-06-12T07:41:58.000Z</time>
      </trkpt>
      <trkpt lat="48.85488" lon="1.91902">
        <ele>106.80000305176</ele>
        <time>2016-06-12T07:41:59.000Z</time>
      </trkpt>
      <trkpt lat="48.85508" lon="1.91915">
        <ele>107.59999847412</ele>
        <time>2016-06-12T07:42:42.000Z</time>
      </trkpt>
      <trkpt lat="48.85512" lon="1.91918">
        <ele>107.80000305176</ele>
        <time>2016-06-12T07:42:45.000Z</time>
      </trkpt>
      <trkpt lat="48.85527" lon="1.91927">
        <ele>108.40000152588</ele>
        <time>2016-06-12T07:42:57.000Z</time>
      </trkpt>
      <trkpt lat="48.85542" lon="1.91938">
        <ele>109</ele>
        <time>2016-06-12T07:43:09.000Z</time>
      </trkpt>
      <trkpt lat="48.85558" lon="1.91948">
        <ele>109.80000305176</ele>
        <time>2016-06-12T07:43:21.000Z</time>
      </trkpt>
      <trkpt lat="48.85572" lon="1.91956">
        <ele>110.40000152588</ele>
        <time>2016-06-12T07:43:32.000Z</time>
      </trkpt>
      <trkpt lat="48.85586" lon="1.91965">
        <ele>111</ele>
        <time>2016-06-12T07:43:43.000Z</time>
      </trkpt>
      <trkpt lat="48.85594" lon="1.91971">
        <ele>111.40000152588</ele>
        <time>2016-06-12T07:43:50.000Z</time>
      </trkpt>
      <trkpt lat="48.85597" lon="1.91973">
        <ele>111.40000152588</ele>
        <time>2016-06-12T07:43:52.000Z</time>
      </trkpt>
      <trkpt lat="48.85608" lon="1.91979">
        <ele>111.80000305176</ele>
        <time>2016-06-12T07:44:00.000Z</time>
      </trkpt>
      <trkpt lat="48.85623" lon="1.91989">
        <ele>112</ele>
        <time>2016-06-12T07:44:12.000Z</time>
      </trkpt>
      <trkpt lat="48.85635" lon="1.91995">
        <ele>112.19999694824</ele>
        <time>2016-06-12T07:44:21.000Z</time>
      </trkpt>
      <trkpt lat="48.85648" lon="1.92004">
        <ele>112.40000152588</ele>
        <time>2016-06-12T07:44:32.000Z</time>
      </trkpt>
      <trkpt lat="48.85661" lon="1.92013">
        <ele>112.59999847412</ele>
        <time>2016-06-12T07:44:43.000Z</time>
      </trkpt>
      <trkpt lat="48.85672" lon="1.92021">
        <ele>112.80000305176</ele>
        <time>2016-06-12T07:44:52.000Z</time>
      </trkpt>
      <trkpt lat="48.85684" lon="1.92031">
        <ele>113</ele>
        <time>2016-06-12T07:45:02.000Z</time>
      </trkpt>
      <trkpt lat="48.85693" lon="1.92039">
        <ele>113.19999694824</ele>
        <time>2016-06-12T07:45:10.000Z</time>
      </trkpt>
      <trkpt lat="48.857" lon="1.92044">
        <ele>113.40000152588</ele>
        <time>2016-06-12T07:45:15.000Z</time>
      </trkpt>
      <trkpt lat="48.85703" lon="1.92046">
        <ele>113.59999847412</ele>
        <time>2016-06-12T07:45:18.000Z</time>
      </trkpt>
      <trkpt lat="48.85706" lon="1.92048">
        <ele>113.59999847412</ele>
        <time>2016-06-12T07:45:20.000Z</time>
      </trkpt>
      <trkpt lat="48.8571" lon="1.92051">
        <ele>113.80000305176</ele>
        <time>2016-06-12T07:45:23.000Z</time>
      </trkpt>
      <trkpt lat="48.85714" lon="1.92055">
        <ele>113.80000305176</ele>
        <time>2016-06-12T07:45:27.000Z</time>
      </trkpt>
      <trkpt lat="48.85721" lon="1.92061">
        <ele>114</ele>
        <time>2016-06-12T07:45:33.000Z</time>
      </trkpt>
      <trkpt lat="48.85731" lon="1.92066">
        <ele>114.40000152588</ele>
        <time>2016-06-12T07:45:41.000Z</time>
      </trkpt>
      <trkpt lat="48.85737" lon="1.92073">
        <ele>114.59999847412</ele>
        <time>2016-06-12T07:45:48.000Z</time>
      </trkpt>
      <trkpt lat="48.85744" lon="1.92081">
        <ele>114.80000305176</ele>
        <time>2016-06-12T07:45:55.000Z</time>
      </trkpt>
      <trkpt lat="48.85744" lon="1.92082">
        <ele>114.80000305176</ele>
        <time>2016-06-12T07:45:57.000Z</time>
      </trkpt>
      <trkpt lat="48.85758" lon="1.92094">
        <ele>115</ele>
        <time>2016-06-12T07:46:10.000Z</time>
      </trkpt>
      <trkpt lat="48.85765" lon="1.92101">
        <ele>115.19999694824</ele>
        <time>2016-06-12T07:46:16.000Z</time>
      </trkpt>
      <trkpt lat="48.85771" lon="1.92106">
        <ele>115.40000152588</ele>
        <time>2016-06-12T07:46:21.000Z</time>
      </trkpt>
      <trkpt lat="48.85777" lon="1.92113">
        <ele>115.59999847412</ele>
        <time>2016-06-12T07:46:28.000Z</time>
      </trkpt>
      <trkpt lat="48.85783" lon="1.92118">
        <ele>115.59999847412</ele>
        <time>2016-06-12T07:46:33.000Z</time>
      </trkpt>
      <trkpt lat="48.8579" lon="1.92125">
        <ele>115.80000305176</ele>
        <time>2016-06-12T07:46:39.000Z</time>
      </trkpt>
      <trkpt lat="48.85798" lon="1.92132">
        <ele>116</ele>
        <time>2016-06-12T07:46:46.000Z</time>
      </trkpt>
      <trkpt lat="48.85808" lon="1.92142">
        <ele>116.19999694824</ele>
        <time>2016-06-12T07:46:55.000Z</time>
      </trkpt>
      <trkpt lat="48.85822" lon="1.92156">
        <ele>116.59999847412</ele>
        <time>2016-06-12T07:47:07.000Z</time>
      </trkpt>
      <trkpt lat="48.85833" lon="1.92168">
        <ele>116.80000305176</ele>
        <time>2016-06-12T07:47:17.000Z</time>
      </trkpt>
      <trkpt lat="48.85837" lon="1.92172">
        <ele>116.80000305176</ele>
        <time>2016-06-12T07:47:21.000Z</time>
      </trkpt>
      <trkpt lat="48.8584" lon="1.92175">
        <ele>116.80000305176</ele>
        <time>2016-06-12T07:47:24.000Z</time>
      </trkpt>
      <trkpt lat="48.85848" lon="1.92182">
        <ele>117</ele>
        <time>2016-06-12T07:47:32.000Z</time>
      </trkpt>
      <trkpt lat="48.85849" lon="1.92183">
        <ele>117</ele>
        <time>2016-06-12T07:47:33.000Z</time>
      </trkpt>
      <trkpt lat="48.85849" lon="1.92183">
        <ele>117</ele>
        <time>2016-06-12T07:47:34.000Z</time>
      </trkpt>
      <trkpt lat="48.85878" lon="1.92209">
        <ele>117</ele>
        <time>2016-06-12T07:50:01.000Z</time>
      </trkpt>
      <trkpt lat="48.8588" lon="1.92211">
        <ele>117</ele>
        <time>2016-06-12T07:50:03.000Z</time>
      </trkpt>
      <trkpt lat="48.85885" lon="1.92216">
        <ele>117</ele>
        <time>2016-06-12T07:50:10.000Z</time>
      </trkpt>
      <trkpt lat="48.85907" lon="1.92237">
        <ele>117</ele>
        <time>2016-06-12T07:51:12.000Z</time>
      </trkpt>
      <trkpt lat="48.8591" lon="1.9224">
        <ele>117</ele>
        <time>2016-06-12T07:51:15.000Z</time>
      </trkpt>
      <trkpt lat="48.85917" lon="1.92247">
        <ele>117</ele>
        <time>2016-06-12T07:51:22.000Z</time>
      </trkpt>
      <trkpt lat="48.85919" lon="1.92249">
        <ele>117.19999694824</ele>
        <time>2016-06-12T07:51:23.000Z</time>
      </trkpt>
      <trkpt lat="48.85923" lon="1.92254">
        <ele>117.19999694824</ele>
        <time>2016-06-12T07:51:26.000Z</time>
      </trkpt>
      <trkpt lat="48.85924" lon="1.92255">
        <ele>117.19999694824</ele>
        <time>2016-06-12T07:51:27.000Z</time>
      </trkpt>
      <trkpt lat="48.85929" lon="1.92261">
        <ele>117.19999694824</ele>
        <time>2016-06-12T07:51:32.000Z</time>
      </trkpt>
      <trkpt lat="48.85936" lon="1.92269">
        <ele>117.40000152588</ele>
        <time>2016-06-12T07:51:39.000Z</time>
      </trkpt>
      <trkpt lat="48.85948" lon="1.9228">
        <ele>117.59999847412</ele>
        <time>2016-06-12T07:51:48.000Z</time>
      </trkpt>
      <trkpt lat="48.85958" lon="1.92291">
        <ele>118</ele>
        <time>2016-06-12T07:51:57.000Z</time>
      </trkpt>
      <trkpt lat="48.85967" lon="1.92302">
        <ele>118.40000152588</ele>
        <time>2016-06-12T07:52:05.000Z</time>
      </trkpt>
      <trkpt lat="48.85977" lon="1.92312">
        <ele>118.80000305176</ele>
        <time>2016-06-12T07:52:13.000Z</time>
      </trkpt>
      <trkpt lat="48.85984" lon="1.92318">
        <ele>119</ele>
        <time>2016-06-12T07:52:20.000Z</time>
      </trkpt>
      <trkpt lat="48.85985" lon="1.9232">
        <ele>119</ele>
        <time>2016-06-12T07:52:21.000Z</time>
      </trkpt>
      <trkpt lat="48.85989" lon="1.92328">
        <ele>119.19999694824</ele>
        <time>2016-06-12T07:52:25.000Z</time>
      </trkpt>
      <trkpt lat="48.8599" lon="1.92328">
        <ele>119.19999694824</ele>
        <time>2016-06-12T07:52:26.000Z</time>
      </trkpt>
      <trkpt lat="48.85991" lon="1.92328">
        <ele>119.19999694824</ele>
        <time>2016-06-12T07:52:27.000Z</time>
      </trkpt>
      <trkpt lat="48.85995" lon="1.92329">
        <ele>119.40000152588</ele>
        <time>2016-06-12T07:52:30.000Z</time>
      </trkpt>
      <trkpt lat="48.85998" lon="1.92331">
        <ele>119.40000152588</ele>
        <time>2016-06-12T07:52:32.000Z</time>
      </trkpt>
      <trkpt lat="48.86003" lon="1.92334">
        <ele>119.59999847412</ele>
        <time>2016-06-12T07:52:35.000Z</time>
      </trkpt>
      <trkpt lat="48.86005" lon="1.92336">
        <ele>119.59999847412</ele>
        <time>2016-06-12T07:52:37.000Z</time>
      </trkpt>
      <trkpt lat="48.8601" lon="1.92341">
        <ele>119.59999847412</ele>
        <time>2016-06-12T07:52:41.000Z</time>
      </trkpt>
      <trkpt lat="48.86021" lon="1.92349">
        <ele>120</ele>
        <time>2016-06-12T07:52:50.000Z</time>
      </trkpt>
      <trkpt lat="48.86028" lon="1.92358">
        <ele>120</ele>
        <time>2016-06-12T07:52:57.000Z</time>
      </trkpt>
      <trkpt lat="48.86029" lon="1.92359">
        <ele>120</ele>
        <time>2016-06-12T07:52:58.000Z</time>
      </trkpt>
      <trkpt lat="48.86035" lon="1.92364">
        <ele>120</ele>
        <time>2016-06-12T07:53:03.000Z</time>
      </trkpt>
      <trkpt lat="48.86036" lon="1.92367">
        <ele>120</ele>
        <time>2016-06-12T07:53:05.000Z</time>
      </trkpt>
      <trkpt lat="48.86041" lon="1.92371">
        <ele>120</ele>
        <time>2016-06-12T07:53:10.000Z</time>
      </trkpt>
      <trkpt lat="48.86044" lon="1.92374">
        <ele>120</ele>
        <time>2016-06-12T07:53:12.000Z</time>
      </trkpt>
      <trkpt lat="48.86049" lon="1.92378">
        <ele>120</ele>
        <time>2016-06-12T07:53:16.000Z</time>
      </trkpt>
      <trkpt lat="48.86058" lon="1.92387">
        <ele>120</ele>
        <time>2016-06-12T07:53:24.000Z</time>
      </trkpt>
      <trkpt lat="48.86066" lon="1.92393">
        <ele>120</ele>
        <time>2016-06-12T07:53:30.000Z</time>
      </trkpt>
      <trkpt lat="48.86074" lon="1.92401">
        <ele>120</ele>
        <time>2016-06-12T07:53:38.000Z</time>
      </trkpt>
      <trkpt lat="48.86084" lon="1.92409">
        <ele>120</ele>
        <time>2016-06-12T07:53:45.000Z</time>
      </trkpt>
      <trkpt lat="48.86091" lon="1.92417">
        <ele>120.19999694824</ele>
        <time>2016-06-12T07:53:52.000Z</time>
      </trkpt>
      <trkpt lat="48.86102" lon="1.92428">
        <ele>120.19999694824</ele>
        <time>2016-06-12T07:54:01.000Z</time>
      </trkpt>
      <trkpt lat="48.86113" lon="1.92439">
        <ele>120.40000152588</ele>
        <time>2016-06-12T07:54:10.000Z</time>
      </trkpt>
      <trkpt lat="48.86117" lon="1.92441">
        <ele>120.59999847412</ele>
        <time>2016-06-12T07:54:14.000Z</time>
      </trkpt>
      <trkpt lat="48.86119" lon="1.92444">
        <ele>120.59999847412</ele>
        <time>2016-06-12T07:54:16.000Z</time>
      </trkpt>
      <trkpt lat="48.86122" lon="1.92446">
        <ele>120.59999847412</ele>
        <time>2016-06-12T07:54:18.000Z</time>
      </trkpt>
      <trkpt lat="48.8613" lon="1.92455">
        <ele>120.80000305176</ele>
        <time>2016-06-12T07:54:25.000Z</time>
      </trkpt>
      <trkpt lat="48.86144" lon="1.92469">
        <ele>121.19999694824</ele>
        <time>2016-06-12T07:54:36.000Z</time>
      </trkpt>
      <trkpt lat="48.86156" lon="1.92481">
        <ele>121.40000152588</ele>
        <time>2016-06-12T07:54:46.000Z</time>
      </trkpt>
      <trkpt lat="48.86166" lon="1.9249">
        <ele>121.80000305176</ele>
        <time>2016-06-12T07:54:54.000Z</time>
      </trkpt>
      <trkpt lat="48.86178" lon="1.92502">
        <ele>121.80000305176</ele>
        <time>2016-06-12T07:55:04.000Z</time>
      </trkpt>
      <trkpt lat="48.86188" lon="1.92513">
        <ele>121.80000305176</ele>
        <time>2016-06-12T07:55:13.000Z</time>
      </trkpt>
      <trkpt lat="48.86198" lon="1.92523">
        <ele>121.80000305176</ele>
        <time>2016-06-12T07:55:21.000Z</time>
      </trkpt>
      <trkpt lat="48.86208" lon="1.92534">
        <ele>122</ele>
        <time>2016-06-12T07:55:30.000Z</time>
      </trkpt>
      <trkpt lat="48.86218" lon="1.92543">
        <ele>122</ele>
        <time>2016-06-12T07:55:38.000Z</time>
      </trkpt>
      <trkpt lat="48.86227" lon="1.92552">
        <ele>122.19999694824</ele>
        <time>2016-06-12T07:55:46.000Z</time>
      </trkpt>
      <trkpt lat="48.86237" lon="1.92562">
        <ele>122.19999694824</ele>
        <time>2016-06-12T07:55:54.000Z</time>
      </trkpt>
      <trkpt lat="48.86249" lon="1.92573">
        <ele>122.40000152588</ele>
        <time>2016-06-12T07:56:04.000Z</time>
      </trkpt>
      <trkpt lat="48.8626" lon="1.92585">
        <ele>122.59999847412</ele>
        <time>2016-06-12T07:56:13.000Z</time>
      </trkpt>
      <trkpt lat="48.86271" lon="1.92594">
        <ele>123</ele>
        <time>2016-06-12T07:56:22.000Z</time>
      </trkpt>
      <trkpt lat="48.86281" lon="1.92603">
        <ele>123</ele>
        <time>2016-06-12T07:56:30.000Z</time>
      </trkpt>
      <trkpt lat="48.8629" lon="1.92613">
        <ele>123.19999694824</ele>
        <time>2016-06-12T07:56:38.000Z</time>
      </trkpt>
      <trkpt lat="48.86303" lon="1.92624">
        <ele>123.40000152588</ele>
        <time>2016-06-12T07:56:48.000Z</time>
      </trkpt>
      <trkpt lat="48.86315" lon="1.92635">
        <ele>123.59999847412</ele>
        <time>2016-06-12T07:56:58.000Z</time>
      </trkpt>
      <trkpt lat="48.86324" lon="1.92645">
        <ele>123.59999847412</ele>
        <time>2016-06-12T07:57:06.000Z</time>
      </trkpt>
      <trkpt lat="48.86332" lon="1.92653">
        <ele>123.80000305176</ele>
        <time>2016-06-12T07:57:13.000Z</time>
      </trkpt>
      <trkpt lat="48.86343" lon="1.92663">
        <ele>123.80000305176</ele>
        <time>2016-06-12T07:57:23.000Z</time>
      </trkpt>
      <trkpt lat="48.86354" lon="1.92674">
        <ele>123.80000305176</ele>
        <time>2016-06-12T07:57:32.000Z</time>
      </trkpt>
      <trkpt lat="48.86364" lon="1.92683">
        <ele>123.59999847412</ele>
        <time>2016-06-12T07:57:40.000Z</time>
      </trkpt>
      <trkpt lat="48.86374" lon="1.92692">
        <ele>123.59999847412</ele>
        <time>2016-06-12T07:57:48.000Z</time>
      </trkpt>
      <trkpt lat="48.86384" lon="1.92701">
        <ele>123.40000152588</ele>
        <time>2016-06-12T07:57:56.000Z</time>
      </trkpt>
      <trkpt lat="48.86395" lon="1.92711">
        <ele>123.40000152588</ele>
        <time>2016-06-12T07:58:05.000Z</time>
      </trkpt>
      <trkpt lat="48.86405" lon="1.92719">
        <ele>123.19999694824</ele>
        <time>2016-06-12T07:58:13.000Z</time>
      </trkpt>
      <trkpt lat="48.86412" lon="1.92725">
        <ele>123.19999694824</ele>
        <time>2016-06-12T07:58:19.000Z</time>
      </trkpt>
      <trkpt lat="48.86422" lon="1.9273">
        <ele>123.19999694824</ele>
        <time>2016-06-12T07:58:27.000Z</time>
      </trkpt>
      <trkpt lat="48.86432" lon="1.92735">
        <ele>123</ele>
        <time>2016-06-12T07:58:34.000Z</time>
      </trkpt>
      <trkpt lat="48.86439" lon="1.92738">
        <ele>123</ele>
        <time>2016-06-12T07:58:40.000Z</time>
      </trkpt>
      <trkpt lat="48.86451" lon="1.92744">
        <ele>122.80000305176</ele>
        <time>2016-06-12T07:58:49.000Z</time>
      </trkpt>
      <trkpt lat="48.86452" lon="1.92746">
        <ele>122.80000305176</ele>
        <time>2016-06-12T07:58:50.000Z</time>
      </trkpt>
      <trkpt lat="48.86457" lon="1.92749">
        <ele>122.80000305176</ele>
        <time>2016-06-12T07:58:54.000Z</time>
      </trkpt>
      <trkpt lat="48.86468" lon="1.92754">
        <ele>122.59999847412</ele>
        <time>2016-06-12T07:59:02.000Z</time>
      </trkpt>
      <trkpt lat="48.86476" lon="1.92759">
        <ele>122.59999847412</ele>
        <time>2016-06-12T07:59:08.000Z</time>
      </trkpt>
      <trkpt lat="48.86488" lon="1.92766">
        <ele>122.40000152588</ele>
        <time>2016-06-12T07:59:16.000Z</time>
      </trkpt>
      <trkpt lat="48.86496" lon="1.9277">
        <ele>122.40000152588</ele>
        <time>2016-06-12T07:59:22.000Z</time>
      </trkpt>
      <trkpt lat="48.86508" lon="1.92775">
        <ele>122.19999694824</ele>
        <time>2016-06-12T07:59:30.000Z</time>
      </trkpt>
      <trkpt lat="48.8652" lon="1.92782">
        <ele>122</ele>
        <time>2016-06-12T07:59:38.000Z</time>
      </trkpt>
      <trkpt lat="48.8653" lon="1.92787">
        <ele>121.80000305176</ele>
        <time>2016-06-12T07:59:45.000Z</time>
      </trkpt>
      <trkpt lat="48.86539" lon="1.92791">
        <ele>121.40000152588</ele>
        <time>2016-06-12T07:59:52.000Z</time>
      </trkpt>
      <trkpt lat="48.86548" lon="1.92796">
        <ele>121</ele>
        <time>2016-06-12T07:59:59.000Z</time>
      </trkpt>
      <trkpt lat="48.86557" lon="1.92801">
        <ele>120.80000305176</ele>
        <time>2016-06-12T08:00:05.000Z</time>
      </trkpt>
      <trkpt lat="48.86565" lon="1.92805">
        <ele>120.40000152588</ele>
        <time>2016-06-12T08:00:12.000Z</time>
      </trkpt>
      <trkpt lat="48.86573" lon="1.92808">
        <ele>120.19999694824</ele>
        <time>2016-06-12T08:00:18.000Z</time>
      </trkpt>
      <trkpt lat="48.86582" lon="1.92812">
        <ele>119.80000305176</ele>
        <time>2016-06-12T08:00:25.000Z</time>
      </trkpt>
      <trkpt lat="48.8659" lon="1.92816">
        <ele>119.59999847412</ele>
        <time>2016-06-12T08:00:31.000Z</time>
      </trkpt>
      <trkpt lat="48.86599" lon="1.92819">
        <ele>119.19999694824</ele>
        <time>2016-06-12T08:00:38.000Z</time>
      </trkpt>
      <trkpt lat="48.86607" lon="1.92823">
        <ele>119</ele>
        <time>2016-06-12T08:00:44.000Z</time>
      </trkpt>
      <trkpt lat="48.86619" lon="1.9283">
        <ele>118.59999847412</ele>
        <time>2016-06-12T08:00:52.000Z</time>
      </trkpt>
      <trkpt lat="48.86631" lon="1.92837">
        <ele>118.19999694824</ele>
        <time>2016-06-12T08:01:00.000Z</time>
      </trkpt>
      <trkpt lat="48.86641" lon="1.92842">
        <ele>117.80000305176</ele>
        <time>2016-06-12T08:01:07.000Z</time>
      </trkpt>
      <trkpt lat="48.86651" lon="1.92847">
        <ele>117.40000152588</ele>
        <time>2016-06-12T08:01:15.000Z</time>
      </trkpt>
      <trkpt lat="48.86662" lon="1.92852">
        <ele>117</ele>
        <time>2016-06-12T08:01:23.000Z</time>
      </trkpt>
      <trkpt lat="48.86665" lon="1.92854">
        <ele>116.80000305176</ele>
        <time>2016-06-12T08:01:26.000Z</time>
      </trkpt>
      <trkpt lat="48.86666" lon="1.92854">
        <ele>116.80000305176</ele>
        <time>2016-06-12T08:01:28.000Z</time>
      </trkpt>
      <trkpt lat="48.86668" lon="1.92855">
        <ele>116.80000305176</ele>
        <time>2016-06-12T08:01:29.000Z</time>
      </trkpt>
      <trkpt lat="48.8667" lon="1.92855">
        <ele>116.80000305176</ele>
        <time>2016-06-12T08:01:32.000Z</time>
      </trkpt>
      <trkpt lat="48.8667" lon="1.92855">
        <ele>116.59999847412</ele>
        <time>2016-06-12T08:01:33.000Z</time>
      </trkpt>
      <trkpt lat="48.86677" lon="1.92859">
        <ele>116.40000152588</ele>
        <time>2016-06-12T08:01:37.000Z</time>
      </trkpt>
      <trkpt lat="48.86683" lon="1.92863">
        <ele>116.19999694824</ele>
        <time>2016-06-12T08:01:41.000Z</time>
      </trkpt>
      <trkpt lat="48.86686" lon="1.92863">
        <ele>116.19999694824</ele>
        <time>2016-06-12T08:01:45.000Z</time>
      </trkpt>
      <trkpt lat="48.86686" lon="1.92863">
        <ele>116.19999694824</ele>
        <time>2016-06-12T08:01:46.000Z</time>
      </trkpt>
      <trkpt lat="48.86709" lon="1.92876">
        <ele>115.19999694824</ele>
        <time>2016-06-12T08:02:43.000Z</time>
      </trkpt>
      <trkpt lat="48.86713" lon="1.92878">
        <ele>115.19999694824</ele>
        <time>2016-06-12T08:02:46.000Z</time>
      </trkpt>
      <trkpt lat="48.86721" lon="1.92881">
        <ele>114.80000305176</ele>
        <time>2016-06-12T08:02:51.000Z</time>
      </trkpt>
      <trkpt lat="48.86722" lon="1.92882">
        <ele>114.80000305176</ele>
        <time>2016-06-12T08:02:52.000Z</time>
      </trkpt>
      <trkpt lat="48.86723" lon="1.92882">
        <ele>114.80000305176</ele>
        <time>2016-06-12T08:02:53.000Z</time>
      </trkpt>
      <trkpt lat="48.86729" lon="1.92886">
        <ele>114.59999847412</ele>
        <time>2016-06-12T08:02:58.000Z</time>
      </trkpt>
      <trkpt lat="48.86731" lon="1.92887">
        <ele>114.59999847412</ele>
        <time>2016-06-12T08:02:59.000Z</time>
      </trkpt>
      <trkpt lat="48.86742" lon="1.92892">
        <ele>114.19999694824</ele>
        <time>2016-06-12T08:03:06.000Z</time>
      </trkpt>
      <trkpt lat="48.8675" lon="1.92894">
        <ele>113.80000305176</ele>
        <time>2016-06-12T08:03:12.000Z</time>
      </trkpt>
      <trkpt lat="48.86756" lon="1.92897">
        <ele>113.59999847412</ele>
        <time>2016-06-12T08:03:16.000Z</time>
      </trkpt>
      <trkpt lat="48.86764" lon="1.92901">
        <ele>113.40000152588</ele>
        <time>2016-06-12T08:03:22.000Z</time>
      </trkpt>
      <trkpt lat="48.86772" lon="1.92907">
        <ele>113</ele>
        <time>2016-06-12T08:03:28.000Z</time>
      </trkpt>
      <trkpt lat="48.86774" lon="1.92909">
        <ele>112.80000305176</ele>
        <time>2016-06-12T08:03:30.000Z</time>
      </trkpt>
      <trkpt lat="48.86777" lon="1.92912">
        <ele>112.59999847412</ele>
        <time>2016-06-12T08:03:33.000Z</time>
      </trkpt>
      <trkpt lat="48.86784" lon="1.92916">
        <ele>112</ele>
        <time>2016-06-12T08:03:39.000Z</time>
      </trkpt>
      <trkpt lat="48.86792" lon="1.92922">
        <ele>111</ele>
        <time>2016-06-12T08:03:45.000Z</time>
      </trkpt>
      <trkpt lat="48.86799" lon="1.9293">
        <ele>110.40000152588</ele>
        <time>2016-06-12T08:03:51.000Z</time>
      </trkpt>
      <trkpt lat="48.86807" lon="1.92938">
        <ele>109.59999847412</ele>
        <time>2016-06-12T08:03:57.000Z</time>
      </trkpt>
      <trkpt lat="48.86816" lon="1.92948">
        <ele>108.80000305176</ele>
        <time>2016-06-12T08:04:04.000Z</time>
      </trkpt>
      <trkpt lat="48.86823" lon="1.92959">
        <ele>108.19999694824</ele>
        <time>2016-06-12T08:04:10.000Z</time>
      </trkpt>
      <trkpt lat="48.86829" lon="1.92968">
        <ele>107.59999847412</ele>
        <time>2016-06-12T08:04:16.000Z</time>
      </trkpt>
      <trkpt lat="48.86837" lon="1.92979">
        <ele>106.80000305176</ele>
        <time>2016-06-12T08:04:22.000Z</time>
      </trkpt>
      <trkpt lat="48.86839" lon="1.92981">
        <ele>106.59999847412</ele>
        <time>2016-06-12T08:04:24.000Z</time>
      </trkpt>
      <trkpt lat="48.86842" lon="1.92982">
        <ele>106.19999694824</ele>
        <time>2016-06-12T08:04:27.000Z</time>
      </trkpt>
      <trkpt lat="48.86844" lon="1.92983">
        <ele>106.19999694824</ele>
        <time>2016-06-12T08:04:28.000Z</time>
      </trkpt>
      <trkpt lat="48.8685" lon="1.92991">
        <ele>105.59999847412</ele>
        <time>2016-06-12T08:04:34.000Z</time>
      </trkpt>
      <trkpt lat="48.86854" lon="1.93">
        <ele>105.19999694824</ele>
        <time>2016-06-12T08:04:39.000Z</time>
      </trkpt>
      <trkpt lat="48.86859" lon="1.93008">
        <ele>104.80000305176</ele>
        <time>2016-06-12T08:04:44.000Z</time>
      </trkpt>
      <trkpt lat="48.86862" lon="1.93014">
        <ele>104.59999847412</ele>
        <time>2016-06-12T08:04:48.000Z</time>
      </trkpt>
      <trkpt lat="48.86864" lon="1.93017">
        <ele>104.40000152588</ele>
        <time>2016-06-12T08:04:50.000Z</time>
      </trkpt>
      <trkpt lat="48.86872" lon="1.93032">
        <ele>103.80000305176</ele>
        <time>2016-06-12T08:04:58.000Z</time>
      </trkpt>
      <trkpt lat="48.86878" lon="1.93048">
        <ele>103.40000152588</ele>
        <time>2016-06-12T08:05:06.000Z</time>
      </trkpt>
      <trkpt lat="48.86882" lon="1.9306">
        <ele>103.19999694824</ele>
        <time>2016-06-12T08:05:13.000Z</time>
      </trkpt>
      <trkpt lat="48.86885" lon="1.93069">
        <ele>103</ele>
        <time>2016-06-12T08:05:17.000Z</time>
      </trkpt>
      <trkpt lat="48.86885" lon="1.93071">
        <ele>103</ele>
        <time>2016-06-12T08:05:20.000Z</time>
      </trkpt>
      <trkpt lat="48.86888" lon="1.93081">
        <ele>103</ele>
        <time>2016-06-12T08:05:28.000Z</time>
      </trkpt>
      <trkpt lat="48.8689" lon="1.9308">
        <ele>102.80000305176</ele>
        <time>2016-06-12T08:05:32.000Z</time>
      </trkpt>
      <trkpt lat="48.86892" lon="1.93064">
        <ele>102.40000152588</ele>
        <time>2016-06-12T08:07:06.000Z</time>
      </trkpt>
      <trkpt lat="48.86894" lon="1.93057">
        <ele>102.19999694824</ele>
        <time>2016-06-12T08:07:10.000Z</time>
      </trkpt>
      <trkpt lat="48.86894" lon="1.93055">
        <ele>102.19999694824</ele>
        <time>2016-06-12T08:07:11.000Z</time>
      </trkpt>
      <trkpt lat="48.86895" lon="1.93053">
        <ele>102.19999694824</ele>
        <time>2016-06-12T08:07:12.000Z</time>
      </trkpt>
      <trkpt lat="48.86897" lon="1.93047">
        <ele>102</ele>
        <time>2016-06-12T08:07:15.000Z</time>
      </trkpt>
      <trkpt lat="48.86899" lon="1.93039">
        <ele>102</ele>
        <time>2016-06-12T08:07:20.000Z</time>
      </trkpt>
      <trkpt lat="48.86901" lon="1.93032">
        <ele>101.59999847412</ele>
        <time>2016-06-12T08:07:24.000Z</time>
      </trkpt>
      <trkpt lat="48.86901" lon="1.9303">
        <ele>101.59999847412</ele>
        <time>2016-06-12T08:07:25.000Z</time>
      </trkpt>
      <trkpt lat="48.86902" lon="1.93021">
        <ele>101</ele>
        <time>2016-06-12T08:07:29.000Z</time>
      </trkpt>
      <trkpt lat="48.86903" lon="1.93017">
        <ele>100.59999847412</ele>
        <time>2016-06-12T08:07:31.000Z</time>
      </trkpt>
      <trkpt lat="48.86905" lon="1.93">
        <ele>99.599998474121</ele>
        <time>2016-06-12T08:07:38.000Z</time>
      </trkpt>
      <trkpt lat="48.86908" lon="1.92987">
        <ele>98.800003051758</ele>
        <time>2016-06-12T08:07:44.000Z</time>
      </trkpt>
      <trkpt lat="48.86909" lon="1.92985">
        <ele>98.599998474121</ele>
        <time>2016-06-12T08:07:45.000Z</time>
      </trkpt>
      <trkpt lat="48.8691" lon="1.92977">
        <ele>98.199996948242</ele>
        <time>2016-06-12T08:07:49.000Z</time>
      </trkpt>
      <trkpt lat="48.86911" lon="1.92968">
        <ele>97.800003051758</ele>
        <time>2016-06-12T08:07:52.000Z</time>
      </trkpt>
      <trkpt lat="48.86912" lon="1.92965">
        <ele>97.599998474121</ele>
        <time>2016-06-12T08:07:54.000Z</time>
      </trkpt>
      <trkpt lat="48.86916" lon="1.92953">
        <ele>96.199996948242</ele>
        <time>2016-06-12T08:07:59.000Z</time>
      </trkpt>
      <trkpt lat="48.86919" lon="1.92941">
        <ele>94.800003051758</ele>
        <time>2016-06-12T08:08:05.000Z</time>
      </trkpt>
      <trkpt lat="48.86923" lon="1.92928">
        <ele>93.400001525879</ele>
        <time>2016-06-12T08:08:11.000Z</time>
      </trkpt>
      <trkpt lat="48.86926" lon="1.92914">
        <ele>91.800003051758</ele>
        <time>2016-06-12T08:08:17.000Z</time>
      </trkpt>
      <trkpt lat="48.86929" lon="1.92904">
        <ele>90.599998474121</ele>
        <time>2016-06-12T08:08:23.000Z</time>
      </trkpt>
      <trkpt lat="48.86934" lon="1.92894">
        <ele>89.599998474121</ele>
        <time>2016-06-12T08:08:28.000Z</time>
      </trkpt>
      <trkpt lat="48.86939" lon="1.92881">
        <ele>88.400001525879</ele>
        <time>2016-06-12T08:08:34.000Z</time>
      </trkpt>
      <trkpt lat="48.86943" lon="1.92872">
        <ele>88</ele>
        <time>2016-06-12T08:08:38.000Z</time>
      </trkpt>
      <trkpt lat="48.86944" lon="1.9287">
        <ele>87.800003051758</ele>
        <time>2016-06-12T08:08:39.000Z</time>
      </trkpt>
      <trkpt lat="48.86947" lon="1.92859">
        <ele>87.400001525879</ele>
        <time>2016-06-12T08:08:44.000Z</time>
      </trkpt>
      <trkpt lat="48.86952" lon="1.92845">
        <ele>86.800003051758</ele>
        <time>2016-06-12T08:08:50.000Z</time>
      </trkpt>
      <trkpt lat="48.86956" lon="1.92832">
        <ele>86</ele>
        <time>2016-06-12T08:08:55.000Z</time>
      </trkpt>
      <trkpt lat="48.86963" lon="1.92817">
        <ele>85.199996948242</ele>
        <time>2016-06-12T08:09:02.000Z</time>
      </trkpt>
      <trkpt lat="48.86967" lon="1.92804">
        <ele>85.199996948242</ele>
        <time>2016-06-12T08:09:08.000Z</time>
      </trkpt>
      <trkpt lat="48.86974" lon="1.92786">
        <ele>85</ele>
        <time>2016-06-12T08:09:16.000Z</time>
      </trkpt>
      <trkpt lat="48.86979" lon="1.92772">
        <ele>84.800003051758</ele>
        <time>2016-06-12T08:09:22.000Z</time>
      </trkpt>
      <trkpt lat="48.86979" lon="1.92771">
        <ele>84.800003051758</ele>
        <time>2016-06-12T08:09:23.000Z</time>
      </trkpt>
      <trkpt lat="48.86981" lon="1.92766">
        <ele>84.800003051758</ele>
        <time>2016-06-12T08:09:26.000Z</time>
      </trkpt>
      <trkpt lat="48.86982" lon="1.92764">
        <ele>84.599998474121</ele>
        <time>2016-06-12T08:09:27.000Z</time>
      </trkpt>
      <trkpt lat="48.86986" lon="1.92751">
        <ele>84.400001525879</ele>
        <time>2016-06-12T08:09:33.000Z</time>
      </trkpt>
      <trkpt lat="48.86991" lon="1.92734">
        <ele>84</ele>
        <time>2016-06-12T08:09:41.000Z</time>
      </trkpt>
      <trkpt lat="48.86995" lon="1.9272">
        <ele>83.199996948242</ele>
        <time>2016-06-12T08:09:47.000Z</time>
      </trkpt>
      <trkpt lat="48.87" lon="1.92708">
        <ele>82.400001525879</ele>
        <time>2016-06-12T08:09:53.000Z</time>
      </trkpt>
      <trkpt lat="48.87" lon="1.92706">
        <ele>82.400001525879</ele>
        <time>2016-06-12T08:09:54.000Z</time>
      </trkpt>
      <trkpt lat="48.87003" lon="1.92694">
        <ele>81.800003051758</ele>
        <time>2016-06-12T08:10:00.000Z</time>
      </trkpt>
      <trkpt lat="48.87008" lon="1.92682">
        <ele>81</ele>
        <time>2016-06-12T08:10:06.000Z</time>
      </trkpt>
      <trkpt lat="48.87009" lon="1.92683">
        <ele>81</ele>
        <time>2016-06-12T08:10:07.000Z</time>
      </trkpt>
      <trkpt lat="48.87012" lon="1.92684">
        <ele>80.599998474121</ele>
        <time>2016-06-12T08:10:09.000Z</time>
      </trkpt>
      <trkpt lat="48.87014" lon="1.92685">
        <ele>80.599998474121</ele>
        <time>2016-06-12T08:10:11.000Z</time>
      </trkpt>
      <trkpt lat="48.87014" lon="1.92686">
        <ele>80.599998474121</ele>
        <time>2016-06-12T08:10:12.000Z</time>
      </trkpt>
      <trkpt lat="48.87015" lon="1.92687">
        <ele>80.599998474121</ele>
        <time>2016-06-12T08:10:13.000Z</time>
      </trkpt>
      <trkpt lat="48.87015" lon="1.92688">
        <ele>80.400001525879</ele>
        <time>2016-06-12T08:10:16.000Z</time>
      </trkpt>
      <trkpt lat="48.87017" lon="1.9269">
        <ele>80.400001525879</ele>
        <time>2016-06-12T08:10:18.000Z</time>
      </trkpt>
      <trkpt lat="48.87018" lon="1.92696">
        <ele>80.400001525879</ele>
        <time>2016-06-12T08:10:21.000Z</time>
      </trkpt>
      <trkpt lat="48.87019" lon="1.927">
        <ele>80.400001525879</ele>
        <time>2016-06-12T08:10:23.000Z</time>
      </trkpt>
      <trkpt lat="48.8702" lon="1.92706">
        <ele>80.400001525879</ele>
        <time>2016-06-12T08:10:27.000Z</time>
      </trkpt>
      <trkpt lat="48.87023" lon="1.92721">
        <ele>80.599998474121</ele>
        <time>2016-06-12T08:10:35.000Z</time>
      </trkpt>
      <trkpt lat="48.87022" lon="1.92723">
        <ele>80.599998474121</ele>
        <time>2016-06-12T08:10:36.000Z</time>
      </trkpt>
      <trkpt lat="48.87023" lon="1.92729">
        <ele>80.800003051758</ele>
        <time>2016-06-12T08:10:39.000Z</time>
      </trkpt>
      <trkpt lat="48.87024" lon="1.92741">
        <ele>81</ele>
        <time>2016-06-12T08:10:45.000Z</time>
      </trkpt>
      <trkpt lat="48.87027" lon="1.92756">
        <ele>80.599998474121</ele>
        <time>2016-06-12T08:10:51.000Z</time>
      </trkpt>
      <trkpt lat="48.87027" lon="1.92758">
        <ele>80.599998474121</ele>
        <time>2016-06-12T08:10:52.000Z</time>
      </trkpt>
      <trkpt lat="48.87029" lon="1.92764">
        <ele>80.599998474121</ele>
        <time>2016-06-12T08:10:55.000Z</time>
      </trkpt>
      <trkpt lat="48.8703" lon="1.92769">
        <ele>80.400001525879</ele>
        <time>2016-06-12T08:10:57.000Z</time>
      </trkpt>
      <trkpt lat="48.87032" lon="1.92777">
        <ele>80.199996948242</ele>
        <time>2016-06-12T08:11:01.000Z</time>
      </trkpt>
      <trkpt lat="48.87034" lon="1.92792">
        <ele>80</ele>
        <time>2016-06-12T08:11:08.000Z</time>
      </trkpt>
      <trkpt lat="48.87036" lon="1.92801">
        <ele>79.800003051758</ele>
        <time>2016-06-12T08:11:13.000Z</time>
      </trkpt>
      <trkpt lat="48.87035" lon="1.92806">
        <ele>79.800003051758</ele>
        <time>2016-06-12T08:11:16.000Z</time>
      </trkpt>
      <trkpt lat="48.87035" lon="1.92808">
        <ele>79.800003051758</ele>
        <time>2016-06-12T08:11:17.000Z</time>
      </trkpt>
      <trkpt lat="48.87037" lon="1.92819">
        <ele>79.599998474121</ele>
        <time>2016-06-12T08:11:22.000Z</time>
      </trkpt>
      <trkpt lat="48.87039" lon="1.9284">
        <ele>80.199996948242</ele>
        <time>2016-06-12T08:11:30.000Z</time>
      </trkpt>
      <trkpt lat="48.87041" lon="1.92856">
        <ele>80.800003051758</ele>
        <time>2016-06-12T08:11:37.000Z</time>
      </trkpt>
      <trkpt lat="48.87042" lon="1.92872">
        <ele>81.599998474121</ele>
        <time>2016-06-12T08:11:44.000Z</time>
      </trkpt>
      <trkpt lat="48.87042" lon="1.92884">
        <ele>82.199996948242</ele>
        <time>2016-06-12T08:11:50.000Z</time>
      </trkpt>
      <trkpt lat="48.87044" lon="1.92897">
        <ele>82.800003051758</ele>
        <time>2016-06-12T08:11:57.000Z</time>
      </trkpt>
      <trkpt lat="48.87046" lon="1.92901">
        <ele>82.800003051758</ele>
        <time>2016-06-12T08:12:00.000Z</time>
      </trkpt>
      <trkpt lat="48.87048" lon="1.92906">
        <ele>83</ele>
        <time>2016-06-12T08:12:04.000Z</time>
      </trkpt>
      <trkpt lat="48.87055" lon="1.92909">
        <ele>82.800003051758</ele>
        <time>2016-06-12T08:12:09.000Z</time>
      </trkpt>
      <trkpt lat="48.87057" lon="1.92909">
        <ele>82.800003051758</ele>
        <time>2016-06-12T08:12:10.000Z</time>
      </trkpt>
      <trkpt lat="48.87064" lon="1.92908">
        <ele>82.599998474121</ele>
        <time>2016-06-12T08:12:16.000Z</time>
      </trkpt>
      <trkpt lat="48.87071" lon="1.92907">
        <ele>82.199996948242</ele>
        <time>2016-06-12T08:12:22.000Z</time>
      </trkpt>
      <trkpt lat="48.87074" lon="1.92909">
        <ele>82.199996948242</ele>
        <time>2016-06-12T08:12:24.000Z</time>
      </trkpt>
      <trkpt lat="48.87077" lon="1.92907">
        <ele>82</ele>
        <time>2016-06-12T08:12:27.000Z</time>
      </trkpt>
      <trkpt lat="48.87081" lon="1.92908">
        <ele>82</ele>
        <time>2016-06-12T08:12:30.000Z</time>
      </trkpt>
      <trkpt lat="48.87083" lon="1.92907">
        <ele>81.800003051758</ele>
        <time>2016-06-12T08:12:32.000Z</time>
      </trkpt>
      <trkpt lat="48.87083" lon="1.92906">
        <ele>81.800003051758</ele>
        <time>2016-06-12T08:12:33.000Z</time>
      </trkpt>
      <trkpt lat="48.87091" lon="1.92905">
        <ele>81.400001525879</ele>
        <time>2016-06-12T08:12:39.000Z</time>
      </trkpt>
      <trkpt lat="48.87098" lon="1.92905">
        <ele>81.199996948242</ele>
        <time>2016-06-12T08:12:44.000Z</time>
      </trkpt>
      <trkpt lat="48.87099" lon="1.92905">
        <ele>81.199996948242</ele>
        <time>2016-06-12T08:12:45.000Z</time>
      </trkpt>
      <trkpt lat="48.87102" lon="1.92904">
        <ele>81</ele>
        <time>2016-06-12T08:12:48.000Z</time>
      </trkpt>
      <trkpt lat="48.87107" lon="1.92903">
        <ele>80.800003051758</ele>
        <time>2016-06-12T08:12:51.000Z</time>
      </trkpt>
      <trkpt lat="48.87116" lon="1.92903">
        <ele>80.599998474121</ele>
        <time>2016-06-12T08:12:57.000Z</time>
      </trkpt>
      <trkpt lat="48.87117" lon="1.92903">
        <ele>80.599998474121</ele>
        <time>2016-06-12T08:12:58.000Z</time>
      </trkpt>
      <trkpt lat="48.87127" lon="1.92899">
        <ele>80.199996948242</ele>
        <time>2016-06-12T08:13:05.000Z</time>
      </trkpt>
      <trkpt lat="48.87132" lon="1.92898">
        <ele>80</ele>
        <time>2016-06-12T08:13:09.000Z</time>
      </trkpt>
      <trkpt lat="48.87135" lon="1.92899">
        <ele>80</ele>
        <time>2016-06-12T08:13:11.000Z</time>
      </trkpt>
      <trkpt lat="48.87139" lon="1.92897">
        <ele>79.800003051758</ele>
        <time>2016-06-12T08:13:15.000Z</time>
      </trkpt>
      <trkpt lat="48.87142" lon="1.92896">
        <ele>79.599998474121</ele>
        <time>2016-06-12T08:13:17.000Z</time>
      </trkpt>
      <trkpt lat="48.87152" lon="1.92894">
        <ele>79.199996948242</ele>
        <time>2016-06-12T08:13:23.000Z</time>
      </trkpt>
      <trkpt lat="48.87161" lon="1.92891">
        <ele>78.800003051758</ele>
        <time>2016-06-12T08:13:30.000Z</time>
      </trkpt>
      <trkpt lat="48.87162" lon="1.92891">
        <ele>78.800003051758</ele>
        <time>2016-06-12T08:13:33.000Z</time>
      </trkpt>
      <trkpt lat="48.87204" lon="1.92888">
        <ele>78</ele>
        <time>2016-06-12T08:14:38.000Z</time>
      </trkpt>
      <trkpt lat="48.87207" lon="1.9289">
        <ele>78.199996948242</ele>
        <time>2016-06-12T08:14:40.000Z</time>
      </trkpt>
      <trkpt lat="48.87213" lon="1.9289">
        <ele>78.199996948242</ele>
        <time>2016-06-12T08:14:44.000Z</time>
      </trkpt>
      <trkpt lat="48.87214" lon="1.92889">
        <ele>78.400001525879</ele>
        <time>2016-06-12T08:14:45.000Z</time>
      </trkpt>
      <trkpt lat="48.87224" lon="1.92888">
        <ele>78.400001525879</ele>
        <time>2016-06-12T08:14:51.000Z</time>
      </trkpt>
      <trkpt lat="48.87232" lon="1.92887">
        <ele>78.599998474121</ele>
        <time>2016-06-12T08:14:56.000Z</time>
      </trkpt>
      <trkpt lat="48.87233" lon="1.92888">
        <ele>78.599998474121</ele>
        <time>2016-06-12T08:14:57.000Z</time>
      </trkpt>
      <trkpt lat="48.87243" lon="1.9289">
        <ele>79</ele>
        <time>2016-06-12T08:15:04.000Z</time>
      </trkpt>
      <trkpt lat="48.8725" lon="1.9289">
        <ele>79.199996948242</ele>
        <time>2016-06-12T08:15:11.000Z</time>
      </trkpt>
      <trkpt lat="48.87257" lon="1.92893">
        <ele>79.599998474121</ele>
        <time>2016-06-12T08:15:17.000Z</time>
      </trkpt>
      <trkpt lat="48.87259" lon="1.92895">
        <ele>79.800003051758</ele>
        <time>2016-06-12T08:15:19.000Z</time>
      </trkpt>
      <trkpt lat="48.87261" lon="1.92894">
        <ele>79.800003051758</ele>
        <time>2016-06-12T08:15:21.000Z</time>
      </trkpt>
      <trkpt lat="48.87267" lon="1.92893">
        <ele>80</ele>
        <time>2016-06-12T08:15:25.000Z</time>
      </trkpt>
      <trkpt lat="48.87269" lon="1.92893">
        <ele>80.199996948242</ele>
        <time>2016-06-12T08:15:26.000Z</time>
      </trkpt>
      <trkpt lat="48.87277" lon="1.92893">
        <ele>81</ele>
        <time>2016-06-12T08:15:32.000Z</time>
      </trkpt>
      <trkpt lat="48.87283" lon="1.92894">
        <ele>81.800003051758</ele>
        <time>2016-06-12T08:15:36.000Z</time>
      </trkpt>
      <trkpt lat="48.87285" lon="1.92893">
        <ele>82.199996948242</ele>
        <time>2016-06-12T08:15:38.000Z</time>
      </trkpt>
      <trkpt lat="48.87289" lon="1.92892">
        <ele>82.599998474121</ele>
        <time>2016-06-12T08:15:42.000Z</time>
      </trkpt>
      <trkpt lat="48.8729" lon="1.92891">
        <ele>82.800003051758</ele>
        <time>2016-06-12T08:15:44.000Z</time>
      </trkpt>
      <trkpt lat="48.87294" lon="1.9289">
        <ele>83.199996948242</ele>
        <time>2016-06-12T08:15:48.000Z</time>
      </trkpt>
      <trkpt lat="48.873" lon="1.92894">
        <ele>84.199996948242</ele>
        <time>2016-06-12T08:15:52.000Z</time>
      </trkpt>
      <trkpt lat="48.87303" lon="1.92894">
        <ele>84.599998474121</ele>
        <time>2016-06-12T08:15:54.000Z</time>
      </trkpt>
      <trkpt lat="48.87305" lon="1.92893">
        <ele>85</ele>
        <time>2016-06-12T08:15:56.000Z</time>
      </trkpt>
      <trkpt lat="48.87308" lon="1.92893">
        <ele>85.400001525879</ele>
        <time>2016-06-12T08:15:58.000Z</time>
      </trkpt>
      <trkpt lat="48.87312" lon="1.92893">
        <ele>86</ele>
        <time>2016-06-12T08:16:01.000Z</time>
      </trkpt>
      <trkpt lat="48.87317" lon="1.92893">
        <ele>86.599998474121</ele>
        <time>2016-06-12T08:16:04.000Z</time>
      </trkpt>
      <trkpt lat="48.87318" lon="1.92894">
        <ele>87</ele>
        <time>2016-06-12T08:16:06.000Z</time>
      </trkpt>
      <trkpt lat="48.87322" lon="1.92894">
        <ele>87.400001525879</ele>
        <time>2016-06-12T08:16:09.000Z</time>
      </trkpt>
      <trkpt lat="48.87323" lon="1.92893">
        <ele>87.599998474121</ele>
        <time>2016-06-12T08:16:10.000Z</time>
      </trkpt>
      <trkpt lat="48.87331" lon="1.92892">
        <ele>88.599998474121</ele>
        <time>2016-06-12T08:16:16.000Z</time>
      </trkpt>
      <trkpt lat="48.8734" lon="1.92894">
        <ele>90</ele>
        <time>2016-06-12T08:16:23.000Z</time>
      </trkpt>
      <trkpt lat="48.87349" lon="1.92893">
        <ele>91.400001525879</ele>
        <time>2016-06-12T08:16:28.000Z</time>
      </trkpt>
      <trkpt lat="48.87355" lon="1.92892">
        <ele>92.199996948242</ele>
        <time>2016-06-12T08:16:33.000Z</time>
      </trkpt>
      <trkpt lat="48.87357" lon="1.92891">
        <ele>92.599998474121</ele>
        <time>2016-06-12T08:16:35.000Z</time>
      </trkpt>
      <trkpt lat="48.87359" lon="1.92885">
        <ele>92.599998474121</ele>
        <time>2016-06-12T08:16:40.000Z</time>
      </trkpt>
      <trkpt lat="48.87358" lon="1.92882">
        <ele>92.400001525879</ele>
        <time>2016-06-12T08:16:43.000Z</time>
      </trkpt>
      <trkpt lat="48.87359" lon="1.92872">
        <ele>92.199996948242</ele>
        <time>2016-06-12T08:16:49.000Z</time>
      </trkpt>
      <trkpt lat="48.87359" lon="1.92871">
        <ele>92</ele>
        <time>2016-06-12T08:16:50.000Z</time>
      </trkpt>
      <trkpt lat="48.87359" lon="1.92863">
        <ele>91.800003051758</ele>
        <time>2016-06-12T08:16:54.000Z</time>
      </trkpt>
      <trkpt lat="48.8736" lon="1.92852">
        <ele>91.599998474121</ele>
        <time>2016-06-12T08:17:00.000Z</time>
      </trkpt>
      <trkpt lat="48.87361" lon="1.92848">
        <ele>91.800003051758</ele>
        <time>2016-06-12T08:17:02.000Z</time>
      </trkpt>
      <trkpt lat="48.87361" lon="1.92844">
        <ele>91.599998474121</ele>
        <time>2016-06-12T08:17:04.000Z</time>
      </trkpt>
      <trkpt lat="48.8736" lon="1.92836">
        <ele>91</ele>
        <time>2016-06-12T08:17:09.000Z</time>
      </trkpt>
      <trkpt lat="48.87359" lon="1.92829">
        <ele>90.599998474121</ele>
        <time>2016-06-12T08:17:12.000Z</time>
      </trkpt>
      <trkpt lat="48.87361" lon="1.92819">
        <ele>90.800003051758</ele>
        <time>2016-06-12T08:17:17.000Z</time>
      </trkpt>
      <trkpt lat="48.87361" lon="1.92812">
        <ele>90.599998474121</ele>
        <time>2016-06-12T08:17:21.000Z</time>
      </trkpt>
      <trkpt lat="48.87361" lon="1.92809">
        <ele>90.599998474121</ele>
        <time>2016-06-12T08:17:22.000Z</time>
      </trkpt>
      <trkpt lat="48.8736" lon="1.92807">
        <ele>90.400001525879</ele>
        <time>2016-06-12T08:17:23.000Z</time>
      </trkpt>
      <trkpt lat="48.87358" lon="1.92798">
        <ele>90</ele>
        <time>2016-06-12T08:17:27.000Z</time>
      </trkpt>
      <trkpt lat="48.87357" lon="1.92793">
        <ele>89.800003051758</ele>
        <time>2016-06-12T08:17:30.000Z</time>
      </trkpt>
      <trkpt lat="48.87357" lon="1.92793">
        <ele>89.800003051758</ele>
        <time>2016-06-12T08:17:31.000Z</time>
      </trkpt>
      <trkpt lat="48.87354" lon="1.92766">
        <ele>89</ele>
        <time>2016-06-12T08:18:00.000Z</time>
      </trkpt>
      <trkpt lat="48.87352" lon="1.92751">
        <ele>88.599998474121</ele>
        <time>2016-06-12T08:18:07.000Z</time>
      </trkpt>
      <trkpt lat="48.87352" lon="1.9274">
        <ele>88.199996948242</ele>
        <time>2016-06-12T08:18:13.000Z</time>
      </trkpt>
      <trkpt lat="48.87351" lon="1.92737">
        <ele>88.199996948242</ele>
        <time>2016-06-12T08:18:15.000Z</time>
      </trkpt>
      <trkpt lat="48.87351" lon="1.92729">
        <ele>88.199996948242</ele>
        <time>2016-06-12T08:18:19.000Z</time>
      </trkpt>
      <trkpt lat="48.8735" lon="1.9272">
        <ele>88</ele>
        <time>2016-06-12T08:18:24.000Z</time>
      </trkpt>
      <trkpt lat="48.87349" lon="1.92715">
        <ele>88</ele>
        <time>2016-06-12T08:18:26.000Z</time>
      </trkpt>
      <trkpt lat="48.87349" lon="1.92707">
        <ele>88</ele>
        <time>2016-06-12T08:18:30.000Z</time>
      </trkpt>
      <trkpt lat="48.87349" lon="1.92703">
        <ele>88</ele>
        <time>2016-06-12T08:18:32.000Z</time>
      </trkpt>
      <trkpt lat="48.87349" lon="1.92697">
        <ele>88</ele>
        <time>2016-06-12T08:18:35.000Z</time>
      </trkpt>
      <trkpt lat="48.8735" lon="1.92691">
        <ele>88</ele>
        <time>2016-06-12T08:18:39.000Z</time>
      </trkpt>
      <trkpt lat="48.8735" lon="1.92691">
        <ele>88</ele>
        <time>2016-06-12T08:18:40.000Z</time>
      </trkpt>
      <trkpt lat="48.87352" lon="1.92652">
        <ele>88.599998474121</ele>
        <time>2016-06-12T08:21:40.000Z</time>
      </trkpt>
      <trkpt lat="48.87352" lon="1.92645">
        <ele>88.599998474121</ele>
        <time>2016-06-12T08:21:43.000Z</time>
      </trkpt>
      <trkpt lat="48.87352" lon="1.92635">
        <ele>88.800003051758</ele>
        <time>2016-06-12T08:21:48.000Z</time>
      </trkpt>
      <trkpt lat="48.87351" lon="1.92628">
        <ele>88.800003051758</ele>
        <time>2016-06-12T08:21:51.000Z</time>
      </trkpt>
      <trkpt lat="48.87351" lon="1.92622">
        <ele>89</ele>
        <time>2016-06-12T08:21:54.000Z</time>
      </trkpt>
      <trkpt lat="48.87351" lon="1.9261">
        <ele>89.199996948242</ele>
        <time>2016-06-12T08:21:58.000Z</time>
      </trkpt>
      <trkpt lat="48.8735" lon="1.92593">
        <ele>89.599998474121</ele>
        <time>2016-06-12T08:22:05.000Z</time>
      </trkpt>
      <trkpt lat="48.87352" lon="1.92581">
        <ele>90</ele>
        <time>2016-06-12T08:22:10.000Z</time>
      </trkpt>
      <trkpt lat="48.87352" lon="1.92578">
        <ele>90.199996948242</ele>
        <time>2016-06-12T08:22:12.000Z</time>
      </trkpt>
      <trkpt lat="48.87354" lon="1.92571">
        <ele>90.599998474121</ele>
        <time>2016-06-12T08:22:15.000Z</time>
      </trkpt>
      <trkpt lat="48.87354" lon="1.92569">
        <ele>90.599998474121</ele>
        <time>2016-06-12T08:22:16.000Z</time>
      </trkpt>
      <trkpt lat="48.87355" lon="1.92568">
        <ele>90.800003051758</ele>
        <time>2016-06-12T08:22:17.000Z</time>
      </trkpt>
      <trkpt lat="48.87358" lon="1.92561">
        <ele>91</ele>
        <time>2016-06-12T08:22:21.000Z</time>
      </trkpt>
      <trkpt lat="48.87362" lon="1.92553">
        <ele>91.400001525879</ele>
        <time>2016-06-12T08:22:26.000Z</time>
      </trkpt>
      <trkpt lat="48.87367" lon="1.92545">
        <ele>92</ele>
        <time>2016-06-12T08:22:29.000Z</time>
      </trkpt>
      <trkpt lat="48.87368" lon="1.92541">
        <ele>92.199996948242</ele>
        <time>2016-06-12T08:22:31.000Z</time>
      </trkpt>
      <trkpt lat="48.8737" lon="1.92537">
        <ele>92.400001525879</ele>
        <time>2016-06-12T08:22:33.000Z</time>
      </trkpt>
      <trkpt lat="48.87372" lon="1.92534">
        <ele>92.599998474121</ele>
        <time>2016-06-12T08:22:35.000Z</time>
      </trkpt>
      <trkpt lat="48.87376" lon="1.92524">
        <ele>93.199996948242</ele>
        <time>2016-06-12T08:22:40.000Z</time>
      </trkpt>
      <trkpt lat="48.8738" lon="1.92516">
        <ele>93.599998474121</ele>
        <time>2016-06-12T08:22:45.000Z</time>
      </trkpt>
      <trkpt lat="48.87382" lon="1.92514">
        <ele>93.800003051758</ele>
        <time>2016-06-12T08:22:46.000Z</time>
      </trkpt>
      <trkpt lat="48.87386" lon="1.92508">
        <ele>94.400001525879</ele>
        <time>2016-06-12T08:22:50.000Z</time>
      </trkpt>
      <trkpt lat="48.87391" lon="1.92498">
        <ele>95</ele>
        <time>2016-06-12T08:22:55.000Z</time>
      </trkpt>
      <trkpt lat="48.87401" lon="1.92483">
        <ele>95.800003051758</ele>
        <time>2016-06-12T08:23:03.000Z</time>
      </trkpt>
      <trkpt lat="48.87407" lon="1.9247">
        <ele>95.800003051758</ele>
        <time>2016-06-12T08:23:09.000Z</time>
      </trkpt>
      <trkpt lat="48.87414" lon="1.92457">
        <ele>96</ele>
        <time>2016-06-12T08:23:16.000Z</time>
      </trkpt>
      <trkpt lat="48.87421" lon="1.92445">
        <ele>96</ele>
        <time>2016-06-12T08:23:23.000Z</time>
      </trkpt>
      <trkpt lat="48.87424" lon="1.92438">
        <ele>96</ele>
        <time>2016-06-12T08:23:28.000Z</time>
      </trkpt>
      <trkpt lat="48.8743" lon="1.9243">
        <ele>96.199996948242</ele>
        <time>2016-06-12T08:23:34.000Z</time>
      </trkpt>
      <trkpt lat="48.87435" lon="1.92422">
        <ele>96.400001525879</ele>
        <time>2016-06-12T08:23:39.000Z</time>
      </trkpt>
      <trkpt lat="48.87438" lon="1.92416">
        <ele>96.599998474121</ele>
        <time>2016-06-12T08:23:43.000Z</time>
      </trkpt>
      <trkpt lat="48.87441" lon="1.92412">
        <ele>96.599998474121</ele>
        <time>2016-06-12T08:23:46.000Z</time>
      </trkpt>
      <trkpt lat="48.87451" lon="1.924">
        <ele>96.400001525879</ele>
        <time>2016-06-12T08:23:53.000Z</time>
      </trkpt>
      <trkpt lat="48.87452" lon="1.92399">
        <ele>96.400001525879</ele>
        <time>2016-06-12T08:23:54.000Z</time>
      </trkpt>
      <trkpt lat="48.87457" lon="1.92394">
        <ele>96.400001525879</ele>
        <time>2016-06-12T08:23:58.000Z</time>
      </trkpt>
      <trkpt lat="48.87463" lon="1.92386">
        <ele>96.199996948242</ele>
        <time>2016-06-12T08:24:03.000Z</time>
      </trkpt>
      <trkpt lat="48.87471" lon="1.92375">
        <ele>96</ele>
        <time>2016-06-12T08:24:10.000Z</time>
      </trkpt>
      <trkpt lat="48.87479" lon="1.92366">
        <ele>95.800003051758</ele>
        <time>2016-06-12T08:24:16.000Z</time>
      </trkpt>
      <trkpt lat="48.87484" lon="1.9236">
        <ele>95.400001525879</ele>
        <time>2016-06-12T08:24:20.000Z</time>
      </trkpt>
      <trkpt lat="48.87485" lon="1.92358">
        <ele>95.199996948242</ele>
        <time>2016-06-12T08:24:21.000Z</time>
      </trkpt>
      <trkpt lat="48.87489" lon="1.92353">
        <ele>95</ele>
        <time>2016-06-12T08:24:24.000Z</time>
      </trkpt>
      <trkpt lat="48.87491" lon="1.92351">
        <ele>95</ele>
        <time>2016-06-12T08:24:26.000Z</time>
      </trkpt>
      <trkpt lat="48.87495" lon="1.92347">
        <ele>94.800003051758</ele>
        <time>2016-06-12T08:24:29.000Z</time>
      </trkpt>
      <trkpt lat="48.87498" lon="1.92344">
        <ele>94.599998474121</ele>
        <time>2016-06-12T08:24:31.000Z</time>
      </trkpt>
      <trkpt lat="48.87507" lon="1.92341">
        <ele>95</ele>
        <time>2016-06-12T08:24:37.000Z</time>
      </trkpt>
      <trkpt lat="48.87514" lon="1.92337">
        <ele>95</ele>
        <time>2016-06-12T08:24:41.000Z</time>
      </trkpt>
      <trkpt lat="48.87523" lon="1.92333">
        <ele>95.199996948242</ele>
        <time>2016-06-12T08:24:47.000Z</time>
      </trkpt>
      <trkpt lat="48.87529" lon="1.92329">
        <ele>95</ele>
        <time>2016-06-12T08:24:50.000Z</time>
      </trkpt>
      <trkpt lat="48.87532" lon="1.92326">
        <ele>95.199996948242</ele>
        <time>2016-06-12T08:24:52.000Z</time>
      </trkpt>
      <trkpt lat="48.87541" lon="1.9232">
        <ele>95.400001525879</ele>
        <time>2016-06-12T08:24:57.000Z</time>
      </trkpt>
      <trkpt lat="48.87542" lon="1.92318">
        <ele>95.400001525879</ele>
        <time>2016-06-12T08:24:58.000Z</time>
      </trkpt>
      <trkpt lat="48.87544" lon="1.92318">
        <ele>95.599998474121</ele>
        <time>2016-06-12T08:24:59.000Z</time>
      </trkpt>
      <trkpt lat="48.87554" lon="1.92314">
        <ele>96</ele>
        <time>2016-06-12T08:25:05.000Z</time>
      </trkpt>
      <trkpt lat="48.87563" lon="1.92311">
        <ele>96.599998474121</ele>
        <time>2016-06-12T08:25:11.000Z</time>
      </trkpt>
      <trkpt lat="48.87566" lon="1.9231">
        <ele>96.800003051758</ele>
        <time>2016-06-12T08:25:13.000Z</time>
      </trkpt>
      <trkpt lat="48.87574" lon="1.92306">
        <ele>97.199996948242</ele>
        <time>2016-06-12T08:25:18.000Z</time>
      </trkpt>
      <trkpt lat="48.8758" lon="1.92299">
        <ele>97</ele>
        <time>2016-06-12T08:25:24.000Z</time>
      </trkpt>
      <trkpt lat="48.87593" lon="1.92296">
        <ele>97.599998474121</ele>
        <time>2016-06-12T08:25:32.000Z</time>
      </trkpt>
      <trkpt lat="48.87594" lon="1.92295">
        <ele>97.599998474121</ele>
        <time>2016-06-12T08:25:33.000Z</time>
      </trkpt>
      <trkpt lat="48.876" lon="1.92293">
        <ele>97.599998474121</ele>
        <time>2016-06-12T08:25:37.000Z</time>
      </trkpt>
      <trkpt lat="48.87603" lon="1.92292">
        <ele>97.800003051758</ele>
        <time>2016-06-12T08:25:39.000Z</time>
      </trkpt>
      <trkpt lat="48.87611" lon="1.9229">
        <ele>98.199996948242</ele>
        <time>2016-06-12T08:25:45.000Z</time>
      </trkpt>
      <trkpt lat="48.87618" lon="1.92289">
        <ele>98.400001525879</ele>
        <time>2016-06-12T08:25:50.000Z</time>
      </trkpt>
      <trkpt lat="48.8762" lon="1.9229">
        <ele>98.599998474121</ele>
        <time>2016-06-12T08:25:51.000Z</time>
      </trkpt>
      <trkpt lat="48.87624" lon="1.92289">
        <ele>98.599998474121</ele>
        <time>2016-06-12T08:25:54.000Z</time>
      </trkpt>
      <trkpt lat="48.87625" lon="1.92289">
        <ele>98.599998474121</ele>
        <time>2016-06-12T08:25:55.000Z</time>
      </trkpt>
      <trkpt lat="48.87625" lon="1.9229">
        <ele>98.800003051758</ele>
        <time>2016-06-12T08:25:56.000Z</time>
      </trkpt>
      <trkpt lat="48.8763" lon="1.92287">
        <ele>98.599998474121</ele>
        <time>2016-06-12T08:25:59.000Z</time>
      </trkpt>
      <trkpt lat="48.87632" lon="1.92287">
        <ele>98.800003051758</ele>
        <time>2016-06-12T08:26:00.000Z</time>
      </trkpt>
      <trkpt lat="48.87636" lon="1.92286">
        <ele>99</ele>
        <time>2016-06-12T08:26:03.000Z</time>
      </trkpt>
      <trkpt lat="48.87638" lon="1.92286">
        <ele>99</ele>
        <time>2016-06-12T08:26:04.000Z</time>
      </trkpt>
      <trkpt lat="48.87644" lon="1.92285">
        <ele>99.199996948242</ele>
        <time>2016-06-12T08:26:08.000Z</time>
      </trkpt>
      <trkpt lat="48.87655" lon="1.92282">
        <ele>99.400001525879</ele>
        <time>2016-06-12T08:26:15.000Z</time>
      </trkpt>
      <trkpt lat="48.87663" lon="1.92279">
        <ele>99.800003051758</ele>
        <time>2016-06-12T08:26:21.000Z</time>
      </trkpt>
      <trkpt lat="48.87675" lon="1.92279">
        <ele>100.40000152588</ele>
        <time>2016-06-12T08:26:28.000Z</time>
      </trkpt>
      <trkpt lat="48.87682" lon="1.92278">
        <ele>100.80000305176</ele>
        <time>2016-06-12T08:26:33.000Z</time>
      </trkpt>
      <trkpt lat="48.87683" lon="1.92278">
        <ele>101</ele>
        <time>2016-06-12T08:26:34.000Z</time>
      </trkpt>
      <trkpt lat="48.87692" lon="1.92276">
        <ele>101.19999694824</ele>
        <time>2016-06-12T08:26:39.000Z</time>
      </trkpt>
      <trkpt lat="48.87702" lon="1.92274">
        <ele>101.19999694824</ele>
        <time>2016-06-12T08:26:46.000Z</time>
      </trkpt>
      <trkpt lat="48.8771" lon="1.92273">
        <ele>101.19999694824</ele>
        <time>2016-06-12T08:26:52.000Z</time>
      </trkpt>
      <trkpt lat="48.87712" lon="1.92273">
        <ele>101.19999694824</ele>
        <time>2016-06-12T08:26:53.000Z</time>
      </trkpt>
      <trkpt lat="48.87716" lon="1.92273">
        <ele>101.40000152588</ele>
        <time>2016-06-12T08:26:56.000Z</time>
      </trkpt>
      <trkpt lat="48.8772" lon="1.92275">
        <ele>101.59999847412</ele>
        <time>2016-06-12T08:26:59.000Z</time>
      </trkpt>
      <trkpt lat="48.87722" lon="1.92274">
        <ele>101.59999847412</ele>
        <time>2016-06-12T08:27:01.000Z</time>
      </trkpt>
      <trkpt lat="48.87728" lon="1.92276">
        <ele>102</ele>
        <time>2016-06-12T08:27:05.000Z</time>
      </trkpt>
      <trkpt lat="48.87735" lon="1.92276">
        <ele>102.19999694824</ele>
        <time>2016-06-12T08:27:09.000Z</time>
      </trkpt>
      <trkpt lat="48.87736" lon="1.92277">
        <ele>102.19999694824</ele>
        <time>2016-06-12T08:27:10.000Z</time>
      </trkpt>
      <trkpt lat="48.87747" lon="1.9228">
        <ele>103</ele>
        <time>2016-06-12T08:27:17.000Z</time>
      </trkpt>
      <trkpt lat="48.8775" lon="1.92281">
        <ele>103.19999694824</ele>
        <time>2016-06-12T08:27:19.000Z</time>
      </trkpt>
      <trkpt lat="48.87757" lon="1.92282">
        <ele>103.40000152588</ele>
        <time>2016-06-12T08:27:23.000Z</time>
      </trkpt>
      <trkpt lat="48.87764" lon="1.92284">
        <ele>103.80000305176</ele>
        <time>2016-06-12T08:27:28.000Z</time>
      </trkpt>
      <trkpt lat="48.87771" lon="1.92286">
        <ele>104</ele>
        <time>2016-06-12T08:27:32.000Z</time>
      </trkpt>
      <trkpt lat="48.87774" lon="1.92287">
        <ele>104.19999694824</ele>
        <time>2016-06-12T08:27:34.000Z</time>
      </trkpt>
      <trkpt lat="48.87785" lon="1.92291">
        <ele>104</ele>
        <time>2016-06-12T08:27:41.000Z</time>
      </trkpt>
      <trkpt lat="48.87797" lon="1.92295">
        <ele>103.80000305176</ele>
        <time>2016-06-12T08:27:48.000Z</time>
      </trkpt>
      <trkpt lat="48.87809" lon="1.92299">
        <ele>103.59999847412</ele>
        <time>2016-06-12T08:27:55.000Z</time>
      </trkpt>
      <trkpt lat="48.8782" lon="1.92301">
        <ele>103</ele>
        <time>2016-06-12T08:28:02.000Z</time>
      </trkpt>
      <trkpt lat="48.87832" lon="1.92306">
        <ele>103</ele>
        <time>2016-06-12T08:28:09.000Z</time>
      </trkpt>
      <trkpt lat="48.87839" lon="1.9231">
        <ele>103</ele>
        <time>2016-06-12T08:28:13.000Z</time>
      </trkpt>
      <trkpt lat="48.87849" lon="1.92315">
        <ele>103.19999694824</ele>
        <time>2016-06-12T08:28:19.000Z</time>
      </trkpt>
      <trkpt lat="48.87855" lon="1.92318">
        <ele>103.19999694824</ele>
        <time>2016-06-12T08:28:23.000Z</time>
      </trkpt>
      <trkpt lat="48.87857" lon="1.92319">
        <ele>103.19999694824</ele>
        <time>2016-06-12T08:28:24.000Z</time>
      </trkpt>
      <trkpt lat="48.87868" lon="1.92327">
        <ele>102.80000305176</ele>
        <time>2016-06-12T08:28:32.000Z</time>
      </trkpt>
      <trkpt lat="48.87875" lon="1.92333">
        <ele>102.59999847412</ele>
        <time>2016-06-12T08:28:37.000Z</time>
      </trkpt>
      <trkpt lat="48.87883" lon="1.92339">
        <ele>102.19999694824</ele>
        <time>2016-06-12T08:28:43.000Z</time>
      </trkpt>
      <trkpt lat="48.87887" lon="1.92342">
        <ele>102</ele>
        <time>2016-06-12T08:28:46.000Z</time>
      </trkpt>
      <trkpt lat="48.8789" lon="1.92343">
        <ele>101.80000305176</ele>
        <time>2016-06-12T08:28:48.000Z</time>
      </trkpt>
      <trkpt lat="48.87899" lon="1.92352">
        <ele>101.59999847412</ele>
        <time>2016-06-12T08:28:54.000Z</time>
      </trkpt>
      <trkpt lat="48.87908" lon="1.92358">
        <ele>101</ele>
        <time>2016-06-12T08:29:00.000Z</time>
      </trkpt>
      <trkpt lat="48.8792" lon="1.92364">
        <ele>100.19999694824</ele>
        <time>2016-06-12T08:29:07.000Z</time>
      </trkpt>
      <trkpt lat="48.87921" lon="1.92366">
        <ele>100.19999694824</ele>
        <time>2016-06-12T08:29:08.000Z</time>
      </trkpt>
      <trkpt lat="48.87929" lon="1.92371">
        <ele>99.800003051758</ele>
        <time>2016-06-12T08:29:13.000Z</time>
      </trkpt>
      <trkpt lat="48.87934" lon="1.92374">
        <ele>99.599998474121</ele>
        <time>2016-06-12T08:29:16.000Z</time>
      </trkpt>
      <trkpt lat="48.87937" lon="1.92377">
        <ele>99.400001525879</ele>
        <time>2016-06-12T08:29:19.000Z</time>
      </trkpt>
      <trkpt lat="48.8794" lon="1.92377">
        <ele>99.199996948242</ele>
        <time>2016-06-12T08:29:21.000Z</time>
      </trkpt>
      <trkpt lat="48.87941" lon="1.92378">
        <ele>99.199996948242</ele>
        <time>2016-06-12T08:29:22.000Z</time>
      </trkpt>
      <trkpt lat="48.87946" lon="1.92382">
        <ele>99</ele>
        <time>2016-06-12T08:29:26.000Z</time>
      </trkpt>
      <trkpt lat="48.87947" lon="1.92383">
        <ele>99</ele>
        <time>2016-06-12T08:29:27.000Z</time>
      </trkpt>
      <trkpt lat="48.87956" lon="1.9239">
        <ele>99</ele>
        <time>2016-06-12T08:29:33.000Z</time>
      </trkpt>
      <trkpt lat="48.87966" lon="1.924">
        <ele>99.199996948242</ele>
        <time>2016-06-12T08:29:41.000Z</time>
      </trkpt>
      <trkpt lat="48.87967" lon="1.92402">
        <ele>99.199996948242</ele>
        <time>2016-06-12T08:29:42.000Z</time>
      </trkpt>
      <trkpt lat="48.87977" lon="1.9241">
        <ele>99</ele>
        <time>2016-06-12T08:29:50.000Z</time>
      </trkpt>
      <trkpt lat="48.87986" lon="1.92419">
        <ele>98.599998474121</ele>
        <time>2016-06-12T08:29:57.000Z</time>
      </trkpt>
      <trkpt lat="48.87992" lon="1.92429">
        <ele>98.400001525879</ele>
        <time>2016-06-12T08:30:03.000Z</time>
      </trkpt>
      <trkpt lat="48.87992" lon="1.92433">
        <ele>98.599998474121</ele>
        <time>2016-06-12T08:30:05.000Z</time>
      </trkpt>
      <trkpt lat="48.87992" lon="1.92441">
        <ele>98.800003051758</ele>
        <time>2016-06-12T08:30:08.000Z</time>
      </trkpt>
      <trkpt lat="48.87991" lon="1.92468">
        <ele>100.59999847412</ele>
        <time>2016-06-12T08:30:14.000Z</time>
      </trkpt>
      <trkpt lat="48.87992" lon="1.9248">
        <ele>101.59999847412</ele>
        <time>2016-06-12T08:30:19.000Z</time>
      </trkpt>
      <trkpt lat="48.87994" lon="1.92494">
        <ele>102.59999847412</ele>
        <time>2016-06-12T08:30:25.000Z</time>
      </trkpt>
      <trkpt lat="48.87998" lon="1.92512">
        <ele>103.59999847412</ele>
        <time>2016-06-12T08:30:33.000Z</time>
      </trkpt>
      <trkpt lat="48.88001" lon="1.92529">
        <ele>104.19999694824</ele>
        <time>2016-06-12T08:30:41.000Z</time>
      </trkpt>
      <trkpt lat="48.88007" lon="1.92548">
        <ele>104.59999847412</ele>
        <time>2016-06-12T08:30:50.000Z</time>
      </trkpt>
      <trkpt lat="48.88017" lon="1.92571">
        <ele>104.59999847412</ele>
        <time>2016-06-12T08:31:02.000Z</time>
      </trkpt>
      <trkpt lat="48.88024" lon="1.92586">
        <ele>105</ele>
        <time>2016-06-12T08:31:10.000Z</time>
      </trkpt>
      <trkpt lat="48.88031" lon="1.92604">
        <ele>106.19999694824</ele>
        <time>2016-06-12T08:31:19.000Z</time>
      </trkpt>
      <trkpt lat="48.88037" lon="1.92619">
        <ele>107.19999694824</ele>
        <time>2016-06-12T08:31:27.000Z</time>
      </trkpt>
      <trkpt lat="48.88042" lon="1.92638">
        <ele>108.40000152588</ele>
        <time>2016-06-12T08:31:36.000Z</time>
      </trkpt>
      <trkpt lat="48.88046" lon="1.92658">
        <ele>110</ele>
        <time>2016-06-12T08:31:45.000Z</time>
      </trkpt>
      <trkpt lat="48.88049" lon="1.92671">
        <ele>110.59999847412</ele>
        <time>2016-06-12T08:31:50.000Z</time>
      </trkpt>
      <trkpt lat="48.8805" lon="1.92673">
        <ele>110.59999847412</ele>
        <time>2016-06-12T08:31:51.000Z</time>
      </trkpt>
      <trkpt lat="48.8805" lon="1.92676">
        <ele>110.80000305176</ele>
        <time>2016-06-12T08:31:55.000Z</time>
      </trkpt>
      <trkpt lat="48.88059" lon="1.927">
        <ele>111.59999847412</ele>
        <time>2016-06-12T08:32:14.000Z</time>
      </trkpt>
      <trkpt lat="48.8806" lon="1.92701">
        <ele>111.59999847412</ele>
        <time>2016-06-12T08:32:15.000Z</time>
      </trkpt>
      <trkpt lat="48.88061" lon="1.92703">
        <ele>111.59999847412</ele>
        <time>2016-06-12T08:32:16.000Z</time>
      </trkpt>
      <trkpt lat="48.88064" lon="1.92711">
        <ele>111.80000305176</ele>
        <time>2016-06-12T08:32:21.000Z</time>
      </trkpt>
      <trkpt lat="48.88066" lon="1.92718">
        <ele>112</ele>
        <time>2016-06-12T08:32:25.000Z</time>
      </trkpt>
      <trkpt lat="48.88067" lon="1.9272">
        <ele>112</ele>
        <time>2016-06-12T08:32:26.000Z</time>
      </trkpt>
      <trkpt lat="48.88068" lon="1.92727">
        <ele>112.19999694824</ele>
        <time>2016-06-12T08:32:29.000Z</time>
      </trkpt>
      <trkpt lat="48.88069" lon="1.92731">
        <ele>112.19999694824</ele>
        <time>2016-06-12T08:32:31.000Z</time>
      </trkpt>
      <trkpt lat="48.88069" lon="1.92733">
        <ele>112.19999694824</ele>
        <time>2016-06-12T08:32:32.000Z</time>
      </trkpt>
      <trkpt lat="48.88071" lon="1.92738">
        <ele>112.40000152588</ele>
        <time>2016-06-12T08:32:35.000Z</time>
      </trkpt>
      <trkpt lat="48.88073" lon="1.92748">
        <ele>112.40000152588</ele>
        <time>2016-06-12T08:32:40.000Z</time>
      </trkpt>
      <trkpt lat="48.88075" lon="1.92755">
        <ele>112.59999847412</ele>
        <time>2016-06-12T08:32:43.000Z</time>
      </trkpt>
      <trkpt lat="48.88078" lon="1.9276">
        <ele>112.59999847412</ele>
        <time>2016-06-12T08:32:46.000Z</time>
      </trkpt>
      <trkpt lat="48.88083" lon="1.9277">
        <ele>112.59999847412</ele>
        <time>2016-06-12T08:32:52.000Z</time>
      </trkpt>
      <trkpt lat="48.88089" lon="1.92783">
        <ele>112.80000305176</ele>
        <time>2016-06-12T08:32:59.000Z</time>
      </trkpt>
      <trkpt lat="48.88093" lon="1.92789">
        <ele>112.80000305176</ele>
        <time>2016-06-12T08:33:03.000Z</time>
      </trkpt>
      <trkpt lat="48.88099" lon="1.92797">
        <ele>112.80000305176</ele>
        <time>2016-06-12T08:33:08.000Z</time>
      </trkpt>
      <trkpt lat="48.88103" lon="1.92807">
        <ele>112.80000305176</ele>
        <time>2016-06-12T08:33:14.000Z</time>
      </trkpt>
      <trkpt lat="48.88104" lon="1.92809">
        <ele>112.80000305176</ele>
        <time>2016-06-12T08:33:16.000Z</time>
      </trkpt>
      <trkpt lat="48.88105" lon="1.9281">
        <ele>112.80000305176</ele>
        <time>2016-06-12T08:33:19.000Z</time>
      </trkpt>
      <trkpt lat="48.8811" lon="1.92818">
        <ele>112.80000305176</ele>
        <time>2016-06-12T08:33:26.000Z</time>
      </trkpt>
      <trkpt lat="48.8811" lon="1.9282">
        <ele>112.80000305176</ele>
        <time>2016-06-12T08:33:27.000Z</time>
      </trkpt>
      <trkpt lat="48.88112" lon="1.92824">
        <ele>112.59999847412</ele>
        <time>2016-06-12T08:33:29.000Z</time>
      </trkpt>
      <trkpt lat="48.88113" lon="1.9283">
        <ele>113</ele>
        <time>2016-06-12T08:33:32.000Z</time>
      </trkpt>
      <trkpt lat="48.88116" lon="1.92842">
        <ele>113.40000152588</ele>
        <time>2016-06-12T08:33:38.000Z</time>
      </trkpt>
      <trkpt lat="48.88118" lon="1.92857">
        <ele>113.80000305176</ele>
        <time>2016-06-12T08:33:45.000Z</time>
      </trkpt>
      <trkpt lat="48.88119" lon="1.92858">
        <ele>113.80000305176</ele>
        <time>2016-06-12T08:33:46.000Z</time>
      </trkpt>
      <trkpt lat="48.88122" lon="1.92858">
        <ele>113.59999847412</ele>
        <time>2016-06-12T08:33:49.000Z</time>
      </trkpt>
      <trkpt lat="48.88128" lon="1.92858">
        <ele>113.40000152588</ele>
        <time>2016-06-12T08:33:54.000Z</time>
      </trkpt>
      <trkpt lat="48.88131" lon="1.92856">
        <ele>113.19999694824</ele>
        <time>2016-06-12T08:33:57.000Z</time>
      </trkpt>
      <trkpt lat="48.88138" lon="1.9285">
        <ele>112.59999847412</ele>
        <time>2016-06-12T08:34:03.000Z</time>
      </trkpt>
      <trkpt lat="48.88146" lon="1.92852">
        <ele>112.40000152588</ele>
        <time>2016-06-12T08:34:08.000Z</time>
      </trkpt>
      <trkpt lat="48.88155" lon="1.92862">
        <ele>112.40000152588</ele>
        <time>2016-06-12T08:34:13.000Z</time>
      </trkpt>
      <trkpt lat="48.88165" lon="1.92873">
        <ele>112.40000152588</ele>
        <time>2016-06-12T08:34:21.000Z</time>
      </trkpt>
      <trkpt lat="48.88176" lon="1.92886">
        <ele>112.59999847412</ele>
        <time>2016-06-12T08:34:26.000Z</time>
      </trkpt>
      <trkpt lat="48.8819" lon="1.92904">
        <ele>112.80000305176</ele>
        <time>2016-06-12T08:34:32.000Z</time>
      </trkpt>
      <trkpt lat="48.88205" lon="1.92925">
        <ele>113.19999694824</ele>
        <time>2016-06-12T08:34:39.000Z</time>
      </trkpt>
      <trkpt lat="48.88223" lon="1.92945">
        <ele>113.59999847412</ele>
        <time>2016-06-12T08:34:46.000Z</time>
      </trkpt>
      <trkpt lat="48.88237" lon="1.92963">
        <ele>113.80000305176</ele>
        <time>2016-06-12T08:34:52.000Z</time>
      </trkpt>
      <trkpt lat="48.88248" lon="1.92979">
        <ele>114.19999694824</ele>
        <time>2016-06-12T08:34:56.000Z</time>
      </trkpt>
      <trkpt lat="48.88259" lon="1.92999">
        <ele>114.40000152588</ele>
        <time>2016-06-12T08:35:01.000Z</time>
      </trkpt>
      <trkpt lat="48.88271" lon="1.93022">
        <ele>114.40000152588</ele>
        <time>2016-06-12T08:35:06.000Z</time>
      </trkpt>
      <trkpt lat="48.88289" lon="1.93057">
        <ele>115.19999694824</ele>
        <time>2016-06-12T08:35:13.000Z</time>
      </trkpt>
      <trkpt lat="48.88292" lon="1.93062">
        <ele>115.40000152588</ele>
        <time>2016-06-12T08:35:14.000Z</time>
      </trkpt>
      <trkpt lat="48.88298" lon="1.9307">
        <ele>115.59999847412</ele>
        <time>2016-06-12T08:35:16.000Z</time>
      </trkpt>
      <trkpt lat="48.88308" lon="1.93082">
        <ele>115.59999847412</ele>
        <time>2016-06-12T08:35:19.000Z</time>
      </trkpt>
      <trkpt lat="48.88324" lon="1.931">
        <ele>115.59999847412</ele>
        <time>2016-06-12T08:35:25.000Z</time>
      </trkpt>
      <trkpt lat="48.88329" lon="1.93106">
        <ele>115.59999847412</ele>
        <time>2016-06-12T08:35:28.000Z</time>
      </trkpt>
      <trkpt lat="48.88334" lon="1.93109">
        <ele>115.59999847412</ele>
        <time>2016-06-12T08:35:30.000Z</time>
      </trkpt>
      <trkpt lat="48.88337" lon="1.93114">
        <ele>115.59999847412</ele>
        <time>2016-06-12T08:35:33.000Z</time>
      </trkpt>
      <trkpt lat="48.88346" lon="1.93123">
        <ele>115.59999847412</ele>
        <time>2016-06-12T08:35:40.000Z</time>
      </trkpt>
      <trkpt lat="48.88354" lon="1.93132">
        <ele>115.59999847412</ele>
        <time>2016-06-12T08:35:47.000Z</time>
      </trkpt>
      <trkpt lat="48.88359" lon="1.93138">
        <ele>115.59999847412</ele>
        <time>2016-06-12T08:35:52.000Z</time>
      </trkpt>
      <trkpt lat="48.88366" lon="1.93134">
        <ele>115.80000305176</ele>
        <time>2016-06-12T08:35:56.000Z</time>
      </trkpt>
      <trkpt lat="48.8837" lon="1.93129">
        <ele>116.19999694824</ele>
        <time>2016-06-12T08:36:00.000Z</time>
      </trkpt>
      <trkpt lat="48.88372" lon="1.93127">
        <ele>116.19999694824</ele>
        <time>2016-06-12T08:36:01.000Z</time>
      </trkpt>
      <trkpt lat="48.8838" lon="1.93114">
        <ele>116.80000305176</ele>
        <time>2016-06-12T08:36:07.000Z</time>
      </trkpt>
      <trkpt lat="48.88385" lon="1.93103">
        <ele>117.40000152588</ele>
        <time>2016-06-12T08:36:12.000Z</time>
      </trkpt>
      <trkpt lat="48.88392" lon="1.93088">
        <ele>118</ele>
        <time>2016-06-12T08:36:20.000Z</time>
      </trkpt>
      <trkpt lat="48.884" lon="1.93071">
        <ele>118.59999847412</ele>
        <time>2016-06-12T08:36:29.000Z</time>
      </trkpt>
      <trkpt lat="48.88402" lon="1.9307">
        <ele>118.59999847412</ele>
        <time>2016-06-12T08:36:30.000Z</time>
      </trkpt>
      <trkpt lat="48.88406" lon="1.93073">
        <ele>118.80000305176</ele>
        <time>2016-06-12T08:36:33.000Z</time>
      </trkpt>
      <trkpt lat="48.88407" lon="1.93074">
        <ele>118.80000305176</ele>
        <time>2016-06-12T08:36:34.000Z</time>
      </trkpt>
      <trkpt lat="48.88415" lon="1.93082">
        <ele>119</ele>
        <time>2016-06-12T08:36:40.000Z</time>
      </trkpt>
      <trkpt lat="48.88422" lon="1.93089">
        <ele>119</ele>
        <time>2016-06-12T08:36:46.000Z</time>
      </trkpt>
      <trkpt lat="48.88433" lon="1.93095">
        <ele>119.19999694824</ele>
        <time>2016-06-12T08:36:53.000Z</time>
      </trkpt>
      <trkpt lat="48.88443" lon="1.93101">
        <ele>119.40000152588</ele>
        <time>2016-06-12T08:37:00.000Z</time>
      </trkpt>
      <trkpt lat="48.88447" lon="1.93102">
        <ele>119.40000152588</ele>
        <time>2016-06-12T08:37:02.000Z</time>
      </trkpt>
      <trkpt lat="48.88451" lon="1.93106">
        <ele>119.40000152588</ele>
        <time>2016-06-12T08:37:05.000Z</time>
      </trkpt>
      <trkpt lat="48.8846" lon="1.93111">
        <ele>119.40000152588</ele>
        <time>2016-06-12T08:37:11.000Z</time>
      </trkpt>
      <trkpt lat="48.88471" lon="1.9312">
        <ele>119.19999694824</ele>
        <time>2016-06-12T08:37:15.000Z</time>
      </trkpt>
      <trkpt lat="48.88492" lon="1.93135">
        <ele>119.19999694824</ele>
        <time>2016-06-12T08:37:22.000Z</time>
      </trkpt>
      <trkpt lat="48.88512" lon="1.93147">
        <ele>119.19999694824</ele>
        <time>2016-06-12T08:37:28.000Z</time>
      </trkpt>
      <trkpt lat="48.88539" lon="1.93165">
        <ele>119</ele>
        <time>2016-06-12T08:37:36.000Z</time>
      </trkpt>
      <trkpt lat="48.88559" lon="1.93178">
        <ele>119.40000152588</ele>
        <time>2016-06-12T08:37:42.000Z</time>
      </trkpt>
      <trkpt lat="48.88574" lon="1.93195">
        <ele>119.80000305176</ele>
        <time>2016-06-12T08:37:47.000Z</time>
      </trkpt>
      <trkpt lat="48.88591" lon="1.9322">
        <ele>120.40000152588</ele>
        <time>2016-06-12T08:37:53.000Z</time>
      </trkpt>
      <trkpt lat="48.8861" lon="1.93253">
        <ele>121.19999694824</ele>
        <time>2016-06-12T08:38:00.000Z</time>
      </trkpt>
      <trkpt lat="48.8862" lon="1.93269">
        <ele>121.59999847412</ele>
        <time>2016-06-12T08:38:05.000Z</time>
      </trkpt>
      <trkpt lat="48.88626" lon="1.93276">
        <ele>121.80000305176</ele>
        <time>2016-06-12T08:38:10.000Z</time>
      </trkpt>
      <trkpt lat="48.8863" lon="1.93282">
        <ele>122</ele>
        <time>2016-06-12T08:38:13.000Z</time>
      </trkpt>
      <trkpt lat="48.88631" lon="1.93284">
        <ele>122</ele>
        <time>2016-06-12T08:38:14.000Z</time>
      </trkpt>
      <trkpt lat="48.88637" lon="1.93295">
        <ele>122.40000152588</ele>
        <time>2016-06-12T08:38:20.000Z</time>
      </trkpt>
      <trkpt lat="48.88645" lon="1.93306">
        <ele>122.59999847412</ele>
        <time>2016-06-12T08:38:27.000Z</time>
      </trkpt>
      <trkpt lat="48.88656" lon="1.93321">
        <ele>123</ele>
        <time>2016-06-12T08:38:35.000Z</time>
      </trkpt>
      <trkpt lat="48.88663" lon="1.93332">
        <ele>123.40000152588</ele>
        <time>2016-06-12T08:38:42.000Z</time>
      </trkpt>
      <trkpt lat="48.88673" lon="1.93348">
        <ele>123.80000305176</ele>
        <time>2016-06-12T08:38:52.000Z</time>
      </trkpt>
      <trkpt lat="48.88677" lon="1.93361">
        <ele>124.40000152588</ele>
        <time>2016-06-12T08:38:59.000Z</time>
      </trkpt>
      <trkpt lat="48.88685" lon="1.93373">
        <ele>124.80000305176</ele>
        <time>2016-06-12T08:39:07.000Z</time>
      </trkpt>
      <trkpt lat="48.8869" lon="1.93383">
        <ele>125.19999694824</ele>
        <time>2016-06-12T08:39:13.000Z</time>
      </trkpt>
      <trkpt lat="48.88697" lon="1.93395">
        <ele>125.59999847412</ele>
        <time>2016-06-12T08:39:20.000Z</time>
      </trkpt>
      <trkpt lat="48.8871" lon="1.93417">
        <ele>126.59999847412</ele>
        <time>2016-06-12T08:39:32.000Z</time>
      </trkpt>
      <trkpt lat="48.88718" lon="1.93428">
        <ele>127</ele>
        <time>2016-06-12T08:39:39.000Z</time>
      </trkpt>
      <trkpt lat="48.88726" lon="1.9344">
        <ele>127.59999847412</ele>
        <time>2016-06-12T08:39:47.000Z</time>
      </trkpt>
      <trkpt lat="48.88731" lon="1.93451">
        <ele>128</ele>
        <time>2016-06-12T08:39:54.000Z</time>
      </trkpt>
      <trkpt lat="48.8874" lon="1.93465">
        <ele>128.60000610352</ele>
        <time>2016-06-12T08:40:02.000Z</time>
      </trkpt>
      <trkpt lat="48.88746" lon="1.93476">
        <ele>128.80000305176</ele>
        <time>2016-06-12T08:40:08.000Z</time>
      </trkpt>
      <trkpt lat="48.88758" lon="1.93498">
        <ele>129.60000610352</ele>
        <time>2016-06-12T08:40:17.000Z</time>
      </trkpt>
      <trkpt lat="48.88764" lon="1.93508">
        <ele>130</ele>
        <time>2016-06-12T08:40:23.000Z</time>
      </trkpt>
      <trkpt lat="48.88774" lon="1.93522">
        <ele>130.80000305176</ele>
        <time>2016-06-12T08:40:31.000Z</time>
      </trkpt>
      <trkpt lat="48.8878" lon="1.93532">
        <ele>131.39999389648</ele>
        <time>2016-06-12T08:40:37.000Z</time>
      </trkpt>
      <trkpt lat="48.88789" lon="1.93546">
        <ele>132.39999389648</ele>
        <time>2016-06-12T08:40:45.000Z</time>
      </trkpt>
      <trkpt lat="48.88791" lon="1.9355">
        <ele>132.80000305176</ele>
        <time>2016-06-12T08:40:47.000Z</time>
      </trkpt>
      <trkpt lat="48.88794" lon="1.93555">
        <ele>133</ele>
        <time>2016-06-12T08:40:50.000Z</time>
      </trkpt>
      <trkpt lat="48.88798" lon="1.93561">
        <ele>133.39999389648</ele>
        <time>2016-06-12T08:40:53.000Z</time>
      </trkpt>
      <trkpt lat="48.88802" lon="1.93568">
        <ele>134</ele>
        <time>2016-06-12T08:40:57.000Z</time>
      </trkpt>
      <trkpt lat="48.88812" lon="1.93581">
        <ele>135.19999694824</ele>
        <time>2016-06-12T08:41:05.000Z</time>
      </trkpt>
      <trkpt lat="48.88813" lon="1.93583">
        <ele>135.39999389648</ele>
        <time>2016-06-12T08:41:06.000Z</time>
      </trkpt>
      <trkpt lat="48.88821" lon="1.93596">
        <ele>136.80000305176</ele>
        <time>2016-06-12T08:41:14.000Z</time>
      </trkpt>
      <trkpt lat="48.88827" lon="1.93606">
        <ele>137.80000305176</ele>
        <time>2016-06-12T08:41:19.000Z</time>
      </trkpt>
      <trkpt lat="48.88828" lon="1.93607">
        <ele>138</ele>
        <time>2016-06-12T08:41:21.000Z</time>
      </trkpt>
      <trkpt lat="48.88831" lon="1.93612">
        <ele>138.39999389648</ele>
        <time>2016-06-12T08:41:24.000Z</time>
      </trkpt>
      <trkpt lat="48.8884" lon="1.93626">
        <ele>140</ele>
        <time>2016-06-12T08:41:32.000Z</time>
      </trkpt>
      <trkpt lat="48.88845" lon="1.93633">
        <ele>140.80000305176</ele>
        <time>2016-06-12T08:41:37.000Z</time>
      </trkpt>
      <trkpt lat="48.88846" lon="1.93636">
        <ele>141</ele>
        <time>2016-06-12T08:41:38.000Z</time>
      </trkpt>
      <trkpt lat="48.88852" lon="1.93643">
        <ele>141.80000305176</ele>
        <time>2016-06-12T08:41:42.000Z</time>
      </trkpt>
      <trkpt lat="48.88855" lon="1.93649">
        <ele>142.39999389648</ele>
        <time>2016-06-12T08:41:46.000Z</time>
      </trkpt>
      <trkpt lat="48.88857" lon="1.9365">
        <ele>142.60000610352</ele>
        <time>2016-06-12T08:41:47.000Z</time>
      </trkpt>
      <trkpt lat="48.88862" lon="1.9366">
        <ele>143.39999389648</ele>
        <time>2016-06-12T08:41:53.000Z</time>
      </trkpt>
      <trkpt lat="48.88865" lon="1.93667">
        <ele>144</ele>
        <time>2016-06-12T08:41:57.000Z</time>
      </trkpt>
      <trkpt lat="48.88866" lon="1.93671">
        <ele>144.19999694824</ele>
        <time>2016-06-12T08:41:58.000Z</time>
      </trkpt>
      <trkpt lat="48.8887" lon="1.9368">
        <ele>144.80000305176</ele>
        <time>2016-06-12T08:42:01.000Z</time>
      </trkpt>
      <trkpt lat="48.88872" lon="1.93687">
        <ele>145.19999694824</ele>
        <time>2016-06-12T08:42:03.000Z</time>
      </trkpt>
      <trkpt lat="48.88875" lon="1.93693">
        <ele>145.60000610352</ele>
        <time>2016-06-12T08:42:05.000Z</time>
      </trkpt>
      <trkpt lat="48.88878" lon="1.93704">
        <ele>146.19999694824</ele>
        <time>2016-06-12T08:42:10.000Z</time>
      </trkpt>
      <trkpt lat="48.88881" lon="1.9371">
        <ele>146.60000610352</ele>
        <time>2016-06-12T08:42:14.000Z</time>
      </trkpt>
      <trkpt lat="48.88884" lon="1.93718">
        <ele>147.19999694824</ele>
        <time>2016-06-12T08:42:19.000Z</time>
      </trkpt>
      <trkpt lat="48.88886" lon="1.93719">
        <ele>147.39999389648</ele>
        <time>2016-06-12T08:42:20.000Z</time>
      </trkpt>
      <trkpt lat="48.88894" lon="1.93732">
        <ele>148.39999389648</ele>
        <time>2016-06-12T08:42:26.000Z</time>
      </trkpt>
      <trkpt lat="48.88899" lon="1.93744">
        <ele>149.19999694824</ele>
        <time>2016-06-12T08:42:32.000Z</time>
      </trkpt>
      <trkpt lat="48.88901" lon="1.93746">
        <ele>149.60000610352</ele>
        <time>2016-06-12T08:42:34.000Z</time>
      </trkpt>
      <trkpt lat="48.88902" lon="1.93749">
        <ele>149.80000305176</ele>
        <time>2016-06-12T08:42:35.000Z</time>
      </trkpt>
      <trkpt lat="48.88907" lon="1.93758">
        <ele>150.60000610352</ele>
        <time>2016-06-12T08:42:40.000Z</time>
      </trkpt>
      <trkpt lat="48.88908" lon="1.93761">
        <ele>151</ele>
        <time>2016-06-12T08:42:42.000Z</time>
      </trkpt>
      <trkpt lat="48.8891" lon="1.93769">
        <ele>151.60000610352</ele>
        <time>2016-06-12T08:42:46.000Z</time>
      </trkpt>
      <trkpt lat="48.88912" lon="1.93774">
        <ele>152</ele>
        <time>2016-06-12T08:42:50.000Z</time>
      </trkpt>
      <trkpt lat="48.88914" lon="1.93777">
        <ele>152.19999694824</ele>
        <time>2016-06-12T08:42:52.000Z</time>
      </trkpt>
      <trkpt lat="48.88915" lon="1.9378">
        <ele>152.60000610352</ele>
        <time>2016-06-12T08:42:54.000Z</time>
      </trkpt>
      <trkpt lat="48.88916" lon="1.93782">
        <ele>152.80000305176</ele>
        <time>2016-06-12T08:42:55.000Z</time>
      </trkpt>
      <trkpt lat="48.88916" lon="1.93786">
        <ele>153</ele>
        <time>2016-06-12T08:42:57.000Z</time>
      </trkpt>
      <trkpt lat="48.88916" lon="1.93788">
        <ele>153.19999694824</ele>
        <time>2016-06-12T08:42:58.000Z</time>
      </trkpt>
      <trkpt lat="48.88918" lon="1.93794">
        <ele>153.60000610352</ele>
        <time>2016-06-12T08:43:01.000Z</time>
      </trkpt>
      <trkpt lat="48.88922" lon="1.9381">
        <ele>154.80000305176</ele>
        <time>2016-06-12T08:43:05.000Z</time>
      </trkpt>
      <trkpt lat="48.88923" lon="1.93818">
        <ele>155.39999389648</ele>
        <time>2016-06-12T08:43:08.000Z</time>
      </trkpt>
      <trkpt lat="48.88924" lon="1.9382">
        <ele>155.39999389648</ele>
        <time>2016-06-12T08:43:09.000Z</time>
      </trkpt>
      <trkpt lat="48.88925" lon="1.93824">
        <ele>155.80000305176</ele>
        <time>2016-06-12T08:43:11.000Z</time>
      </trkpt>
      <trkpt lat="48.88927" lon="1.93832">
        <ele>156.19999694824</ele>
        <time>2016-06-12T08:43:15.000Z</time>
      </trkpt>
      <trkpt lat="48.8893" lon="1.93843">
        <ele>157</ele>
        <time>2016-06-12T08:43:20.000Z</time>
      </trkpt>
      <trkpt lat="48.8893" lon="1.93845">
        <ele>157.19999694824</ele>
        <time>2016-06-12T08:43:21.000Z</time>
      </trkpt>
      <trkpt lat="48.88932" lon="1.93856">
        <ele>157.80000305176</ele>
        <time>2016-06-12T08:43:26.000Z</time>
      </trkpt>
      <trkpt lat="48.88933" lon="1.93866">
        <ele>158.39999389648</ele>
        <time>2016-06-12T08:43:30.000Z</time>
      </trkpt>
      <trkpt lat="48.88933" lon="1.93881">
        <ele>159.19999694824</ele>
        <time>2016-06-12T08:43:36.000Z</time>
      </trkpt>
      <trkpt lat="48.88934" lon="1.93885">
        <ele>159.39999389648</ele>
        <time>2016-06-12T08:43:38.000Z</time>
      </trkpt>
      <trkpt lat="48.88936" lon="1.93892">
        <ele>160</ele>
        <time>2016-06-12T08:43:41.000Z</time>
      </trkpt>
      <trkpt lat="48.88937" lon="1.93897">
        <ele>160.19999694824</ele>
        <time>2016-06-12T08:43:44.000Z</time>
      </trkpt>
      <trkpt lat="48.88938" lon="1.93901">
        <ele>160.60000610352</ele>
        <time>2016-06-12T08:43:46.000Z</time>
      </trkpt>
      <trkpt lat="48.88939" lon="1.93908">
        <ele>161</ele>
        <time>2016-06-12T08:43:49.000Z</time>
      </trkpt>
      <trkpt lat="48.88941" lon="1.93912">
        <ele>161.19999694824</ele>
        <time>2016-06-12T08:43:51.000Z</time>
      </trkpt>
      <trkpt lat="48.88942" lon="1.93917">
        <ele>161.39999389648</ele>
        <time>2016-06-12T08:43:53.000Z</time>
      </trkpt>
      <trkpt lat="48.88944" lon="1.93924">
        <ele>162</ele>
        <time>2016-06-12T08:43:56.000Z</time>
      </trkpt>
      <trkpt lat="48.88946" lon="1.93931">
        <ele>162.39999389648</ele>
        <time>2016-06-12T08:44:00.000Z</time>
      </trkpt>
      <trkpt lat="48.88949" lon="1.93937">
        <ele>163</ele>
        <time>2016-06-12T08:44:03.000Z</time>
      </trkpt>
      <trkpt lat="48.88951" lon="1.93942">
        <ele>163.19999694824</ele>
        <time>2016-06-12T08:44:05.000Z</time>
      </trkpt>
      <trkpt lat="48.88952" lon="1.93955">
        <ele>163.80000305176</ele>
        <time>2016-06-12T08:44:11.000Z</time>
      </trkpt>
      <trkpt lat="48.88955" lon="1.93968">
        <ele>164.39999389648</ele>
        <time>2016-06-12T08:44:18.000Z</time>
      </trkpt>
      <trkpt lat="48.88957" lon="1.93982">
        <ele>165</ele>
        <time>2016-06-12T08:44:25.000Z</time>
      </trkpt>
      <trkpt lat="48.88961" lon="1.93991">
        <ele>165.80000305176</ele>
        <time>2016-06-12T08:44:31.000Z</time>
      </trkpt>
      <trkpt lat="48.88963" lon="1.93996">
        <ele>166.19999694824</ele>
        <time>2016-06-12T08:44:34.000Z</time>
      </trkpt>
      <trkpt lat="48.88964" lon="1.94">
        <ele>166.39999389648</ele>
        <time>2016-06-12T08:44:36.000Z</time>
      </trkpt>
      <trkpt lat="48.88969" lon="1.94013">
        <ele>167.19999694824</ele>
        <time>2016-06-12T08:44:41.000Z</time>
      </trkpt>
      <trkpt lat="48.88972" lon="1.94022">
        <ele>167.60000610352</ele>
        <time>2016-06-12T08:44:46.000Z</time>
      </trkpt>
      <trkpt lat="48.88975" lon="1.94034">
        <ele>168.19999694824</ele>
        <time>2016-06-12T08:44:52.000Z</time>
      </trkpt>
      <trkpt lat="48.88978" lon="1.9404">
        <ele>168.80000305176</ele>
        <time>2016-06-12T08:44:56.000Z</time>
      </trkpt>
      <trkpt lat="48.8898" lon="1.94043">
        <ele>169</ele>
        <time>2016-06-12T08:44:58.000Z</time>
      </trkpt>
      <trkpt lat="48.88982" lon="1.94046">
        <ele>169.39999389648</ele>
        <time>2016-06-12T08:45:00.000Z</time>
      </trkpt>
      <trkpt lat="48.88986" lon="1.94055">
        <ele>170</ele>
        <time>2016-06-12T08:45:05.000Z</time>
      </trkpt>
      <trkpt lat="48.88989" lon="1.94062">
        <ele>170.60000610352</ele>
        <time>2016-06-12T08:45:09.000Z</time>
      </trkpt>
      <trkpt lat="48.8899" lon="1.94064">
        <ele>170.80000305176</ele>
        <time>2016-06-12T08:45:10.000Z</time>
      </trkpt>
      <trkpt lat="48.88993" lon="1.94069">
        <ele>171.19999694824</ele>
        <time>2016-06-12T08:45:13.000Z</time>
      </trkpt>
      <trkpt lat="48.88994" lon="1.94073">
        <ele>171.60000610352</ele>
        <time>2016-06-12T08:45:15.000Z</time>
      </trkpt>
      <trkpt lat="48.88998" lon="1.94083">
        <ele>171.80000305176</ele>
        <time>2016-06-12T08:45:21.000Z</time>
      </trkpt>
      <trkpt lat="48.89004" lon="1.94093">
        <ele>172.39999389648</ele>
        <time>2016-06-12T08:45:27.000Z</time>
      </trkpt>
      <trkpt lat="48.89013" lon="1.94103">
        <ele>173.39999389648</ele>
        <time>2016-06-12T08:45:34.000Z</time>
      </trkpt>
      <trkpt lat="48.89014" lon="1.94104">
        <ele>173.39999389648</ele>
        <time>2016-06-12T08:45:35.000Z</time>
      </trkpt>
      <trkpt lat="48.89019" lon="1.9411">
        <ele>174</ele>
        <time>2016-06-12T08:45:39.000Z</time>
      </trkpt>
      <trkpt lat="48.89022" lon="1.94115">
        <ele>174.39999389648</ele>
        <time>2016-06-12T08:45:43.000Z</time>
      </trkpt>
      <trkpt lat="48.89025" lon="1.94118">
        <ele>174.60000610352</ele>
        <time>2016-06-12T08:45:45.000Z</time>
      </trkpt>
      <trkpt lat="48.89032" lon="1.94124">
        <ele>175.80000305176</ele>
        <time>2016-06-12T08:45:51.000Z</time>
      </trkpt>
      <trkpt lat="48.89037" lon="1.9413">
        <ele>176.39999389648</ele>
        <time>2016-06-12T08:45:55.000Z</time>
      </trkpt>
      <trkpt lat="48.89043" lon="1.94137">
        <ele>177.19999694824</ele>
        <time>2016-06-12T08:46:01.000Z</time>
      </trkpt>
      <trkpt lat="48.89045" lon="1.94139">
        <ele>177.39999389648</ele>
        <time>2016-06-12T08:46:03.000Z</time>
      </trkpt>
      <trkpt lat="48.89047" lon="1.9414">
        <ele>177.60000610352</ele>
        <time>2016-06-12T08:46:06.000Z</time>
      </trkpt>
      <trkpt lat="48.89058" lon="1.94152">
        <ele>179</ele>
        <time>2016-06-12T08:46:28.000Z</time>
      </trkpt>
      <trkpt lat="48.89066" lon="1.94158">
        <ele>180.19999694824</ele>
        <time>2016-06-12T08:46:34.000Z</time>
      </trkpt>
      <trkpt lat="48.8907" lon="1.94163">
        <ele>180.80000305176</ele>
        <time>2016-06-12T08:46:38.000Z</time>
      </trkpt>
      <trkpt lat="48.89072" lon="1.94164">
        <ele>181</ele>
        <time>2016-06-12T08:46:39.000Z</time>
      </trkpt>
      <trkpt lat="48.89074" lon="1.94167">
        <ele>181.19999694824</ele>
        <time>2016-06-12T08:46:41.000Z</time>
      </trkpt>
      <trkpt lat="48.89078" lon="1.94172">
        <ele>181.80000305176</ele>
        <time>2016-06-12T08:46:45.000Z</time>
      </trkpt>
      <trkpt lat="48.89087" lon="1.9418">
        <ele>182.80000305176</ele>
        <time>2016-06-12T08:46:52.000Z</time>
      </trkpt>
      <trkpt lat="48.89091" lon="1.94186">
        <ele>183.39999389648</ele>
        <time>2016-06-12T08:46:58.000Z</time>
      </trkpt>
      <trkpt lat="48.89092" lon="1.94187">
        <ele>183.60000610352</ele>
        <time>2016-06-12T08:47:02.000Z</time>
      </trkpt>
      <trkpt lat="48.89098" lon="1.94199">
        <ele>184.39999389648</ele>
        <time>2016-06-12T08:47:13.000Z</time>
      </trkpt>
      <trkpt lat="48.891" lon="1.94205">
        <ele>184.60000610352</ele>
        <time>2016-06-12T08:47:16.000Z</time>
      </trkpt>
      <trkpt lat="48.89104" lon="1.94221">
        <ele>185</ele>
        <time>2016-06-12T08:47:24.000Z</time>
      </trkpt>
      <trkpt lat="48.89106" lon="1.94237">
        <ele>185</ele>
        <time>2016-06-12T08:47:31.000Z</time>
      </trkpt>
      <trkpt lat="48.8911" lon="1.94254">
        <ele>185.19999694824</ele>
        <time>2016-06-12T08:47:39.000Z</time>
      </trkpt>
      <trkpt lat="48.8911" lon="1.94258">
        <ele>185.19999694824</ele>
        <time>2016-06-12T08:47:41.000Z</time>
      </trkpt>
      <trkpt lat="48.89112" lon="1.94264">
        <ele>185.19999694824</ele>
        <time>2016-06-12T08:47:44.000Z</time>
      </trkpt>
      <trkpt lat="48.89112" lon="1.94266">
        <ele>185.19999694824</ele>
        <time>2016-06-12T08:47:45.000Z</time>
      </trkpt>
      <trkpt lat="48.89118" lon="1.94285">
        <ele>185.60000610352</ele>
        <time>2016-06-12T08:47:54.000Z</time>
      </trkpt>
      <trkpt lat="48.89121" lon="1.94294">
        <ele>185.80000305176</ele>
        <time>2016-06-12T08:47:59.000Z</time>
      </trkpt>
      <trkpt lat="48.89125" lon="1.94299">
        <ele>186</ele>
        <time>2016-06-12T08:48:05.000Z</time>
      </trkpt>
      <trkpt lat="48.89142" lon="1.94301">
        <ele>187.60000610352</ele>
        <time>2016-06-12T08:48:20.000Z</time>
      </trkpt>
      <trkpt lat="48.89145" lon="1.943">
        <ele>188</ele>
        <time>2016-06-12T08:48:23.000Z</time>
      </trkpt>
      <trkpt lat="48.89149" lon="1.943">
        <ele>188.39999389648</ele>
        <time>2016-06-12T08:48:25.000Z</time>
      </trkpt>
      <trkpt lat="48.89151" lon="1.94298">
        <ele>188.60000610352</ele>
        <time>2016-06-12T08:48:27.000Z</time>
      </trkpt>
      <trkpt lat="48.89154" lon="1.94296">
        <ele>188.80000305176</ele>
        <time>2016-06-12T08:48:29.000Z</time>
      </trkpt>
      <trkpt lat="48.89161" lon="1.94289">
        <ele>189.60000610352</ele>
        <time>2016-06-12T08:48:32.000Z</time>
      </trkpt>
      <trkpt lat="48.89162" lon="1.94287">
        <ele>189.60000610352</ele>
        <time>2016-06-12T08:48:33.000Z</time>
      </trkpt>
      <trkpt lat="48.8917" lon="1.94274">
        <ele>190.39999389648</ele>
        <time>2016-06-12T08:48:38.000Z</time>
      </trkpt>
      <trkpt lat="48.89179" lon="1.94263">
        <ele>191</ele>
        <time>2016-06-12T08:48:45.000Z</time>
      </trkpt>
      <trkpt lat="48.89187" lon="1.9425">
        <ele>191.80000305176</ele>
        <time>2016-06-12T08:48:52.000Z</time>
      </trkpt>
      <trkpt lat="48.89194" lon="1.94235">
        <ele>192.19999694824</ele>
        <time>2016-06-12T08:49:00.000Z</time>
      </trkpt>
      <trkpt lat="48.89202" lon="1.94224">
        <ele>192.39999389648</ele>
        <time>2016-06-12T08:49:07.000Z</time>
      </trkpt>
      <trkpt lat="48.89206" lon="1.94221">
        <ele>192.39999389648</ele>
        <time>2016-06-12T08:49:11.000Z</time>
      </trkpt>
      <trkpt lat="48.89208" lon="1.9422">
        <ele>192.39999389648</ele>
        <time>2016-06-12T08:49:12.000Z</time>
      </trkpt>
      <trkpt lat="48.89211" lon="1.94214">
        <ele>192.60000610352</ele>
        <time>2016-06-12T08:49:15.000Z</time>
      </trkpt>
      <trkpt lat="48.89214" lon="1.94209">
        <ele>192.60000610352</ele>
        <time>2016-06-12T08:49:18.000Z</time>
      </trkpt>
      <trkpt lat="48.8922" lon="1.94199">
        <ele>192.80000305176</ele>
        <time>2016-06-12T08:49:25.000Z</time>
      </trkpt>
      <trkpt lat="48.89226" lon="1.9419">
        <ele>193</ele>
        <time>2016-06-12T08:49:31.000Z</time>
      </trkpt>
      <trkpt lat="48.8923" lon="1.94188">
        <ele>192.80000305176</ele>
        <time>2016-06-12T08:49:33.000Z</time>
      </trkpt>
      <trkpt lat="48.89233" lon="1.94184">
        <ele>192.60000610352</ele>
        <time>2016-06-12T08:49:36.000Z</time>
      </trkpt>
      <trkpt lat="48.89238" lon="1.94175">
        <ele>192.19999694824</ele>
        <time>2016-06-12T08:49:40.000Z</time>
      </trkpt>
      <trkpt lat="48.8924" lon="1.94171">
        <ele>192.19999694824</ele>
        <time>2016-06-12T08:49:42.000Z</time>
      </trkpt>
      <trkpt lat="48.89242" lon="1.94165">
        <ele>192</ele>
        <time>2016-06-12T08:49:45.000Z</time>
      </trkpt>
      <trkpt lat="48.89247" lon="1.94159">
        <ele>191.60000610352</ele>
        <time>2016-06-12T08:49:49.000Z</time>
      </trkpt>
      <trkpt lat="48.89254" lon="1.94145">
        <ele>191.39999389648</ele>
        <time>2016-06-12T08:49:55.000Z</time>
      </trkpt>
      <trkpt lat="48.8926" lon="1.9413">
        <ele>191.39999389648</ele>
        <time>2016-06-12T08:50:00.000Z</time>
      </trkpt>
      <trkpt lat="48.89261" lon="1.94126">
        <ele>191.60000610352</ele>
        <time>2016-06-12T08:50:01.000Z</time>
      </trkpt>
      <trkpt lat="48.89263" lon="1.94122">
        <ele>191.60000610352</ele>
        <time>2016-06-12T08:50:03.000Z</time>
      </trkpt>
      <trkpt lat="48.89265" lon="1.94115">
        <ele>191.60000610352</ele>
        <time>2016-06-12T08:50:06.000Z</time>
      </trkpt>
      <trkpt lat="48.89267" lon="1.94114">
        <ele>191.60000610352</ele>
        <time>2016-06-12T08:50:08.000Z</time>
      </trkpt>
      <trkpt lat="48.89271" lon="1.94108">
        <ele>191.60000610352</ele>
        <time>2016-06-12T08:50:11.000Z</time>
      </trkpt>
      <trkpt lat="48.89276" lon="1.94099">
        <ele>191.80000305176</ele>
        <time>2016-06-12T08:50:17.000Z</time>
      </trkpt>
      <trkpt lat="48.89284" lon="1.94089">
        <ele>192</ele>
        <time>2016-06-12T08:50:23.000Z</time>
      </trkpt>
      <trkpt lat="48.89289" lon="1.94079">
        <ele>192.19999694824</ele>
        <time>2016-06-12T08:50:28.000Z</time>
      </trkpt>
      <trkpt lat="48.89296" lon="1.94066">
        <ele>192.19999694824</ele>
        <time>2016-06-12T08:50:35.000Z</time>
      </trkpt>
      <trkpt lat="48.89303" lon="1.94051">
        <ele>192.39999389648</ele>
        <time>2016-06-12T08:50:42.000Z</time>
      </trkpt>
      <trkpt lat="48.89309" lon="1.94041">
        <ele>192.39999389648</ele>
        <time>2016-06-12T08:50:49.000Z</time>
      </trkpt>
      <trkpt lat="48.8931" lon="1.94039">
        <ele>192.39999389648</ele>
        <time>2016-06-12T08:50:50.000Z</time>
      </trkpt>
      <trkpt lat="48.89316" lon="1.9403">
        <ele>192.60000610352</ele>
        <time>2016-06-12T08:50:56.000Z</time>
      </trkpt>
      <trkpt lat="48.89322" lon="1.94012">
        <ele>192.60000610352</ele>
        <time>2016-06-12T08:51:04.000Z</time>
      </trkpt>
      <trkpt lat="48.89328" lon="1.94002">
        <ele>192.60000610352</ele>
        <time>2016-06-12T08:51:10.000Z</time>
      </trkpt>
      <trkpt lat="48.89329" lon="1.94">
        <ele>192.60000610352</ele>
        <time>2016-06-12T08:51:13.000Z</time>
      </trkpt>
      <trkpt lat="48.89336" lon="1.93981">
        <ele>192.39999389648</ele>
        <time>2016-06-12T08:51:43.000Z</time>
      </trkpt>
      <trkpt lat="48.89337" lon="1.9398">
        <ele>192.39999389648</ele>
        <time>2016-06-12T08:51:44.000Z</time>
      </trkpt>
      <trkpt lat="48.89342" lon="1.93974">
        <ele>192.19999694824</ele>
        <time>2016-06-12T08:51:49.000Z</time>
      </trkpt>
      <trkpt lat="48.89344" lon="1.93972">
        <ele>192.39999389648</ele>
        <time>2016-06-12T08:51:51.000Z</time>
      </trkpt>
      <trkpt lat="48.89346" lon="1.9397">
        <ele>192.39999389648</ele>
        <time>2016-06-12T08:51:53.000Z</time>
      </trkpt>
      <trkpt lat="48.89348" lon="1.93967">
        <ele>192.60000610352</ele>
        <time>2016-06-12T08:51:55.000Z</time>
      </trkpt>
      <trkpt lat="48.8935" lon="1.93962">
        <ele>192.60000610352</ele>
        <time>2016-06-12T08:51:58.000Z</time>
      </trkpt>
      <trkpt lat="48.89354" lon="1.93956">
        <ele>192.80000305176</ele>
        <time>2016-06-12T08:52:02.000Z</time>
      </trkpt>
      <trkpt lat="48.89355" lon="1.93955">
        <ele>193</ele>
        <time>2016-06-12T08:52:03.000Z</time>
      </trkpt>
      <trkpt lat="48.89361" lon="1.93945">
        <ele>193</ele>
        <time>2016-06-12T08:52:09.000Z</time>
      </trkpt>
      <trkpt lat="48.89368" lon="1.93934">
        <ele>193</ele>
        <time>2016-06-12T08:52:16.000Z</time>
      </trkpt>
      <trkpt lat="48.89375" lon="1.93924">
        <ele>193</ele>
        <time>2016-06-12T08:52:22.000Z</time>
      </trkpt>
      <trkpt lat="48.8938" lon="1.93913">
        <ele>192.60000610352</ele>
        <time>2016-06-12T08:52:29.000Z</time>
      </trkpt>
      <trkpt lat="48.89381" lon="1.93911">
        <ele>192.39999389648</ele>
        <time>2016-06-12T08:52:33.000Z</time>
      </trkpt>
      <trkpt lat="48.89385" lon="1.93904">
        <ele>192.19999694824</ele>
        <time>2016-06-12T08:52:38.000Z</time>
      </trkpt>
      <trkpt lat="48.89385" lon="1.93903">
        <ele>192</ele>
        <time>2016-06-12T08:52:39.000Z</time>
      </trkpt>
      <trkpt lat="48.89386" lon="1.93901">
        <ele>192</ele>
        <time>2016-06-12T08:52:40.000Z</time>
      </trkpt>
      <trkpt lat="48.89387" lon="1.93899">
        <ele>191.80000305176</ele>
        <time>2016-06-12T08:52:43.000Z</time>
      </trkpt>
      <trkpt lat="48.89392" lon="1.9389">
        <ele>191</ele>
        <time>2016-06-12T08:52:53.000Z</time>
      </trkpt>
      <trkpt lat="48.894" lon="1.93879">
        <ele>190.19999694824</ele>
        <time>2016-06-12T08:53:00.000Z</time>
      </trkpt>
      <trkpt lat="48.89402" lon="1.93875">
        <ele>190</ele>
        <time>2016-06-12T08:53:03.000Z</time>
      </trkpt>
      <trkpt lat="48.89405" lon="1.9387">
        <ele>189.60000610352</ele>
        <time>2016-06-12T08:53:06.000Z</time>
      </trkpt>
      <trkpt lat="48.89405" lon="1.93865">
        <ele>189.39999389648</ele>
        <time>2016-06-12T08:53:09.000Z</time>
      </trkpt>
      <trkpt lat="48.89407" lon="1.93861">
        <ele>189.39999389648</ele>
        <time>2016-06-12T08:53:12.000Z</time>
      </trkpt>
      <trkpt lat="48.89407" lon="1.9386">
        <ele>189.39999389648</ele>
        <time>2016-06-12T08:53:13.000Z</time>
      </trkpt>
      <trkpt lat="48.89408" lon="1.93859">
        <ele>189.19999694824</ele>
        <time>2016-06-12T08:53:16.000Z</time>
      </trkpt>
      <trkpt lat="48.89411" lon="1.9385">
        <ele>189</ele>
        <time>2016-06-12T08:54:28.000Z</time>
      </trkpt>
      <trkpt lat="48.89411" lon="1.93847">
        <ele>188.80000305176</ele>
        <time>2016-06-12T08:54:29.000Z</time>
      </trkpt>
      <trkpt lat="48.89408" lon="1.93841">
        <ele>188.60000610352</ele>
        <time>2016-06-12T08:54:32.000Z</time>
      </trkpt>
      <trkpt lat="48.89408" lon="1.93837">
        <ele>188.39999389648</ele>
        <time>2016-06-12T08:54:34.000Z</time>
      </trkpt>
      <trkpt lat="48.89407" lon="1.93836">
        <ele>188.39999389648</ele>
        <time>2016-06-12T08:54:35.000Z</time>
      </trkpt>
      <trkpt lat="48.89406" lon="1.93828">
        <ele>188.19999694824</ele>
        <time>2016-06-12T08:54:39.000Z</time>
      </trkpt>
      <trkpt lat="48.89406" lon="1.93826">
        <ele>188</ele>
        <time>2016-06-12T08:54:40.000Z</time>
      </trkpt>
      <trkpt lat="48.89404" lon="1.93823">
        <ele>188</ele>
        <time>2016-06-12T08:54:41.000Z</time>
      </trkpt>
      <trkpt lat="48.89403" lon="1.9382">
        <ele>187.80000305176</ele>
        <time>2016-06-12T08:54:43.000Z</time>
      </trkpt>
      <trkpt lat="48.89399" lon="1.93815">
        <ele>187.39999389648</ele>
        <time>2016-06-12T08:54:47.000Z</time>
      </trkpt>
      <trkpt lat="48.89397" lon="1.93805">
        <ele>186.80000305176</ele>
        <time>2016-06-12T08:54:52.000Z</time>
      </trkpt>
      <trkpt lat="48.89397" lon="1.93802">
        <ele>186.60000610352</ele>
        <time>2016-06-12T08:54:54.000Z</time>
      </trkpt>
      <trkpt lat="48.89399" lon="1.93789">
        <ele>185.80000305176</ele>
        <time>2016-06-12T08:55:00.000Z</time>
      </trkpt>
      <trkpt lat="48.89404" lon="1.93778">
        <ele>185.60000610352</ele>
        <time>2016-06-12T08:55:06.000Z</time>
      </trkpt>
      <trkpt lat="48.89405" lon="1.93776">
        <ele>185.60000610352</ele>
        <time>2016-06-12T08:55:07.000Z</time>
      </trkpt>
      <trkpt lat="48.89408" lon="1.93768">
        <ele>185.60000610352</ele>
        <time>2016-06-12T08:55:11.000Z</time>
      </trkpt>
      <trkpt lat="48.89409" lon="1.93767">
        <ele>185.60000610352</ele>
        <time>2016-06-12T08:55:12.000Z</time>
      </trkpt>
      <trkpt lat="48.89414" lon="1.93754">
        <ele>185.39999389648</ele>
        <time>2016-06-12T08:55:19.000Z</time>
      </trkpt>
      <trkpt lat="48.89419" lon="1.93739">
        <ele>185</ele>
        <time>2016-06-12T08:55:25.000Z</time>
      </trkpt>
      <trkpt lat="48.89425" lon="1.93721">
        <ele>183.39999389648</ele>
        <time>2016-06-12T08:55:31.000Z</time>
      </trkpt>
      <trkpt lat="48.8943" lon="1.93709">
        <ele>183.39999389648</ele>
        <time>2016-06-12T08:55:35.000Z</time>
      </trkpt>
      <trkpt lat="48.89436" lon="1.93691">
        <ele>183.19999694824</ele>
        <time>2016-06-12T08:55:42.000Z</time>
      </trkpt>
      <trkpt lat="48.89437" lon="1.9369">
        <ele>183.19999694824</ele>
        <time>2016-06-12T08:55:43.000Z</time>
      </trkpt>
      <trkpt lat="48.89437" lon="1.93688">
        <ele>183.19999694824</ele>
        <time>2016-06-12T08:55:46.000Z</time>
      </trkpt>
      <trkpt lat="48.89465" lon="1.93643">
        <ele>183</ele>
        <time>2016-06-12T08:57:02.000Z</time>
      </trkpt>
      <trkpt lat="48.8947" lon="1.93643">
        <ele>183</ele>
        <time>2016-06-12T08:57:05.000Z</time>
      </trkpt>
      <trkpt lat="48.89473" lon="1.93644">
        <ele>183.19999694824</ele>
        <time>2016-06-12T08:57:08.000Z</time>
      </trkpt>
      <trkpt lat="48.89476" lon="1.93644">
        <ele>183.19999694824</ele>
        <time>2016-06-12T08:57:10.000Z</time>
      </trkpt>
      <trkpt lat="48.8948" lon="1.93645">
        <ele>183.39999389648</ele>
        <time>2016-06-12T08:57:13.000Z</time>
      </trkpt>
      <trkpt lat="48.89485" lon="1.93648">
        <ele>183.60000610352</ele>
        <time>2016-06-12T08:57:17.000Z</time>
      </trkpt>
      <trkpt lat="48.89487" lon="1.93648">
        <ele>183.60000610352</ele>
        <time>2016-06-12T08:57:18.000Z</time>
      </trkpt>
      <trkpt lat="48.89495" lon="1.93647">
        <ele>184</ele>
        <time>2016-06-12T08:57:23.000Z</time>
      </trkpt>
      <trkpt lat="48.89496" lon="1.93648">
        <ele>184</ele>
        <time>2016-06-12T08:57:24.000Z</time>
      </trkpt>
      <trkpt lat="48.89499" lon="1.93647">
        <ele>184.19999694824</ele>
        <time>2016-06-12T08:57:26.000Z</time>
      </trkpt>
      <trkpt lat="48.89502" lon="1.93646">
        <ele>184.19999694824</ele>
        <time>2016-06-12T08:57:28.000Z</time>
      </trkpt>
      <trkpt lat="48.89509" lon="1.93641">
        <ele>184.39999389648</ele>
        <time>2016-06-12T08:57:33.000Z</time>
      </trkpt>
      <trkpt lat="48.89513" lon="1.9364">
        <ele>184.80000305176</ele>
        <time>2016-06-12T08:57:36.000Z</time>
      </trkpt>
      <trkpt lat="48.89519" lon="1.93639">
        <ele>185</ele>
        <time>2016-06-12T08:57:39.000Z</time>
      </trkpt>
      <trkpt lat="48.89532" lon="1.93637">
        <ele>185.39999389648</ele>
        <time>2016-06-12T08:57:47.000Z</time>
      </trkpt>
      <trkpt lat="48.89535" lon="1.93635">
        <ele>185.60000610352</ele>
        <time>2016-06-12T08:57:50.000Z</time>
      </trkpt>
      <trkpt lat="48.89537" lon="1.93631">
        <ele>185.60000610352</ele>
        <time>2016-06-12T08:57:53.000Z</time>
      </trkpt>
      <trkpt lat="48.89543" lon="1.9363">
        <ele>185.80000305176</ele>
        <time>2016-06-12T08:57:58.000Z</time>
      </trkpt>
      <trkpt lat="48.89549" lon="1.93627">
        <ele>186</ele>
        <time>2016-06-12T08:58:02.000Z</time>
      </trkpt>
      <trkpt lat="48.89551" lon="1.93623">
        <ele>186</ele>
        <time>2016-06-12T08:58:04.000Z</time>
      </trkpt>
      <trkpt lat="48.89555" lon="1.93617">
        <ele>186.19999694824</ele>
        <time>2016-06-12T08:58:08.000Z</time>
      </trkpt>
      <trkpt lat="48.89559" lon="1.93615">
        <ele>186.39999389648</ele>
        <time>2016-06-12T08:58:10.000Z</time>
      </trkpt>
      <trkpt lat="48.89562" lon="1.93613">
        <ele>186.39999389648</ele>
        <time>2016-06-12T08:58:12.000Z</time>
      </trkpt>
      <trkpt lat="48.89569" lon="1.93605">
        <ele>186.80000305176</ele>
        <time>2016-06-12T08:58:18.000Z</time>
      </trkpt>
      <trkpt lat="48.89574" lon="1.93597">
        <ele>187</ele>
        <time>2016-06-12T08:58:23.000Z</time>
      </trkpt>
      <trkpt lat="48.89579" lon="1.93586">
        <ele>187.19999694824</ele>
        <time>2016-06-12T08:58:29.000Z</time>
      </trkpt>
      <trkpt lat="48.89582" lon="1.93582">
        <ele>187.39999389648</ele>
        <time>2016-06-12T08:58:31.000Z</time>
      </trkpt>
      <trkpt lat="48.89585" lon="1.93576">
        <ele>187.39999389648</ele>
        <time>2016-06-12T08:58:34.000Z</time>
      </trkpt>
      <trkpt lat="48.89592" lon="1.93566">
        <ele>187.80000305176</ele>
        <time>2016-06-12T08:58:41.000Z</time>
      </trkpt>
      <trkpt lat="48.89593" lon="1.93564">
        <ele>187.80000305176</ele>
        <time>2016-06-12T08:58:42.000Z</time>
      </trkpt>
      <trkpt lat="48.89596" lon="1.93559">
        <ele>188</ele>
        <time>2016-06-12T08:58:46.000Z</time>
      </trkpt>
      <trkpt lat="48.89597" lon="1.93558">
        <ele>188</ele>
        <time>2016-06-12T08:58:47.000Z</time>
      </trkpt>
      <trkpt lat="48.89598" lon="1.93557">
        <ele>188</ele>
        <time>2016-06-12T08:58:48.000Z</time>
      </trkpt>
      <trkpt lat="48.896" lon="1.93553">
        <ele>188</ele>
        <time>2016-06-12T08:58:51.000Z</time>
      </trkpt>
      <trkpt lat="48.89603" lon="1.93547">
        <ele>188.19999694824</ele>
        <time>2016-06-12T08:58:54.000Z</time>
      </trkpt>
      <trkpt lat="48.89604" lon="1.93545">
        <ele>188.19999694824</ele>
        <time>2016-06-12T08:58:55.000Z</time>
      </trkpt>
      <trkpt lat="48.8961" lon="1.93532">
        <ele>188.60000610352</ele>
        <time>2016-06-12T08:58:59.000Z</time>
      </trkpt>
      <trkpt lat="48.89613" lon="1.93528">
        <ele>188.60000610352</ele>
        <time>2016-06-12T08:59:01.000Z</time>
      </trkpt>
      <trkpt lat="48.89615" lon="1.93525">
        <ele>188.60000610352</ele>
        <time>2016-06-12T08:59:03.000Z</time>
      </trkpt>
      <trkpt lat="48.89617" lon="1.93521">
        <ele>188.80000305176</ele>
        <time>2016-06-12T08:59:05.000Z</time>
      </trkpt>
      <trkpt lat="48.8962" lon="1.93515">
        <ele>188.80000305176</ele>
        <time>2016-06-12T08:59:08.000Z</time>
      </trkpt>
      <trkpt lat="48.89625" lon="1.93504">
        <ele>189</ele>
        <time>2016-06-12T08:59:14.000Z</time>
      </trkpt>
      <trkpt lat="48.89626" lon="1.93502">
        <ele>189</ele>
        <time>2016-06-12T08:59:15.000Z</time>
      </trkpt>
      <trkpt lat="48.89633" lon="1.93489">
        <ele>189</ele>
        <time>2016-06-12T08:59:22.000Z</time>
      </trkpt>
      <trkpt lat="48.8964" lon="1.93475">
        <ele>189.19999694824</ele>
        <time>2016-06-12T08:59:29.000Z</time>
      </trkpt>
      <trkpt lat="48.89646" lon="1.93467">
        <ele>189.19999694824</ele>
        <time>2016-06-12T08:59:34.000Z</time>
      </trkpt>
      <trkpt lat="48.89647" lon="1.93464">
        <ele>189.39999389648</ele>
        <time>2016-06-12T08:59:36.000Z</time>
      </trkpt>
      <trkpt lat="48.89651" lon="1.93454">
        <ele>189.39999389648</ele>
        <time>2016-06-12T08:59:41.000Z</time>
      </trkpt>
      <trkpt lat="48.89655" lon="1.9345">
        <ele>189.39999389648</ele>
        <time>2016-06-12T08:59:44.000Z</time>
      </trkpt>
      <trkpt lat="48.89657" lon="1.93448">
        <ele>189.39999389648</ele>
        <time>2016-06-12T08:59:46.000Z</time>
      </trkpt>
      <trkpt lat="48.89663" lon="1.93437">
        <ele>189.39999389648</ele>
        <time>2016-06-12T08:59:51.000Z</time>
      </trkpt>
      <trkpt lat="48.89669" lon="1.9343">
        <ele>189.19999694824</ele>
        <time>2016-06-12T08:59:56.000Z</time>
      </trkpt>
      <trkpt lat="48.89669" lon="1.93427">
        <ele>189.19999694824</ele>
        <time>2016-06-12T08:59:57.000Z</time>
      </trkpt>
      <trkpt lat="48.89673" lon="1.9342">
        <ele>189.19999694824</ele>
        <time>2016-06-12T09:00:00.000Z</time>
      </trkpt>
      <trkpt lat="48.89678" lon="1.93409">
        <ele>189.19999694824</ele>
        <time>2016-06-12T09:00:04.000Z</time>
      </trkpt>
      <trkpt lat="48.89682" lon="1.93402">
        <ele>189</ele>
        <time>2016-06-12T09:00:07.000Z</time>
      </trkpt>
      <trkpt lat="48.89689" lon="1.93392">
        <ele>189</ele>
        <time>2016-06-12T09:00:11.000Z</time>
      </trkpt>
      <trkpt lat="48.897" lon="1.93375">
        <ele>189.19999694824</ele>
        <time>2016-06-12T09:00:17.000Z</time>
      </trkpt>
      <trkpt lat="48.89707" lon="1.93365">
        <ele>189.39999389648</ele>
        <time>2016-06-12T09:00:24.000Z</time>
      </trkpt>
      <trkpt lat="48.89708" lon="1.93365">
        <ele>189.39999389648</ele>
        <time>2016-06-12T09:00:25.000Z</time>
      </trkpt>
      <trkpt lat="48.8971" lon="1.93361">
        <ele>189.39999389648</ele>
        <time>2016-06-12T09:00:28.000Z</time>
      </trkpt>
      <trkpt lat="48.89713" lon="1.93352">
        <ele>189.60000610352</ele>
        <time>2016-06-12T09:00:32.000Z</time>
      </trkpt>
      <trkpt lat="48.89714" lon="1.9335">
        <ele>189.60000610352</ele>
        <time>2016-06-12T09:00:34.000Z</time>
      </trkpt>
      <trkpt lat="48.89715" lon="1.93348">
        <ele>189.60000610352</ele>
        <time>2016-06-12T09:00:35.000Z</time>
      </trkpt>
      <trkpt lat="48.8972" lon="1.93342">
        <ele>189.60000610352</ele>
        <time>2016-06-12T09:00:39.000Z</time>
      </trkpt>
      <trkpt lat="48.89725" lon="1.93335">
        <ele>189.60000610352</ele>
        <time>2016-06-12T09:00:42.000Z</time>
      </trkpt>
      <trkpt lat="48.89727" lon="1.93331">
        <ele>189.60000610352</ele>
        <time>2016-06-12T09:00:44.000Z</time>
      </trkpt>
      <trkpt lat="48.89731" lon="1.93323">
        <ele>189.39999389648</ele>
        <time>2016-06-12T09:00:47.000Z</time>
      </trkpt>
      <trkpt lat="48.89737" lon="1.93311">
        <ele>189.60000610352</ele>
        <time>2016-06-12T09:00:53.000Z</time>
      </trkpt>
      <trkpt lat="48.89741" lon="1.93304">
        <ele>189.60000610352</ele>
        <time>2016-06-12T09:00:56.000Z</time>
      </trkpt>
      <trkpt lat="48.89742" lon="1.93302">
        <ele>189.60000610352</ele>
        <time>2016-06-12T09:00:58.000Z</time>
      </trkpt>
      <trkpt lat="48.89744" lon="1.93301">
        <ele>189.60000610352</ele>
        <time>2016-06-12T09:00:59.000Z</time>
      </trkpt>
      <trkpt lat="48.8975" lon="1.93295">
        <ele>189.80000305176</ele>
        <time>2016-06-12T09:01:04.000Z</time>
      </trkpt>
      <trkpt lat="48.89755" lon="1.93285">
        <ele>190.19999694824</ele>
        <time>2016-06-12T09:01:09.000Z</time>
      </trkpt>
      <trkpt lat="48.89758" lon="1.93279">
        <ele>190.60000610352</ele>
        <time>2016-06-12T09:01:14.000Z</time>
      </trkpt>
      <trkpt lat="48.89767" lon="1.93261">
        <ele>191.39999389648</ele>
        <time>2016-06-12T09:01:25.000Z</time>
      </trkpt>
      <trkpt lat="48.89773" lon="1.93252">
        <ele>191.80000305176</ele>
        <time>2016-06-12T09:01:30.000Z</time>
      </trkpt>
      <trkpt lat="48.89776" lon="1.93249">
        <ele>191.80000305176</ele>
        <time>2016-06-12T09:01:32.000Z</time>
      </trkpt>
      <trkpt lat="48.89781" lon="1.93241">
        <ele>191.60000610352</ele>
        <time>2016-06-12T09:01:36.000Z</time>
      </trkpt>
      <trkpt lat="48.89788" lon="1.9323">
        <ele>190.80000305176</ele>
        <time>2016-06-12T09:01:41.000Z</time>
      </trkpt>
      <trkpt lat="48.89795" lon="1.93216">
        <ele>190.19999694824</ele>
        <time>2016-06-12T09:01:48.000Z</time>
      </trkpt>
      <trkpt lat="48.89803" lon="1.93203">
        <ele>189.39999389648</ele>
        <time>2016-06-12T09:01:55.000Z</time>
      </trkpt>
      <trkpt lat="48.89807" lon="1.9319">
        <ele>189</ele>
        <time>2016-06-12T09:02:01.000Z</time>
      </trkpt>
      <trkpt lat="48.89813" lon="1.93178">
        <ele>188.39999389648</ele>
        <time>2016-06-12T09:02:07.000Z</time>
      </trkpt>
      <trkpt lat="48.89816" lon="1.93171">
        <ele>188</ele>
        <time>2016-06-12T09:02:11.000Z</time>
      </trkpt>
      <trkpt lat="48.89817" lon="1.9317">
        <ele>188</ele>
        <time>2016-06-12T09:02:12.000Z</time>
      </trkpt>
      <trkpt lat="48.89824" lon="1.93162">
        <ele>187.39999389648</ele>
        <time>2016-06-12T09:02:17.000Z</time>
      </trkpt>
      <trkpt lat="48.89825" lon="1.93161">
        <ele>187.39999389648</ele>
        <time>2016-06-12T09:02:18.000Z</time>
      </trkpt>
      <trkpt lat="48.89828" lon="1.93156">
        <ele>187</ele>
        <time>2016-06-12T09:02:21.000Z</time>
      </trkpt>
      <trkpt lat="48.89833" lon="1.93144">
        <ele>186.60000610352</ele>
        <time>2016-06-12T09:02:27.000Z</time>
      </trkpt>
      <trkpt lat="48.89834" lon="1.93142">
        <ele>186.39999389648</ele>
        <time>2016-06-12T09:02:28.000Z</time>
      </trkpt>
      <trkpt lat="48.89836" lon="1.93137">
        <ele>186.19999694824</ele>
        <time>2016-06-12T09:02:31.000Z</time>
      </trkpt>
      <trkpt lat="48.89837" lon="1.93136">
        <ele>186.19999694824</ele>
        <time>2016-06-12T09:02:32.000Z</time>
      </trkpt>
      <trkpt lat="48.89839" lon="1.93127">
        <ele>186.19999694824</ele>
        <time>2016-06-12T09:02:37.000Z</time>
      </trkpt>
      <trkpt lat="48.89843" lon="1.9312">
        <ele>186</ele>
        <time>2016-06-12T09:02:41.000Z</time>
      </trkpt>
      <trkpt lat="48.8985" lon="1.93112">
        <ele>185.80000305176</ele>
        <time>2016-06-12T09:02:46.000Z</time>
      </trkpt>
      <trkpt lat="48.89852" lon="1.93104">
        <ele>185.80000305176</ele>
        <time>2016-06-12T09:02:50.000Z</time>
      </trkpt>
      <trkpt lat="48.89853" lon="1.93103">
        <ele>185.80000305176</ele>
        <time>2016-06-12T09:02:51.000Z</time>
      </trkpt>
      <trkpt lat="48.89858" lon="1.93096">
        <ele>185.60000610352</ele>
        <time>2016-06-12T09:02:55.000Z</time>
      </trkpt>
      <trkpt lat="48.89863" lon="1.93089">
        <ele>185.60000610352</ele>
        <time>2016-06-12T09:02:57.000Z</time>
      </trkpt>
      <trkpt lat="48.89868" lon="1.93083">
        <ele>185.60000610352</ele>
        <time>2016-06-12T09:02:59.000Z</time>
      </trkpt>
      <trkpt lat="48.89874" lon="1.93072">
        <ele>185.80000305176</ele>
        <time>2016-06-12T09:03:03.000Z</time>
      </trkpt>
      <trkpt lat="48.89878" lon="1.9306">
        <ele>185.80000305176</ele>
        <time>2016-06-12T09:03:09.000Z</time>
      </trkpt>
      <trkpt lat="48.89878" lon="1.93058">
        <ele>185.80000305176</ele>
        <time>2016-06-12T09:03:10.000Z</time>
      </trkpt>
      <trkpt lat="48.8988" lon="1.93049">
        <ele>185.80000305176</ele>
        <time>2016-06-12T09:03:14.000Z</time>
      </trkpt>
      <trkpt lat="48.89882" lon="1.93046">
        <ele>185.60000610352</ele>
        <time>2016-06-12T09:03:16.000Z</time>
      </trkpt>
      <trkpt lat="48.89885" lon="1.9304">
        <ele>185.60000610352</ele>
        <time>2016-06-12T09:03:20.000Z</time>
      </trkpt>
      <trkpt lat="48.89888" lon="1.93037">
        <ele>185.60000610352</ele>
        <time>2016-06-12T09:03:23.000Z</time>
      </trkpt>
      <trkpt lat="48.8989" lon="1.93035">
        <ele>185.60000610352</ele>
        <time>2016-06-12T09:03:25.000Z</time>
      </trkpt>
      <trkpt lat="48.89896" lon="1.93025">
        <ele>185.60000610352</ele>
        <time>2016-06-12T09:03:30.000Z</time>
      </trkpt>
      <trkpt lat="48.89897" lon="1.93023">
        <ele>185.60000610352</ele>
        <time>2016-06-12T09:03:31.000Z</time>
      </trkpt>
      <trkpt lat="48.89903" lon="1.93016">
        <ele>186</ele>
        <time>2016-06-12T09:03:35.000Z</time>
      </trkpt>
      <trkpt lat="48.89909" lon="1.93006">
        <ele>186.19999694824</ele>
        <time>2016-06-12T09:03:40.000Z</time>
      </trkpt>
      <trkpt lat="48.89914" lon="1.93">
        <ele>186.39999389648</ele>
        <time>2016-06-12T09:03:44.000Z</time>
      </trkpt>
      <trkpt lat="48.89917" lon="1.92996">
        <ele>186.60000610352</ele>
        <time>2016-06-12T09:03:47.000Z</time>
      </trkpt>
      <trkpt lat="48.89918" lon="1.92995">
        <ele>186.60000610352</ele>
        <time>2016-06-12T09:03:48.000Z</time>
      </trkpt>
      <trkpt lat="48.89921" lon="1.92991">
        <ele>186.80000305176</ele>
        <time>2016-06-12T09:03:51.000Z</time>
      </trkpt>
      <trkpt lat="48.89925" lon="1.92982">
        <ele>187.19999694824</ele>
        <time>2016-06-12T09:03:55.000Z</time>
      </trkpt>
      <trkpt lat="48.89928" lon="1.92979">
        <ele>187.19999694824</ele>
        <time>2016-06-12T09:03:57.000Z</time>
      </trkpt>
      <trkpt lat="48.89933" lon="1.92972">
        <ele>187.19999694824</ele>
        <time>2016-06-12T09:04:00.000Z</time>
      </trkpt>
      <trkpt lat="48.89941" lon="1.92959">
        <ele>187</ele>
        <time>2016-06-12T09:04:06.000Z</time>
      </trkpt>
      <trkpt lat="48.89949" lon="1.92945">
        <ele>186.80000305176</ele>
        <time>2016-06-12T09:04:12.000Z</time>
      </trkpt>
      <trkpt lat="48.89958" lon="1.92933">
        <ele>186.60000610352</ele>
        <time>2016-06-12T09:04:19.000Z</time>
      </trkpt>
      <trkpt lat="48.89964" lon="1.92917">
        <ele>186</ele>
        <time>2016-06-12T09:04:26.000Z</time>
      </trkpt>
      <trkpt lat="48.89965" lon="1.92914">
        <ele>186</ele>
        <time>2016-06-12T09:04:28.000Z</time>
      </trkpt>
      <trkpt lat="48.89963" lon="1.92909">
        <ele>186</ele>
        <time>2016-06-12T09:04:31.000Z</time>
      </trkpt>
      <trkpt lat="48.89962" lon="1.92908">
        <ele>186</ele>
        <time>2016-06-12T09:04:32.000Z</time>
      </trkpt>
      <trkpt lat="48.89954" lon="1.92902">
        <ele>186.19999694824</ele>
        <time>2016-06-12T09:04:36.000Z</time>
      </trkpt>
      <trkpt lat="48.89954" lon="1.929">
        <ele>186.19999694824</ele>
        <time>2016-06-12T09:04:37.000Z</time>
      </trkpt>
      <trkpt lat="48.89949" lon="1.92896">
        <ele>186.19999694824</ele>
        <time>2016-06-12T09:04:41.000Z</time>
      </trkpt>
      <trkpt lat="48.89941" lon="1.92886">
        <ele>186.39999389648</ele>
        <time>2016-06-12T09:04:49.000Z</time>
      </trkpt>
      <trkpt lat="48.89932" lon="1.92879">
        <ele>186.60000610352</ele>
        <time>2016-06-12T09:04:56.000Z</time>
      </trkpt>
      <trkpt lat="48.89924" lon="1.92871">
        <ele>186.80000305176</ele>
        <time>2016-06-12T09:05:03.000Z</time>
      </trkpt>
      <trkpt lat="48.8992" lon="1.92868">
        <ele>186.80000305176</ele>
        <time>2016-06-12T09:05:06.000Z</time>
      </trkpt>
      <trkpt lat="48.89918" lon="1.92864">
        <ele>186.80000305176</ele>
        <time>2016-06-12T09:05:09.000Z</time>
      </trkpt>
      <trkpt lat="48.89915" lon="1.92863">
        <ele>186.80000305176</ele>
        <time>2016-06-12T09:05:11.000Z</time>
      </trkpt>
      <trkpt lat="48.89914" lon="1.92863">
        <ele>186.80000305176</ele>
        <time>2016-06-12T09:05:12.000Z</time>
      </trkpt>
      <trkpt lat="48.89911" lon="1.92861">
        <ele>187</ele>
        <time>2016-06-12T09:05:14.000Z</time>
      </trkpt>
      <trkpt lat="48.89904" lon="1.92852">
        <ele>187</ele>
        <time>2016-06-12T09:05:21.000Z</time>
      </trkpt>
      <trkpt lat="48.89893" lon="1.92844">
        <ele>187.19999694824</ele>
        <time>2016-06-12T09:05:28.000Z</time>
      </trkpt>
      <trkpt lat="48.89885" lon="1.92839">
        <ele>187.39999389648</ele>
        <time>2016-06-12T09:05:33.000Z</time>
      </trkpt>
      <trkpt lat="48.89884" lon="1.92838">
        <ele>187.39999389648</ele>
        <time>2016-06-12T09:05:34.000Z</time>
      </trkpt>
      <trkpt lat="48.89876" lon="1.92833">
        <ele>187.39999389648</ele>
        <time>2016-06-12T09:05:39.000Z</time>
      </trkpt>
      <trkpt lat="48.89867" lon="1.92825">
        <ele>187.60000610352</ele>
        <time>2016-06-12T09:05:46.000Z</time>
      </trkpt>
      <trkpt lat="48.89858" lon="1.92816">
        <ele>187.60000610352</ele>
        <time>2016-06-12T09:05:53.000Z</time>
      </trkpt>
      <trkpt lat="48.89849" lon="1.9281">
        <ele>187.80000305176</ele>
        <time>2016-06-12T09:06:00.000Z</time>
      </trkpt>
      <trkpt lat="48.89841" lon="1.92803">
        <ele>188</ele>
        <time>2016-06-12T09:06:06.000Z</time>
      </trkpt>
      <trkpt lat="48.89834" lon="1.92798">
        <ele>188.19999694824</ele>
        <time>2016-06-12T09:06:12.000Z</time>
      </trkpt>
      <trkpt lat="48.89826" lon="1.92792">
        <ele>188.19999694824</ele>
        <time>2016-06-12T09:06:18.000Z</time>
      </trkpt>
      <trkpt lat="48.89819" lon="1.92784">
        <ele>188.39999389648</ele>
        <time>2016-06-12T09:06:24.000Z</time>
      </trkpt>
      <trkpt lat="48.89811" lon="1.9278">
        <ele>188.60000610352</ele>
        <time>2016-06-12T09:06:31.000Z</time>
      </trkpt>
      <trkpt lat="48.89803" lon="1.92775">
        <ele>188.80000305176</ele>
        <time>2016-06-12T09:06:38.000Z</time>
      </trkpt>
      <trkpt lat="48.89801" lon="1.92773">
        <ele>188.80000305176</ele>
        <time>2016-06-12T09:06:40.000Z</time>
      </trkpt>
      <trkpt lat="48.89798" lon="1.9277">
        <ele>188.80000305176</ele>
        <time>2016-06-12T09:06:43.000Z</time>
      </trkpt>
      <trkpt lat="48.89796" lon="1.9277">
        <ele>188.80000305176</ele>
        <time>2016-06-12T09:06:44.000Z</time>
      </trkpt>
      <trkpt lat="48.89791" lon="1.92766">
        <ele>189</ele>
        <time>2016-06-12T09:06:48.000Z</time>
      </trkpt>
      <trkpt lat="48.89789" lon="1.92766">
        <ele>189</ele>
        <time>2016-06-12T09:06:49.000Z</time>
      </trkpt>
      <trkpt lat="48.89784" lon="1.92762">
        <ele>189.19999694824</ele>
        <time>2016-06-12T09:06:53.000Z</time>
      </trkpt>
      <trkpt lat="48.89775" lon="1.92756">
        <ele>189.39999389648</ele>
        <time>2016-06-12T09:06:59.000Z</time>
      </trkpt>
      <trkpt lat="48.89773" lon="1.92755">
        <ele>189.39999389648</ele>
        <time>2016-06-12T09:07:00.000Z</time>
      </trkpt>
      <trkpt lat="48.89769" lon="1.92753">
        <ele>189.19999694824</ele>
        <time>2016-06-12T09:07:03.000Z</time>
      </trkpt>
      <trkpt lat="48.89766" lon="1.92751">
        <ele>189.19999694824</ele>
        <time>2016-06-12T09:07:05.000Z</time>
      </trkpt>
      <trkpt lat="48.8976" lon="1.92746">
        <ele>189.19999694824</ele>
        <time>2016-06-12T09:07:10.000Z</time>
      </trkpt>
      <trkpt lat="48.89752" lon="1.92741">
        <ele>189</ele>
        <time>2016-06-12T09:07:16.000Z</time>
      </trkpt>
      <trkpt lat="48.89749" lon="1.92738">
        <ele>189</ele>
        <time>2016-06-12T09:07:19.000Z</time>
      </trkpt>
      <trkpt lat="48.89747" lon="1.92737">
        <ele>189</ele>
        <time>2016-06-12T09:07:21.000Z</time>
      </trkpt>
      <trkpt lat="48.89745" lon="1.92734">
        <ele>188.80000305176</ele>
        <time>2016-06-12T09:07:23.000Z</time>
      </trkpt>
      <trkpt lat="48.89742" lon="1.92729">
        <ele>188.80000305176</ele>
        <time>2016-06-12T09:07:25.000Z</time>
      </trkpt>
      <trkpt lat="48.89737" lon="1.92723">
        <ele>188.60000610352</ele>
        <time>2016-06-12T09:07:29.000Z</time>
      </trkpt>
      <trkpt lat="48.89736" lon="1.92721">
        <ele>188.60000610352</ele>
        <time>2016-06-12T09:07:30.000Z</time>
      </trkpt>
      <trkpt lat="48.89735" lon="1.9272">
        <ele>188.60000610352</ele>
        <time>2016-06-12T09:07:31.000Z</time>
      </trkpt>
      <trkpt lat="48.89732" lon="1.92717">
        <ele>188.39999389648</ele>
        <time>2016-06-12T09:07:34.000Z</time>
      </trkpt>
      <trkpt lat="48.89728" lon="1.9271">
        <ele>188.19999694824</ele>
        <time>2016-06-12T09:07:39.000Z</time>
      </trkpt>
      <trkpt lat="48.89727" lon="1.92709">
        <ele>188.19999694824</ele>
        <time>2016-06-12T09:07:40.000Z</time>
      </trkpt>
      <trkpt lat="48.89719" lon="1.927">
        <ele>188</ele>
        <time>2016-06-12T09:07:45.000Z</time>
      </trkpt>
      <trkpt lat="48.89718" lon="1.92698">
        <ele>188</ele>
        <time>2016-06-12T09:07:46.000Z</time>
      </trkpt>
      <trkpt lat="48.8971" lon="1.92689">
        <ele>187.80000305176</ele>
        <time>2016-06-12T09:07:51.000Z</time>
      </trkpt>
      <trkpt lat="48.89705" lon="1.92682">
        <ele>187.60000610352</ele>
        <time>2016-06-12T09:07:56.000Z</time>
      </trkpt>
      <trkpt lat="48.89703" lon="1.92679">
        <ele>187.60000610352</ele>
        <time>2016-06-12T09:07:57.000Z</time>
      </trkpt>
      <trkpt lat="48.89701" lon="1.92674">
        <ele>187.39999389648</ele>
        <time>2016-06-12T09:08:00.000Z</time>
      </trkpt>
      <trkpt lat="48.89698" lon="1.92671">
        <ele>187.39999389648</ele>
        <time>2016-06-12T09:08:02.000Z</time>
      </trkpt>
      <trkpt lat="48.89696" lon="1.92668">
        <ele>187.19999694824</ele>
        <time>2016-06-12T09:08:04.000Z</time>
      </trkpt>
      <trkpt lat="48.89692" lon="1.92663">
        <ele>187.19999694824</ele>
        <time>2016-06-12T09:08:07.000Z</time>
      </trkpt>
      <trkpt lat="48.89689" lon="1.92657">
        <ele>187</ele>
        <time>2016-06-12T09:08:10.000Z</time>
      </trkpt>
      <trkpt lat="48.89684" lon="1.92646">
        <ele>186</ele>
        <time>2016-06-12T09:08:15.000Z</time>
      </trkpt>
      <trkpt lat="48.89681" lon="1.92642">
        <ele>185.80000305176</ele>
        <time>2016-06-12T09:08:17.000Z</time>
      </trkpt>
      <trkpt lat="48.89678" lon="1.92641">
        <ele>185.39999389648</ele>
        <time>2016-06-12T09:08:18.000Z</time>
      </trkpt>
      <trkpt lat="48.89676" lon="1.92637">
        <ele>185.19999694824</ele>
        <time>2016-06-12T09:08:21.000Z</time>
      </trkpt>
      <trkpt lat="48.89673" lon="1.92634">
        <ele>184.80000305176</ele>
        <time>2016-06-12T09:08:24.000Z</time>
      </trkpt>
      <trkpt lat="48.8967" lon="1.9263">
        <ele>184.19999694824</ele>
        <time>2016-06-12T09:08:27.000Z</time>
      </trkpt>
      <trkpt lat="48.89662" lon="1.92623">
        <ele>183.19999694824</ele>
        <time>2016-06-12T09:08:33.000Z</time>
      </trkpt>
      <trkpt lat="48.89659" lon="1.92621">
        <ele>182.80000305176</ele>
        <time>2016-06-12T09:08:35.000Z</time>
      </trkpt>
      <trkpt lat="48.89657" lon="1.9262">
        <ele>182.60000610352</ele>
        <time>2016-06-12T09:08:37.000Z</time>
      </trkpt>
      <trkpt lat="48.89649" lon="1.92615">
        <ele>181.60000610352</ele>
        <time>2016-06-12T09:08:42.000Z</time>
      </trkpt>
      <trkpt lat="48.8964" lon="1.92614">
        <ele>179.80000305176</ele>
        <time>2016-06-12T09:08:47.000Z</time>
      </trkpt>
      <trkpt lat="48.89632" lon="1.92611">
        <ele>178.60000610352</ele>
        <time>2016-06-12T09:08:52.000Z</time>
      </trkpt>
      <trkpt lat="48.89628" lon="1.92611">
        <ele>177.80000305176</ele>
        <time>2016-06-12T09:08:54.000Z</time>
      </trkpt>
      <trkpt lat="48.89621" lon="1.9261">
        <ele>176.60000610352</ele>
        <time>2016-06-12T09:08:58.000Z</time>
      </trkpt>
      <trkpt lat="48.89615" lon="1.92606">
        <ele>175.60000610352</ele>
        <time>2016-06-12T09:09:02.000Z</time>
      </trkpt>
      <trkpt lat="48.89611" lon="1.92606">
        <ele>175</ele>
        <time>2016-06-12T09:09:04.000Z</time>
      </trkpt>
      <trkpt lat="48.89603" lon="1.92605">
        <ele>173.19999694824</ele>
        <time>2016-06-12T09:09:09.000Z</time>
      </trkpt>
      <trkpt lat="48.89601" lon="1.92603">
        <ele>173</ele>
        <time>2016-06-12T09:09:10.000Z</time>
      </trkpt>
      <trkpt lat="48.89594" lon="1.92602">
        <ele>171.39999389648</ele>
        <time>2016-06-12T09:09:13.000Z</time>
      </trkpt>
      <trkpt lat="48.89587" lon="1.92602">
        <ele>169.80000305176</ele>
        <time>2016-06-12T09:09:17.000Z</time>
      </trkpt>
      <trkpt lat="48.89583" lon="1.926">
        <ele>169</ele>
        <time>2016-06-12T09:09:19.000Z</time>
      </trkpt>
      <trkpt lat="48.89579" lon="1.92597">
        <ele>168.39999389648</ele>
        <time>2016-06-12T09:09:22.000Z</time>
      </trkpt>
      <trkpt lat="48.89576" lon="1.92598">
        <ele>167.60000610352</ele>
        <time>2016-06-12T09:09:25.000Z</time>
      </trkpt>
      <trkpt lat="48.89574" lon="1.92595">
        <ele>167.39999389648</ele>
        <time>2016-06-12T09:09:26.000Z</time>
      </trkpt>
      <trkpt lat="48.89569" lon="1.92593">
        <ele>166.39999389648</ele>
        <time>2016-06-12T09:09:30.000Z</time>
      </trkpt>
      <trkpt lat="48.89563" lon="1.92583">
        <ele>165.39999389648</ele>
        <time>2016-06-12T09:09:34.000Z</time>
      </trkpt>
      <trkpt lat="48.89561" lon="1.92582">
        <ele>165.19999694824</ele>
        <time>2016-06-12T09:09:35.000Z</time>
      </trkpt>
      <trkpt lat="48.89558" lon="1.92575">
        <ele>164.80000305176</ele>
        <time>2016-06-12T09:09:38.000Z</time>
      </trkpt>
      <trkpt lat="48.89557" lon="1.92573">
        <ele>164.80000305176</ele>
        <time>2016-06-12T09:09:39.000Z</time>
      </trkpt>
      <trkpt lat="48.8955" lon="1.92561">
        <ele>163.60000610352</ele>
        <time>2016-06-12T09:09:45.000Z</time>
      </trkpt>
      <trkpt lat="48.89546" lon="1.92554">
        <ele>162.80000305176</ele>
        <time>2016-06-12T09:09:48.000Z</time>
      </trkpt>
      <trkpt lat="48.89542" lon="1.92547">
        <ele>162.39999389648</ele>
        <time>2016-06-12T09:09:51.000Z</time>
      </trkpt>
      <trkpt lat="48.89538" lon="1.9254">
        <ele>161.39999389648</ele>
        <time>2016-06-12T09:09:56.000Z</time>
      </trkpt>
      <trkpt lat="48.89537" lon="1.92537">
        <ele>161.39999389648</ele>
        <time>2016-06-12T09:09:57.000Z</time>
      </trkpt>
      <trkpt lat="48.89533" lon="1.92531">
        <ele>160.80000305176</ele>
        <time>2016-06-12T09:10:00.000Z</time>
      </trkpt>
      <trkpt lat="48.89528" lon="1.92524">
        <ele>160</ele>
        <time>2016-06-12T09:10:04.000Z</time>
      </trkpt>
      <trkpt lat="48.89527" lon="1.92522">
        <ele>159.60000610352</ele>
        <time>2016-06-12T09:10:05.000Z</time>
      </trkpt>
      <trkpt lat="48.89519" lon="1.92515">
        <ele>158.60000610352</ele>
        <time>2016-06-12T09:10:11.000Z</time>
      </trkpt>
      <trkpt lat="48.89511" lon="1.92507">
        <ele>158.19999694824</ele>
        <time>2016-06-12T09:10:17.000Z</time>
      </trkpt>
      <trkpt lat="48.89509" lon="1.92506">
        <ele>158</ele>
        <time>2016-06-12T09:10:18.000Z</time>
      </trkpt>
      <trkpt lat="48.89505" lon="1.925">
        <ele>157.60000610352</ele>
        <time>2016-06-12T09:10:22.000Z</time>
      </trkpt>
      <trkpt lat="48.895" lon="1.92495">
        <ele>157.19999694824</ele>
        <time>2016-06-12T09:10:26.000Z</time>
      </trkpt>
      <trkpt lat="48.89498" lon="1.92493">
        <ele>157.19999694824</ele>
        <time>2016-06-12T09:10:28.000Z</time>
      </trkpt>
      <trkpt lat="48.89489" lon="1.92484">
        <ele>156.60000610352</ele>
        <time>2016-06-12T09:10:34.000Z</time>
      </trkpt>
      <trkpt lat="48.89487" lon="1.92481">
        <ele>156.39999389648</ele>
        <time>2016-06-12T09:10:37.000Z</time>
      </trkpt>
      <trkpt lat="48.8949" lon="1.92478">
        <ele>156.80000305176</ele>
        <time>2016-06-12T09:10:40.000Z</time>
      </trkpt>
      <trkpt lat="48.89491" lon="1.92477">
        <ele>157</ele>
        <time>2016-06-12T09:10:41.000Z</time>
      </trkpt>
      <trkpt lat="48.89501" lon="1.92473">
        <ele>158.19999694824</ele>
        <time>2016-06-12T09:10:47.000Z</time>
      </trkpt>
      <trkpt lat="48.89506" lon="1.92469">
        <ele>158.60000610352</ele>
        <time>2016-06-12T09:10:51.000Z</time>
      </trkpt>
      <trkpt lat="48.89508" lon="1.92468">
        <ele>158.80000305176</ele>
        <time>2016-06-12T09:10:53.000Z</time>
      </trkpt>
      <trkpt lat="48.8952" lon="1.92462">
        <ele>159.19999694824</ele>
        <time>2016-06-12T09:11:01.000Z</time>
      </trkpt>
      <trkpt lat="48.89529" lon="1.92455">
        <ele>160</ele>
        <time>2016-06-12T09:11:08.000Z</time>
      </trkpt>
      <trkpt lat="48.89539" lon="1.92447">
        <ele>161.39999389648</ele>
        <time>2016-06-12T09:11:15.000Z</time>
      </trkpt>
      <trkpt lat="48.89554" lon="1.9244">
        <ele>163.60000610352</ele>
        <time>2016-06-12T09:11:22.000Z</time>
      </trkpt>
      <trkpt lat="48.89563" lon="1.92435">
        <ele>164</ele>
        <time>2016-06-12T09:11:28.000Z</time>
      </trkpt>
      <trkpt lat="48.89571" lon="1.9243">
        <ele>164.19999694824</ele>
        <time>2016-06-12T09:11:34.000Z</time>
      </trkpt>
      <trkpt lat="48.89584" lon="1.92421">
        <ele>164.39999389648</ele>
        <time>2016-06-12T09:11:41.000Z</time>
      </trkpt>
      <trkpt lat="48.89588" lon="1.92418">
        <ele>164.60000610352</ele>
        <time>2016-06-12T09:11:43.000Z</time>
      </trkpt>
      <trkpt lat="48.89592" lon="1.92414">
        <ele>164.60000610352</ele>
        <time>2016-06-12T09:11:46.000Z</time>
      </trkpt>
      <trkpt lat="48.89601" lon="1.92409">
        <ele>164.80000305176</ele>
        <time>2016-06-12T09:11:52.000Z</time>
      </trkpt>
      <trkpt lat="48.8961" lon="1.92404">
        <ele>165.19999694824</ele>
        <time>2016-06-12T09:11:59.000Z</time>
      </trkpt>
      <trkpt lat="48.89615" lon="1.92402">
        <ele>165.60000610352</ele>
        <time>2016-06-12T09:12:02.000Z</time>
      </trkpt>
      <trkpt lat="48.89619" lon="1.924">
        <ele>166</ele>
        <time>2016-06-12T09:12:05.000Z</time>
      </trkpt>
      <trkpt lat="48.89622" lon="1.92398">
        <ele>166.19999694824</ele>
        <time>2016-06-12T09:12:07.000Z</time>
      </trkpt>
      <trkpt lat="48.89628" lon="1.92394">
        <ele>166.60000610352</ele>
        <time>2016-06-12T09:12:11.000Z</time>
      </trkpt>
      <trkpt lat="48.8963" lon="1.92392">
        <ele>166.80000305176</ele>
        <time>2016-06-12T09:12:12.000Z</time>
      </trkpt>
      <trkpt lat="48.89635" lon="1.9239">
        <ele>167.39999389648</ele>
        <time>2016-06-12T09:12:15.000Z</time>
      </trkpt>
      <trkpt lat="48.89637" lon="1.92389">
        <ele>167.39999389648</ele>
        <time>2016-06-12T09:12:16.000Z</time>
      </trkpt>
      <trkpt lat="48.89646" lon="1.92385">
        <ele>168.19999694824</ele>
        <time>2016-06-12T09:12:22.000Z</time>
      </trkpt>
      <trkpt lat="48.89649" lon="1.92384">
        <ele>168.60000610352</ele>
        <time>2016-06-12T09:12:25.000Z</time>
      </trkpt>
      <trkpt lat="48.89652" lon="1.92382">
        <ele>168.80000305176</ele>
        <time>2016-06-12T09:12:27.000Z</time>
      </trkpt>
      <trkpt lat="48.8966" lon="1.92377">
        <ele>169.39999389648</ele>
        <time>2016-06-12T09:12:33.000Z</time>
      </trkpt>
      <trkpt lat="48.89668" lon="1.92373">
        <ele>169.80000305176</ele>
        <time>2016-06-12T09:12:38.000Z</time>
      </trkpt>
      <trkpt lat="48.8967" lon="1.92372">
        <ele>170</ele>
        <time>2016-06-12T09:12:39.000Z</time>
      </trkpt>
      <trkpt lat="48.8968" lon="1.92369">
        <ele>170.80000305176</ele>
        <time>2016-06-12T09:12:44.000Z</time>
      </trkpt>
      <trkpt lat="48.89682" lon="1.92368">
        <ele>171</ele>
        <time>2016-06-12T09:12:45.000Z</time>
      </trkpt>
      <trkpt lat="48.89689" lon="1.92369">
        <ele>171.80000305176</ele>
        <time>2016-06-12T09:12:49.000Z</time>
      </trkpt>
      <trkpt lat="48.89699" lon="1.92367">
        <ele>172.60000610352</ele>
        <time>2016-06-12T09:12:56.000Z</time>
      </trkpt>
      <trkpt lat="48.89709" lon="1.92366">
        <ele>173.19999694824</ele>
        <time>2016-06-12T09:13:02.000Z</time>
      </trkpt>
      <trkpt lat="48.8972" lon="1.92365">
        <ele>174</ele>
        <time>2016-06-12T09:13:09.000Z</time>
      </trkpt>
      <trkpt lat="48.89728" lon="1.92363">
        <ele>174.39999389648</ele>
        <time>2016-06-12T09:13:14.000Z</time>
      </trkpt>
      <trkpt lat="48.8973" lon="1.92363">
        <ele>174.39999389648</ele>
        <time>2016-06-12T09:13:15.000Z</time>
      </trkpt>
      <trkpt lat="48.89744" lon="1.92356">
        <ele>174.19999694824</ele>
        <time>2016-06-12T09:13:22.000Z</time>
      </trkpt>
      <trkpt lat="48.89755" lon="1.92352">
        <ele>174.19999694824</ele>
        <time>2016-06-12T09:13:29.000Z</time>
      </trkpt>
      <trkpt lat="48.89763" lon="1.92349">
        <ele>174.19999694824</ele>
        <time>2016-06-12T09:13:34.000Z</time>
      </trkpt>
      <trkpt lat="48.89767" lon="1.92346">
        <ele>174</ele>
        <time>2016-06-12T09:13:37.000Z</time>
      </trkpt>
      <trkpt lat="48.89779" lon="1.92344">
        <ele>174.19999694824</ele>
        <time>2016-06-12T09:13:43.000Z</time>
      </trkpt>
      <trkpt lat="48.89791" lon="1.92342">
        <ele>173.60000610352</ele>
        <time>2016-06-12T09:13:49.000Z</time>
      </trkpt>
      <trkpt lat="48.898" lon="1.92335">
        <ele>174.19999694824</ele>
        <time>2016-06-12T09:13:55.000Z</time>
      </trkpt>
      <trkpt lat="48.89812" lon="1.92329">
        <ele>175</ele>
        <time>2016-06-12T09:14:01.000Z</time>
      </trkpt>
      <trkpt lat="48.89824" lon="1.92323">
        <ele>175.80000305176</ele>
        <time>2016-06-12T09:14:08.000Z</time>
      </trkpt>
      <trkpt lat="48.89834" lon="1.92319">
        <ele>176.19999694824</ele>
        <time>2016-06-12T09:14:14.000Z</time>
      </trkpt>
      <trkpt lat="48.89837" lon="1.92317">
        <ele>176.39999389648</ele>
        <time>2016-06-12T09:14:16.000Z</time>
      </trkpt>
      <trkpt lat="48.89841" lon="1.92316">
        <ele>176.60000610352</ele>
        <time>2016-06-12T09:14:19.000Z</time>
      </trkpt>
      <trkpt lat="48.8985" lon="1.9231">
        <ele>177.39999389648</ele>
        <time>2016-06-12T09:14:25.000Z</time>
      </trkpt>
      <trkpt lat="48.89851" lon="1.92308">
        <ele>177.60000610352</ele>
        <time>2016-06-12T09:14:26.000Z</time>
      </trkpt>
      <trkpt lat="48.89857" lon="1.92301">
        <ele>178.39999389648</ele>
        <time>2016-06-12T09:14:30.000Z</time>
      </trkpt>
      <trkpt lat="48.89865" lon="1.92294">
        <ele>178.60000610352</ele>
        <time>2016-06-12T09:14:35.000Z</time>
      </trkpt>
      <trkpt lat="48.89871" lon="1.92289">
        <ele>178.80000305176</ele>
        <time>2016-06-12T09:14:40.000Z</time>
      </trkpt>
      <trkpt lat="48.89874" lon="1.92287">
        <ele>179</ele>
        <time>2016-06-12T09:14:42.000Z</time>
      </trkpt>
      <trkpt lat="48.89879" lon="1.92284">
        <ele>179.19999694824</ele>
        <time>2016-06-12T09:14:46.000Z</time>
      </trkpt>
      <trkpt lat="48.8988" lon="1.92284">
        <ele>179.19999694824</ele>
        <time>2016-06-12T09:14:47.000Z</time>
      </trkpt>
      <trkpt lat="48.89884" lon="1.92282">
        <ele>179.39999389648</ele>
        <time>2016-06-12T09:14:49.000Z</time>
      </trkpt>
      <trkpt lat="48.89889" lon="1.9228">
        <ele>179.39999389648</ele>
        <time>2016-06-12T09:14:52.000Z</time>
      </trkpt>
      <trkpt lat="48.89892" lon="1.92278">
        <ele>179.60000610352</ele>
        <time>2016-06-12T09:14:54.000Z</time>
      </trkpt>
      <trkpt lat="48.89901" lon="1.92271">
        <ele>180.19999694824</ele>
        <time>2016-06-12T09:15:00.000Z</time>
      </trkpt>
      <trkpt lat="48.89903" lon="1.92262">
        <ele>180.39999389648</ele>
        <time>2016-06-12T09:15:05.000Z</time>
      </trkpt>
      <trkpt lat="48.89903" lon="1.92256">
        <ele>180.39999389648</ele>
        <time>2016-06-12T09:15:10.000Z</time>
      </trkpt>
      <trkpt lat="48.89902" lon="1.92255">
        <ele>180.19999694824</ele>
        <time>2016-06-12T09:15:11.000Z</time>
      </trkpt>
      <trkpt lat="48.89896" lon="1.92255">
        <ele>179.80000305176</ele>
        <time>2016-06-12T09:15:15.000Z</time>
      </trkpt>
      <trkpt lat="48.89894" lon="1.92254">
        <ele>179.60000610352</ele>
        <time>2016-06-12T09:15:17.000Z</time>
      </trkpt>
      <trkpt lat="48.89887" lon="1.92251">
        <ele>179.19999694824</ele>
        <time>2016-06-12T09:15:22.000Z</time>
      </trkpt>
      <trkpt lat="48.89881" lon="1.92244">
        <ele>178.80000305176</ele>
        <time>2016-06-12T09:15:27.000Z</time>
      </trkpt>
      <trkpt lat="48.89876" lon="1.9223">
        <ele>177.80000305176</ele>
        <time>2016-06-12T09:15:33.000Z</time>
      </trkpt>
      <trkpt lat="48.89875" lon="1.92224">
        <ele>177.19999694824</ele>
        <time>2016-06-12T09:15:36.000Z</time>
      </trkpt>
      <trkpt lat="48.89875" lon="1.9222">
        <ele>177</ele>
        <time>2016-06-12T09:15:38.000Z</time>
      </trkpt>
      <trkpt lat="48.89876" lon="1.92218">
        <ele>177</ele>
        <time>2016-06-12T09:15:39.000Z</time>
      </trkpt>
      <trkpt lat="48.8988" lon="1.92206">
        <ele>176.60000610352</ele>
        <time>2016-06-12T09:15:45.000Z</time>
      </trkpt>
      <trkpt lat="48.89882" lon="1.92198">
        <ele>176.19999694824</ele>
        <time>2016-06-12T09:15:48.000Z</time>
      </trkpt>
      <trkpt lat="48.89882" lon="1.92197">
        <ele>176.19999694824</ele>
        <time>2016-06-12T09:15:49.000Z</time>
      </trkpt>
      <trkpt lat="48.89883" lon="1.92195">
        <ele>176.19999694824</ele>
        <time>2016-06-12T09:15:50.000Z</time>
      </trkpt>
      <trkpt lat="48.89884" lon="1.92188">
        <ele>175.80000305176</ele>
        <time>2016-06-12T09:15:55.000Z</time>
      </trkpt>
      <trkpt lat="48.89884" lon="1.92182">
        <ele>175.80000305176</ele>
        <time>2016-06-12T09:15:59.000Z</time>
      </trkpt>
      <trkpt lat="48.89885" lon="1.92181">
        <ele>176</ele>
        <time>2016-06-12T09:16:00.000Z</time>
      </trkpt>
      <trkpt lat="48.89886" lon="1.92176">
        <ele>176.19999694824</ele>
        <time>2016-06-12T09:16:03.000Z</time>
      </trkpt>
      <trkpt lat="48.89887" lon="1.92169">
        <ele>176.60000610352</ele>
        <time>2016-06-12T09:16:06.000Z</time>
      </trkpt>
      <trkpt lat="48.8989" lon="1.92155">
        <ele>177.39999389648</ele>
        <time>2016-06-12T09:16:12.000Z</time>
      </trkpt>
      <trkpt lat="48.89893" lon="1.92148">
        <ele>177.39999389648</ele>
        <time>2016-06-12T09:16:16.000Z</time>
      </trkpt>
      <trkpt lat="48.89896" lon="1.92139">
        <ele>177.39999389648</ele>
        <time>2016-06-12T09:16:20.000Z</time>
      </trkpt>
      <trkpt lat="48.89899" lon="1.9213">
        <ele>177.39999389648</ele>
        <time>2016-06-12T09:16:25.000Z</time>
      </trkpt>
      <trkpt lat="48.899" lon="1.92124">
        <ele>177.39999389648</ele>
        <time>2016-06-12T09:16:28.000Z</time>
      </trkpt>
      <trkpt lat="48.89903" lon="1.92116">
        <ele>177.60000610352</ele>
        <time>2016-06-12T09:16:32.000Z</time>
      </trkpt>
      <trkpt lat="48.89906" lon="1.92111">
        <ele>178</ele>
        <time>2016-06-12T09:16:35.000Z</time>
      </trkpt>
      <trkpt lat="48.89908" lon="1.92106">
        <ele>178.60000610352</ele>
        <time>2016-06-12T09:16:37.000Z</time>
      </trkpt>
      <trkpt lat="48.89912" lon="1.92098">
        <ele>179.19999694824</ele>
        <time>2016-06-12T09:16:41.000Z</time>
      </trkpt>
      <trkpt lat="48.89915" lon="1.92093">
        <ele>179.80000305176</ele>
        <time>2016-06-12T09:16:44.000Z</time>
      </trkpt>
      <trkpt lat="48.89917" lon="1.92085">
        <ele>180.19999694824</ele>
        <time>2016-06-12T09:16:48.000Z</time>
      </trkpt>
      <trkpt lat="48.89918" lon="1.92083">
        <ele>180.39999389648</ele>
        <time>2016-06-12T09:16:49.000Z</time>
      </trkpt>
      <trkpt lat="48.89918" lon="1.92082">
        <ele>180.39999389648</ele>
        <time>2016-06-12T09:16:50.000Z</time>
      </trkpt>
      <trkpt lat="48.89924" lon="1.9207">
        <ele>181.39999389648</ele>
        <time>2016-06-12T09:16:55.000Z</time>
      </trkpt>
      <trkpt lat="48.89928" lon="1.92058">
        <ele>182</ele>
        <time>2016-06-12T09:17:01.000Z</time>
      </trkpt>
      <trkpt lat="48.89934" lon="1.92045">
        <ele>183.19999694824</ele>
        <time>2016-06-12T09:17:07.000Z</time>
      </trkpt>
      <trkpt lat="48.89935" lon="1.9204">
        <ele>183.39999389648</ele>
        <time>2016-06-12T09:17:09.000Z</time>
      </trkpt>
      <trkpt lat="48.89939" lon="1.92032">
        <ele>184.19999694824</ele>
        <time>2016-06-12T09:17:12.000Z</time>
      </trkpt>
      <trkpt lat="48.89939" lon="1.92029">
        <ele>184.19999694824</ele>
        <time>2016-06-12T09:17:13.000Z</time>
      </trkpt>
      <trkpt lat="48.89941" lon="1.92021">
        <ele>184.39999389648</ele>
        <time>2016-06-12T09:17:16.000Z</time>
      </trkpt>
      <trkpt lat="48.89942" lon="1.92014">
        <ele>184.39999389648</ele>
        <time>2016-06-12T09:17:21.000Z</time>
      </trkpt>
      <trkpt lat="48.89944" lon="1.92011">
        <ele>184.19999694824</ele>
        <time>2016-06-12T09:17:22.000Z</time>
      </trkpt>
      <trkpt lat="48.89945" lon="1.92002">
        <ele>184.19999694824</ele>
        <time>2016-06-12T09:17:26.000Z</time>
      </trkpt>
      <trkpt lat="48.89947" lon="1.91992">
        <ele>184.19999694824</ele>
        <time>2016-06-12T09:17:31.000Z</time>
      </trkpt>
      <trkpt lat="48.8995" lon="1.91984">
        <ele>184.19999694824</ele>
        <time>2016-06-12T09:17:35.000Z</time>
      </trkpt>
      <trkpt lat="48.8995" lon="1.91981">
        <ele>184</ele>
        <time>2016-06-12T09:17:36.000Z</time>
      </trkpt>
      <trkpt lat="48.89952" lon="1.9197">
        <ele>183.60000610352</ele>
        <time>2016-06-12T09:17:41.000Z</time>
      </trkpt>
      <trkpt lat="48.89954" lon="1.91956">
        <ele>183.19999694824</ele>
        <time>2016-06-12T09:17:46.000Z</time>
      </trkpt>
      <trkpt lat="48.89957" lon="1.91944">
        <ele>183</ele>
        <time>2016-06-12T09:17:52.000Z</time>
      </trkpt>
      <trkpt lat="48.89957" lon="1.91941">
        <ele>182.80000305176</ele>
        <time>2016-06-12T09:17:53.000Z</time>
      </trkpt>
      <trkpt lat="48.89959" lon="1.91936">
        <ele>182.80000305176</ele>
        <time>2016-06-12T09:17:56.000Z</time>
      </trkpt>
      <trkpt lat="48.89961" lon="1.91928">
        <ele>182.39999389648</ele>
        <time>2016-06-12T09:17:58.000Z</time>
      </trkpt>
      <trkpt lat="48.89962" lon="1.91921">
        <ele>182.60000610352</ele>
        <time>2016-06-12T09:18:00.000Z</time>
      </trkpt>
      <trkpt lat="48.89965" lon="1.91907">
        <ele>183.19999694824</ele>
        <time>2016-06-12T09:18:03.000Z</time>
      </trkpt>
      <trkpt lat="48.8997" lon="1.91884">
        <ele>183</ele>
        <time>2016-06-12T09:18:10.000Z</time>
      </trkpt>
      <trkpt lat="48.89972" lon="1.91875">
        <ele>183</ele>
        <time>2016-06-12T09:18:14.000Z</time>
      </trkpt>
      <trkpt lat="48.89973" lon="1.91872">
        <ele>183</ele>
        <time>2016-06-12T09:18:15.000Z</time>
      </trkpt>
      <trkpt lat="48.89974" lon="1.91866">
        <ele>182.80000305176</ele>
        <time>2016-06-12T09:18:18.000Z</time>
      </trkpt>
      <trkpt lat="48.89973" lon="1.91861">
        <ele>182.80000305176</ele>
        <time>2016-06-12T09:18:20.000Z</time>
      </trkpt>
      <trkpt lat="48.89975" lon="1.91847">
        <ele>182.80000305176</ele>
        <time>2016-06-12T09:18:27.000Z</time>
      </trkpt>
      <trkpt lat="48.89976" lon="1.91836">
        <ele>183</ele>
        <time>2016-06-12T09:18:31.000Z</time>
      </trkpt>
      <trkpt lat="48.89978" lon="1.9183">
        <ele>183.19999694824</ele>
        <time>2016-06-12T09:18:33.000Z</time>
      </trkpt>
      <trkpt lat="48.89978" lon="1.91823">
        <ele>183</ele>
        <time>2016-06-12T09:18:36.000Z</time>
      </trkpt>
      <trkpt lat="48.89979" lon="1.91813">
        <ele>182.60000610352</ele>
        <time>2016-06-12T09:18:40.000Z</time>
      </trkpt>
      <trkpt lat="48.89979" lon="1.91811">
        <ele>182.39999389648</ele>
        <time>2016-06-12T09:18:41.000Z</time>
      </trkpt>
      <trkpt lat="48.89979" lon="1.91809">
        <ele>182.39999389648</ele>
        <time>2016-06-12T09:18:42.000Z</time>
      </trkpt>
      <trkpt lat="48.8998" lon="1.91802">
        <ele>182</ele>
        <time>2016-06-12T09:18:45.000Z</time>
      </trkpt>
      <trkpt lat="48.89981" lon="1.9179">
        <ele>181.39999389648</ele>
        <time>2016-06-12T09:18:51.000Z</time>
      </trkpt>
      <trkpt lat="48.89984" lon="1.91781">
        <ele>181.19999694824</ele>
        <time>2016-06-12T09:18:55.000Z</time>
      </trkpt>
      <trkpt lat="48.89985" lon="1.91769">
        <ele>181.19999694824</ele>
        <time>2016-06-12T09:19:00.000Z</time>
      </trkpt>
      <trkpt lat="48.89987" lon="1.9176">
        <ele>181.19999694824</ele>
        <time>2016-06-12T09:19:04.000Z</time>
      </trkpt>
      <trkpt lat="48.89989" lon="1.91755">
        <ele>181.39999389648</ele>
        <time>2016-06-12T09:19:07.000Z</time>
      </trkpt>
      <trkpt lat="48.89989" lon="1.91752">
        <ele>181.39999389648</ele>
        <time>2016-06-12T09:19:08.000Z</time>
      </trkpt>
      <trkpt lat="48.8999" lon="1.91746">
        <ele>181.39999389648</ele>
        <time>2016-06-12T09:19:10.000Z</time>
      </trkpt>
      <trkpt lat="48.89991" lon="1.91736">
        <ele>181.19999694824</ele>
        <time>2016-06-12T09:19:14.000Z</time>
      </trkpt>
      <trkpt lat="48.8999" lon="1.91733">
        <ele>181</ele>
        <time>2016-06-12T09:19:16.000Z</time>
      </trkpt>
      <trkpt lat="48.89992" lon="1.91723">
        <ele>181</ele>
        <time>2016-06-12T09:19:21.000Z</time>
      </trkpt>
      <trkpt lat="48.89993" lon="1.9172">
        <ele>181.19999694824</ele>
        <time>2016-06-12T09:19:22.000Z</time>
      </trkpt>
      <trkpt lat="48.89996" lon="1.9171">
        <ele>181.39999389648</ele>
        <time>2016-06-12T09:19:27.000Z</time>
      </trkpt>
      <trkpt lat="48.89997" lon="1.91704">
        <ele>181.60000610352</ele>
        <time>2016-06-12T09:19:29.000Z</time>
      </trkpt>
      <trkpt lat="48.9" lon="1.91696">
        <ele>182.19999694824</ele>
        <time>2016-06-12T09:19:32.000Z</time>
      </trkpt>
      <trkpt lat="48.90002" lon="1.91687">
        <ele>182.80000305176</ele>
        <time>2016-06-12T09:19:37.000Z</time>
      </trkpt>
      <trkpt lat="48.90004" lon="1.91676">
        <ele>183.39999389648</ele>
        <time>2016-06-12T09:19:42.000Z</time>
      </trkpt>
      <trkpt lat="48.90006" lon="1.91668">
        <ele>183.60000610352</ele>
        <time>2016-06-12T09:19:46.000Z</time>
      </trkpt>
      <trkpt lat="48.90006" lon="1.91668">
        <ele>183.80000305176</ele>
        <time>2016-06-12T09:19:47.000Z</time>
      </trkpt>
      <trkpt lat="48.90007" lon="1.91668">
        <ele>184</ele>
        <time>2016-06-12T09:19:48.000Z</time>
      </trkpt>
      <trkpt lat="48.90008" lon="1.91665">
        <ele>184.19999694824</ele>
        <time>2016-06-12T09:19:49.000Z</time>
      </trkpt>
      <trkpt lat="48.9001" lon="1.9166">
        <ele>184.39999389648</ele>
        <time>2016-06-12T09:19:52.000Z</time>
      </trkpt>
      <trkpt lat="48.90013" lon="1.91651">
        <ele>185.19999694824</ele>
        <time>2016-06-12T09:19:56.000Z</time>
      </trkpt>
      <trkpt lat="48.90018" lon="1.91636">
        <ele>186</ele>
        <time>2016-06-12T09:20:02.000Z</time>
      </trkpt>
      <trkpt lat="48.90022" lon="1.91628">
        <ele>186.80000305176</ele>
        <time>2016-06-12T09:20:06.000Z</time>
      </trkpt>
      <trkpt lat="48.90026" lon="1.91618">
        <ele>187</ele>
        <time>2016-06-12T09:20:10.000Z</time>
      </trkpt>
      <trkpt lat="48.90027" lon="1.91616">
        <ele>187</ele>
        <time>2016-06-12T09:20:11.000Z</time>
      </trkpt>
      <trkpt lat="48.9003" lon="1.91605">
        <ele>187</ele>
        <time>2016-06-12T09:20:16.000Z</time>
      </trkpt>
      <trkpt lat="48.90029" lon="1.91601">
        <ele>187</ele>
        <time>2016-06-12T09:20:18.000Z</time>
      </trkpt>
      <trkpt lat="48.9003" lon="1.91592">
        <ele>187</ele>
        <time>2016-06-12T09:20:22.000Z</time>
      </trkpt>
      <trkpt lat="48.90032" lon="1.91574">
        <ele>187.19999694824</ele>
        <time>2016-06-12T09:20:29.000Z</time>
      </trkpt>
      <trkpt lat="48.90035" lon="1.91562">
        <ele>187</ele>
        <time>2016-06-12T09:20:34.000Z</time>
      </trkpt>
      <trkpt lat="48.90036" lon="1.91557">
        <ele>186.80000305176</ele>
        <time>2016-06-12T09:20:36.000Z</time>
      </trkpt>
      <trkpt lat="48.9004" lon="1.91538">
        <ele>186.60000610352</ele>
        <time>2016-06-12T09:20:43.000Z</time>
      </trkpt>
      <trkpt lat="48.90044" lon="1.91525">
        <ele>186.39999389648</ele>
        <time>2016-06-12T09:20:47.000Z</time>
      </trkpt>
      <trkpt lat="48.90047" lon="1.91517">
        <ele>186.19999694824</ele>
        <time>2016-06-12T09:20:49.000Z</time>
      </trkpt>
      <trkpt lat="48.90052" lon="1.915">
        <ele>186</ele>
        <time>2016-06-12T09:20:54.000Z</time>
      </trkpt>
      <trkpt lat="48.90054" lon="1.91495">
        <ele>185.80000305176</ele>
        <time>2016-06-12T09:20:56.000Z</time>
      </trkpt>
      <trkpt lat="48.90056" lon="1.91483">
        <ele>185.80000305176</ele>
        <time>2016-06-12T09:21:01.000Z</time>
      </trkpt>
      <trkpt lat="48.90058" lon="1.91467">
        <ele>185.60000610352</ele>
        <time>2016-06-12T09:21:08.000Z</time>
      </trkpt>
      <trkpt lat="48.9006" lon="1.91458">
        <ele>185.39999389648</ele>
        <time>2016-06-12T09:21:12.000Z</time>
      </trkpt>
      <trkpt lat="48.9006" lon="1.91456">
        <ele>185.39999389648</ele>
        <time>2016-06-12T09:21:13.000Z</time>
      </trkpt>
      <trkpt lat="48.90065" lon="1.9144">
        <ele>185.39999389648</ele>
        <time>2016-06-12T09:21:20.000Z</time>
      </trkpt>
      <trkpt lat="48.90066" lon="1.91438">
        <ele>185.60000610352</ele>
        <time>2016-06-12T09:21:21.000Z</time>
      </trkpt>
      <trkpt lat="48.90067" lon="1.91428">
        <ele>185.60000610352</ele>
        <time>2016-06-12T09:21:25.000Z</time>
      </trkpt>
      <trkpt lat="48.90071" lon="1.91414">
        <ele>185.80000305176</ele>
        <time>2016-06-12T09:21:31.000Z</time>
      </trkpt>
      <trkpt lat="48.90071" lon="1.91412">
        <ele>185.80000305176</ele>
        <time>2016-06-12T09:21:32.000Z</time>
      </trkpt>
      <trkpt lat="48.90071" lon="1.9141">
        <ele>185.80000305176</ele>
        <time>2016-06-12T09:21:33.000Z</time>
      </trkpt>
      <trkpt lat="48.90073" lon="1.91401">
        <ele>185.80000305176</ele>
        <time>2016-06-12T09:21:37.000Z</time>
      </trkpt>
      <trkpt lat="48.90074" lon="1.91388">
        <ele>185.60000610352</ele>
        <time>2016-06-12T09:21:42.000Z</time>
      </trkpt>
      <trkpt lat="48.90077" lon="1.91378">
        <ele>185.60000610352</ele>
        <time>2016-06-12T09:21:46.000Z</time>
      </trkpt>
      <trkpt lat="48.90078" lon="1.91374">
        <ele>185.60000610352</ele>
        <time>2016-06-12T09:21:48.000Z</time>
      </trkpt>
      <trkpt lat="48.9008" lon="1.91369">
        <ele>185.80000305176</ele>
        <time>2016-06-12T09:21:50.000Z</time>
      </trkpt>
      <trkpt lat="48.90084" lon="1.91366">
        <ele>186</ele>
        <time>2016-06-12T09:21:53.000Z</time>
      </trkpt>
      <trkpt lat="48.90089" lon="1.91359">
        <ele>186.19999694824</ele>
        <time>2016-06-12T09:21:58.000Z</time>
      </trkpt>
      <trkpt lat="48.9009" lon="1.91356">
        <ele>186.19999694824</ele>
        <time>2016-06-12T09:22:00.000Z</time>
      </trkpt>
      <trkpt lat="48.90092" lon="1.91352">
        <ele>186.39999389648</ele>
        <time>2016-06-12T09:22:03.000Z</time>
      </trkpt>
      <trkpt lat="48.90096" lon="1.91349">
        <ele>186.39999389648</ele>
        <time>2016-06-12T09:22:08.000Z</time>
      </trkpt>
      <trkpt lat="48.90099" lon="1.91347">
        <ele>186.60000610352</ele>
        <time>2016-06-12T09:22:14.000Z</time>
      </trkpt>
      <trkpt lat="48.90122" lon="1.91353">
        <ele>186</ele>
        <time>2016-06-12T09:23:17.000Z</time>
      </trkpt>
      <trkpt lat="48.90124" lon="1.91353">
        <ele>185.80000305176</ele>
        <time>2016-06-12T09:23:19.000Z</time>
      </trkpt>
      <trkpt lat="48.90126" lon="1.91353">
        <ele>185.60000610352</ele>
        <time>2016-06-12T09:23:20.000Z</time>
      </trkpt>
      <trkpt lat="48.90136" lon="1.91355">
        <ele>184.80000305176</ele>
        <time>2016-06-12T09:23:26.000Z</time>
      </trkpt>
      <trkpt lat="48.90149" lon="1.9136">
        <ele>184</ele>
        <time>2016-06-12T09:23:33.000Z</time>
      </trkpt>
      <trkpt lat="48.90156" lon="1.91367">
        <ele>183.60000610352</ele>
        <time>2016-06-12T09:23:39.000Z</time>
      </trkpt>
      <trkpt lat="48.90157" lon="1.91368">
        <ele>183.39999389648</ele>
        <time>2016-06-12T09:23:40.000Z</time>
      </trkpt>
      <trkpt lat="48.90168" lon="1.91376">
        <ele>182.80000305176</ele>
        <time>2016-06-12T09:23:47.000Z</time>
      </trkpt>
      <trkpt lat="48.90178" lon="1.91381">
        <ele>182</ele>
        <time>2016-06-12T09:23:54.000Z</time>
      </trkpt>
      <trkpt lat="48.9019" lon="1.91389">
        <ele>181.19999694824</ele>
        <time>2016-06-12T09:24:02.000Z</time>
      </trkpt>
      <trkpt lat="48.90201" lon="1.91399">
        <ele>180.60000610352</ele>
        <time>2016-06-12T09:24:10.000Z</time>
      </trkpt>
      <trkpt lat="48.90214" lon="1.91407">
        <ele>180.19999694824</ele>
        <time>2016-06-12T09:24:19.000Z</time>
      </trkpt>
      <trkpt lat="48.9022" lon="1.9141">
        <ele>180</ele>
        <time>2016-06-12T09:24:23.000Z</time>
      </trkpt>
      <trkpt lat="48.90222" lon="1.9141">
        <ele>179.80000305176</ele>
        <time>2016-06-12T09:24:25.000Z</time>
      </trkpt>
      <trkpt lat="48.90233" lon="1.91418">
        <ele>179.39999389648</ele>
        <time>2016-06-12T09:24:30.000Z</time>
      </trkpt>
      <trkpt lat="48.90244" lon="1.91426">
        <ele>179</ele>
        <time>2016-06-12T09:24:37.000Z</time>
      </trkpt>
      <trkpt lat="48.90256" lon="1.91437">
        <ele>178.60000610352</ele>
        <time>2016-06-12T09:24:46.000Z</time>
      </trkpt>
      <trkpt lat="48.90268" lon="1.91446">
        <ele>178.19999694824</ele>
        <time>2016-06-12T09:24:55.000Z</time>
      </trkpt>
      <trkpt lat="48.90281" lon="1.91455">
        <ele>178</ele>
        <time>2016-06-12T09:25:04.000Z</time>
      </trkpt>
      <trkpt lat="48.90291" lon="1.91463">
        <ele>177.80000305176</ele>
        <time>2016-06-12T09:25:12.000Z</time>
      </trkpt>
      <trkpt lat="48.90301" lon="1.91469">
        <ele>177.60000610352</ele>
        <time>2016-06-12T09:25:19.000Z</time>
      </trkpt>
      <trkpt lat="48.90302" lon="1.9147">
        <ele>177.60000610352</ele>
        <time>2016-06-12T09:25:21.000Z</time>
      </trkpt>
      <trkpt lat="48.90306" lon="1.91473">
        <ele>177.60000610352</ele>
        <time>2016-06-12T09:25:24.000Z</time>
      </trkpt>
      <trkpt lat="48.90308" lon="1.91475">
        <ele>177.60000610352</ele>
        <time>2016-06-12T09:25:26.000Z</time>
      </trkpt>
      <trkpt lat="48.90317" lon="1.91483">
        <ele>177.39999389648</ele>
        <time>2016-06-12T09:25:33.000Z</time>
      </trkpt>
      <trkpt lat="48.90327" lon="1.91491">
        <ele>177.39999389648</ele>
        <time>2016-06-12T09:25:40.000Z</time>
      </trkpt>
      <trkpt lat="48.90337" lon="1.91499">
        <ele>177.19999694824</ele>
        <time>2016-06-12T09:25:45.000Z</time>
      </trkpt>
      <trkpt lat="48.90346" lon="1.91506">
        <ele>177.19999694824</ele>
        <time>2016-06-12T09:25:51.000Z</time>
      </trkpt>
      <trkpt lat="48.90357" lon="1.91514">
        <ele>177</ele>
        <time>2016-06-12T09:25:59.000Z</time>
      </trkpt>
      <trkpt lat="48.9037" lon="1.91523">
        <ele>177</ele>
        <time>2016-06-12T09:26:08.000Z</time>
      </trkpt>
      <trkpt lat="48.90389" lon="1.91539">
        <ele>177</ele>
        <time>2016-06-12T09:26:20.000Z</time>
      </trkpt>
      <trkpt lat="48.90412" lon="1.91556">
        <ele>177</ele>
        <time>2016-06-12T09:26:27.000Z</time>
      </trkpt>
      <trkpt lat="48.9043" lon="1.9157">
        <ele>177</ele>
        <time>2016-06-12T09:26:32.000Z</time>
      </trkpt>
      <trkpt lat="48.90449" lon="1.91584">
        <ele>177.39999389648</ele>
        <time>2016-06-12T09:26:37.000Z</time>
      </trkpt>
      <trkpt lat="48.90465" lon="1.91595">
        <ele>178</ele>
        <time>2016-06-12T09:26:43.000Z</time>
      </trkpt>
      <trkpt lat="48.90474" lon="1.916">
        <ele>178.39999389648</ele>
        <time>2016-06-12T09:26:49.000Z</time>
      </trkpt>
      <trkpt lat="48.90481" lon="1.91606">
        <ele>178.60000610352</ele>
        <time>2016-06-12T09:26:54.000Z</time>
      </trkpt>
      <trkpt lat="48.90484" lon="1.91608">
        <ele>178.80000305176</ele>
        <time>2016-06-12T09:26:57.000Z</time>
      </trkpt>
      <trkpt lat="48.90487" lon="1.91611">
        <ele>179</ele>
        <time>2016-06-12T09:26:59.000Z</time>
      </trkpt>
      <trkpt lat="48.90491" lon="1.91614">
        <ele>179</ele>
        <time>2016-06-12T09:27:02.000Z</time>
      </trkpt>
      <trkpt lat="48.90495" lon="1.91617">
        <ele>179.19999694824</ele>
        <time>2016-06-12T09:27:05.000Z</time>
      </trkpt>
      <trkpt lat="48.90504" lon="1.91613">
        <ele>179.19999694824</ele>
        <time>2016-06-12T09:27:13.000Z</time>
      </trkpt>
      <trkpt lat="48.90512" lon="1.91596">
        <ele>178.60000610352</ele>
        <time>2016-06-12T09:27:21.000Z</time>
      </trkpt>
      <trkpt lat="48.90521" lon="1.91584">
        <ele>178.39999389648</ele>
        <time>2016-06-12T09:27:27.000Z</time>
      </trkpt>
      <trkpt lat="48.90533" lon="1.91573">
        <ele>177.80000305176</ele>
        <time>2016-06-12T09:27:34.000Z</time>
      </trkpt>
      <trkpt lat="48.90541" lon="1.91567">
        <ele>177.80000305176</ele>
        <time>2016-06-12T09:27:41.000Z</time>
      </trkpt>
      <trkpt lat="48.90542" lon="1.91565">
        <ele>177.60000610352</ele>
        <time>2016-06-12T09:27:43.000Z</time>
      </trkpt>
      <trkpt lat="48.90547" lon="1.91565">
        <ele>177.60000610352</ele>
        <time>2016-06-12T09:27:46.000Z</time>
      </trkpt>
      <trkpt lat="48.90554" lon="1.91566">
        <ele>177.60000610352</ele>
        <time>2016-06-12T09:27:51.000Z</time>
      </trkpt>
      <trkpt lat="48.90556" lon="1.91565">
        <ele>177.60000610352</ele>
        <time>2016-06-12T09:27:52.000Z</time>
      </trkpt>
      <trkpt lat="48.90564" lon="1.91562">
        <ele>177.39999389648</ele>
        <time>2016-06-12T09:27:58.000Z</time>
      </trkpt>
      <trkpt lat="48.90574" lon="1.91559">
        <ele>177.19999694824</ele>
        <time>2016-06-12T09:28:04.000Z</time>
      </trkpt>
      <trkpt lat="48.90587" lon="1.91557">
        <ele>177</ele>
        <time>2016-06-12T09:28:13.000Z</time>
      </trkpt>
      <trkpt lat="48.90603" lon="1.91558">
        <ele>177</ele>
        <time>2016-06-12T09:28:21.000Z</time>
      </trkpt>
      <trkpt lat="48.90612" lon="1.91563">
        <ele>177</ele>
        <time>2016-06-12T09:28:25.000Z</time>
      </trkpt>
      <trkpt lat="48.90624" lon="1.91568">
        <ele>176.80000305176</ele>
        <time>2016-06-12T09:28:30.000Z</time>
      </trkpt>
      <trkpt lat="48.90635" lon="1.91574">
        <ele>176.60000610352</ele>
        <time>2016-06-12T09:28:36.000Z</time>
      </trkpt>
      <trkpt lat="48.90644" lon="1.91582">
        <ele>176.80000305176</ele>
        <time>2016-06-12T09:28:43.000Z</time>
      </trkpt>
      <trkpt lat="48.90655" lon="1.91593">
        <ele>176.80000305176</ele>
        <time>2016-06-12T09:28:51.000Z</time>
      </trkpt>
      <trkpt lat="48.90663" lon="1.91602">
        <ele>177</ele>
        <time>2016-06-12T09:28:58.000Z</time>
      </trkpt>
      <trkpt lat="48.90674" lon="1.9161">
        <ele>177</ele>
        <time>2016-06-12T09:29:06.000Z</time>
      </trkpt>
      <trkpt lat="48.90693" lon="1.91621">
        <ele>177.19999694824</ele>
        <time>2016-06-12T09:29:19.000Z</time>
      </trkpt>
      <trkpt lat="48.90711" lon="1.91623">
        <ele>177.60000610352</ele>
        <time>2016-06-12T09:29:31.000Z</time>
      </trkpt>
      <trkpt lat="48.90728" lon="1.91626">
        <ele>178.19999694824</ele>
        <time>2016-06-12T09:29:42.000Z</time>
      </trkpt>
      <trkpt lat="48.90743" lon="1.9163">
        <ele>178.60000610352</ele>
        <time>2016-06-12T09:29:52.000Z</time>
      </trkpt>
      <trkpt lat="48.90752" lon="1.91632">
        <ele>178.80000305176</ele>
        <time>2016-06-12T09:29:59.000Z</time>
      </trkpt>
      <trkpt lat="48.90767" lon="1.91639">
        <ele>179.39999389648</ele>
        <time>2016-06-12T09:30:09.000Z</time>
      </trkpt>
      <trkpt lat="48.90778" lon="1.91648">
        <ele>179.60000610352</ele>
        <time>2016-06-12T09:30:18.000Z</time>
      </trkpt>
      <trkpt lat="48.90778" lon="1.91649">
        <ele>179.60000610352</ele>
        <time>2016-06-12T09:30:21.000Z</time>
      </trkpt>
      <trkpt lat="48.90794" lon="1.9165">
        <ele>178.80000305176</ele>
        <time>2016-06-12T09:31:45.000Z</time>
      </trkpt>
      <trkpt lat="48.90796" lon="1.9165">
        <ele>178.80000305176</ele>
        <time>2016-06-12T09:31:46.000Z</time>
      </trkpt>
      <trkpt lat="48.90808" lon="1.91649">
        <ele>178.19999694824</ele>
        <time>2016-06-12T09:31:54.000Z</time>
      </trkpt>
      <trkpt lat="48.90812" lon="1.91648">
        <ele>178</ele>
        <time>2016-06-12T09:31:58.000Z</time>
      </trkpt>
      <trkpt lat="48.90815" lon="1.91647">
        <ele>177.80000305176</ele>
        <time>2016-06-12T09:32:00.000Z</time>
      </trkpt>
      <trkpt lat="48.90827" lon="1.9165">
        <ele>177.19999694824</ele>
        <time>2016-06-12T09:32:09.000Z</time>
      </trkpt>
      <trkpt lat="48.90839" lon="1.91655">
        <ele>176.80000305176</ele>
        <time>2016-06-12T09:32:17.000Z</time>
      </trkpt>
      <trkpt lat="48.90853" lon="1.91664">
        <ele>176.19999694824</ele>
        <time>2016-06-12T09:32:27.000Z</time>
      </trkpt>
      <trkpt lat="48.9087" lon="1.91678">
        <ele>176.19999694824</ele>
        <time>2016-06-12T09:32:40.000Z</time>
      </trkpt>
      <trkpt lat="48.90886" lon="1.91694">
        <ele>176.39999389648</ele>
        <time>2016-06-12T09:32:53.000Z</time>
      </trkpt>
      <trkpt lat="48.90896" lon="1.91708">
        <ele>176.60000610352</ele>
        <time>2016-06-12T09:33:02.000Z</time>
      </trkpt>
      <trkpt lat="48.90901" lon="1.91717">
        <ele>176.80000305176</ele>
        <time>2016-06-12T09:33:08.000Z</time>
      </trkpt>
      <trkpt lat="48.90915" lon="1.91734">
        <ele>177</ele>
        <time>2016-06-12T09:33:20.000Z</time>
      </trkpt>
      <trkpt lat="48.90927" lon="1.91747">
        <ele>177</ele>
        <time>2016-06-12T09:33:30.000Z</time>
      </trkpt>
      <trkpt lat="48.90941" lon="1.91761">
        <ele>177</ele>
        <time>2016-06-12T09:33:41.000Z</time>
      </trkpt>
      <trkpt lat="48.9096" lon="1.91779">
        <ele>177.39999389648</ele>
        <time>2016-06-12T09:33:55.000Z</time>
      </trkpt>
      <trkpt lat="48.90975" lon="1.91792">
        <ele>177.80000305176</ele>
        <time>2016-06-12T09:34:07.000Z</time>
      </trkpt>
      <trkpt lat="48.90985" lon="1.91799">
        <ele>178</ele>
        <time>2016-06-12T09:34:14.000Z</time>
      </trkpt>
      <trkpt lat="48.90999" lon="1.91807">
        <ele>178.39999389648</ele>
        <time>2016-06-12T09:34:24.000Z</time>
      </trkpt>
      <trkpt lat="48.91009" lon="1.91813">
        <ele>178.60000610352</ele>
        <time>2016-06-12T09:34:31.000Z</time>
      </trkpt>
      <trkpt lat="48.9102" lon="1.91822">
        <ele>179</ele>
        <time>2016-06-12T09:34:40.000Z</time>
      </trkpt>
      <trkpt lat="48.91028" lon="1.91829">
        <ele>179</ele>
        <time>2016-06-12T09:34:46.000Z</time>
      </trkpt>
      <trkpt lat="48.9104" lon="1.91843">
        <ele>179.19999694824</ele>
        <time>2016-06-12T09:34:57.000Z</time>
      </trkpt>
      <trkpt lat="48.9105" lon="1.91861">
        <ele>179.39999389648</ele>
        <time>2016-06-12T09:35:07.000Z</time>
      </trkpt>
      <trkpt lat="48.91061" lon="1.91866">
        <ele>179.39999389648</ele>
        <time>2016-06-12T09:35:15.000Z</time>
      </trkpt>
      <trkpt lat="48.91072" lon="1.91877">
        <ele>179.60000610352</ele>
        <time>2016-06-12T09:35:20.000Z</time>
      </trkpt>
      <trkpt lat="48.91081" lon="1.91887">
        <ele>179.60000610352</ele>
        <time>2016-06-12T09:35:26.000Z</time>
      </trkpt>
      <trkpt lat="48.91086" lon="1.91894">
        <ele>179.80000305176</ele>
        <time>2016-06-12T09:35:31.000Z</time>
      </trkpt>
      <trkpt lat="48.91088" lon="1.91896">
        <ele>179.80000305176</ele>
        <time>2016-06-12T09:35:33.000Z</time>
      </trkpt>
      <trkpt lat="48.91092" lon="1.919">
        <ele>179.80000305176</ele>
        <time>2016-06-12T09:35:36.000Z</time>
      </trkpt>
      <trkpt lat="48.91098" lon="1.91906">
        <ele>179.80000305176</ele>
        <time>2016-06-12T09:35:41.000Z</time>
      </trkpt>
      <trkpt lat="48.91107" lon="1.91917">
        <ele>180.19999694824</ele>
        <time>2016-06-12T09:35:49.000Z</time>
      </trkpt>
      <trkpt lat="48.91118" lon="1.91928">
        <ele>180.60000610352</ele>
        <time>2016-06-12T09:35:57.000Z</time>
      </trkpt>
      <trkpt lat="48.91127" lon="1.91936">
        <ele>180.80000305176</ele>
        <time>2016-06-12T09:36:04.000Z</time>
      </trkpt>
      <trkpt lat="48.91136" lon="1.91943">
        <ele>181.19999694824</ele>
        <time>2016-06-12T09:36:12.000Z</time>
      </trkpt>
      <trkpt lat="48.91138" lon="1.91945">
        <ele>181.19999694824</ele>
        <time>2016-06-12T09:36:15.000Z</time>
      </trkpt>
      <trkpt lat="48.9114" lon="1.91945">
        <ele>181.19999694824</ele>
        <time>2016-06-12T09:36:19.000Z</time>
      </trkpt>
      <trkpt lat="48.91157" lon="1.91939">
        <ele>181.60000610352</ele>
        <time>2016-06-12T09:36:36.000Z</time>
      </trkpt>
      <trkpt lat="48.91161" lon="1.91934">
        <ele>181.60000610352</ele>
        <time>2016-06-12T09:36:39.000Z</time>
      </trkpt>
      <trkpt lat="48.91168" lon="1.91925">
        <ele>181.60000610352</ele>
        <time>2016-06-12T09:36:45.000Z</time>
      </trkpt>
      <trkpt lat="48.91174" lon="1.91915">
        <ele>181.80000305176</ele>
        <time>2016-06-12T09:36:51.000Z</time>
      </trkpt>
      <trkpt lat="48.91183" lon="1.91903">
        <ele>181.80000305176</ele>
        <time>2016-06-12T09:36:59.000Z</time>
      </trkpt>
      <trkpt lat="48.91197" lon="1.91882">
        <ele>182.39999389648</ele>
        <time>2016-06-12T09:37:12.000Z</time>
      </trkpt>
      <trkpt lat="48.91205" lon="1.91864">
        <ele>182.80000305176</ele>
        <time>2016-06-12T09:37:19.000Z</time>
      </trkpt>
      <trkpt lat="48.91213" lon="1.91845">
        <ele>183.19999694824</ele>
        <time>2016-06-12T09:37:29.000Z</time>
      </trkpt>
      <trkpt lat="48.91224" lon="1.91822">
        <ele>183.39999389648</ele>
        <time>2016-06-12T09:37:41.000Z</time>
      </trkpt>
      <trkpt lat="48.91232" lon="1.91802">
        <ele>183.19999694824</ele>
        <time>2016-06-12T09:37:50.000Z</time>
      </trkpt>
      <trkpt lat="48.91237" lon="1.91783">
        <ele>183.19999694824</ele>
        <time>2016-06-12T09:37:59.000Z</time>
      </trkpt>
      <trkpt lat="48.91242" lon="1.91764">
        <ele>183.19999694824</ele>
        <time>2016-06-12T09:38:08.000Z</time>
      </trkpt>
      <trkpt lat="48.91249" lon="1.91738">
        <ele>183.39999389648</ele>
        <time>2016-06-12T09:38:20.000Z</time>
      </trkpt>
      <trkpt lat="48.91255" lon="1.91725">
        <ele>183.60000610352</ele>
        <time>2016-06-12T09:38:28.000Z</time>
      </trkpt>
      <trkpt lat="48.91257" lon="1.91725">
        <ele>183.60000610352</ele>
        <time>2016-06-12T09:38:29.000Z</time>
      </trkpt>
      <trkpt lat="48.9127" lon="1.91725">
        <ele>183.80000305176</ele>
        <time>2016-06-12T09:38:36.000Z</time>
      </trkpt>
      <trkpt lat="48.9128" lon="1.91728">
        <ele>183.80000305176</ele>
        <time>2016-06-12T09:38:44.000Z</time>
      </trkpt>
      <trkpt lat="48.91295" lon="1.91732">
        <ele>183.80000305176</ele>
        <time>2016-06-12T09:38:54.000Z</time>
      </trkpt>
      <trkpt lat="48.91298" lon="1.91733">
        <ele>184</ele>
        <time>2016-06-12T09:38:56.000Z</time>
      </trkpt>
      <trkpt lat="48.913" lon="1.91734">
        <ele>184</ele>
        <time>2016-06-12T09:38:58.000Z</time>
      </trkpt>
      <trkpt lat="48.91301" lon="1.91736">
        <ele>184</ele>
        <time>2016-06-12T09:39:00.000Z</time>
      </trkpt>
      <trkpt lat="48.91313" lon="1.9174">
        <ele>184</ele>
        <time>2016-06-12T09:39:08.000Z</time>
      </trkpt>
      <trkpt lat="48.91325" lon="1.91749">
        <ele>183.80000305176</ele>
        <time>2016-06-12T09:39:16.000Z</time>
      </trkpt>
      <trkpt lat="48.91331" lon="1.91757">
        <ele>183.80000305176</ele>
        <time>2016-06-12T09:39:22.000Z</time>
      </trkpt>
      <trkpt lat="48.91335" lon="1.91762">
        <ele>183.80000305176</ele>
        <time>2016-06-12T09:39:25.000Z</time>
      </trkpt>
      <trkpt lat="48.91338" lon="1.91765">
        <ele>183.80000305176</ele>
        <time>2016-06-12T09:39:27.000Z</time>
      </trkpt>
      <trkpt lat="48.91342" lon="1.91771">
        <ele>183.60000610352</ele>
        <time>2016-06-12T09:39:31.000Z</time>
      </trkpt>
      <trkpt lat="48.91344" lon="1.91775">
        <ele>183.60000610352</ele>
        <time>2016-06-12T09:39:33.000Z</time>
      </trkpt>
      <trkpt lat="48.91359" lon="1.91792">
        <ele>183.39999389648</ele>
        <time>2016-06-12T09:39:43.000Z</time>
      </trkpt>
      <trkpt lat="48.91374" lon="1.91809">
        <ele>183.19999694824</ele>
        <time>2016-06-12T09:39:53.000Z</time>
      </trkpt>
      <trkpt lat="48.91382" lon="1.91819">
        <ele>183</ele>
        <time>2016-06-12T09:40:00.000Z</time>
      </trkpt>
      <trkpt lat="48.91388" lon="1.91826">
        <ele>183</ele>
        <time>2016-06-12T09:40:05.000Z</time>
      </trkpt>
      <trkpt lat="48.9139" lon="1.91829">
        <ele>183</ele>
        <time>2016-06-12T09:40:07.000Z</time>
      </trkpt>
      <trkpt lat="48.91392" lon="1.91833">
        <ele>183.19999694824</ele>
        <time>2016-06-12T09:40:09.000Z</time>
      </trkpt>
      <trkpt lat="48.91397" lon="1.91842">
        <ele>183.19999694824</ele>
        <time>2016-06-12T09:40:14.000Z</time>
      </trkpt>
      <trkpt lat="48.91404" lon="1.91856">
        <ele>183.39999389648</ele>
        <time>2016-06-12T09:40:20.000Z</time>
      </trkpt>
      <trkpt lat="48.91407" lon="1.91864">
        <ele>183.39999389648</ele>
        <time>2016-06-12T09:40:24.000Z</time>
      </trkpt>
      <trkpt lat="48.91407" lon="1.91865">
        <ele>183.39999389648</ele>
        <time>2016-06-12T09:40:26.000Z</time>
      </trkpt>
      <trkpt lat="48.91407" lon="1.91865">
        <ele>183.39999389648</ele>
        <time>2016-06-12T09:40:27.000Z</time>
      </trkpt>
      <trkpt lat="48.91417" lon="1.91879">
        <ele>183.60000610352</ele>
        <time>2016-06-12T09:40:39.000Z</time>
      </trkpt>
      <trkpt lat="48.9142" lon="1.91883">
        <ele>183.80000305176</ele>
        <time>2016-06-12T09:40:41.000Z</time>
      </trkpt>
      <trkpt lat="48.91427" lon="1.91894">
        <ele>183.80000305176</ele>
        <time>2016-06-12T09:40:48.000Z</time>
      </trkpt>
      <trkpt lat="48.91429" lon="1.91897">
        <ele>183.80000305176</ele>
        <time>2016-06-12T09:40:50.000Z</time>
      </trkpt>
      <trkpt lat="48.91438" lon="1.91913">
        <ele>184</ele>
        <time>2016-06-12T09:40:59.000Z</time>
      </trkpt>
      <trkpt lat="48.91447" lon="1.91928">
        <ele>184</ele>
        <time>2016-06-12T09:41:08.000Z</time>
      </trkpt>
      <trkpt lat="48.91456" lon="1.91943">
        <ele>183.80000305176</ele>
        <time>2016-06-12T09:41:17.000Z</time>
      </trkpt>
      <trkpt lat="48.91462" lon="1.91955">
        <ele>183.80000305176</ele>
        <time>2016-06-12T09:41:24.000Z</time>
      </trkpt>
      <trkpt lat="48.91466" lon="1.91971">
        <ele>183.60000610352</ele>
        <time>2016-06-12T09:41:31.000Z</time>
      </trkpt>
      <trkpt lat="48.91469" lon="1.91989">
        <ele>183.60000610352</ele>
        <time>2016-06-12T09:41:38.000Z</time>
      </trkpt>
      <trkpt lat="48.91472" lon="1.92009">
        <ele>183.39999389648</ele>
        <time>2016-06-12T09:41:46.000Z</time>
      </trkpt>
      <trkpt lat="48.91474" lon="1.92028">
        <ele>183</ele>
        <time>2016-06-12T09:41:55.000Z</time>
      </trkpt>
      <trkpt lat="48.91476" lon="1.92059">
        <ele>182.39999389648</ele>
        <time>2016-06-12T09:42:09.000Z</time>
      </trkpt>
      <trkpt lat="48.91476" lon="1.92087">
        <ele>182</ele>
        <time>2016-06-12T09:42:22.000Z</time>
      </trkpt>
      <trkpt lat="48.91474" lon="1.92105">
        <ele>182</ele>
        <time>2016-06-12T09:42:29.000Z</time>
      </trkpt>
      <trkpt lat="48.91472" lon="1.92121">
        <ele>182</ele>
        <time>2016-06-12T09:42:35.000Z</time>
      </trkpt>
      <trkpt lat="48.91471" lon="1.92124">
        <ele>182</ele>
        <time>2016-06-12T09:42:36.000Z</time>
      </trkpt>
      <trkpt lat="48.91468" lon="1.92146">
        <ele>182</ele>
        <time>2016-06-12T09:42:46.000Z</time>
      </trkpt>
      <trkpt lat="48.91469" lon="1.92163">
        <ele>182</ele>
        <time>2016-06-12T09:42:54.000Z</time>
      </trkpt>
      <trkpt lat="48.91471" lon="1.92165">
        <ele>182</ele>
        <time>2016-06-12T09:42:56.000Z</time>
      </trkpt>
      <trkpt lat="48.91476" lon="1.92165">
        <ele>182</ele>
        <time>2016-06-12T09:43:00.000Z</time>
      </trkpt>
      <trkpt lat="48.91477" lon="1.92165">
        <ele>182</ele>
        <time>2016-06-12T09:43:01.000Z</time>
      </trkpt>
      <trkpt lat="48.91484" lon="1.92167">
        <ele>182</ele>
        <time>2016-06-12T09:43:06.000Z</time>
      </trkpt>
      <trkpt lat="48.91497" lon="1.92166">
        <ele>182</ele>
        <time>2016-06-12T09:43:15.000Z</time>
      </trkpt>
      <trkpt lat="48.9151" lon="1.92162">
        <ele>182</ele>
        <time>2016-06-12T09:43:23.000Z</time>
      </trkpt>
      <trkpt lat="48.91518" lon="1.92156">
        <ele>182</ele>
        <time>2016-06-12T09:43:29.000Z</time>
      </trkpt>
      <trkpt lat="48.91529" lon="1.92148">
        <ele>182</ele>
        <time>2016-06-12T09:43:35.000Z</time>
      </trkpt>
      <trkpt lat="48.91531" lon="1.92146">
        <ele>182</ele>
        <time>2016-06-12T09:43:36.000Z</time>
      </trkpt>
      <trkpt lat="48.91549" lon="1.92133">
        <ele>182</ele>
        <time>2016-06-12T09:43:45.000Z</time>
      </trkpt>
      <trkpt lat="48.91557" lon="1.92128">
        <ele>182</ele>
        <time>2016-06-12T09:43:50.000Z</time>
      </trkpt>
      <trkpt lat="48.91567" lon="1.92122">
        <ele>182</ele>
        <time>2016-06-12T09:43:56.000Z</time>
      </trkpt>
      <trkpt lat="48.91573" lon="1.92115">
        <ele>182</ele>
        <time>2016-06-12T09:44:01.000Z</time>
      </trkpt>
      <trkpt lat="48.91575" lon="1.92114">
        <ele>182</ele>
        <time>2016-06-12T09:44:02.000Z</time>
      </trkpt>
      <trkpt lat="48.91587" lon="1.92102">
        <ele>182</ele>
        <time>2016-06-12T09:44:11.000Z</time>
      </trkpt>
      <trkpt lat="48.91601" lon="1.92094">
        <ele>182</ele>
        <time>2016-06-12T09:44:20.000Z</time>
      </trkpt>
      <trkpt lat="48.91612" lon="1.92095">
        <ele>181.80000305176</ele>
        <time>2016-06-12T09:44:27.000Z</time>
      </trkpt>
      <trkpt lat="48.91624" lon="1.92093">
        <ele>181.60000610352</ele>
        <time>2016-06-12T09:44:33.000Z</time>
      </trkpt>
      <trkpt lat="48.91631" lon="1.92092">
        <ele>181.39999389648</ele>
        <time>2016-06-12T09:44:38.000Z</time>
      </trkpt>
      <trkpt lat="48.91631" lon="1.92093">
        <ele>181.39999389648</ele>
        <time>2016-06-12T09:44:39.000Z</time>
      </trkpt>
      <trkpt lat="48.91636" lon="1.92093">
        <ele>181.39999389648</ele>
        <time>2016-06-12T09:44:48.000Z</time>
      </trkpt>
      <trkpt lat="48.91639" lon="1.92095">
        <ele>181.19999694824</ele>
        <time>2016-06-12T09:44:50.000Z</time>
      </trkpt>
      <trkpt lat="48.91651" lon="1.92095">
        <ele>181</ele>
        <time>2016-06-12T09:44:57.000Z</time>
      </trkpt>
      <trkpt lat="48.91662" lon="1.92099">
        <ele>180.60000610352</ele>
        <time>2016-06-12T09:45:04.000Z</time>
      </trkpt>
      <trkpt lat="48.91677" lon="1.92104">
        <ele>180.39999389648</ele>
        <time>2016-06-12T09:45:13.000Z</time>
      </trkpt>
      <trkpt lat="48.91692" lon="1.92109">
        <ele>180</ele>
        <time>2016-06-12T09:45:22.000Z</time>
      </trkpt>
      <trkpt lat="48.91709" lon="1.92114">
        <ele>179.80000305176</ele>
        <time>2016-06-12T09:45:32.000Z</time>
      </trkpt>
      <trkpt lat="48.91727" lon="1.9212">
        <ele>179.60000610352</ele>
        <time>2016-06-12T09:45:43.000Z</time>
      </trkpt>
      <trkpt lat="48.91731" lon="1.92121">
        <ele>179.60000610352</ele>
        <time>2016-06-12T09:45:46.000Z</time>
      </trkpt>
      <trkpt lat="48.91735" lon="1.9212">
        <ele>179.39999389648</ele>
        <time>2016-06-12T09:45:49.000Z</time>
      </trkpt>
      <trkpt lat="48.91745" lon="1.92121">
        <ele>179.39999389648</ele>
        <time>2016-06-12T09:45:54.000Z</time>
      </trkpt>
      <trkpt lat="48.91759" lon="1.92127">
        <ele>179.39999389648</ele>
        <time>2016-06-12T09:46:02.000Z</time>
      </trkpt>
      <trkpt lat="48.91767" lon="1.92129">
        <ele>179.39999389648</ele>
        <time>2016-06-12T09:46:07.000Z</time>
      </trkpt>
      <trkpt lat="48.91783" lon="1.92134">
        <ele>179.39999389648</ele>
        <time>2016-06-12T09:46:17.000Z</time>
      </trkpt>
      <trkpt lat="48.91802" lon="1.92141">
        <ele>179.60000610352</ele>
        <time>2016-06-12T09:46:29.000Z</time>
      </trkpt>
      <trkpt lat="48.91817" lon="1.92147">
        <ele>179.60000610352</ele>
        <time>2016-06-12T09:46:39.000Z</time>
      </trkpt>
      <trkpt lat="48.91834" lon="1.92152">
        <ele>179.80000305176</ele>
        <time>2016-06-12T09:46:50.000Z</time>
      </trkpt>
      <trkpt lat="48.91851" lon="1.92158">
        <ele>180</ele>
        <time>2016-06-12T09:47:00.000Z</time>
      </trkpt>
      <trkpt lat="48.91871" lon="1.92165">
        <ele>179.80000305176</ele>
        <time>2016-06-12T09:47:12.000Z</time>
      </trkpt>
      <trkpt lat="48.91888" lon="1.92172">
        <ele>179.60000610352</ele>
        <time>2016-06-12T09:47:23.000Z</time>
      </trkpt>
      <trkpt lat="48.91911" lon="1.9218">
        <ele>179.39999389648</ele>
        <time>2016-06-12T09:47:37.000Z</time>
      </trkpt>
      <trkpt lat="48.91933" lon="1.92187">
        <ele>179</ele>
        <time>2016-06-12T09:47:51.000Z</time>
      </trkpt>
      <trkpt lat="48.9195" lon="1.92193">
        <ele>179</ele>
        <time>2016-06-12T09:48:02.000Z</time>
      </trkpt>
      <trkpt lat="48.9197" lon="1.92199">
        <ele>179</ele>
        <time>2016-06-12T09:48:15.000Z</time>
      </trkpt>
      <trkpt lat="48.91988" lon="1.92206">
        <ele>179</ele>
        <time>2016-06-12T09:48:27.000Z</time>
      </trkpt>
      <trkpt lat="48.92011" lon="1.92213">
        <ele>178.80000305176</ele>
        <time>2016-06-12T09:48:41.000Z</time>
      </trkpt>
      <trkpt lat="48.92024" lon="1.92218">
        <ele>178.80000305176</ele>
        <time>2016-06-12T09:48:50.000Z</time>
      </trkpt>
      <trkpt lat="48.92039" lon="1.92223">
        <ele>179</ele>
        <time>2016-06-12T09:49:00.000Z</time>
      </trkpt>
      <trkpt lat="48.92052" lon="1.92227">
        <ele>179.19999694824</ele>
        <time>2016-06-12T09:49:07.000Z</time>
      </trkpt>
      <trkpt lat="48.92067" lon="1.92232">
        <ele>179.39999389648</ele>
        <time>2016-06-12T09:49:16.000Z</time>
      </trkpt>
      <trkpt lat="48.9208" lon="1.92241">
        <ele>179.60000610352</ele>
        <time>2016-06-12T09:49:24.000Z</time>
      </trkpt>
      <trkpt lat="48.92095" lon="1.92245">
        <ele>179.80000305176</ele>
        <time>2016-06-12T09:49:33.000Z</time>
      </trkpt>
      <trkpt lat="48.92115" lon="1.92248">
        <ele>180.39999389648</ele>
        <time>2016-06-12T09:49:44.000Z</time>
      </trkpt>
      <trkpt lat="48.92128" lon="1.92245">
        <ele>180.80000305176</ele>
        <time>2016-06-12T09:49:53.000Z</time>
      </trkpt>
      <trkpt lat="48.9214" lon="1.92244">
        <ele>181.19999694824</ele>
        <time>2016-06-12T09:50:00.000Z</time>
      </trkpt>
      <trkpt lat="48.92149" lon="1.92249">
        <ele>181.80000305176</ele>
        <time>2016-06-12T09:50:07.000Z</time>
      </trkpt>
      <trkpt lat="48.92157" lon="1.92253">
        <ele>182</ele>
        <time>2016-06-12T09:50:12.000Z</time>
      </trkpt>
      <trkpt lat="48.9217" lon="1.9226">
        <ele>182.80000305176</ele>
        <time>2016-06-12T09:50:17.000Z</time>
      </trkpt>
      <trkpt lat="48.92176" lon="1.92264">
        <ele>183</ele>
        <time>2016-06-12T09:50:21.000Z</time>
      </trkpt>
      <trkpt lat="48.92183" lon="1.92273">
        <ele>183.60000610352</ele>
        <time>2016-06-12T09:50:28.000Z</time>
      </trkpt>
      <trkpt lat="48.92191" lon="1.92283">
        <ele>184</ele>
        <time>2016-06-12T09:50:35.000Z</time>
      </trkpt>
      <trkpt lat="48.92192" lon="1.92288">
        <ele>184.19999694824</ele>
        <time>2016-06-12T09:50:38.000Z</time>
      </trkpt>
      <trkpt lat="48.92196" lon="1.92292">
        <ele>184.39999389648</ele>
        <time>2016-06-12T09:50:41.000Z</time>
      </trkpt>
      <trkpt lat="48.92196" lon="1.92294">
        <ele>184.39999389648</ele>
        <time>2016-06-12T09:50:42.000Z</time>
      </trkpt>
      <trkpt lat="48.92207" lon="1.92307">
        <ele>185</ele>
        <time>2016-06-12T09:50:51.000Z</time>
      </trkpt>
      <trkpt lat="48.92213" lon="1.92312">
        <ele>185.19999694824</ele>
        <time>2016-06-12T09:50:55.000Z</time>
      </trkpt>
      <trkpt lat="48.92214" lon="1.92313">
        <ele>185.39999389648</ele>
        <time>2016-06-12T09:50:56.000Z</time>
      </trkpt>
      <trkpt lat="48.92217" lon="1.92316">
        <ele>185.39999389648</ele>
        <time>2016-06-12T09:50:59.000Z</time>
      </trkpt>
      <trkpt lat="48.92219" lon="1.92317">
        <ele>185.60000610352</ele>
        <time>2016-06-12T09:51:00.000Z</time>
      </trkpt>
      <trkpt lat="48.92223" lon="1.92322">
        <ele>185.80000305176</ele>
        <time>2016-06-12T09:51:04.000Z</time>
      </trkpt>
      <trkpt lat="48.92225" lon="1.92323">
        <ele>185.80000305176</ele>
        <time>2016-06-12T09:51:05.000Z</time>
      </trkpt>
      <trkpt lat="48.92231" lon="1.92333">
        <ele>186</ele>
        <time>2016-06-12T09:51:11.000Z</time>
      </trkpt>
      <trkpt lat="48.92232" lon="1.92335">
        <ele>186</ele>
        <time>2016-06-12T09:51:12.000Z</time>
      </trkpt>
      <trkpt lat="48.92236" lon="1.92343">
        <ele>186</ele>
        <time>2016-06-12T09:51:17.000Z</time>
      </trkpt>
      <trkpt lat="48.92243" lon="1.92344">
        <ele>186.19999694824</ele>
        <time>2016-06-12T09:51:21.000Z</time>
      </trkpt>
      <trkpt lat="48.92244" lon="1.92344">
        <ele>186.19999694824</ele>
        <time>2016-06-12T09:51:22.000Z</time>
      </trkpt>
      <trkpt lat="48.92246" lon="1.92345">
        <ele>186.39999389648</ele>
        <time>2016-06-12T09:51:24.000Z</time>
      </trkpt>
      <trkpt lat="48.92249" lon="1.92343">
        <ele>186.39999389648</ele>
        <time>2016-06-12T09:51:27.000Z</time>
      </trkpt>
      <trkpt lat="48.92254" lon="1.92338">
        <ele>186.60000610352</ele>
        <time>2016-06-12T09:51:31.000Z</time>
      </trkpt>
      <trkpt lat="48.92258" lon="1.92337">
        <ele>186.60000610352</ele>
        <time>2016-06-12T09:51:33.000Z</time>
      </trkpt>
      <trkpt lat="48.92267" lon="1.92334">
        <ele>186.80000305176</ele>
        <time>2016-06-12T09:51:38.000Z</time>
      </trkpt>
      <trkpt lat="48.9227" lon="1.92335">
        <ele>187</ele>
        <time>2016-06-12T09:51:40.000Z</time>
      </trkpt>
      <trkpt lat="48.92272" lon="1.92335">
        <ele>187</ele>
        <time>2016-06-12T09:51:42.000Z</time>
      </trkpt>
      <trkpt lat="48.9228" lon="1.92334">
        <ele>187</ele>
        <time>2016-06-12T09:51:46.000Z</time>
      </trkpt>
      <trkpt lat="48.92284" lon="1.92335">
        <ele>186.80000305176</ele>
        <time>2016-06-12T09:51:49.000Z</time>
      </trkpt>
      <trkpt lat="48.92287" lon="1.92334">
        <ele>186.80000305176</ele>
        <time>2016-06-12T09:51:51.000Z</time>
      </trkpt>
      <trkpt lat="48.92293" lon="1.92332">
        <ele>186.60000610352</ele>
        <time>2016-06-12T09:51:53.000Z</time>
      </trkpt>
      <trkpt lat="48.92298" lon="1.92335">
        <ele>186.60000610352</ele>
        <time>2016-06-12T09:51:55.000Z</time>
      </trkpt>
      <trkpt lat="48.9231" lon="1.92347">
        <ele>186.39999389648</ele>
        <time>2016-06-12T09:52:01.000Z</time>
      </trkpt>
      <trkpt lat="48.92311" lon="1.92349">
        <ele>186.39999389648</ele>
        <time>2016-06-12T09:52:02.000Z</time>
      </trkpt>
      <trkpt lat="48.92313" lon="1.92353">
        <ele>186.39999389648</ele>
        <time>2016-06-12T09:52:04.000Z</time>
      </trkpt>
      <trkpt lat="48.92319" lon="1.92359">
        <ele>186.39999389648</ele>
        <time>2016-06-12T09:52:08.000Z</time>
      </trkpt>
      <trkpt lat="48.92323" lon="1.9237">
        <ele>186.39999389648</ele>
        <time>2016-06-12T09:52:13.000Z</time>
      </trkpt>
      <trkpt lat="48.92327" lon="1.92378">
        <ele>186.39999389648</ele>
        <time>2016-06-12T09:52:18.000Z</time>
      </trkpt>
      <trkpt lat="48.9233" lon="1.9238">
        <ele>186.39999389648</ele>
        <time>2016-06-12T09:52:20.000Z</time>
      </trkpt>
      <trkpt lat="48.92331" lon="1.9238">
        <ele>186.19999694824</ele>
        <time>2016-06-12T09:52:22.000Z</time>
      </trkpt>
      <trkpt lat="48.92334" lon="1.92376">
        <ele>186.19999694824</ele>
        <time>2016-06-12T09:52:26.000Z</time>
      </trkpt>
      <trkpt lat="48.92336" lon="1.92375">
        <ele>186.19999694824</ele>
        <time>2016-06-12T09:52:27.000Z</time>
      </trkpt>
      <trkpt lat="48.92338" lon="1.92378">
        <ele>186</ele>
        <time>2016-06-12T09:52:28.000Z</time>
      </trkpt>
      <trkpt lat="48.92344" lon="1.92382">
        <ele>186</ele>
        <time>2016-06-12T09:52:32.000Z</time>
      </trkpt>
      <trkpt lat="48.92351" lon="1.92392">
        <ele>186</ele>
        <time>2016-06-12T09:52:37.000Z</time>
      </trkpt>
      <trkpt lat="48.92354" lon="1.92399">
        <ele>186</ele>
        <time>2016-06-12T09:52:40.000Z</time>
      </trkpt>
      <trkpt lat="48.92354" lon="1.92404">
        <ele>186</ele>
        <time>2016-06-12T09:52:42.000Z</time>
      </trkpt>
      <trkpt lat="48.92354" lon="1.92407">
        <ele>186</ele>
        <time>2016-06-12T09:52:43.000Z</time>
      </trkpt>
      <trkpt lat="48.92354" lon="1.92413">
        <ele>186</ele>
        <time>2016-06-12T09:52:46.000Z</time>
      </trkpt>
      <trkpt lat="48.92355" lon="1.9242">
        <ele>186</ele>
        <time>2016-06-12T09:52:49.000Z</time>
      </trkpt>
      <trkpt lat="48.92355" lon="1.92422">
        <ele>186</ele>
        <time>2016-06-12T09:52:50.000Z</time>
      </trkpt>
      <trkpt lat="48.92357" lon="1.92425">
        <ele>186</ele>
        <time>2016-06-12T09:52:52.000Z</time>
      </trkpt>
      <trkpt lat="48.92358" lon="1.92428">
        <ele>186</ele>
        <time>2016-06-12T09:52:54.000Z</time>
      </trkpt>
      <trkpt lat="48.9236" lon="1.92433">
        <ele>185.80000305176</ele>
        <time>2016-06-12T09:52:57.000Z</time>
      </trkpt>
      <trkpt lat="48.92361" lon="1.92436">
        <ele>185.80000305176</ele>
        <time>2016-06-12T09:52:58.000Z</time>
      </trkpt>
      <trkpt lat="48.92362" lon="1.92439">
        <ele>185.80000305176</ele>
        <time>2016-06-12T09:53:00.000Z</time>
      </trkpt>
      <trkpt lat="48.92363" lon="1.92442">
        <ele>185.80000305176</ele>
        <time>2016-06-12T09:53:02.000Z</time>
      </trkpt>
      <trkpt lat="48.92364" lon="1.92444">
        <ele>185.80000305176</ele>
        <time>2016-06-12T09:53:03.000Z</time>
      </trkpt>
      <trkpt lat="48.92365" lon="1.92447">
        <ele>185.80000305176</ele>
        <time>2016-06-12T09:53:06.000Z</time>
      </trkpt>
      <trkpt lat="48.92372" lon="1.92445">
        <ele>185.39999389648</ele>
        <time>2016-06-12T09:53:15.000Z</time>
      </trkpt>
      <trkpt lat="48.92376" lon="1.9245">
        <ele>185.39999389648</ele>
        <time>2016-06-12T09:53:18.000Z</time>
      </trkpt>
      <trkpt lat="48.92377" lon="1.92453">
        <ele>185.19999694824</ele>
        <time>2016-06-12T09:53:19.000Z</time>
      </trkpt>
      <trkpt lat="48.92383" lon="1.9246">
        <ele>185</ele>
        <time>2016-06-12T09:53:24.000Z</time>
      </trkpt>
      <trkpt lat="48.92384" lon="1.92461">
        <ele>185</ele>
        <time>2016-06-12T09:53:25.000Z</time>
      </trkpt>
      <trkpt lat="48.92389" lon="1.92465">
        <ele>184.80000305176</ele>
        <time>2016-06-12T09:53:28.000Z</time>
      </trkpt>
      <trkpt lat="48.92397" lon="1.92471">
        <ele>184.60000610352</ele>
        <time>2016-06-12T09:53:33.000Z</time>
      </trkpt>
      <trkpt lat="48.92407" lon="1.92481">
        <ele>184.19999694824</ele>
        <time>2016-06-12T09:53:40.000Z</time>
      </trkpt>
      <trkpt lat="48.92413" lon="1.92486">
        <ele>184</ele>
        <time>2016-06-12T09:53:45.000Z</time>
      </trkpt>
      <trkpt lat="48.92414" lon="1.92486">
        <ele>184</ele>
        <time>2016-06-12T09:53:46.000Z</time>
      </trkpt>
      <trkpt lat="48.92423" lon="1.92492">
        <ele>183.60000610352</ele>
        <time>2016-06-12T09:53:52.000Z</time>
      </trkpt>
      <trkpt lat="48.92425" lon="1.92492">
        <ele>183.60000610352</ele>
        <time>2016-06-12T09:53:53.000Z</time>
      </trkpt>
      <trkpt lat="48.92431" lon="1.92494">
        <ele>183.19999694824</ele>
        <time>2016-06-12T09:53:57.000Z</time>
      </trkpt>
      <trkpt lat="48.92442" lon="1.925">
        <ele>182.60000610352</ele>
        <time>2016-06-12T09:54:04.000Z</time>
      </trkpt>
      <trkpt lat="48.9245" lon="1.92503">
        <ele>182.19999694824</ele>
        <time>2016-06-12T09:54:09.000Z</time>
      </trkpt>
      <trkpt lat="48.92463" lon="1.92507">
        <ele>181.19999694824</ele>
        <time>2016-06-12T09:54:17.000Z</time>
      </trkpt>
      <trkpt lat="48.92476" lon="1.92509">
        <ele>180.39999389648</ele>
        <time>2016-06-12T09:54:25.000Z</time>
      </trkpt>
      <trkpt lat="48.92483" lon="1.92517">
        <ele>179.80000305176</ele>
        <time>2016-06-12T09:54:31.000Z</time>
      </trkpt>
      <trkpt lat="48.92495" lon="1.92527">
        <ele>178.80000305176</ele>
        <time>2016-06-12T09:54:39.000Z</time>
      </trkpt>
      <trkpt lat="48.92507" lon="1.92535">
        <ele>178</ele>
        <time>2016-06-12T09:54:47.000Z</time>
      </trkpt>
      <trkpt lat="48.92514" lon="1.92538">
        <ele>177.39999389648</ele>
        <time>2016-06-12T09:54:51.000Z</time>
      </trkpt>
      <trkpt lat="48.92517" lon="1.9254">
        <ele>177.19999694824</ele>
        <time>2016-06-12T09:54:52.000Z</time>
      </trkpt>
      <trkpt lat="48.92524" lon="1.92545">
        <ele>176.60000610352</ele>
        <time>2016-06-12T09:54:56.000Z</time>
      </trkpt>
      <trkpt lat="48.92531" lon="1.92553">
        <ele>176.39999389648</ele>
        <time>2016-06-12T09:55:03.000Z</time>
      </trkpt>
      <trkpt lat="48.92531" lon="1.92555">
        <ele>176.39999389648</ele>
        <time>2016-06-12T09:55:04.000Z</time>
      </trkpt>
      <trkpt lat="48.92529" lon="1.92559">
        <ele>176.39999389648</ele>
        <time>2016-06-12T09:55:07.000Z</time>
      </trkpt>
      <trkpt lat="48.92529" lon="1.9256">
        <ele>176.39999389648</ele>
        <time>2016-06-12T09:55:08.000Z</time>
      </trkpt>
      <trkpt lat="48.9253" lon="1.92562">
        <ele>176.19999694824</ele>
        <time>2016-06-12T09:55:09.000Z</time>
      </trkpt>
      <trkpt lat="48.92536" lon="1.92569">
        <ele>176.19999694824</ele>
        <time>2016-06-12T09:55:15.000Z</time>
      </trkpt>
      <trkpt lat="48.92543" lon="1.92572">
        <ele>176</ele>
        <time>2016-06-12T09:55:21.000Z</time>
      </trkpt>
      <trkpt lat="48.92546" lon="1.92575">
        <ele>176</ele>
        <time>2016-06-12T09:55:23.000Z</time>
      </trkpt>
      <trkpt lat="48.92552" lon="1.9258">
        <ele>175.80000305176</ele>
        <time>2016-06-12T09:55:27.000Z</time>
      </trkpt>
      <trkpt lat="48.92558" lon="1.92589">
        <ele>175.60000610352</ele>
        <time>2016-06-12T09:55:33.000Z</time>
      </trkpt>
      <trkpt lat="48.92564" lon="1.92596">
        <ele>175.39999389648</ele>
        <time>2016-06-12T09:55:38.000Z</time>
      </trkpt>
      <trkpt lat="48.92566" lon="1.92598">
        <ele>175.39999389648</ele>
        <time>2016-06-12T09:55:40.000Z</time>
      </trkpt>
      <trkpt lat="48.92574" lon="1.92609">
        <ele>175.19999694824</ele>
        <time>2016-06-12T09:55:45.000Z</time>
      </trkpt>
      <trkpt lat="48.92576" lon="1.92611">
        <ele>175.19999694824</ele>
        <time>2016-06-12T09:55:46.000Z</time>
      </trkpt>
      <trkpt lat="48.92584" lon="1.92623">
        <ele>174.80000305176</ele>
        <time>2016-06-12T09:55:53.000Z</time>
      </trkpt>
      <trkpt lat="48.92595" lon="1.92633">
        <ele>174.60000610352</ele>
        <time>2016-06-12T09:56:01.000Z</time>
      </trkpt>
      <trkpt lat="48.92605" lon="1.92638">
        <ele>174.39999389648</ele>
        <time>2016-06-12T09:56:08.000Z</time>
      </trkpt>
      <trkpt lat="48.92611" lon="1.92638">
        <ele>174.60000610352</ele>
        <time>2016-06-12T09:56:13.000Z</time>
      </trkpt>
      <trkpt lat="48.92612" lon="1.9264">
        <ele>174.60000610352</ele>
        <time>2016-06-12T09:56:14.000Z</time>
      </trkpt>
      <trkpt lat="48.92615" lon="1.92644">
        <ele>174.60000610352</ele>
        <time>2016-06-12T09:56:17.000Z</time>
      </trkpt>
      <trkpt lat="48.92616" lon="1.92646">
        <ele>174.39999389648</ele>
        <time>2016-06-12T09:56:18.000Z</time>
      </trkpt>
      <trkpt lat="48.92616" lon="1.92649">
        <ele>174.39999389648</ele>
        <time>2016-06-12T09:56:19.000Z</time>
      </trkpt>
      <trkpt lat="48.92618" lon="1.92653">
        <ele>174.39999389648</ele>
        <time>2016-06-12T09:56:21.000Z</time>
      </trkpt>
      <trkpt lat="48.9262" lon="1.92657">
        <ele>174.39999389648</ele>
        <time>2016-06-12T09:56:23.000Z</time>
      </trkpt>
      <trkpt lat="48.92622" lon="1.92661">
        <ele>174.19999694824</ele>
        <time>2016-06-12T09:56:25.000Z</time>
      </trkpt>
      <trkpt lat="48.92623" lon="1.92663">
        <ele>174.19999694824</ele>
        <time>2016-06-12T09:56:26.000Z</time>
      </trkpt>
      <trkpt lat="48.92625" lon="1.92672">
        <ele>174</ele>
        <time>2016-06-12T09:56:30.000Z</time>
      </trkpt>
      <trkpt lat="48.92625" lon="1.92674">
        <ele>174</ele>
        <time>2016-06-12T09:56:31.000Z</time>
      </trkpt>
      <trkpt lat="48.92625" lon="1.92677">
        <ele>173.80000305176</ele>
        <time>2016-06-12T09:56:33.000Z</time>
      </trkpt>
      <trkpt lat="48.92627" lon="1.92682">
        <ele>173.60000610352</ele>
        <time>2016-06-12T09:56:36.000Z</time>
      </trkpt>
      <trkpt lat="48.92627" lon="1.92684">
        <ele>173.60000610352</ele>
        <time>2016-06-12T09:56:37.000Z</time>
      </trkpt>
      <trkpt lat="48.92629" lon="1.92697">
        <ele>173</ele>
        <time>2016-06-12T09:56:43.000Z</time>
      </trkpt>
      <trkpt lat="48.92629" lon="1.92698">
        <ele>172.80000305176</ele>
        <time>2016-06-12T09:56:44.000Z</time>
      </trkpt>
      <trkpt lat="48.92631" lon="1.92709">
        <ele>172.39999389648</ele>
        <time>2016-06-12T09:56:48.000Z</time>
      </trkpt>
      <trkpt lat="48.92632" lon="1.92715">
        <ele>172</ele>
        <time>2016-06-12T09:56:50.000Z</time>
      </trkpt>
      <trkpt lat="48.92633" lon="1.92729">
        <ele>171.19999694824</ele>
        <time>2016-06-12T09:56:55.000Z</time>
      </trkpt>
      <trkpt lat="48.92636" lon="1.92739">
        <ele>170.80000305176</ele>
        <time>2016-06-12T09:56:58.000Z</time>
      </trkpt>
      <trkpt lat="48.92638" lon="1.92744">
        <ele>170.80000305176</ele>
        <time>2016-06-12T09:57:00.000Z</time>
      </trkpt>
      <trkpt lat="48.92639" lon="1.92748">
        <ele>170.80000305176</ele>
        <time>2016-06-12T09:57:02.000Z</time>
      </trkpt>
      <trkpt lat="48.92642" lon="1.92756">
        <ele>170.60000610352</ele>
        <time>2016-06-12T09:57:06.000Z</time>
      </trkpt>
      <trkpt lat="48.92644" lon="1.9277">
        <ele>170.60000610352</ele>
        <time>2016-06-12T09:57:12.000Z</time>
      </trkpt>
      <trkpt lat="48.92651" lon="1.92782">
        <ele>170.60000610352</ele>
        <time>2016-06-12T09:57:18.000Z</time>
      </trkpt>
      <trkpt lat="48.92659" lon="1.92793">
        <ele>170.80000305176</ele>
        <time>2016-06-12T09:57:24.000Z</time>
      </trkpt>
      <trkpt lat="48.92664" lon="1.928">
        <ele>170.80000305176</ele>
        <time>2016-06-12T09:57:29.000Z</time>
      </trkpt>
      <trkpt lat="48.92672" lon="1.92809">
        <ele>171</ele>
        <time>2016-06-12T09:57:35.000Z</time>
      </trkpt>
      <trkpt lat="48.92678" lon="1.9282">
        <ele>170.60000610352</ele>
        <time>2016-06-12T09:57:41.000Z</time>
      </trkpt>
      <trkpt lat="48.92684" lon="1.9283">
        <ele>170.39999389648</ele>
        <time>2016-06-12T09:57:47.000Z</time>
      </trkpt>
      <trkpt lat="48.92686" lon="1.92834">
        <ele>170.39999389648</ele>
        <time>2016-06-12T09:57:49.000Z</time>
      </trkpt>
      <trkpt lat="48.9269" lon="1.92839">
        <ele>170.39999389648</ele>
        <time>2016-06-12T09:57:52.000Z</time>
      </trkpt>
      <trkpt lat="48.92698" lon="1.92849">
        <ele>169.80000305176</ele>
        <time>2016-06-12T09:57:58.000Z</time>
      </trkpt>
      <trkpt lat="48.92699" lon="1.9285">
        <ele>169.80000305176</ele>
        <time>2016-06-12T09:57:59.000Z</time>
      </trkpt>
      <trkpt lat="48.92703" lon="1.92855">
        <ele>169.60000610352</ele>
        <time>2016-06-12T09:58:03.000Z</time>
      </trkpt>
      <trkpt lat="48.92707" lon="1.9286">
        <ele>169.19999694824</ele>
        <time>2016-06-12T09:58:06.000Z</time>
      </trkpt>
      <trkpt lat="48.92713" lon="1.92867">
        <ele>169</ele>
        <time>2016-06-12T09:58:11.000Z</time>
      </trkpt>
      <trkpt lat="48.92717" lon="1.92872">
        <ele>168.80000305176</ele>
        <time>2016-06-12T09:58:15.000Z</time>
      </trkpt>
      <trkpt lat="48.92721" lon="1.92876">
        <ele>168.60000610352</ele>
        <time>2016-06-12T09:58:18.000Z</time>
      </trkpt>
      <trkpt lat="48.92722" lon="1.92877">
        <ele>168.60000610352</ele>
        <time>2016-06-12T09:58:19.000Z</time>
      </trkpt>
      <trkpt lat="48.92728" lon="1.92883">
        <ele>168.39999389648</ele>
        <time>2016-06-12T09:58:23.000Z</time>
      </trkpt>
      <trkpt lat="48.9273" lon="1.92885">
        <ele>168.19999694824</ele>
        <time>2016-06-12T09:58:24.000Z</time>
      </trkpt>
      <trkpt lat="48.92734" lon="1.92892">
        <ele>167.80000305176</ele>
        <time>2016-06-12T09:58:27.000Z</time>
      </trkpt>
      <trkpt lat="48.92737" lon="1.92896">
        <ele>167.60000610352</ele>
        <time>2016-06-12T09:58:29.000Z</time>
      </trkpt>
      <trkpt lat="48.92738" lon="1.92898">
        <ele>167.39999389648</ele>
        <time>2016-06-12T09:58:30.000Z</time>
      </trkpt>
      <trkpt lat="48.92739" lon="1.92902">
        <ele>167</ele>
        <time>2016-06-12T09:58:32.000Z</time>
      </trkpt>
      <trkpt lat="48.92742" lon="1.92904">
        <ele>167</ele>
        <time>2016-06-12T09:58:33.000Z</time>
      </trkpt>
      <trkpt lat="48.92745" lon="1.9291">
        <ele>166.60000610352</ele>
        <time>2016-06-12T09:58:36.000Z</time>
      </trkpt>
      <trkpt lat="48.92749" lon="1.92917">
        <ele>166.19999694824</ele>
        <time>2016-06-12T09:58:40.000Z</time>
      </trkpt>
      <trkpt lat="48.92751" lon="1.9292">
        <ele>166.19999694824</ele>
        <time>2016-06-12T09:58:42.000Z</time>
      </trkpt>
      <trkpt lat="48.92753" lon="1.92923">
        <ele>166</ele>
        <time>2016-06-12T09:58:43.000Z</time>
      </trkpt>
      <trkpt lat="48.92755" lon="1.9293">
        <ele>165.39999389648</ele>
        <time>2016-06-12T09:58:46.000Z</time>
      </trkpt>
      <trkpt lat="48.92757" lon="1.92935">
        <ele>165.19999694824</ele>
        <time>2016-06-12T09:58:48.000Z</time>
      </trkpt>
      <trkpt lat="48.9276" lon="1.92943">
        <ele>164.60000610352</ele>
        <time>2016-06-12T09:58:52.000Z</time>
      </trkpt>
      <trkpt lat="48.92762" lon="1.92951">
        <ele>164</ele>
        <time>2016-06-12T09:58:55.000Z</time>
      </trkpt>
      <trkpt lat="48.92765" lon="1.92953">
        <ele>164</ele>
        <time>2016-06-12T09:58:57.000Z</time>
      </trkpt>
      <trkpt lat="48.92763" lon="1.92959">
        <ele>163.19999694824</ele>
        <time>2016-06-12T09:58:58.000Z</time>
      </trkpt>
      <trkpt lat="48.92766" lon="1.92964">
        <ele>163</ele>
        <time>2016-06-12T09:59:01.000Z</time>
      </trkpt>
      <trkpt lat="48.92767" lon="1.92966">
        <ele>162.80000305176</ele>
        <time>2016-06-12T09:59:02.000Z</time>
      </trkpt>
      <trkpt lat="48.92769" lon="1.92972">
        <ele>162.39999389648</ele>
        <time>2016-06-12T09:59:05.000Z</time>
      </trkpt>
      <trkpt lat="48.92773" lon="1.92984">
        <ele>161.60000610352</ele>
        <time>2016-06-12T09:59:10.000Z</time>
      </trkpt>
      <trkpt lat="48.92774" lon="1.92988">
        <ele>161.19999694824</ele>
        <time>2016-06-12T09:59:12.000Z</time>
      </trkpt>
      <trkpt lat="48.92777" lon="1.93">
        <ele>160</ele>
        <time>2016-06-12T09:59:16.000Z</time>
      </trkpt>
      <trkpt lat="48.9278" lon="1.93013">
        <ele>158.80000305176</ele>
        <time>2016-06-12T09:59:21.000Z</time>
      </trkpt>
      <trkpt lat="48.92788" lon="1.9302">
        <ele>158.19999694824</ele>
        <time>2016-06-12T09:59:26.000Z</time>
      </trkpt>
      <trkpt lat="48.92789" lon="1.93021">
        <ele>158.19999694824</ele>
        <time>2016-06-12T09:59:27.000Z</time>
      </trkpt>
      <trkpt lat="48.92792" lon="1.93028">
        <ele>157.60000610352</ele>
        <time>2016-06-12T09:59:29.000Z</time>
      </trkpt>
      <trkpt lat="48.92794" lon="1.93032">
        <ele>157.19999694824</ele>
        <time>2016-06-12T09:59:31.000Z</time>
      </trkpt>
      <trkpt lat="48.92799" lon="1.93039">
        <ele>156.60000610352</ele>
        <time>2016-06-12T09:59:35.000Z</time>
      </trkpt>
      <trkpt lat="48.92804" lon="1.93043">
        <ele>156.60000610352</ele>
        <time>2016-06-12T09:59:38.000Z</time>
      </trkpt>
      <trkpt lat="48.92806" lon="1.93046">
        <ele>156.19999694824</ele>
        <time>2016-06-12T09:59:40.000Z</time>
      </trkpt>
      <trkpt lat="48.9281" lon="1.93052">
        <ele>155.80000305176</ele>
        <time>2016-06-12T09:59:43.000Z</time>
      </trkpt>
      <trkpt lat="48.92815" lon="1.93061">
        <ele>155</ele>
        <time>2016-06-12T09:59:46.000Z</time>
      </trkpt>
      <trkpt lat="48.92818" lon="1.93066">
        <ele>154.60000610352</ele>
        <time>2016-06-12T09:59:48.000Z</time>
      </trkpt>
      <trkpt lat="48.92822" lon="1.9307">
        <ele>154.39999389648</ele>
        <time>2016-06-12T09:59:51.000Z</time>
      </trkpt>
      <trkpt lat="48.92823" lon="1.93071">
        <ele>154.19999694824</ele>
        <time>2016-06-12T09:59:52.000Z</time>
      </trkpt>
      <trkpt lat="48.92826" lon="1.93076">
        <ele>154</ele>
        <time>2016-06-12T09:59:55.000Z</time>
      </trkpt>
      <trkpt lat="48.92827" lon="1.93078">
        <ele>153.80000305176</ele>
        <time>2016-06-12T09:59:56.000Z</time>
      </trkpt>
      <trkpt lat="48.92829" lon="1.93081">
        <ele>153.60000610352</ele>
        <time>2016-06-12T09:59:59.000Z</time>
      </trkpt>
      <trkpt lat="48.9283" lon="1.93081">
        <ele>153.60000610352</ele>
        <time>2016-06-12T10:00:01.000Z</time>
      </trkpt>
      <trkpt lat="48.9285" lon="1.93088">
        <ele>154.19999694824</ele>
        <time>2016-06-12T10:00:42.000Z</time>
      </trkpt>
      <trkpt lat="48.92854" lon="1.93093">
        <ele>154</ele>
        <time>2016-06-12T10:00:45.000Z</time>
      </trkpt>
      <trkpt lat="48.92864" lon="1.93104">
        <ele>153</ele>
        <time>2016-06-12T10:00:52.000Z</time>
      </trkpt>
      <trkpt lat="48.92869" lon="1.93114">
        <ele>151.80000305176</ele>
        <time>2016-06-12T10:00:57.000Z</time>
      </trkpt>
      <trkpt lat="48.92873" lon="1.93119">
        <ele>151.19999694824</ele>
        <time>2016-06-12T10:01:00.000Z</time>
      </trkpt>
      <trkpt lat="48.92875" lon="1.93123">
        <ele>150.80000305176</ele>
        <time>2016-06-12T10:01:02.000Z</time>
      </trkpt>
      <trkpt lat="48.92878" lon="1.93129">
        <ele>150.19999694824</ele>
        <time>2016-06-12T10:01:05.000Z</time>
      </trkpt>
      <trkpt lat="48.92879" lon="1.93131">
        <ele>150</ele>
        <time>2016-06-12T10:01:06.000Z</time>
      </trkpt>
      <trkpt lat="48.92882" lon="1.93137">
        <ele>149.39999389648</ele>
        <time>2016-06-12T10:01:09.000Z</time>
      </trkpt>
      <trkpt lat="48.92884" lon="1.93141">
        <ele>148.80000305176</ele>
        <time>2016-06-12T10:01:11.000Z</time>
      </trkpt>
      <trkpt lat="48.92892" lon="1.93159">
        <ele>147</ele>
        <time>2016-06-12T10:01:19.000Z</time>
      </trkpt>
      <trkpt lat="48.92902" lon="1.93173">
        <ele>145.39999389648</ele>
        <time>2016-06-12T10:01:26.000Z</time>
      </trkpt>
      <trkpt lat="48.92907" lon="1.93185">
        <ele>144.19999694824</ele>
        <time>2016-06-12T10:01:31.000Z</time>
      </trkpt>
      <trkpt lat="48.92917" lon="1.932">
        <ele>142.39999389648</ele>
        <time>2016-06-12T10:01:38.000Z</time>
      </trkpt>
      <trkpt lat="48.92922" lon="1.93211">
        <ele>141.39999389648</ele>
        <time>2016-06-12T10:01:43.000Z</time>
      </trkpt>
      <trkpt lat="48.92928" lon="1.93219">
        <ele>140.39999389648</ele>
        <time>2016-06-12T10:01:48.000Z</time>
      </trkpt>
      <trkpt lat="48.92931" lon="1.93224">
        <ele>139.80000305176</ele>
        <time>2016-06-12T10:01:51.000Z</time>
      </trkpt>
      <trkpt lat="48.92939" lon="1.93239">
        <ele>138.19999694824</ele>
        <time>2016-06-12T10:01:58.000Z</time>
      </trkpt>
      <trkpt lat="48.92941" lon="1.93241">
        <ele>138</ele>
        <time>2016-06-12T10:02:00.000Z</time>
      </trkpt>
      <trkpt lat="48.92943" lon="1.93244">
        <ele>137.80000305176</ele>
        <time>2016-06-12T10:02:03.000Z</time>
      </trkpt>
      <trkpt lat="48.92946" lon="1.93249">
        <ele>137.39999389648</ele>
        <time>2016-06-12T10:02:06.000Z</time>
      </trkpt>
      <trkpt lat="48.92948" lon="1.93249">
        <ele>137.19999694824</ele>
        <time>2016-06-12T10:02:09.000Z</time>
      </trkpt>
      <trkpt lat="48.92952" lon="1.93251">
        <ele>137</ele>
        <time>2016-06-12T10:02:13.000Z</time>
      </trkpt>
      <trkpt lat="48.92955" lon="1.93258">
        <ele>136.60000610352</ele>
        <time>2016-06-12T10:02:17.000Z</time>
      </trkpt>
      <trkpt lat="48.92956" lon="1.93261">
        <ele>136.39999389648</ele>
        <time>2016-06-12T10:02:19.000Z</time>
      </trkpt>
      <trkpt lat="48.92964" lon="1.93273">
        <ele>135.39999389648</ele>
        <time>2016-06-12T10:02:26.000Z</time>
      </trkpt>
      <trkpt lat="48.92965" lon="1.93277">
        <ele>135.19999694824</ele>
        <time>2016-06-12T10:02:28.000Z</time>
      </trkpt>
      <trkpt lat="48.92968" lon="1.93284">
        <ele>134.80000305176</ele>
        <time>2016-06-12T10:02:32.000Z</time>
      </trkpt>
      <trkpt lat="48.92975" lon="1.93295">
        <ele>134</ele>
        <time>2016-06-12T10:02:38.000Z</time>
      </trkpt>
      <trkpt lat="48.92981" lon="1.93303">
        <ele>133.39999389648</ele>
        <time>2016-06-12T10:02:43.000Z</time>
      </trkpt>
      <trkpt lat="48.92987" lon="1.9331">
        <ele>132.80000305176</ele>
        <time>2016-06-12T10:02:49.000Z</time>
      </trkpt>
      <trkpt lat="48.92987" lon="1.9331">
        <ele>132.60000610352</ele>
        <time>2016-06-12T10:02:52.000Z</time>
      </trkpt>
      <trkpt lat="48.92991" lon="1.93321">
        <ele>132</ele>
        <time>2016-06-12T10:03:18.000Z</time>
      </trkpt>
      <trkpt lat="48.92991" lon="1.93321">
        <ele>132</ele>
        <time>2016-06-12T10:03:20.000Z</time>
      </trkpt>
      <trkpt lat="48.92999" lon="1.93332">
        <ele>131.19999694824</ele>
        <time>2016-06-12T10:03:53.000Z</time>
      </trkpt>
      <trkpt lat="48.93002" lon="1.93337">
        <ele>130.80000305176</ele>
        <time>2016-06-12T10:03:56.000Z</time>
      </trkpt>
      <trkpt lat="48.93008" lon="1.9335">
        <ele>130</ele>
        <time>2016-06-12T10:04:03.000Z</time>
      </trkpt>
      <trkpt lat="48.93014" lon="1.93361">
        <ele>129.19999694824</ele>
        <time>2016-06-12T10:04:10.000Z</time>
      </trkpt>
      <trkpt lat="48.93021" lon="1.93372">
        <ele>128.39999389648</ele>
        <time>2016-06-12T10:04:17.000Z</time>
      </trkpt>
      <trkpt lat="48.93026" lon="1.93381">
        <ele>127.80000305176</ele>
        <time>2016-06-12T10:04:22.000Z</time>
      </trkpt>
      <trkpt lat="48.93028" lon="1.93384">
        <ele>127.59999847412</ele>
        <time>2016-06-12T10:04:24.000Z</time>
      </trkpt>
      <trkpt lat="48.9303" lon="1.9339">
        <ele>127.40000152588</ele>
        <time>2016-06-12T10:04:27.000Z</time>
      </trkpt>
      <trkpt lat="48.93032" lon="1.93398">
        <ele>127</ele>
        <time>2016-06-12T10:04:31.000Z</time>
      </trkpt>
      <trkpt lat="48.93038" lon="1.93411">
        <ele>126.40000152588</ele>
        <time>2016-06-12T10:04:38.000Z</time>
      </trkpt>
      <trkpt lat="48.93046" lon="1.9343">
        <ele>126</ele>
        <time>2016-06-12T10:04:48.000Z</time>
      </trkpt>
      <trkpt lat="48.93052" lon="1.93443">
        <ele>125.40000152588</ele>
        <time>2016-06-12T10:04:55.000Z</time>
      </trkpt>
      <trkpt lat="48.93061" lon="1.93457">
        <ele>125</ele>
        <time>2016-06-12T10:05:04.000Z</time>
      </trkpt>
      <trkpt lat="48.93066" lon="1.93458">
        <ele>124.80000305176</ele>
        <time>2016-06-12T10:05:08.000Z</time>
      </trkpt>
      <trkpt lat="48.9307" lon="1.93455">
        <ele>124.80000305176</ele>
        <time>2016-06-12T10:05:11.000Z</time>
      </trkpt>
      <trkpt lat="48.93072" lon="1.93454">
        <ele>124.80000305176</ele>
        <time>2016-06-12T10:05:12.000Z</time>
      </trkpt>
      <trkpt lat="48.93081" lon="1.93445">
        <ele>124.59999847412</ele>
        <time>2016-06-12T10:05:19.000Z</time>
      </trkpt>
      <trkpt lat="48.93092" lon="1.9343">
        <ele>124.19999694824</ele>
        <time>2016-06-12T10:05:28.000Z</time>
      </trkpt>
      <trkpt lat="48.93106" lon="1.93411">
        <ele>124</ele>
        <time>2016-06-12T10:05:35.000Z</time>
      </trkpt>
      <trkpt lat="48.93113" lon="1.93396">
        <ele>123.80000305176</ele>
        <time>2016-06-12T10:05:41.000Z</time>
      </trkpt>
      <trkpt lat="48.9312" lon="1.9338">
        <ele>123.80000305176</ele>
        <time>2016-06-12T10:05:49.000Z</time>
      </trkpt>
      <trkpt lat="48.93126" lon="1.93363">
        <ele>123.80000305176</ele>
        <time>2016-06-12T10:05:56.000Z</time>
      </trkpt>
      <trkpt lat="48.93129" lon="1.93353">
        <ele>123.80000305176</ele>
        <time>2016-06-12T10:06:00.000Z</time>
      </trkpt>
      <trkpt lat="48.93133" lon="1.93332">
        <ele>124</ele>
        <time>2016-06-12T10:06:08.000Z</time>
      </trkpt>
      <trkpt lat="48.93136" lon="1.93317">
        <ele>124.19999694824</ele>
        <time>2016-06-12T10:06:14.000Z</time>
      </trkpt>
      <trkpt lat="48.9314" lon="1.93303">
        <ele>124.19999694824</ele>
        <time>2016-06-12T10:06:21.000Z</time>
      </trkpt>
      <trkpt lat="48.93144" lon="1.93285">
        <ele>124.19999694824</ele>
        <time>2016-06-12T10:06:29.000Z</time>
      </trkpt>
      <trkpt lat="48.93148" lon="1.93276">
        <ele>124.19999694824</ele>
        <time>2016-06-12T10:06:34.000Z</time>
      </trkpt>
      <trkpt lat="48.93151" lon="1.93269">
        <ele>124.19999694824</ele>
        <time>2016-06-12T10:06:38.000Z</time>
      </trkpt>
      <trkpt lat="48.93152" lon="1.93264">
        <ele>124.19999694824</ele>
        <time>2016-06-12T10:06:40.000Z</time>
      </trkpt>
      <trkpt lat="48.93154" lon="1.9326">
        <ele>124.19999694824</ele>
        <time>2016-06-12T10:06:42.000Z</time>
      </trkpt>
      <trkpt lat="48.93158" lon="1.93249">
        <ele>124.19999694824</ele>
        <time>2016-06-12T10:06:48.000Z</time>
      </trkpt>
      <trkpt lat="48.9316" lon="1.93245">
        <ele>124</ele>
        <time>2016-06-12T10:06:52.000Z</time>
      </trkpt>
      <trkpt lat="48.93147" lon="1.93245">
        <ele>125</ele>
        <time>2016-06-12T10:07:10.000Z</time>
      </trkpt>
      <trkpt lat="48.93142" lon="1.93235">
        <ele>125.80000305176</ele>
        <time>2016-06-12T10:07:16.000Z</time>
      </trkpt>
      <trkpt lat="48.93136" lon="1.93215">
        <ele>127.19999694824</ele>
        <time>2016-06-12T10:07:22.000Z</time>
      </trkpt>
      <trkpt lat="48.93135" lon="1.93189">
        <ele>128.39999389648</ele>
        <time>2016-06-12T10:07:29.000Z</time>
      </trkpt>
      <trkpt lat="48.93137" lon="1.9318">
        <ele>128.80000305176</ele>
        <time>2016-06-12T10:07:33.000Z</time>
      </trkpt>
      <trkpt lat="48.93137" lon="1.93176">
        <ele>128.80000305176</ele>
        <time>2016-06-12T10:07:35.000Z</time>
      </trkpt>
      <trkpt lat="48.93138" lon="1.93155">
        <ele>129.39999389648</ele>
        <time>2016-06-12T10:07:43.000Z</time>
      </trkpt>
      <trkpt lat="48.93138" lon="1.93132">
        <ele>129.80000305176</ele>
        <time>2016-06-12T10:07:50.000Z</time>
      </trkpt>
      <trkpt lat="48.93136" lon="1.93111">
        <ele>130.19999694824</ele>
        <time>2016-06-12T10:07:57.000Z</time>
      </trkpt>
      <trkpt lat="48.93135" lon="1.93094">
        <ele>130.39999389648</ele>
        <time>2016-06-12T10:08:04.000Z</time>
      </trkpt>
      <trkpt lat="48.93133" lon="1.93081">
        <ele>130.60000610352</ele>
        <time>2016-06-12T10:08:10.000Z</time>
      </trkpt>
      <trkpt lat="48.93132" lon="1.93063">
        <ele>130.60000610352</ele>
        <time>2016-06-12T10:08:18.000Z</time>
      </trkpt>
      <trkpt lat="48.93131" lon="1.93062">
        <ele>130.80000305176</ele>
        <time>2016-06-12T10:08:19.000Z</time>
      </trkpt>
      <trkpt lat="48.93131" lon="1.93061">
        <ele>130.80000305176</ele>
        <time>2016-06-12T10:08:21.000Z</time>
      </trkpt>
      <trkpt lat="48.93081" lon="1.93038">
        <ele>137.60000610352</ele>
        <time>2016-06-12T11:55:14.000Z</time>
      </trkpt>
      <trkpt lat="48.93085" lon="1.9306">
        <ele>136.39999389648</ele>
        <time>2016-06-12T11:55:15.000Z</time>
      </trkpt>
      <trkpt lat="48.93092" lon="1.93092">
        <ele>134.19999694824</ele>
        <time>2016-06-12T11:55:20.000Z</time>
      </trkpt>
      <trkpt lat="48.93093" lon="1.93103">
        <ele>134</ele>
        <time>2016-06-12T11:55:25.000Z</time>
      </trkpt>
      <trkpt lat="48.93092" lon="1.93112">
        <ele>134</ele>
        <time>2016-06-12T11:55:29.000Z</time>
      </trkpt>
      <trkpt lat="48.93092" lon="1.93122">
        <ele>133.80000305176</ele>
        <time>2016-06-12T11:55:35.000Z</time>
      </trkpt>
      <trkpt lat="48.93096" lon="1.93134">
        <ele>133.39999389648</ele>
        <time>2016-06-12T11:55:42.000Z</time>
      </trkpt>
      <trkpt lat="48.93097" lon="1.93142">
        <ele>133.19999694824</ele>
        <time>2016-06-12T11:55:46.000Z</time>
      </trkpt>
      <trkpt lat="48.93097" lon="1.93145">
        <ele>133.19999694824</ele>
        <time>2016-06-12T11:55:48.000Z</time>
      </trkpt>
      <trkpt lat="48.93096" lon="1.93153">
        <ele>132.80000305176</ele>
        <time>2016-06-12T11:55:52.000Z</time>
      </trkpt>
      <trkpt lat="48.93095" lon="1.93159">
        <ele>132.60000610352</ele>
        <time>2016-06-12T11:55:55.000Z</time>
      </trkpt>
      <trkpt lat="48.93096" lon="1.93164">
        <ele>132.39999389648</ele>
        <time>2016-06-12T11:55:58.000Z</time>
      </trkpt>
      <trkpt lat="48.93096" lon="1.93166">
        <ele>132.19999694824</ele>
        <time>2016-06-12T11:55:59.000Z</time>
      </trkpt>
      <trkpt lat="48.93096" lon="1.93181">
        <ele>131.60000610352</ele>
        <time>2016-06-12T11:56:08.000Z</time>
      </trkpt>
      <trkpt lat="48.93093" lon="1.9319">
        <ele>131.19999694824</ele>
        <time>2016-06-12T11:56:14.000Z</time>
      </trkpt>
      <trkpt lat="48.93091" lon="1.93198">
        <ele>131</ele>
        <time>2016-06-12T11:56:19.000Z</time>
      </trkpt>
      <trkpt lat="48.93091" lon="1.93202">
        <ele>130.80000305176</ele>
        <time>2016-06-12T11:56:21.000Z</time>
      </trkpt>
      <trkpt lat="48.93093" lon="1.93213">
        <ele>130.19999694824</ele>
        <time>2016-06-12T11:56:27.000Z</time>
      </trkpt>
      <trkpt lat="48.93099" lon="1.93226">
        <ele>129.19999694824</ele>
        <time>2016-06-12T11:56:35.000Z</time>
      </trkpt>
      <trkpt lat="48.93107" lon="1.93238">
        <ele>128.19999694824</ele>
        <time>2016-06-12T11:56:44.000Z</time>
      </trkpt>
      <trkpt lat="48.93114" lon="1.93253">
        <ele>127.19999694824</ele>
        <time>2016-06-12T11:56:53.000Z</time>
      </trkpt>
      <trkpt lat="48.9312" lon="1.93266">
        <ele>126.40000152588</ele>
        <time>2016-06-12T11:57:01.000Z</time>
      </trkpt>
      <trkpt lat="48.93121" lon="1.93269">
        <ele>126.40000152588</ele>
        <time>2016-06-12T11:57:03.000Z</time>
      </trkpt>
      <trkpt lat="48.93122" lon="1.93273">
        <ele>126.19999694824</ele>
        <time>2016-06-12T11:57:05.000Z</time>
      </trkpt>
      <trkpt lat="48.93122" lon="1.93277">
        <ele>126</ele>
        <time>2016-06-12T11:57:07.000Z</time>
      </trkpt>
      <trkpt lat="48.93125" lon="1.93284">
        <ele>125.59999847412</ele>
        <time>2016-06-12T11:57:11.000Z</time>
      </trkpt>
      <trkpt lat="48.93126" lon="1.93288">
        <ele>125.59999847412</ele>
        <time>2016-06-12T11:57:14.000Z</time>
      </trkpt>
      <trkpt lat="48.93123" lon="1.93292">
        <ele>125.59999847412</ele>
        <time>2016-06-12T11:57:18.000Z</time>
      </trkpt>
      <trkpt lat="48.93123" lon="1.93293">
        <ele>125.59999847412</ele>
        <time>2016-06-12T11:57:19.000Z</time>
      </trkpt>
      <trkpt lat="48.93123" lon="1.93298">
        <ele>125.40000152588</ele>
        <time>2016-06-12T11:57:22.000Z</time>
      </trkpt>
      <trkpt lat="48.93122" lon="1.93308">
        <ele>125.40000152588</ele>
        <time>2016-06-12T11:57:28.000Z</time>
      </trkpt>
      <trkpt lat="48.9312" lon="1.93319">
        <ele>125.19999694824</ele>
        <time>2016-06-12T11:57:35.000Z</time>
      </trkpt>
      <trkpt lat="48.93117" lon="1.9333">
        <ele>125.19999694824</ele>
        <time>2016-06-12T11:57:41.000Z</time>
      </trkpt>
      <trkpt lat="48.93116" lon="1.93333">
        <ele>125.19999694824</ele>
        <time>2016-06-12T11:57:43.000Z</time>
      </trkpt>
      <trkpt lat="48.93115" lon="1.93336">
        <ele>125.19999694824</ele>
        <time>2016-06-12T11:57:45.000Z</time>
      </trkpt>
      <trkpt lat="48.93113" lon="1.93349">
        <ele>125</ele>
        <time>2016-06-12T11:57:51.000Z</time>
      </trkpt>
      <trkpt lat="48.93112" lon="1.93355">
        <ele>124.80000305176</ele>
        <time>2016-06-12T11:57:55.000Z</time>
      </trkpt>
      <trkpt lat="48.9311" lon="1.93359">
        <ele>125</ele>
        <time>2016-06-12T11:57:57.000Z</time>
      </trkpt>
      <trkpt lat="48.93106" lon="1.93367">
        <ele>125</ele>
        <time>2016-06-12T11:58:02.000Z</time>
      </trkpt>
      <trkpt lat="48.93103" lon="1.93374">
        <ele>125</ele>
        <time>2016-06-12T11:58:06.000Z</time>
      </trkpt>
      <trkpt lat="48.93103" lon="1.93376">
        <ele>125</ele>
        <time>2016-06-12T11:58:07.000Z</time>
      </trkpt>
      <trkpt lat="48.931" lon="1.93384">
        <ele>125</ele>
        <time>2016-06-12T11:58:12.000Z</time>
      </trkpt>
      <trkpt lat="48.93095" lon="1.93396">
        <ele>124.80000305176</ele>
        <time>2016-06-12T11:58:20.000Z</time>
      </trkpt>
      <trkpt lat="48.93091" lon="1.93407">
        <ele>124.59999847412</ele>
        <time>2016-06-12T11:58:27.000Z</time>
      </trkpt>
      <trkpt lat="48.93086" lon="1.93418">
        <ele>124.59999847412</ele>
        <time>2016-06-12T11:58:35.000Z</time>
      </trkpt>
      <trkpt lat="48.93078" lon="1.93432">
        <ele>124.80000305176</ele>
        <time>2016-06-12T11:58:45.000Z</time>
      </trkpt>
      <trkpt lat="48.93076" lon="1.93438">
        <ele>124.80000305176</ele>
        <time>2016-06-12T11:58:49.000Z</time>
      </trkpt>
      <trkpt lat="48.93074" lon="1.93441">
        <ele>124.80000305176</ele>
        <time>2016-06-12T11:58:51.000Z</time>
      </trkpt>
      <trkpt lat="48.93068" lon="1.93448">
        <ele>125</ele>
        <time>2016-06-12T11:58:57.000Z</time>
      </trkpt>
      <trkpt lat="48.93067" lon="1.93449">
        <ele>125</ele>
        <time>2016-06-12T11:58:58.000Z</time>
      </trkpt>
      <trkpt lat="48.93059" lon="1.93458">
        <ele>125</ele>
        <time>2016-06-12T11:59:06.000Z</time>
      </trkpt>
      <trkpt lat="48.93056" lon="1.93463">
        <ele>124.80000305176</ele>
        <time>2016-06-12T11:59:12.000Z</time>
      </trkpt>
      <trkpt lat="48.93056" lon="1.93465">
        <ele>124.80000305176</ele>
        <time>2016-06-12T11:59:14.000Z</time>
      </trkpt>
      <trkpt lat="48.93058" lon="1.93475">
        <ele>124.59999847412</ele>
        <time>2016-06-12T11:59:19.000Z</time>
      </trkpt>
      <trkpt lat="48.93059" lon="1.93477">
        <ele>124.40000152588</ele>
        <time>2016-06-12T11:59:21.000Z</time>
      </trkpt>
      <trkpt lat="48.93063" lon="1.93482">
        <ele>124.19999694824</ele>
        <time>2016-06-12T11:59:25.000Z</time>
      </trkpt>
      <trkpt lat="48.93067" lon="1.93488">
        <ele>124</ele>
        <time>2016-06-12T11:59:30.000Z</time>
      </trkpt>
      <trkpt lat="48.93069" lon="1.93491">
        <ele>124</ele>
        <time>2016-06-12T11:59:32.000Z</time>
      </trkpt>
      <trkpt lat="48.93077" lon="1.93505">
        <ele>123.40000152588</ele>
        <time>2016-06-12T11:59:42.000Z</time>
      </trkpt>
      <trkpt lat="48.9308" lon="1.9351">
        <ele>123.19999694824</ele>
        <time>2016-06-12T11:59:45.000Z</time>
      </trkpt>
      <trkpt lat="48.93082" lon="1.93513">
        <ele>123</ele>
        <time>2016-06-12T11:59:47.000Z</time>
      </trkpt>
      <trkpt lat="48.93085" lon="1.93519">
        <ele>122.80000305176</ele>
        <time>2016-06-12T11:59:51.000Z</time>
      </trkpt>
      <trkpt lat="48.93086" lon="1.93522">
        <ele>122.80000305176</ele>
        <time>2016-06-12T11:59:53.000Z</time>
      </trkpt>
      <trkpt lat="48.9309" lon="1.93528">
        <ele>122.59999847412</ele>
        <time>2016-06-12T11:59:57.000Z</time>
      </trkpt>
      <trkpt lat="48.93091" lon="1.93531">
        <ele>122.40000152588</ele>
        <time>2016-06-12T11:59:59.000Z</time>
      </trkpt>
      <trkpt lat="48.93097" lon="1.9354">
        <ele>122</ele>
        <time>2016-06-12T12:00:06.000Z</time>
      </trkpt>
      <trkpt lat="48.93103" lon="1.93552">
        <ele>121.59999847412</ele>
        <time>2016-06-12T12:00:14.000Z</time>
      </trkpt>
      <trkpt lat="48.93106" lon="1.9356">
        <ele>121.40000152588</ele>
        <time>2016-06-12T12:00:18.000Z</time>
      </trkpt>
      <trkpt lat="48.93108" lon="1.93563">
        <ele>121.19999694824</ele>
        <time>2016-06-12T12:00:20.000Z</time>
      </trkpt>
      <trkpt lat="48.93112" lon="1.9357">
        <ele>120.59999847412</ele>
        <time>2016-06-12T12:00:27.000Z</time>
      </trkpt>
      <trkpt lat="48.93112" lon="1.93571">
        <ele>120.59999847412</ele>
        <time>2016-06-12T12:00:28.000Z</time>
      </trkpt>
      <trkpt lat="48.93122" lon="1.93584">
        <ele>119.59999847412</ele>
        <time>2016-06-12T12:00:38.000Z</time>
      </trkpt>
      <trkpt lat="48.93124" lon="1.93589">
        <ele>119.40000152588</ele>
        <time>2016-06-12T12:00:41.000Z</time>
      </trkpt>
      <trkpt lat="48.93133" lon="1.93603">
        <ele>118.40000152588</ele>
        <time>2016-06-12T12:00:50.000Z</time>
      </trkpt>
      <trkpt lat="48.93138" lon="1.93614">
        <ele>117.80000305176</ele>
        <time>2016-06-12T12:00:57.000Z</time>
      </trkpt>
      <trkpt lat="48.93144" lon="1.93623">
        <ele>117</ele>
        <time>2016-06-12T12:01:04.000Z</time>
      </trkpt>
      <trkpt lat="48.93148" lon="1.93632">
        <ele>116.40000152588</ele>
        <time>2016-06-12T12:01:11.000Z</time>
      </trkpt>
      <trkpt lat="48.93151" lon="1.93637">
        <ele>116</ele>
        <time>2016-06-12T12:01:15.000Z</time>
      </trkpt>
      <trkpt lat="48.93154" lon="1.9364">
        <ele>115.80000305176</ele>
        <time>2016-06-12T12:01:18.000Z</time>
      </trkpt>
      <trkpt lat="48.93163" lon="1.93654">
        <ele>114.80000305176</ele>
        <time>2016-06-12T12:01:27.000Z</time>
      </trkpt>
      <trkpt lat="48.93172" lon="1.93671">
        <ele>113.80000305176</ele>
        <time>2016-06-12T12:01:37.000Z</time>
      </trkpt>
      <trkpt lat="48.93181" lon="1.93688">
        <ele>112.80000305176</ele>
        <time>2016-06-12T12:01:47.000Z</time>
      </trkpt>
      <trkpt lat="48.93188" lon="1.93702">
        <ele>112.19999694824</ele>
        <time>2016-06-12T12:01:55.000Z</time>
      </trkpt>
      <trkpt lat="48.93195" lon="1.93718">
        <ele>111.19999694824</ele>
        <time>2016-06-12T12:02:04.000Z</time>
      </trkpt>
      <trkpt lat="48.93199" lon="1.93724">
        <ele>110.80000305176</ele>
        <time>2016-06-12T12:02:10.000Z</time>
      </trkpt>
      <trkpt lat="48.93199" lon="1.93725">
        <ele>110.80000305176</ele>
        <time>2016-06-12T12:02:11.000Z</time>
      </trkpt>
      <trkpt lat="48.932" lon="1.93726">
        <ele>110.59999847412</ele>
        <time>2016-06-12T12:02:14.000Z</time>
      </trkpt>
      <trkpt lat="48.93212" lon="1.93744">
        <ele>109.40000152588</ele>
        <time>2016-06-12T12:03:03.000Z</time>
      </trkpt>
      <trkpt lat="48.93218" lon="1.93754">
        <ele>108.80000305176</ele>
        <time>2016-06-12T12:03:09.000Z</time>
      </trkpt>
      <trkpt lat="48.93224" lon="1.93764">
        <ele>108.19999694824</ele>
        <time>2016-06-12T12:03:15.000Z</time>
      </trkpt>
      <trkpt lat="48.93225" lon="1.93765">
        <ele>108.19999694824</ele>
        <time>2016-06-12T12:03:16.000Z</time>
      </trkpt>
      <trkpt lat="48.93231" lon="1.93775">
        <ele>107.59999847412</ele>
        <time>2016-06-12T12:03:22.000Z</time>
      </trkpt>
      <trkpt lat="48.93232" lon="1.93777">
        <ele>107.59999847412</ele>
        <time>2016-06-12T12:03:23.000Z</time>
      </trkpt>
      <trkpt lat="48.93238" lon="1.93788">
        <ele>107</ele>
        <time>2016-06-12T12:03:30.000Z</time>
      </trkpt>
      <trkpt lat="48.93248" lon="1.93804">
        <ele>106</ele>
        <time>2016-06-12T12:03:39.000Z</time>
      </trkpt>
      <trkpt lat="48.93255" lon="1.93815">
        <ele>105</ele>
        <time>2016-06-12T12:03:46.000Z</time>
      </trkpt>
      <trkpt lat="48.93262" lon="1.93827">
        <ele>104.40000152588</ele>
        <time>2016-06-12T12:03:52.000Z</time>
      </trkpt>
      <trkpt lat="48.93266" lon="1.93837">
        <ele>104</ele>
        <time>2016-06-12T12:03:58.000Z</time>
      </trkpt>
      <trkpt lat="48.93268" lon="1.93844">
        <ele>103.80000305176</ele>
        <time>2016-06-12T12:04:01.000Z</time>
      </trkpt>
      <trkpt lat="48.93271" lon="1.93849">
        <ele>103.59999847412</ele>
        <time>2016-06-12T12:04:03.000Z</time>
      </trkpt>
      <trkpt lat="48.93281" lon="1.93865">
        <ele>102.80000305176</ele>
        <time>2016-06-12T12:04:09.000Z</time>
      </trkpt>
      <trkpt lat="48.93286" lon="1.93874">
        <ele>102.59999847412</ele>
        <time>2016-06-12T12:04:14.000Z</time>
      </trkpt>
      <trkpt lat="48.9329" lon="1.9388">
        <ele>102.19999694824</ele>
        <time>2016-06-12T12:04:17.000Z</time>
      </trkpt>
      <trkpt lat="48.93293" lon="1.93883">
        <ele>102.19999694824</ele>
        <time>2016-06-12T12:04:19.000Z</time>
      </trkpt>
      <trkpt lat="48.93295" lon="1.93889">
        <ele>102</ele>
        <time>2016-06-12T12:04:21.000Z</time>
      </trkpt>
      <trkpt lat="48.933" lon="1.93896">
        <ele>101.59999847412</ele>
        <time>2016-06-12T12:04:25.000Z</time>
      </trkpt>
      <trkpt lat="48.93313" lon="1.93917">
        <ele>101</ele>
        <time>2016-06-12T12:04:37.000Z</time>
      </trkpt>
      <trkpt lat="48.93322" lon="1.93934">
        <ele>100.59999847412</ele>
        <time>2016-06-12T12:04:46.000Z</time>
      </trkpt>
      <trkpt lat="48.93333" lon="1.93952">
        <ele>100</ele>
        <time>2016-06-12T12:04:56.000Z</time>
      </trkpt>
      <trkpt lat="48.93346" lon="1.93971">
        <ele>99.599998474121</ele>
        <time>2016-06-12T12:05:07.000Z</time>
      </trkpt>
      <trkpt lat="48.93356" lon="1.93985">
        <ele>99</ele>
        <time>2016-06-12T12:05:16.000Z</time>
      </trkpt>
      <trkpt lat="48.93357" lon="1.93987">
        <ele>99</ele>
        <time>2016-06-12T12:05:17.000Z</time>
      </trkpt>
      <trkpt lat="48.93372" lon="1.94006">
        <ele>98.400001525879</ele>
        <time>2016-06-12T12:05:29.000Z</time>
      </trkpt>
      <trkpt lat="48.93385" lon="1.94022">
        <ele>98</ele>
        <time>2016-06-12T12:05:39.000Z</time>
      </trkpt>
      <trkpt lat="48.93397" lon="1.94039">
        <ele>97.400001525879</ele>
        <time>2016-06-12T12:05:49.000Z</time>
      </trkpt>
      <trkpt lat="48.93408" lon="1.94054">
        <ele>96.800003051758</ele>
        <time>2016-06-12T12:05:59.000Z</time>
      </trkpt>
      <trkpt lat="48.93422" lon="1.94077">
        <ele>96.199996948242</ele>
        <time>2016-06-12T12:06:12.000Z</time>
      </trkpt>
      <trkpt lat="48.93429" lon="1.9409">
        <ele>95.800003051758</ele>
        <time>2016-06-12T12:06:21.000Z</time>
      </trkpt>
      <trkpt lat="48.93431" lon="1.9409">
        <ele>95.800003051758</ele>
        <time>2016-06-12T12:06:26.000Z</time>
      </trkpt>
      <trkpt lat="48.93433" lon="1.94115">
        <ele>95.199996948242</ele>
        <time>2016-06-12T12:06:45.000Z</time>
      </trkpt>
      <trkpt lat="48.93427" lon="1.94127">
        <ele>94.800003051758</ele>
        <time>2016-06-12T12:06:52.000Z</time>
      </trkpt>
      <trkpt lat="48.93419" lon="1.94141">
        <ele>94.599998474121</ele>
        <time>2016-06-12T12:07:01.000Z</time>
      </trkpt>
      <trkpt lat="48.93411" lon="1.94143">
        <ele>94.800003051758</ele>
        <time>2016-06-12T12:07:07.000Z</time>
      </trkpt>
      <trkpt lat="48.9341" lon="1.94144">
        <ele>94.599998474121</ele>
        <time>2016-06-12T12:07:08.000Z</time>
      </trkpt>
      <trkpt lat="48.93407" lon="1.9415">
        <ele>94.599998474121</ele>
        <time>2016-06-12T12:07:12.000Z</time>
      </trkpt>
      <trkpt lat="48.93403" lon="1.94154">
        <ele>94.599998474121</ele>
        <time>2016-06-12T12:07:15.000Z</time>
      </trkpt>
      <trkpt lat="48.93393" lon="1.94162">
        <ele>94.599998474121</ele>
        <time>2016-06-12T12:07:22.000Z</time>
      </trkpt>
      <trkpt lat="48.93383" lon="1.94168">
        <ele>94.599998474121</ele>
        <time>2016-06-12T12:07:29.000Z</time>
      </trkpt>
      <trkpt lat="48.93367" lon="1.94178">
        <ele>94.599998474121</ele>
        <time>2016-06-12T12:07:40.000Z</time>
      </trkpt>
      <trkpt lat="48.93365" lon="1.9418">
        <ele>94.599998474121</ele>
        <time>2016-06-12T12:07:42.000Z</time>
      </trkpt>
      <trkpt lat="48.93359" lon="1.94183">
        <ele>94.599998474121</ele>
        <time>2016-06-12T12:07:46.000Z</time>
      </trkpt>
      <trkpt lat="48.93353" lon="1.94185">
        <ele>94.800003051758</ele>
        <time>2016-06-12T12:07:51.000Z</time>
      </trkpt>
      <trkpt lat="48.93351" lon="1.94187">
        <ele>94.800003051758</ele>
        <time>2016-06-12T12:07:53.000Z</time>
      </trkpt>
      <trkpt lat="48.93343" lon="1.94194">
        <ele>95</ele>
        <time>2016-06-12T12:07:58.000Z</time>
      </trkpt>
      <trkpt lat="48.93341" lon="1.94195">
        <ele>95.199996948242</ele>
        <time>2016-06-12T12:07:59.000Z</time>
      </trkpt>
      <trkpt lat="48.93324" lon="1.94204">
        <ele>95.599998474121</ele>
        <time>2016-06-12T12:08:07.000Z</time>
      </trkpt>
      <trkpt lat="48.93306" lon="1.94213">
        <ele>95.599998474121</ele>
        <time>2016-06-12T12:08:19.000Z</time>
      </trkpt>
      <trkpt lat="48.93294" lon="1.94219">
        <ele>95.599998474121</ele>
        <time>2016-06-12T12:08:27.000Z</time>
      </trkpt>
      <trkpt lat="48.93277" lon="1.94226">
        <ele>95.400001525879</ele>
        <time>2016-06-12T12:08:39.000Z</time>
      </trkpt>
      <trkpt lat="48.93261" lon="1.94232">
        <ele>95.400001525879</ele>
        <time>2016-06-12T12:08:50.000Z</time>
      </trkpt>
      <trkpt lat="48.93256" lon="1.94235">
        <ele>95.400001525879</ele>
        <time>2016-06-12T12:08:54.000Z</time>
      </trkpt>
      <trkpt lat="48.93255" lon="1.94239">
        <ele>95.199996948242</ele>
        <time>2016-06-12T12:08:56.000Z</time>
      </trkpt>
      <trkpt lat="48.93254" lon="1.94244">
        <ele>95</ele>
        <time>2016-06-12T12:08:58.000Z</time>
      </trkpt>
      <trkpt lat="48.93254" lon="1.94257">
        <ele>94.199996948242</ele>
        <time>2016-06-12T12:09:04.000Z</time>
      </trkpt>
      <trkpt lat="48.93259" lon="1.94271">
        <ele>93.400001525879</ele>
        <time>2016-06-12T12:09:11.000Z</time>
      </trkpt>
      <trkpt lat="48.93262" lon="1.94281">
        <ele>92.800003051758</ele>
        <time>2016-06-12T12:09:16.000Z</time>
      </trkpt>
      <trkpt lat="48.93261" lon="1.94282">
        <ele>92.599998474121</ele>
        <time>2016-06-12T12:09:17.000Z</time>
      </trkpt>
      <trkpt lat="48.93257" lon="1.9429">
        <ele>92.199996948242</ele>
        <time>2016-06-12T12:09:22.000Z</time>
      </trkpt>
      <trkpt lat="48.93256" lon="1.94292">
        <ele>92.199996948242</ele>
        <time>2016-06-12T12:09:23.000Z</time>
      </trkpt>
      <trkpt lat="48.93249" lon="1.94299">
        <ele>91.800003051758</ele>
        <time>2016-06-12T12:09:29.000Z</time>
      </trkpt>
      <trkpt lat="48.93243" lon="1.94305">
        <ele>91.599998474121</ele>
        <time>2016-06-12T12:09:34.000Z</time>
      </trkpt>
      <trkpt lat="48.93237" lon="1.94307">
        <ele>91.599998474121</ele>
        <time>2016-06-12T12:09:38.000Z</time>
      </trkpt>
      <trkpt lat="48.93228" lon="1.94315">
        <ele>91.599998474121</ele>
        <time>2016-06-12T12:09:43.000Z</time>
      </trkpt>
      <trkpt lat="48.93222" lon="1.94322">
        <ele>91.400001525879</ele>
        <time>2016-06-12T12:09:48.000Z</time>
      </trkpt>
      <trkpt lat="48.93214" lon="1.94334">
        <ele>91</ele>
        <time>2016-06-12T12:09:55.000Z</time>
      </trkpt>
      <trkpt lat="48.93202" lon="1.94353">
        <ele>90.800003051758</ele>
        <time>2016-06-12T12:10:06.000Z</time>
      </trkpt>
      <trkpt lat="48.93197" lon="1.94358">
        <ele>90.800003051758</ele>
        <time>2016-06-12T12:10:12.000Z</time>
      </trkpt>
      <trkpt lat="48.93192" lon="1.94369">
        <ele>90.800003051758</ele>
        <time>2016-06-12T12:10:19.000Z</time>
      </trkpt>
      <trkpt lat="48.93189" lon="1.94373">
        <ele>90.800003051758</ele>
        <time>2016-06-12T12:10:22.000Z</time>
      </trkpt>
      <trkpt lat="48.93185" lon="1.94383">
        <ele>90.599998474121</ele>
        <time>2016-06-12T12:10:27.000Z</time>
      </trkpt>
      <trkpt lat="48.93177" lon="1.94401">
        <ele>90.199996948242</ele>
        <time>2016-06-12T12:10:36.000Z</time>
      </trkpt>
      <trkpt lat="48.93173" lon="1.94414">
        <ele>89.599998474121</ele>
        <time>2016-06-12T12:10:42.000Z</time>
      </trkpt>
      <trkpt lat="48.9317" lon="1.94428">
        <ele>89</ele>
        <time>2016-06-12T12:10:48.000Z</time>
      </trkpt>
      <trkpt lat="48.93169" lon="1.94432">
        <ele>88.800003051758</ele>
        <time>2016-06-12T12:10:50.000Z</time>
      </trkpt>
      <trkpt lat="48.93168" lon="1.94436">
        <ele>88.599998474121</ele>
        <time>2016-06-12T12:10:52.000Z</time>
      </trkpt>
      <trkpt lat="48.93166" lon="1.94449">
        <ele>88</ele>
        <time>2016-06-12T12:10:59.000Z</time>
      </trkpt>
      <trkpt lat="48.93163" lon="1.94464">
        <ele>87.199996948242</ele>
        <time>2016-06-12T12:11:06.000Z</time>
      </trkpt>
      <trkpt lat="48.93159" lon="1.94485">
        <ele>86.599998474121</ele>
        <time>2016-06-12T12:11:15.000Z</time>
      </trkpt>
      <trkpt lat="48.93159" lon="1.94487">
        <ele>86.400001525879</ele>
        <time>2016-06-12T12:11:16.000Z</time>
      </trkpt>
      <trkpt lat="48.93157" lon="1.94495">
        <ele>86.400001525879</ele>
        <time>2016-06-12T12:11:19.000Z</time>
      </trkpt>
      <trkpt lat="48.93151" lon="1.94518">
        <ele>86.400001525879</ele>
        <time>2016-06-12T12:11:28.000Z</time>
      </trkpt>
      <trkpt lat="48.93147" lon="1.94535">
        <ele>86.599998474121</ele>
        <time>2016-06-12T12:11:35.000Z</time>
      </trkpt>
      <trkpt lat="48.93142" lon="1.94556">
        <ele>86.599998474121</ele>
        <time>2016-06-12T12:11:45.000Z</time>
      </trkpt>
      <trkpt lat="48.93139" lon="1.9457">
        <ele>86.599998474121</ele>
        <time>2016-06-12T12:11:51.000Z</time>
      </trkpt>
      <trkpt lat="48.93134" lon="1.94587">
        <ele>87.199996948242</ele>
        <time>2016-06-12T12:12:00.000Z</time>
      </trkpt>
      <trkpt lat="48.9313" lon="1.94605">
        <ele>88</ele>
        <time>2016-06-12T12:12:08.000Z</time>
      </trkpt>
      <trkpt lat="48.93126" lon="1.94622">
        <ele>88.800003051758</ele>
        <time>2016-06-12T12:12:16.000Z</time>
      </trkpt>
      <trkpt lat="48.93123" lon="1.94638">
        <ele>89.599998474121</ele>
        <time>2016-06-12T12:12:23.000Z</time>
      </trkpt>
      <trkpt lat="48.93118" lon="1.94654">
        <ele>90.599998474121</ele>
        <time>2016-06-12T12:12:31.000Z</time>
      </trkpt>
      <trkpt lat="48.93113" lon="1.94673">
        <ele>91.400001525879</ele>
        <time>2016-06-12T12:12:40.000Z</time>
      </trkpt>
      <trkpt lat="48.93109" lon="1.94689">
        <ele>92</ele>
        <time>2016-06-12T12:12:47.000Z</time>
      </trkpt>
      <trkpt lat="48.93102" lon="1.94709">
        <ele>93.199996948242</ele>
        <time>2016-06-12T12:12:56.000Z</time>
      </trkpt>
      <trkpt lat="48.93096" lon="1.9473">
        <ele>94.199996948242</ele>
        <time>2016-06-12T12:13:03.000Z</time>
      </trkpt>
      <trkpt lat="48.93091" lon="1.94749">
        <ele>94.800003051758</ele>
        <time>2016-06-12T12:13:09.000Z</time>
      </trkpt>
      <trkpt lat="48.93086" lon="1.94765">
        <ele>95.199996948242</ele>
        <time>2016-06-12T12:13:15.000Z</time>
      </trkpt>
      <trkpt lat="48.93082" lon="1.94785">
        <ele>95.800003051758</ele>
        <time>2016-06-12T12:13:23.000Z</time>
      </trkpt>
      <trkpt lat="48.93077" lon="1.94796">
        <ele>96</ele>
        <time>2016-06-12T12:13:29.000Z</time>
      </trkpt>
      <trkpt lat="48.93076" lon="1.94807">
        <ele>96.199996948242</ele>
        <time>2016-06-12T12:13:34.000Z</time>
      </trkpt>
      <trkpt lat="48.93072" lon="1.94827">
        <ele>96.199996948242</ele>
        <time>2016-06-12T12:13:42.000Z</time>
      </trkpt>
      <trkpt lat="48.9307" lon="1.94838">
        <ele>96.400001525879</ele>
        <time>2016-06-12T12:13:47.000Z</time>
      </trkpt>
      <trkpt lat="48.93066" lon="1.94856">
        <ele>96.400001525879</ele>
        <time>2016-06-12T12:13:55.000Z</time>
      </trkpt>
      <trkpt lat="48.93064" lon="1.94869">
        <ele>96.599998474121</ele>
        <time>2016-06-12T12:14:01.000Z</time>
      </trkpt>
      <trkpt lat="48.93062" lon="1.94885">
        <ele>97.199996948242</ele>
        <time>2016-06-12T12:14:07.000Z</time>
      </trkpt>
      <trkpt lat="48.93059" lon="1.94898">
        <ele>97.599998474121</ele>
        <time>2016-06-12T12:14:12.000Z</time>
      </trkpt>
      <trkpt lat="48.93053" lon="1.94917">
        <ele>98.199996948242</ele>
        <time>2016-06-12T12:14:20.000Z</time>
      </trkpt>
      <trkpt lat="48.93047" lon="1.94944">
        <ele>98.199996948242</ele>
        <time>2016-06-12T12:14:32.000Z</time>
      </trkpt>
      <trkpt lat="48.93046" lon="1.94948">
        <ele>98.199996948242</ele>
        <time>2016-06-12T12:14:34.000Z</time>
      </trkpt>
      <trkpt lat="48.93044" lon="1.94953">
        <ele>98.199996948242</ele>
        <time>2016-06-12T12:14:36.000Z</time>
      </trkpt>
      <trkpt lat="48.93039" lon="1.94973">
        <ele>98.199996948242</ele>
        <time>2016-06-12T12:14:45.000Z</time>
      </trkpt>
      <trkpt lat="48.93033" lon="1.95002">
        <ele>98.599998474121</ele>
        <time>2016-06-12T12:14:57.000Z</time>
      </trkpt>
      <trkpt lat="48.93027" lon="1.95028">
        <ele>98</ele>
        <time>2016-06-12T12:15:07.000Z</time>
      </trkpt>
      <trkpt lat="48.93023" lon="1.95042">
        <ele>97.800003051758</ele>
        <time>2016-06-12T12:15:13.000Z</time>
      </trkpt>
      <trkpt lat="48.93018" lon="1.95066">
        <ele>97.599998474121</ele>
        <time>2016-06-12T12:15:22.000Z</time>
      </trkpt>
      <trkpt lat="48.93017" lon="1.95069">
        <ele>97.599998474121</ele>
        <time>2016-06-12T12:15:24.000Z</time>
      </trkpt>
      <trkpt lat="48.93016" lon="1.95074">
        <ele>97.599998474121</ele>
        <time>2016-06-12T12:15:26.000Z</time>
      </trkpt>
      <trkpt lat="48.93012" lon="1.95089">
        <ele>98.199996948242</ele>
        <time>2016-06-12T12:15:32.000Z</time>
      </trkpt>
      <trkpt lat="48.93011" lon="1.95094">
        <ele>98.400001525879</ele>
        <time>2016-06-12T12:15:34.000Z</time>
      </trkpt>
      <trkpt lat="48.93005" lon="1.95115">
        <ele>99</ele>
        <time>2016-06-12T12:15:43.000Z</time>
      </trkpt>
      <trkpt lat="48.92999" lon="1.95138">
        <ele>99.800003051758</ele>
        <time>2016-06-12T12:15:53.000Z</time>
      </trkpt>
      <trkpt lat="48.92993" lon="1.95165">
        <ele>99.800003051758</ele>
        <time>2016-06-12T12:16:04.000Z</time>
      </trkpt>
      <trkpt lat="48.9299" lon="1.95182">
        <ele>100</ele>
        <time>2016-06-12T12:16:11.000Z</time>
      </trkpt>
      <trkpt lat="48.92988" lon="1.95183">
        <ele>100.19999694824</ele>
        <time>2016-06-12T12:16:12.000Z</time>
      </trkpt>
      <trkpt lat="48.92986" lon="1.95189">
        <ele>100.19999694824</ele>
        <time>2016-06-12T12:16:15.000Z</time>
      </trkpt>
      <trkpt lat="48.92984" lon="1.95203">
        <ele>100.40000152588</ele>
        <time>2016-06-12T12:16:21.000Z</time>
      </trkpt>
      <trkpt lat="48.92979" lon="1.95219">
        <ele>100.19999694824</ele>
        <time>2016-06-12T12:16:28.000Z</time>
      </trkpt>
      <trkpt lat="48.92975" lon="1.9523">
        <ele>100</ele>
        <time>2016-06-12T12:16:33.000Z</time>
      </trkpt>
      <trkpt lat="48.92971" lon="1.95243">
        <ele>99.800003051758</ele>
        <time>2016-06-12T12:16:39.000Z</time>
      </trkpt>
      <trkpt lat="48.92966" lon="1.9526">
        <ele>99.599998474121</ele>
        <time>2016-06-12T12:16:47.000Z</time>
      </trkpt>
      <trkpt lat="48.9296" lon="1.95285">
        <ele>99.199996948242</ele>
        <time>2016-06-12T12:16:58.000Z</time>
      </trkpt>
      <trkpt lat="48.92954" lon="1.95303">
        <ele>99</ele>
        <time>2016-06-12T12:17:07.000Z</time>
      </trkpt>
      <trkpt lat="48.9295" lon="1.95323">
        <ele>98.599998474121</ele>
        <time>2016-06-12T12:17:16.000Z</time>
      </trkpt>
      <trkpt lat="48.92945" lon="1.95339">
        <ele>98.199996948242</ele>
        <time>2016-06-12T12:17:23.000Z</time>
      </trkpt>
      <trkpt lat="48.9294" lon="1.95358">
        <ele>97.400001525879</ele>
        <time>2016-06-12T12:17:31.000Z</time>
      </trkpt>
      <trkpt lat="48.92935" lon="1.95381">
        <ele>96.400001525879</ele>
        <time>2016-06-12T12:17:41.000Z</time>
      </trkpt>
      <trkpt lat="48.92935" lon="1.954">
        <ele>95.599998474121</ele>
        <time>2016-06-12T12:17:48.000Z</time>
      </trkpt>
      <trkpt lat="48.92928" lon="1.95428">
        <ele>95.199996948242</ele>
        <time>2016-06-12T12:17:54.000Z</time>
      </trkpt>
      <trkpt lat="48.92921" lon="1.95456">
        <ele>94.800003051758</ele>
        <time>2016-06-12T12:18:01.000Z</time>
      </trkpt>
      <trkpt lat="48.92913" lon="1.95487">
        <ele>93.599998474121</ele>
        <time>2016-06-12T12:18:07.000Z</time>
      </trkpt>
      <trkpt lat="48.92903" lon="1.95525">
        <ele>92.199996948242</ele>
        <time>2016-06-12T12:18:15.000Z</time>
      </trkpt>
      <trkpt lat="48.92891" lon="1.95572">
        <ele>91.800003051758</ele>
        <time>2016-06-12T12:18:25.000Z</time>
      </trkpt>
      <trkpt lat="48.92885" lon="1.95596">
        <ele>91</ele>
        <time>2016-06-12T12:18:32.000Z</time>
      </trkpt>
      <trkpt lat="48.92881" lon="1.95603">
        <ele>90.800003051758</ele>
        <time>2016-06-12T12:18:37.000Z</time>
      </trkpt>
      <trkpt lat="48.92876" lon="1.9562">
        <ele>90.199996948242</ele>
        <time>2016-06-12T12:18:44.000Z</time>
      </trkpt>
      <trkpt lat="48.92871" lon="1.95643">
        <ele>89.199996948242</ele>
        <time>2016-06-12T12:18:54.000Z</time>
      </trkpt>
      <trkpt lat="48.92865" lon="1.95669">
        <ele>88.599998474121</ele>
        <time>2016-06-12T12:19:05.000Z</time>
      </trkpt>
      <trkpt lat="48.92862" lon="1.95685">
        <ele>88.199996948242</ele>
        <time>2016-06-12T12:19:12.000Z</time>
      </trkpt>
      <trkpt lat="48.92861" lon="1.95688">
        <ele>88.199996948242</ele>
        <time>2016-06-12T12:19:13.000Z</time>
      </trkpt>
      <trkpt lat="48.92859" lon="1.95703">
        <ele>87.800003051758</ele>
        <time>2016-06-12T12:19:20.000Z</time>
      </trkpt>
      <trkpt lat="48.92858" lon="1.95708">
        <ele>87.800003051758</ele>
        <time>2016-06-12T12:19:22.000Z</time>
      </trkpt>
      <trkpt lat="48.92856" lon="1.95715">
        <ele>87.599998474121</ele>
        <time>2016-06-12T12:19:25.000Z</time>
      </trkpt>
      <trkpt lat="48.92852" lon="1.95737">
        <ele>87.199996948242</ele>
        <time>2016-06-12T12:19:31.000Z</time>
      </trkpt>
      <trkpt lat="48.92847" lon="1.9577">
        <ele>87.800003051758</ele>
        <time>2016-06-12T12:19:37.000Z</time>
      </trkpt>
      <trkpt lat="48.92843" lon="1.95809">
        <ele>88.400001525879</ele>
        <time>2016-06-12T12:19:43.000Z</time>
      </trkpt>
      <trkpt lat="48.92842" lon="1.9583">
        <ele>88.400001525879</ele>
        <time>2016-06-12T12:19:46.000Z</time>
      </trkpt>
      <trkpt lat="48.92842" lon="1.95844">
        <ele>89</ele>
        <time>2016-06-12T12:19:48.000Z</time>
      </trkpt>
      <trkpt lat="48.92841" lon="1.9585">
        <ele>89.199996948242</ele>
        <time>2016-06-12T12:19:49.000Z</time>
      </trkpt>
      <trkpt lat="48.92839" lon="1.95862">
        <ele>89.599998474121</ele>
        <time>2016-06-12T12:19:52.000Z</time>
      </trkpt>
      <trkpt lat="48.92837" lon="1.95878">
        <ele>90.199996948242</ele>
        <time>2016-06-12T12:19:57.000Z</time>
      </trkpt>
      <trkpt lat="48.92837" lon="1.9588">
        <ele>90.199996948242</ele>
        <time>2016-06-12T12:19:58.000Z</time>
      </trkpt>
      <trkpt lat="48.92838" lon="1.95892">
        <ele>90.599998474121</ele>
        <time>2016-06-12T12:20:04.000Z</time>
      </trkpt>
      <trkpt lat="48.92837" lon="1.95901">
        <ele>90.599998474121</ele>
        <time>2016-06-12T12:20:08.000Z</time>
      </trkpt>
      <trkpt lat="48.92836" lon="1.95915">
        <ele>91</ele>
        <time>2016-06-12T12:20:14.000Z</time>
      </trkpt>
      <trkpt lat="48.92836" lon="1.95919">
        <ele>91</ele>
        <time>2016-06-12T12:20:16.000Z</time>
      </trkpt>
      <trkpt lat="48.92836" lon="1.95924">
        <ele>91.199996948242</ele>
        <time>2016-06-12T12:20:18.000Z</time>
      </trkpt>
      <trkpt lat="48.92836" lon="1.95931">
        <ele>91.400001525879</ele>
        <time>2016-06-12T12:20:21.000Z</time>
      </trkpt>
      <trkpt lat="48.92836" lon="1.95939">
        <ele>91.400001525879</ele>
        <time>2016-06-12T12:20:24.000Z</time>
      </trkpt>
      <trkpt lat="48.92835" lon="1.95952">
        <ele>91.800003051758</ele>
        <time>2016-06-12T12:20:29.000Z</time>
      </trkpt>
      <trkpt lat="48.92834" lon="1.95971">
        <ele>92.199996948242</ele>
        <time>2016-06-12T12:20:37.000Z</time>
      </trkpt>
      <trkpt lat="48.92831" lon="1.95993">
        <ele>93</ele>
        <time>2016-06-12T12:20:45.000Z</time>
      </trkpt>
      <trkpt lat="48.92831" lon="1.96005">
        <ele>93.599998474121</ele>
        <time>2016-06-12T12:20:50.000Z</time>
      </trkpt>
      <trkpt lat="48.9283" lon="1.96017">
        <ele>94</ele>
        <time>2016-06-12T12:20:56.000Z</time>
      </trkpt>
      <trkpt lat="48.9283" lon="1.96031">
        <ele>94.400001525879</ele>
        <time>2016-06-12T12:21:02.000Z</time>
      </trkpt>
      <trkpt lat="48.92829" lon="1.96047">
        <ele>95</ele>
        <time>2016-06-12T12:21:09.000Z</time>
      </trkpt>
      <trkpt lat="48.92827" lon="1.96061">
        <ele>96</ele>
        <time>2016-06-12T12:21:15.000Z</time>
      </trkpt>
      <trkpt lat="48.92826" lon="1.9607">
        <ele>96.400001525879</ele>
        <time>2016-06-12T12:21:19.000Z</time>
      </trkpt>
      <trkpt lat="48.92826" lon="1.96075">
        <ele>96.800003051758</ele>
        <time>2016-06-12T12:21:21.000Z</time>
      </trkpt>
      <trkpt lat="48.92826" lon="1.96084">
        <ele>97.199996948242</ele>
        <time>2016-06-12T12:21:25.000Z</time>
      </trkpt>
      <trkpt lat="48.92825" lon="1.96087">
        <ele>97.199996948242</ele>
        <time>2016-06-12T12:21:26.000Z</time>
      </trkpt>
      <trkpt lat="48.92825" lon="1.96097">
        <ele>97.599998474121</ele>
        <time>2016-06-12T12:21:31.000Z</time>
      </trkpt>
      <trkpt lat="48.92823" lon="1.96113">
        <ele>98.199996948242</ele>
        <time>2016-06-12T12:21:37.000Z</time>
      </trkpt>
      <trkpt lat="48.92823" lon="1.96122">
        <ele>98.599998474121</ele>
        <time>2016-06-12T12:21:41.000Z</time>
      </trkpt>
      <trkpt lat="48.92822" lon="1.96127">
        <ele>98.800003051758</ele>
        <time>2016-06-12T12:21:43.000Z</time>
      </trkpt>
      <trkpt lat="48.9282" lon="1.96144">
        <ele>100</ele>
        <time>2016-06-12T12:21:50.000Z</time>
      </trkpt>
      <trkpt lat="48.92821" lon="1.96161">
        <ele>100.80000305176</ele>
        <time>2016-06-12T12:21:57.000Z</time>
      </trkpt>
      <trkpt lat="48.92821" lon="1.96163">
        <ele>100.80000305176</ele>
        <time>2016-06-12T12:21:58.000Z</time>
      </trkpt>
      <trkpt lat="48.9282" lon="1.96167">
        <ele>100.80000305176</ele>
        <time>2016-06-12T12:22:01.000Z</time>
      </trkpt>
      <trkpt lat="48.9282" lon="1.96182">
        <ele>100.80000305176</ele>
        <time>2016-06-12T12:22:07.000Z</time>
      </trkpt>
      <trkpt lat="48.9282" lon="1.96198">
        <ele>100.80000305176</ele>
        <time>2016-06-12T12:22:14.000Z</time>
      </trkpt>
      <trkpt lat="48.92818" lon="1.96211">
        <ele>100.80000305176</ele>
        <time>2016-06-12T12:22:20.000Z</time>
      </trkpt>
      <trkpt lat="48.92818" lon="1.96213">
        <ele>100.80000305176</ele>
        <time>2016-06-12T12:22:21.000Z</time>
      </trkpt>
      <trkpt lat="48.92816" lon="1.96223">
        <ele>101</ele>
        <time>2016-06-12T12:22:25.000Z</time>
      </trkpt>
      <trkpt lat="48.92811" lon="1.96241">
        <ele>101.19999694824</ele>
        <time>2016-06-12T12:22:32.000Z</time>
      </trkpt>
      <trkpt lat="48.9281" lon="1.96251">
        <ele>101.19999694824</ele>
        <time>2016-06-12T12:22:36.000Z</time>
      </trkpt>
      <trkpt lat="48.9281" lon="1.96253">
        <ele>101.19999694824</ele>
        <time>2016-06-12T12:22:37.000Z</time>
      </trkpt>
      <trkpt lat="48.92805" lon="1.96274">
        <ele>101.19999694824</ele>
        <time>2016-06-12T12:22:46.000Z</time>
      </trkpt>
      <trkpt lat="48.92802" lon="1.96291">
        <ele>101</ele>
        <time>2016-06-12T12:22:53.000Z</time>
      </trkpt>
      <trkpt lat="48.92802" lon="1.96306">
        <ele>100.80000305176</ele>
        <time>2016-06-12T12:22:59.000Z</time>
      </trkpt>
      <trkpt lat="48.92797" lon="1.96328">
        <ele>100.80000305176</ele>
        <time>2016-06-12T12:23:04.000Z</time>
      </trkpt>
      <trkpt lat="48.92797" lon="1.96332">
        <ele>100.59999847412</ele>
        <time>2016-06-12T12:23:06.000Z</time>
      </trkpt>
      <trkpt lat="48.92798" lon="1.96332">
        <ele>100.59999847412</ele>
        <time>2016-06-12T12:23:08.000Z</time>
      </trkpt>
      <trkpt lat="48.92808" lon="1.96335">
        <ele>100</ele>
        <time>2016-06-12T12:23:16.000Z</time>
      </trkpt>
      <trkpt lat="48.92811" lon="1.96337">
        <ele>100</ele>
        <time>2016-06-12T12:23:18.000Z</time>
      </trkpt>
      <trkpt lat="48.92812" lon="1.96339">
        <ele>99.800003051758</ele>
        <time>2016-06-12T12:23:19.000Z</time>
      </trkpt>
      <trkpt lat="48.92816" lon="1.96344">
        <ele>99.400001525879</ele>
        <time>2016-06-12T12:23:23.000Z</time>
      </trkpt>
      <trkpt lat="48.92823" lon="1.96345">
        <ele>99.199996948242</ele>
        <time>2016-06-12T12:23:27.000Z</time>
      </trkpt>
      <trkpt lat="48.92828" lon="1.96347">
        <ele>98.800003051758</ele>
        <time>2016-06-12T12:23:30.000Z</time>
      </trkpt>
      <trkpt lat="48.92838" lon="1.9635">
        <ele>98.400001525879</ele>
        <time>2016-06-12T12:23:36.000Z</time>
      </trkpt>
      <trkpt lat="48.9285" lon="1.96354">
        <ele>97.599998474121</ele>
        <time>2016-06-12T12:23:44.000Z</time>
      </trkpt>
      <trkpt lat="48.92865" lon="1.96359">
        <ele>96.800003051758</ele>
        <time>2016-06-12T12:23:53.000Z</time>
      </trkpt>
      <trkpt lat="48.9287" lon="1.96359">
        <ele>96.599998474121</ele>
        <time>2016-06-12T12:23:56.000Z</time>
      </trkpt>
      <trkpt lat="48.92871" lon="1.9636">
        <ele>96.400001525879</ele>
        <time>2016-06-12T12:23:57.000Z</time>
      </trkpt>
      <trkpt lat="48.92877" lon="1.96361">
        <ele>96.199996948242</ele>
        <time>2016-06-12T12:24:01.000Z</time>
      </trkpt>
      <trkpt lat="48.92879" lon="1.96362">
        <ele>96</ele>
        <time>2016-06-12T12:24:02.000Z</time>
      </trkpt>
      <trkpt lat="48.92885" lon="1.96361">
        <ele>95.800003051758</ele>
        <time>2016-06-12T12:24:06.000Z</time>
      </trkpt>
      <trkpt lat="48.92886" lon="1.9636">
        <ele>95.800003051758</ele>
        <time>2016-06-12T12:24:07.000Z</time>
      </trkpt>
      <trkpt lat="48.92892" lon="1.9636">
        <ele>95.400001525879</ele>
        <time>2016-06-12T12:24:11.000Z</time>
      </trkpt>
      <trkpt lat="48.92896" lon="1.96361">
        <ele>95.199996948242</ele>
        <time>2016-06-12T12:24:13.000Z</time>
      </trkpt>
      <trkpt lat="48.92911" lon="1.96365">
        <ele>94.199996948242</ele>
        <time>2016-06-12T12:24:22.000Z</time>
      </trkpt>
      <trkpt lat="48.92925" lon="1.96368">
        <ele>93.400001525879</ele>
        <time>2016-06-12T12:24:30.000Z</time>
      </trkpt>
      <trkpt lat="48.92934" lon="1.96369">
        <ele>92.800003051758</ele>
        <time>2016-06-12T12:24:36.000Z</time>
      </trkpt>
      <trkpt lat="48.92948" lon="1.96369">
        <ele>92</ele>
        <time>2016-06-12T12:24:44.000Z</time>
      </trkpt>
      <trkpt lat="48.92964" lon="1.96367">
        <ele>91.400001525879</ele>
        <time>2016-06-12T12:24:53.000Z</time>
      </trkpt>
      <trkpt lat="48.92977" lon="1.96363">
        <ele>90.800003051758</ele>
        <time>2016-06-12T12:25:01.000Z</time>
      </trkpt>
      <trkpt lat="48.92987" lon="1.96362">
        <ele>90.400001525879</ele>
        <time>2016-06-12T12:25:07.000Z</time>
      </trkpt>
      <trkpt lat="48.92988" lon="1.96359">
        <ele>90.400001525879</ele>
        <time>2016-06-12T12:25:08.000Z</time>
      </trkpt>
      <trkpt lat="48.92993" lon="1.96359">
        <ele>90</ele>
        <time>2016-06-12T12:25:11.000Z</time>
      </trkpt>
      <trkpt lat="48.93008" lon="1.96356">
        <ele>89.400001525879</ele>
        <time>2016-06-12T12:25:20.000Z</time>
      </trkpt>
      <trkpt lat="48.93027" lon="1.96351">
        <ele>88.599998474121</ele>
        <time>2016-06-12T12:25:31.000Z</time>
      </trkpt>
      <trkpt lat="48.93043" lon="1.96346">
        <ele>87.800003051758</ele>
        <time>2016-06-12T12:25:41.000Z</time>
      </trkpt>
      <trkpt lat="48.93062" lon="1.9634">
        <ele>86.400001525879</ele>
        <time>2016-06-12T12:25:52.000Z</time>
      </trkpt>
      <trkpt lat="48.93076" lon="1.96335">
        <ele>85.400001525879</ele>
        <time>2016-06-12T12:26:00.000Z</time>
      </trkpt>
      <trkpt lat="48.93094" lon="1.9633">
        <ele>84</ele>
        <time>2016-06-12T12:26:10.000Z</time>
      </trkpt>
      <trkpt lat="48.93113" lon="1.96326">
        <ele>82.800003051758</ele>
        <time>2016-06-12T12:26:21.000Z</time>
      </trkpt>
      <trkpt lat="48.93131" lon="1.96325">
        <ele>82.400001525879</ele>
        <time>2016-06-12T12:26:31.000Z</time>
      </trkpt>
      <trkpt lat="48.93142" lon="1.96324">
        <ele>82.199996948242</ele>
        <time>2016-06-12T12:26:37.000Z</time>
      </trkpt>
      <trkpt lat="48.93149" lon="1.96325">
        <ele>82</ele>
        <time>2016-06-12T12:26:41.000Z</time>
      </trkpt>
      <trkpt lat="48.93154" lon="1.96327">
        <ele>81.800003051758</ele>
        <time>2016-06-12T12:26:44.000Z</time>
      </trkpt>
      <trkpt lat="48.93155" lon="1.96327">
        <ele>81.800003051758</ele>
        <time>2016-06-12T12:26:45.000Z</time>
      </trkpt>
      <trkpt lat="48.93165" lon="1.96327">
        <ele>81.599998474121</ele>
        <time>2016-06-12T12:26:51.000Z</time>
      </trkpt>
      <trkpt lat="48.93178" lon="1.96325">
        <ele>81.400001525879</ele>
        <time>2016-06-12T12:26:58.000Z</time>
      </trkpt>
      <trkpt lat="48.9319" lon="1.96326">
        <ele>81</ele>
        <time>2016-06-12T12:27:05.000Z</time>
      </trkpt>
      <trkpt lat="48.93198" lon="1.96324">
        <ele>81</ele>
        <time>2016-06-12T12:27:10.000Z</time>
      </trkpt>
      <trkpt lat="48.932" lon="1.96324">
        <ele>80.800003051758</ele>
        <time>2016-06-12T12:27:11.000Z</time>
      </trkpt>
      <trkpt lat="48.93212" lon="1.96324">
        <ele>80.800003051758</ele>
        <time>2016-06-12T12:27:18.000Z</time>
      </trkpt>
      <trkpt lat="48.93218" lon="1.96322">
        <ele>80.599998474121</ele>
        <time>2016-06-12T12:27:22.000Z</time>
      </trkpt>
      <trkpt lat="48.93223" lon="1.9632">
        <ele>80.599998474121</ele>
        <time>2016-06-12T12:27:25.000Z</time>
      </trkpt>
      <trkpt lat="48.93229" lon="1.96319">
        <ele>80.400001525879</ele>
        <time>2016-06-12T12:27:29.000Z</time>
      </trkpt>
      <trkpt lat="48.93232" lon="1.9632">
        <ele>80.400001525879</ele>
        <time>2016-06-12T12:27:31.000Z</time>
      </trkpt>
      <trkpt lat="48.93242" lon="1.96319">
        <ele>80.400001525879</ele>
        <time>2016-06-12T12:27:37.000Z</time>
      </trkpt>
      <trkpt lat="48.93253" lon="1.96321">
        <ele>80.199996948242</ele>
        <time>2016-06-12T12:27:44.000Z</time>
      </trkpt>
      <trkpt lat="48.93261" lon="1.9632">
        <ele>80.199996948242</ele>
        <time>2016-06-12T12:27:49.000Z</time>
      </trkpt>
      <trkpt lat="48.93263" lon="1.96321">
        <ele>80</ele>
        <time>2016-06-12T12:27:50.000Z</time>
      </trkpt>
      <trkpt lat="48.93265" lon="1.9632">
        <ele>80</ele>
        <time>2016-06-12T12:27:52.000Z</time>
      </trkpt>
      <trkpt lat="48.93269" lon="1.96317">
        <ele>80</ele>
        <time>2016-06-12T12:27:55.000Z</time>
      </trkpt>
      <trkpt lat="48.93272" lon="1.96315">
        <ele>79.800003051758</ele>
        <time>2016-06-12T12:27:57.000Z</time>
      </trkpt>
      <trkpt lat="48.93277" lon="1.96314">
        <ele>79.800003051758</ele>
        <time>2016-06-12T12:28:00.000Z</time>
      </trkpt>
      <trkpt lat="48.93286" lon="1.96314">
        <ele>80.400001525879</ele>
        <time>2016-06-12T12:28:07.000Z</time>
      </trkpt>
      <trkpt lat="48.93297" lon="1.96313">
        <ele>80.800003051758</ele>
        <time>2016-06-12T12:28:14.000Z</time>
      </trkpt>
      <trkpt lat="48.93303" lon="1.96311">
        <ele>81</ele>
        <time>2016-06-12T12:28:17.000Z</time>
      </trkpt>
      <trkpt lat="48.93312" lon="1.96308">
        <ele>81.400001525879</ele>
        <time>2016-06-12T12:28:22.000Z</time>
      </trkpt>
      <trkpt lat="48.93314" lon="1.96309">
        <ele>81.599998474121</ele>
        <time>2016-06-12T12:28:23.000Z</time>
      </trkpt>
      <trkpt lat="48.93318" lon="1.96309">
        <ele>81.800003051758</ele>
        <time>2016-06-12T12:28:26.000Z</time>
      </trkpt>
      <trkpt lat="48.93319" lon="1.96309">
        <ele>81.800003051758</ele>
        <time>2016-06-12T12:28:27.000Z</time>
      </trkpt>
      <trkpt lat="48.93319" lon="1.96309">
        <ele>81.800003051758</ele>
        <time>2016-06-12T12:28:28.000Z</time>
      </trkpt>
      <trkpt lat="48.93318" lon="1.96309">
        <ele>81.800003051758</ele>
        <time>2016-06-12T12:28:29.000Z</time>
      </trkpt>
      <trkpt lat="48.9333" lon="1.96309">
        <ele>82.400001525879</ele>
        <time>2016-06-12T12:30:54.000Z</time>
      </trkpt>
      <trkpt lat="48.93331" lon="1.96308">
        <ele>82.400001525879</ele>
        <time>2016-06-12T12:30:55.000Z</time>
      </trkpt>
      <trkpt lat="48.93343" lon="1.96304">
        <ele>82.800003051758</ele>
        <time>2016-06-12T12:31:03.000Z</time>
      </trkpt>
      <trkpt lat="48.93353" lon="1.96296">
        <ele>83.199996948242</ele>
        <time>2016-06-12T12:31:11.000Z</time>
      </trkpt>
      <trkpt lat="48.93362" lon="1.96292">
        <ele>83.599998474121</ele>
        <time>2016-06-12T12:31:18.000Z</time>
      </trkpt>
      <trkpt lat="48.9337" lon="1.96283">
        <ele>84.199996948242</ele>
        <time>2016-06-12T12:31:25.000Z</time>
      </trkpt>
      <trkpt lat="48.9338" lon="1.96275">
        <ele>85</ele>
        <time>2016-06-12T12:31:33.000Z</time>
      </trkpt>
      <trkpt lat="48.93396" lon="1.96265">
        <ele>86.199996948242</ele>
        <time>2016-06-12T12:31:45.000Z</time>
      </trkpt>
      <trkpt lat="48.93401" lon="1.96265">
        <ele>86.599998474121</ele>
        <time>2016-06-12T12:31:49.000Z</time>
      </trkpt>
      <trkpt lat="48.93403" lon="1.96266">
        <ele>86.800003051758</ele>
        <time>2016-06-12T12:31:52.000Z</time>
      </trkpt>
      <trkpt lat="48.93411" lon="1.96269">
        <ele>87.400001525879</ele>
        <time>2016-06-12T12:32:04.000Z</time>
      </trkpt>
      <trkpt lat="48.93414" lon="1.96268">
        <ele>87.599998474121</ele>
        <time>2016-06-12T12:32:06.000Z</time>
      </trkpt>
      <trkpt lat="48.93419" lon="1.96268">
        <ele>88.199996948242</ele>
        <time>2016-06-12T12:32:10.000Z</time>
      </trkpt>
      <trkpt lat="48.93425" lon="1.96269">
        <ele>88.599998474121</ele>
        <time>2016-06-12T12:32:14.000Z</time>
      </trkpt>
      <trkpt lat="48.93436" lon="1.96274">
        <ele>89.800003051758</ele>
        <time>2016-06-12T12:32:22.000Z</time>
      </trkpt>
      <trkpt lat="48.93441" lon="1.96275">
        <ele>90.199996948242</ele>
        <time>2016-06-12T12:32:25.000Z</time>
      </trkpt>
      <trkpt lat="48.93445" lon="1.96276">
        <ele>90.599998474121</ele>
        <time>2016-06-12T12:32:28.000Z</time>
      </trkpt>
      <trkpt lat="48.9346" lon="1.96277">
        <ele>92.199996948242</ele>
        <time>2016-06-12T12:32:37.000Z</time>
      </trkpt>
      <trkpt lat="48.9347" lon="1.96278">
        <ele>93.199996948242</ele>
        <time>2016-06-12T12:32:43.000Z</time>
      </trkpt>
      <trkpt lat="48.93478" lon="1.96279">
        <ele>94</ele>
        <time>2016-06-12T12:32:48.000Z</time>
      </trkpt>
      <trkpt lat="48.93483" lon="1.9628">
        <ele>94.400001525879</ele>
        <time>2016-06-12T12:32:51.000Z</time>
      </trkpt>
      <trkpt lat="48.93494" lon="1.96282">
        <ele>95.199996948242</ele>
        <time>2016-06-12T12:32:58.000Z</time>
      </trkpt>
      <trkpt lat="48.93505" lon="1.96283">
        <ele>96.199996948242</ele>
        <time>2016-06-12T12:33:05.000Z</time>
      </trkpt>
      <trkpt lat="48.93523" lon="1.96285">
        <ele>97.599998474121</ele>
        <time>2016-06-12T12:33:16.000Z</time>
      </trkpt>
      <trkpt lat="48.93539" lon="1.96286">
        <ele>98.199996948242</ele>
        <time>2016-06-12T12:33:26.000Z</time>
      </trkpt>
      <trkpt lat="48.93547" lon="1.96284">
        <ele>98.400001525879</ele>
        <time>2016-06-12T12:33:31.000Z</time>
      </trkpt>
      <trkpt lat="48.93549" lon="1.96285">
        <ele>98.599998474121</ele>
        <time>2016-06-12T12:33:32.000Z</time>
      </trkpt>
      <trkpt lat="48.93562" lon="1.96286">
        <ele>99</ele>
        <time>2016-06-12T12:33:40.000Z</time>
      </trkpt>
      <trkpt lat="48.93605" lon="1.96293">
        <ele>101.80000305176</ele>
        <time>2016-06-12T12:34:01.000Z</time>
      </trkpt>
      <trkpt lat="48.9361" lon="1.96292">
        <ele>102</ele>
        <time>2016-06-12T12:34:07.000Z</time>
      </trkpt>
      <trkpt lat="48.93613" lon="1.96293">
        <ele>102.19999694824</ele>
        <time>2016-06-12T12:34:09.000Z</time>
      </trkpt>
      <trkpt lat="48.93623" lon="1.96295">
        <ele>103</ele>
        <time>2016-06-12T12:34:15.000Z</time>
      </trkpt>
      <trkpt lat="48.93639" lon="1.96296">
        <ele>104.19999694824</ele>
        <time>2016-06-12T12:34:21.000Z</time>
      </trkpt>
      <trkpt lat="48.9365" lon="1.96297">
        <ele>105</ele>
        <time>2016-06-12T12:34:27.000Z</time>
      </trkpt>
      <trkpt lat="48.93663" lon="1.96298">
        <ele>106</ele>
        <time>2016-06-12T12:34:35.000Z</time>
      </trkpt>
      <trkpt lat="48.9367" lon="1.96298">
        <ele>106.80000305176</ele>
        <time>2016-06-12T12:34:40.000Z</time>
      </trkpt>
      <trkpt lat="48.93678" lon="1.963">
        <ele>107.40000152588</ele>
        <time>2016-06-12T12:34:45.000Z</time>
      </trkpt>
      <trkpt lat="48.93686" lon="1.96302">
        <ele>108.19999694824</ele>
        <time>2016-06-12T12:34:49.000Z</time>
      </trkpt>
      <trkpt lat="48.93687" lon="1.96302">
        <ele>108.40000152588</ele>
        <time>2016-06-12T12:34:50.000Z</time>
      </trkpt>
      <trkpt lat="48.93699" lon="1.96308">
        <ele>109.40000152588</ele>
        <time>2016-06-12T12:34:58.000Z</time>
      </trkpt>
      <trkpt lat="48.9371" lon="1.96311">
        <ele>110.40000152588</ele>
        <time>2016-06-12T12:35:05.000Z</time>
      </trkpt>
      <trkpt lat="48.93722" lon="1.96316">
        <ele>111.59999847412</ele>
        <time>2016-06-12T12:35:13.000Z</time>
      </trkpt>
      <trkpt lat="48.93725" lon="1.96317">
        <ele>111.80000305176</ele>
        <time>2016-06-12T12:35:15.000Z</time>
      </trkpt>
      <trkpt lat="48.93729" lon="1.96318">
        <ele>112.19999694824</ele>
        <time>2016-06-12T12:35:17.000Z</time>
      </trkpt>
      <trkpt lat="48.93742" lon="1.96325">
        <ele>113.40000152588</ele>
        <time>2016-06-12T12:35:24.000Z</time>
      </trkpt>
      <trkpt lat="48.93754" lon="1.9633">
        <ele>114.59999847412</ele>
        <time>2016-06-12T12:35:30.000Z</time>
      </trkpt>
      <trkpt lat="48.93767" lon="1.96336">
        <ele>116</ele>
        <time>2016-06-12T12:35:38.000Z</time>
      </trkpt>
      <trkpt lat="48.93779" lon="1.96343">
        <ele>117</ele>
        <time>2016-06-12T12:35:46.000Z</time>
      </trkpt>
      <trkpt lat="48.93787" lon="1.96348">
        <ele>117.19999694824</ele>
        <time>2016-06-12T12:35:52.000Z</time>
      </trkpt>
      <trkpt lat="48.93798" lon="1.96355">
        <ele>117.80000305176</ele>
        <time>2016-06-12T12:36:00.000Z</time>
      </trkpt>
      <trkpt lat="48.9381" lon="1.96363">
        <ele>118.19999694824</ele>
        <time>2016-06-12T12:36:09.000Z</time>
      </trkpt>
      <trkpt lat="48.93819" lon="1.9637">
        <ele>118.80000305176</ele>
        <time>2016-06-12T12:36:16.000Z</time>
      </trkpt>
      <trkpt lat="48.93827" lon="1.96372">
        <ele>119.40000152588</ele>
        <time>2016-06-12T12:36:21.000Z</time>
      </trkpt>
      <trkpt lat="48.93835" lon="1.96377">
        <ele>119.80000305176</ele>
        <time>2016-06-12T12:36:27.000Z</time>
      </trkpt>
      <trkpt lat="48.93843" lon="1.9638">
        <ele>120.40000152588</ele>
        <time>2016-06-12T12:36:33.000Z</time>
      </trkpt>
      <trkpt lat="48.9385" lon="1.96372">
        <ele>121.19999694824</ele>
        <time>2016-06-12T12:36:38.000Z</time>
      </trkpt>
      <trkpt lat="48.93857" lon="1.96355">
        <ele>122.19999694824</ele>
        <time>2016-06-12T12:36:44.000Z</time>
      </trkpt>
      <trkpt lat="48.93864" lon="1.96339">
        <ele>123.19999694824</ele>
        <time>2016-06-12T12:36:50.000Z</time>
      </trkpt>
      <trkpt lat="48.93869" lon="1.96324">
        <ele>124.19999694824</ele>
        <time>2016-06-12T12:36:56.000Z</time>
      </trkpt>
      <trkpt lat="48.93874" lon="1.9631">
        <ele>124.80000305176</ele>
        <time>2016-06-12T12:37:03.000Z</time>
      </trkpt>
      <trkpt lat="48.93879" lon="1.963">
        <ele>125.40000152588</ele>
        <time>2016-06-12T12:37:09.000Z</time>
      </trkpt>
      <trkpt lat="48.93883" lon="1.96291">
        <ele>125.80000305176</ele>
        <time>2016-06-12T12:37:14.000Z</time>
      </trkpt>
      <trkpt lat="48.93885" lon="1.96285">
        <ele>126</ele>
        <time>2016-06-12T12:37:18.000Z</time>
      </trkpt>
      <trkpt lat="48.93889" lon="1.96279">
        <ele>126.59999847412</ele>
        <time>2016-06-12T12:37:23.000Z</time>
      </trkpt>
      <trkpt lat="48.93895" lon="1.96276">
        <ele>127</ele>
        <time>2016-06-12T12:37:28.000Z</time>
      </trkpt>
      <trkpt lat="48.93902" lon="1.9627">
        <ele>127.19999694824</ele>
        <time>2016-06-12T12:37:32.000Z</time>
      </trkpt>
      <trkpt lat="48.93904" lon="1.96268">
        <ele>127.19999694824</ele>
        <time>2016-06-12T12:37:33.000Z</time>
      </trkpt>
      <trkpt lat="48.93906" lon="1.96263">
        <ele>127.19999694824</ele>
        <time>2016-06-12T12:37:35.000Z</time>
      </trkpt>
      <trkpt lat="48.93909" lon="1.9626">
        <ele>127.19999694824</ele>
        <time>2016-06-12T12:37:37.000Z</time>
      </trkpt>
      <trkpt lat="48.93912" lon="1.96258">
        <ele>127.19999694824</ele>
        <time>2016-06-12T12:37:38.000Z</time>
      </trkpt>
      <trkpt lat="48.93923" lon="1.96258">
        <ele>127.80000305176</ele>
        <time>2016-06-12T12:37:45.000Z</time>
      </trkpt>
      <trkpt lat="48.93937" lon="1.96265">
        <ele>128.80000305176</ele>
        <time>2016-06-12T12:37:55.000Z</time>
      </trkpt>
      <trkpt lat="48.93949" lon="1.9627">
        <ele>129.19999694824</ele>
        <time>2016-06-12T12:38:03.000Z</time>
      </trkpt>
      <trkpt lat="48.93959" lon="1.96274">
        <ele>129.60000610352</ele>
        <time>2016-06-12T12:38:10.000Z</time>
      </trkpt>
      <trkpt lat="48.93977" lon="1.96282">
        <ele>130.39999389648</ele>
        <time>2016-06-12T12:38:22.000Z</time>
      </trkpt>
      <trkpt lat="48.93982" lon="1.96284">
        <ele>130.60000610352</ele>
        <time>2016-06-12T12:38:26.000Z</time>
      </trkpt>
      <trkpt lat="48.93985" lon="1.96285">
        <ele>130.60000610352</ele>
        <time>2016-06-12T12:38:28.000Z</time>
      </trkpt>
      <trkpt lat="48.93988" lon="1.96286">
        <ele>130.80000305176</ele>
        <time>2016-06-12T12:38:30.000Z</time>
      </trkpt>
      <trkpt lat="48.93995" lon="1.96289">
        <ele>131</ele>
        <time>2016-06-12T12:38:35.000Z</time>
      </trkpt>
      <trkpt lat="48.94005" lon="1.96294">
        <ele>131.60000610352</ele>
        <time>2016-06-12T12:38:41.000Z</time>
      </trkpt>
      <trkpt lat="48.94012" lon="1.96297">
        <ele>132</ele>
        <time>2016-06-12T12:38:45.000Z</time>
      </trkpt>
      <trkpt lat="48.94019" lon="1.96299">
        <ele>132.19999694824</ele>
        <time>2016-06-12T12:38:51.000Z</time>
      </trkpt>
      <trkpt lat="48.94029" lon="1.96302">
        <ele>132.39999389648</ele>
        <time>2016-06-12T12:38:59.000Z</time>
      </trkpt>
      <trkpt lat="48.9404" lon="1.96303">
        <ele>132.39999389648</ele>
        <time>2016-06-12T12:39:06.000Z</time>
      </trkpt>
      <trkpt lat="48.94053" lon="1.96302">
        <ele>132.39999389648</ele>
        <time>2016-06-12T12:39:15.000Z</time>
      </trkpt>
      <trkpt lat="48.94054" lon="1.96302">
        <ele>132.39999389648</ele>
        <time>2016-06-12T12:39:16.000Z</time>
      </trkpt>
      <trkpt lat="48.94067" lon="1.96301">
        <ele>132.39999389648</ele>
        <time>2016-06-12T12:39:24.000Z</time>
      </trkpt>
      <trkpt lat="48.9408" lon="1.96303">
        <ele>132.39999389648</ele>
        <time>2016-06-12T12:39:32.000Z</time>
      </trkpt>
      <trkpt lat="48.94089" lon="1.96308">
        <ele>132.60000610352</ele>
        <time>2016-06-12T12:39:39.000Z</time>
      </trkpt>
      <trkpt lat="48.94097" lon="1.96309">
        <ele>132.60000610352</ele>
        <time>2016-06-12T12:39:44.000Z</time>
      </trkpt>
      <trkpt lat="48.94098" lon="1.96309">
        <ele>132.60000610352</ele>
        <time>2016-06-12T12:39:45.000Z</time>
      </trkpt>
      <trkpt lat="48.94105" lon="1.96309">
        <ele>132.60000610352</ele>
        <time>2016-06-12T12:39:49.000Z</time>
      </trkpt>
      <trkpt lat="48.94107" lon="1.96309">
        <ele>132.60000610352</ele>
        <time>2016-06-12T12:39:50.000Z</time>
      </trkpt>
      <trkpt lat="48.94114" lon="1.96309">
        <ele>132.19999694824</ele>
        <time>2016-06-12T12:39:54.000Z</time>
      </trkpt>
      <trkpt lat="48.94123" lon="1.9631">
        <ele>131.39999389648</ele>
        <time>2016-06-12T12:40:01.000Z</time>
      </trkpt>
      <trkpt lat="48.94137" lon="1.96311">
        <ele>130.60000610352</ele>
        <time>2016-06-12T12:40:10.000Z</time>
      </trkpt>
      <trkpt lat="48.94144" lon="1.96322">
        <ele>130.39999389648</ele>
        <time>2016-06-12T12:40:16.000Z</time>
      </trkpt>
      <trkpt lat="48.94145" lon="1.9633">
        <ele>130.60000610352</ele>
        <time>2016-06-12T12:40:19.000Z</time>
      </trkpt>
      <trkpt lat="48.94146" lon="1.96335">
        <ele>130.80000305176</ele>
        <time>2016-06-12T12:40:21.000Z</time>
      </trkpt>
      <trkpt lat="48.94148" lon="1.96339">
        <ele>130.80000305176</ele>
        <time>2016-06-12T12:40:23.000Z</time>
      </trkpt>
      <trkpt lat="48.94151" lon="1.9635">
        <ele>131</ele>
        <time>2016-06-12T12:40:28.000Z</time>
      </trkpt>
      <trkpt lat="48.94155" lon="1.96367">
        <ele>131.60000610352</ele>
        <time>2016-06-12T12:40:35.000Z</time>
      </trkpt>
      <trkpt lat="48.94153" lon="1.96384">
        <ele>132</ele>
        <time>2016-06-12T12:40:43.000Z</time>
      </trkpt>
      <trkpt lat="48.94144" lon="1.96398">
        <ele>132.19999694824</ele>
        <time>2016-06-12T12:40:52.000Z</time>
      </trkpt>
      <trkpt lat="48.94142" lon="1.964">
        <ele>132.19999694824</ele>
        <time>2016-06-12T12:40:54.000Z</time>
      </trkpt>
      <trkpt lat="48.94139" lon="1.96402">
        <ele>132.19999694824</ele>
        <time>2016-06-12T12:40:57.000Z</time>
      </trkpt>
      <trkpt lat="48.94137" lon="1.96403">
        <ele>132.19999694824</ele>
        <time>2016-06-12T12:41:00.000Z</time>
      </trkpt>
      <trkpt lat="48.94136" lon="1.96404">
        <ele>132.39999389648</ele>
        <time>2016-06-12T12:41:01.000Z</time>
      </trkpt>
      <trkpt lat="48.94134" lon="1.96405">
        <ele>132.39999389648</ele>
        <time>2016-06-12T12:41:02.000Z</time>
      </trkpt>
      <trkpt lat="48.94128" lon="1.96409">
        <ele>132.60000610352</ele>
        <time>2016-06-12T12:41:07.000Z</time>
      </trkpt>
      <trkpt lat="48.94121" lon="1.96412">
        <ele>132.80000305176</ele>
        <time>2016-06-12T12:41:13.000Z</time>
      </trkpt>
      <trkpt lat="48.94115" lon="1.96416">
        <ele>133</ele>
        <time>2016-06-12T12:41:18.000Z</time>
      </trkpt>
      <trkpt lat="48.94105" lon="1.9642">
        <ele>133.39999389648</ele>
        <time>2016-06-12T12:41:24.000Z</time>
      </trkpt>
      <trkpt lat="48.94104" lon="1.96421">
        <ele>133.39999389648</ele>
        <time>2016-06-12T12:41:25.000Z</time>
      </trkpt>
      <trkpt lat="48.94098" lon="1.96423">
        <ele>133.39999389648</ele>
        <time>2016-06-12T12:41:29.000Z</time>
      </trkpt>
      <trkpt lat="48.94094" lon="1.96425">
        <ele>133.19999694824</ele>
        <time>2016-06-12T12:41:31.000Z</time>
      </trkpt>
      <trkpt lat="48.94085" lon="1.96427">
        <ele>133.19999694824</ele>
        <time>2016-06-12T12:41:35.000Z</time>
      </trkpt>
      <trkpt lat="48.94076" lon="1.96424">
        <ele>132.80000305176</ele>
        <time>2016-06-12T12:41:40.000Z</time>
      </trkpt>
      <trkpt lat="48.94075" lon="1.96423">
        <ele>132.80000305176</ele>
        <time>2016-06-12T12:41:41.000Z</time>
      </trkpt>
      <trkpt lat="48.94069" lon="1.96423">
        <ele>132.60000610352</ele>
        <time>2016-06-12T12:41:45.000Z</time>
      </trkpt>
      <trkpt lat="48.94067" lon="1.96422">
        <ele>132.60000610352</ele>
        <time>2016-06-12T12:41:46.000Z</time>
      </trkpt>
      <trkpt lat="48.94054" lon="1.96421">
        <ele>132.19999694824</ele>
        <time>2016-06-12T12:41:52.000Z</time>
      </trkpt>
      <trkpt lat="48.94047" lon="1.96418">
        <ele>132</ele>
        <time>2016-06-12T12:41:57.000Z</time>
      </trkpt>
      <trkpt lat="48.94045" lon="1.96416">
        <ele>131.80000305176</ele>
        <time>2016-06-12T12:41:59.000Z</time>
      </trkpt>
      <trkpt lat="48.94042" lon="1.96414">
        <ele>131.60000610352</ele>
        <time>2016-06-12T12:42:02.000Z</time>
      </trkpt>
      <trkpt lat="48.94041" lon="1.96415">
        <ele>131.60000610352</ele>
        <time>2016-06-12T12:42:04.000Z</time>
      </trkpt>
      <trkpt lat="48.94036" lon="1.9642">
        <ele>131.80000305176</ele>
        <time>2016-06-12T12:42:07.000Z</time>
      </trkpt>
      <trkpt lat="48.94029" lon="1.9643">
        <ele>131.80000305176</ele>
        <time>2016-06-12T12:42:12.000Z</time>
      </trkpt>
      <trkpt lat="48.94028" lon="1.96432">
        <ele>131.80000305176</ele>
        <time>2016-06-12T12:42:13.000Z</time>
      </trkpt>
      <trkpt lat="48.94022" lon="1.96441">
        <ele>131.80000305176</ele>
        <time>2016-06-12T12:42:18.000Z</time>
      </trkpt>
      <trkpt lat="48.94011" lon="1.96456">
        <ele>131.60000610352</ele>
        <time>2016-06-12T12:42:26.000Z</time>
      </trkpt>
      <trkpt lat="48.94003" lon="1.96473">
        <ele>131.80000305176</ele>
        <time>2016-06-12T12:42:36.000Z</time>
      </trkpt>
      <trkpt lat="48.93998" lon="1.96482">
        <ele>131.19999694824</ele>
        <time>2016-06-12T12:42:41.000Z</time>
      </trkpt>
      <trkpt lat="48.93996" lon="1.96485">
        <ele>131</ele>
        <time>2016-06-12T12:42:43.000Z</time>
      </trkpt>
      <trkpt lat="48.93995" lon="1.96487">
        <ele>131</ele>
        <time>2016-06-12T12:42:47.000Z</time>
      </trkpt>
      <trkpt lat="48.93985" lon="1.96508">
        <ele>131</ele>
        <time>2016-06-12T12:43:36.000Z</time>
      </trkpt>
      <trkpt lat="48.93982" lon="1.9652">
        <ele>131.39999389648</ele>
        <time>2016-06-12T12:43:42.000Z</time>
      </trkpt>
      <trkpt lat="48.93979" lon="1.9653">
        <ele>131.60000610352</ele>
        <time>2016-06-12T12:43:47.000Z</time>
      </trkpt>
      <trkpt lat="48.93975" lon="1.96541">
        <ele>131.60000610352</ele>
        <time>2016-06-12T12:43:54.000Z</time>
      </trkpt>
      <trkpt lat="48.93972" lon="1.96545">
        <ele>131.60000610352</ele>
        <time>2016-06-12T12:43:59.000Z</time>
      </trkpt>
      <trkpt lat="48.93972" lon="1.96546">
        <ele>131.60000610352</ele>
        <time>2016-06-12T12:44:01.000Z</time>
      </trkpt>
      <trkpt lat="48.93963" lon="1.96555">
        <ele>131.19999694824</ele>
        <time>2016-06-12T12:44:31.000Z</time>
      </trkpt>
      <trkpt lat="48.93961" lon="1.96558">
        <ele>131.19999694824</ele>
        <time>2016-06-12T12:44:33.000Z</time>
      </trkpt>
      <trkpt lat="48.93959" lon="1.96564">
        <ele>131.19999694824</ele>
        <time>2016-06-12T12:44:37.000Z</time>
      </trkpt>
      <trkpt lat="48.93957" lon="1.96568">
        <ele>131.19999694824</ele>
        <time>2016-06-12T12:44:39.000Z</time>
      </trkpt>
      <trkpt lat="48.93952" lon="1.96577">
        <ele>131.19999694824</ele>
        <time>2016-06-12T12:44:45.000Z</time>
      </trkpt>
      <trkpt lat="48.93945" lon="1.96588">
        <ele>131.60000610352</ele>
        <time>2016-06-12T12:44:52.000Z</time>
      </trkpt>
      <trkpt lat="48.93939" lon="1.96595">
        <ele>132</ele>
        <time>2016-06-12T12:44:59.000Z</time>
      </trkpt>
      <trkpt lat="48.93932" lon="1.96602">
        <ele>133</ele>
        <time>2016-06-12T12:45:02.000Z</time>
      </trkpt>
      <trkpt lat="48.93921" lon="1.96612">
        <ele>134.39999389648</ele>
        <time>2016-06-12T12:45:07.000Z</time>
      </trkpt>
      <trkpt lat="48.93915" lon="1.96619">
        <ele>135.19999694824</ele>
        <time>2016-06-12T12:45:12.000Z</time>
      </trkpt>
      <trkpt lat="48.93906" lon="1.96628">
        <ele>135.80000305176</ele>
        <time>2016-06-12T12:45:19.000Z</time>
      </trkpt>
      <trkpt lat="48.93901" lon="1.96635">
        <ele>135.39999389648</ele>
        <time>2016-06-12T12:45:24.000Z</time>
      </trkpt>
      <trkpt lat="48.93895" lon="1.96646">
        <ele>134.80000305176</ele>
        <time>2016-06-12T12:45:31.000Z</time>
      </trkpt>
      <trkpt lat="48.93892" lon="1.96651">
        <ele>134.60000610352</ele>
        <time>2016-06-12T12:45:35.000Z</time>
      </trkpt>
      <trkpt lat="48.93891" lon="1.96653">
        <ele>134.60000610352</ele>
        <time>2016-06-12T12:45:36.000Z</time>
      </trkpt>
      <trkpt lat="48.9389" lon="1.96659">
        <ele>134.39999389648</ele>
        <time>2016-06-12T12:45:39.000Z</time>
      </trkpt>
      <trkpt lat="48.93889" lon="1.9666">
        <ele>134.39999389648</ele>
        <time>2016-06-12T12:45:40.000Z</time>
      </trkpt>
      <trkpt lat="48.93885" lon="1.96671">
        <ele>134.19999694824</ele>
        <time>2016-06-12T12:45:46.000Z</time>
      </trkpt>
      <trkpt lat="48.93885" lon="1.96685">
        <ele>134.60000610352</ele>
        <time>2016-06-12T12:45:53.000Z</time>
      </trkpt>
      <trkpt lat="48.93886" lon="1.96687">
        <ele>134.80000305176</ele>
        <time>2016-06-12T12:45:54.000Z</time>
      </trkpt>
      <trkpt lat="48.9389" lon="1.96694">
        <ele>135</ele>
        <time>2016-06-12T12:45:57.000Z</time>
      </trkpt>
      <trkpt lat="48.9389" lon="1.96696">
        <ele>135</ele>
        <time>2016-06-12T12:45:58.000Z</time>
      </trkpt>
      <trkpt lat="48.93892" lon="1.96701">
        <ele>135</ele>
        <time>2016-06-12T12:46:01.000Z</time>
      </trkpt>
      <trkpt lat="48.93898" lon="1.96705">
        <ele>135.60000610352</ele>
        <time>2016-06-12T12:46:05.000Z</time>
      </trkpt>
      <trkpt lat="48.939" lon="1.96706">
        <ele>135.80000305176</ele>
        <time>2016-06-12T12:46:06.000Z</time>
      </trkpt>
      <trkpt lat="48.939" lon="1.96708">
        <ele>135.80000305176</ele>
        <time>2016-06-12T12:46:07.000Z</time>
      </trkpt>
      <trkpt lat="48.93902" lon="1.9671">
        <ele>136</ele>
        <time>2016-06-12T12:46:10.000Z</time>
      </trkpt>
      <trkpt lat="48.93905" lon="1.96713">
        <ele>136.39999389648</ele>
        <time>2016-06-12T12:46:14.000Z</time>
      </trkpt>
      <trkpt lat="48.93906" lon="1.96714">
        <ele>136.39999389648</ele>
        <time>2016-06-12T12:46:15.000Z</time>
      </trkpt>
      <trkpt lat="48.93913" lon="1.9672">
        <ele>137</ele>
        <time>2016-06-12T12:46:22.000Z</time>
      </trkpt>
      <trkpt lat="48.93915" lon="1.96722">
        <ele>137.19999694824</ele>
        <time>2016-06-12T12:46:25.000Z</time>
      </trkpt>
      <trkpt lat="48.93917" lon="1.96725">
        <ele>137.60000610352</ele>
        <time>2016-06-12T12:46:27.000Z</time>
      </trkpt>
      <trkpt lat="48.93922" lon="1.96733">
        <ele>137.80000305176</ele>
        <time>2016-06-12T12:46:33.000Z</time>
      </trkpt>
      <trkpt lat="48.93928" lon="1.9674">
        <ele>138.39999389648</ele>
        <time>2016-06-12T12:46:38.000Z</time>
      </trkpt>
      <trkpt lat="48.93929" lon="1.96742">
        <ele>138.39999389648</ele>
        <time>2016-06-12T12:46:39.000Z</time>
      </trkpt>
      <trkpt lat="48.93937" lon="1.96753">
        <ele>138.80000305176</ele>
        <time>2016-06-12T12:46:46.000Z</time>
      </trkpt>
      <trkpt lat="48.93945" lon="1.96762">
        <ele>139.19999694824</ele>
        <time>2016-06-12T12:46:52.000Z</time>
      </trkpt>
      <trkpt lat="48.93947" lon="1.96772">
        <ele>139</ele>
        <time>2016-06-12T12:46:57.000Z</time>
      </trkpt>
      <trkpt lat="48.93949" lon="1.96779">
        <ele>138.80000305176</ele>
        <time>2016-06-12T12:47:00.000Z</time>
      </trkpt>
      <trkpt lat="48.93951" lon="1.96783">
        <ele>138.60000610352</ele>
        <time>2016-06-12T12:47:02.000Z</time>
      </trkpt>
      <trkpt lat="48.93952" lon="1.96785">
        <ele>138.60000610352</ele>
        <time>2016-06-12T12:47:03.000Z</time>
      </trkpt>
      <trkpt lat="48.9396" lon="1.96794">
        <ele>139.19999694824</ele>
        <time>2016-06-12T12:47:08.000Z</time>
      </trkpt>
      <trkpt lat="48.93969" lon="1.96803">
        <ele>139.60000610352</ele>
        <time>2016-06-12T12:47:13.000Z</time>
      </trkpt>
      <trkpt lat="48.93972" lon="1.96806">
        <ele>140</ele>
        <time>2016-06-12T12:47:18.000Z</time>
      </trkpt>
      <trkpt lat="48.93963" lon="1.96804">
        <ele>139</ele>
        <time>2016-06-12T12:48:43.000Z</time>
      </trkpt>
      <trkpt lat="48.93962" lon="1.96805">
        <ele>138.80000305176</ele>
        <time>2016-06-12T12:48:46.000Z</time>
      </trkpt>
      <trkpt lat="48.93969" lon="1.96863">
        <ele>138.60000610352</ele>
        <time>2016-06-12T12:49:20.000Z</time>
      </trkpt>
      <trkpt lat="48.93969" lon="1.96865">
        <ele>138.60000610352</ele>
        <time>2016-06-12T12:49:21.000Z</time>
      </trkpt>
      <trkpt lat="48.93968" lon="1.96869">
        <ele>138.39999389648</ele>
        <time>2016-06-12T12:49:24.000Z</time>
      </trkpt>
      <trkpt lat="48.93966" lon="1.96874">
        <ele>138.19999694824</ele>
        <time>2016-06-12T12:49:26.000Z</time>
      </trkpt>
      <trkpt lat="48.93963" lon="1.96883">
        <ele>138.19999694824</ele>
        <time>2016-06-12T12:49:30.000Z</time>
      </trkpt>
      <trkpt lat="48.9396" lon="1.96888">
        <ele>137.80000305176</ele>
        <time>2016-06-12T12:49:33.000Z</time>
      </trkpt>
      <trkpt lat="48.93957" lon="1.969">
        <ele>137.80000305176</ele>
        <time>2016-06-12T12:49:39.000Z</time>
      </trkpt>
      <trkpt lat="48.93954" lon="1.96915">
        <ele>137.19999694824</ele>
        <time>2016-06-12T12:49:46.000Z</time>
      </trkpt>
      <trkpt lat="48.9395" lon="1.96928">
        <ele>137</ele>
        <time>2016-06-12T12:49:52.000Z</time>
      </trkpt>
      <trkpt lat="48.93949" lon="1.96945">
        <ele>137.60000610352</ele>
        <time>2016-06-12T12:50:00.000Z</time>
      </trkpt>
      <trkpt lat="48.93952" lon="1.96957">
        <ele>138.19999694824</ele>
        <time>2016-06-12T12:50:04.000Z</time>
      </trkpt>
      <trkpt lat="48.93953" lon="1.96958">
        <ele>138.19999694824</ele>
        <time>2016-06-12T12:50:05.000Z</time>
      </trkpt>
      <trkpt lat="48.93962" lon="1.96964">
        <ele>138.80000305176</ele>
        <time>2016-06-12T12:50:12.000Z</time>
      </trkpt>
      <trkpt lat="48.93968" lon="1.96967">
        <ele>139.19999694824</ele>
        <time>2016-06-12T12:50:18.000Z</time>
      </trkpt>
      <trkpt lat="48.93969" lon="1.96968">
        <ele>139.19999694824</ele>
        <time>2016-06-12T12:50:20.000Z</time>
      </trkpt>
      <trkpt lat="48.93975" lon="1.96967">
        <ele>139.39999389648</ele>
        <time>2016-06-12T12:50:25.000Z</time>
      </trkpt>
      <trkpt lat="48.93982" lon="1.96966">
        <ele>139.60000610352</ele>
        <time>2016-06-12T12:50:31.000Z</time>
      </trkpt>
      <trkpt lat="48.93987" lon="1.96963">
        <ele>139.60000610352</ele>
        <time>2016-06-12T12:50:36.000Z</time>
      </trkpt>
      <trkpt lat="48.93994" lon="1.9696">
        <ele>139.80000305176</ele>
        <time>2016-06-12T12:50:41.000Z</time>
      </trkpt>
      <trkpt lat="48.94" lon="1.96955">
        <ele>140.80000305176</ele>
        <time>2016-06-12T12:50:47.000Z</time>
      </trkpt>
      <trkpt lat="48.9401" lon="1.96948">
        <ele>142</ele>
        <time>2016-06-12T12:50:54.000Z</time>
      </trkpt>
      <trkpt lat="48.94019" lon="1.96941">
        <ele>143.39999389648</ele>
        <time>2016-06-12T12:51:00.000Z</time>
      </trkpt>
      <trkpt lat="48.9403" lon="1.96933">
        <ele>144.60000610352</ele>
        <time>2016-06-12T12:51:08.000Z</time>
      </trkpt>
      <trkpt lat="48.94041" lon="1.96929">
        <ele>145.39999389648</ele>
        <time>2016-06-12T12:51:17.000Z</time>
      </trkpt>
      <trkpt lat="48.94047" lon="1.96918">
        <ele>146</ele>
        <time>2016-06-12T12:51:24.000Z</time>
      </trkpt>
      <trkpt lat="48.94049" lon="1.96915">
        <ele>146.19999694824</ele>
        <time>2016-06-12T12:51:28.000Z</time>
      </trkpt>
      <trkpt lat="48.94047" lon="1.96885">
        <ele>146</ele>
        <time>2016-06-12T12:53:01.000Z</time>
      </trkpt>
      <trkpt lat="48.9404" lon="1.96876">
        <ele>145.80000305176</ele>
        <time>2016-06-12T12:53:06.000Z</time>
      </trkpt>
      <trkpt lat="48.94037" lon="1.96869">
        <ele>145.60000610352</ele>
        <time>2016-06-12T12:53:11.000Z</time>
      </trkpt>
      <trkpt lat="48.94036" lon="1.96865">
        <ele>145.60000610352</ele>
        <time>2016-06-12T12:53:13.000Z</time>
      </trkpt>
      <trkpt lat="48.94035" lon="1.96861">
        <ele>145.60000610352</ele>
        <time>2016-06-12T12:53:16.000Z</time>
      </trkpt>
      <trkpt lat="48.94032" lon="1.96859">
        <ele>145.39999389648</ele>
        <time>2016-06-12T12:53:18.000Z</time>
      </trkpt>
      <trkpt lat="48.94029" lon="1.96857">
        <ele>145.19999694824</ele>
        <time>2016-06-12T12:53:21.000Z</time>
      </trkpt>
      <trkpt lat="48.94027" lon="1.96857">
        <ele>145.19999694824</ele>
        <time>2016-06-12T12:53:26.000Z</time>
      </trkpt>
      <trkpt lat="48.94039" lon="1.96874">
        <ele>145.80000305176</ele>
        <time>2016-06-12T12:53:45.000Z</time>
      </trkpt>
      <trkpt lat="48.94042" lon="1.96878">
        <ele>145.80000305176</ele>
        <time>2016-06-12T12:53:48.000Z</time>
      </trkpt>
      <trkpt lat="48.94045" lon="1.96886">
        <ele>146</ele>
        <time>2016-06-12T12:53:53.000Z</time>
      </trkpt>
      <trkpt lat="48.94044" lon="1.96888">
        <ele>146</ele>
        <time>2016-06-12T12:53:54.000Z</time>
      </trkpt>
      <trkpt lat="48.94048" lon="1.96895">
        <ele>146.19999694824</ele>
        <time>2016-06-12T12:53:58.000Z</time>
      </trkpt>
      <trkpt lat="48.9405" lon="1.96896">
        <ele>146.19999694824</ele>
        <time>2016-06-12T12:54:00.000Z</time>
      </trkpt>
      <trkpt lat="48.94051" lon="1.96897">
        <ele>146.39999389648</ele>
        <time>2016-06-12T12:54:03.000Z</time>
      </trkpt>
      <trkpt lat="48.94052" lon="1.96897">
        <ele>146.39999389648</ele>
        <time>2016-06-12T12:54:04.000Z</time>
      </trkpt>
      <trkpt lat="48.94068" lon="1.96925">
        <ele>147</ele>
        <time>2016-06-12T12:55:21.000Z</time>
      </trkpt>
      <trkpt lat="48.94071" lon="1.96927">
        <ele>147</ele>
        <time>2016-06-12T12:55:24.000Z</time>
      </trkpt>
      <trkpt lat="48.94078" lon="1.96931">
        <ele>147.39999389648</ele>
        <time>2016-06-12T12:55:30.000Z</time>
      </trkpt>
      <trkpt lat="48.94078" lon="1.96932">
        <ele>147.39999389648</ele>
        <time>2016-06-12T12:55:31.000Z</time>
      </trkpt>
      <trkpt lat="48.94083" lon="1.96934">
        <ele>147.60000610352</ele>
        <time>2016-06-12T12:55:34.000Z</time>
      </trkpt>
      <trkpt lat="48.94085" lon="1.96935">
        <ele>147.60000610352</ele>
        <time>2016-06-12T12:55:36.000Z</time>
      </trkpt>
      <trkpt lat="48.94096" lon="1.96939">
        <ele>148</ele>
        <time>2016-06-12T12:55:43.000Z</time>
      </trkpt>
      <trkpt lat="48.94111" lon="1.96944">
        <ele>149</ele>
        <time>2016-06-12T12:55:54.000Z</time>
      </trkpt>
      <trkpt lat="48.94123" lon="1.96947">
        <ele>150.19999694824</ele>
        <time>2016-06-12T12:56:02.000Z</time>
      </trkpt>
      <trkpt lat="48.94132" lon="1.96948">
        <ele>151.19999694824</ele>
        <time>2016-06-12T12:56:08.000Z</time>
      </trkpt>
      <trkpt lat="48.94144" lon="1.96949">
        <ele>152.39999389648</ele>
        <time>2016-06-12T12:56:16.000Z</time>
      </trkpt>
      <trkpt lat="48.94145" lon="1.96948">
        <ele>152.60000610352</ele>
        <time>2016-06-12T12:56:17.000Z</time>
      </trkpt>
      <trkpt lat="48.94149" lon="1.96948">
        <ele>153</ele>
        <time>2016-06-12T12:56:20.000Z</time>
      </trkpt>
      <trkpt lat="48.94163" lon="1.9695">
        <ele>153.80000305176</ele>
        <time>2016-06-12T12:56:30.000Z</time>
      </trkpt>
      <trkpt lat="48.94177" lon="1.96946">
        <ele>154.60000610352</ele>
        <time>2016-06-12T12:56:40.000Z</time>
      </trkpt>
      <trkpt lat="48.94182" lon="1.96943">
        <ele>154.80000305176</ele>
        <time>2016-06-12T12:56:45.000Z</time>
      </trkpt>
      <trkpt lat="48.94184" lon="1.96942">
        <ele>154.80000305176</ele>
        <time>2016-06-12T12:56:47.000Z</time>
      </trkpt>
      <trkpt lat="48.9419" lon="1.96936">
        <ele>155</ele>
        <time>2016-06-12T12:56:50.000Z</time>
      </trkpt>
      <trkpt lat="48.9419" lon="1.96936">
        <ele>155</ele>
        <time>2016-06-12T12:56:51.000Z</time>
      </trkpt>
      <trkpt lat="48.94202" lon="1.96923">
        <ele>156.80000305176</ele>
        <time>2016-06-12T12:56:56.000Z</time>
      </trkpt>
      <trkpt lat="48.94214" lon="1.96908">
        <ele>158.39999389648</ele>
        <time>2016-06-12T12:57:00.000Z</time>
      </trkpt>
      <trkpt lat="48.94217" lon="1.969">
        <ele>158.60000610352</ele>
        <time>2016-06-12T12:57:02.000Z</time>
      </trkpt>
      <trkpt lat="48.94219" lon="1.96897">
        <ele>158.80000305176</ele>
        <time>2016-06-12T12:57:03.000Z</time>
      </trkpt>
      <trkpt lat="48.94224" lon="1.9689">
        <ele>159.60000610352</ele>
        <time>2016-06-12T12:57:06.000Z</time>
      </trkpt>
      <trkpt lat="48.94227" lon="1.96887">
        <ele>160</ele>
        <time>2016-06-12T12:57:07.000Z</time>
      </trkpt>
      <trkpt lat="48.94239" lon="1.96875">
        <ele>161.60000610352</ele>
        <time>2016-06-12T12:57:11.000Z</time>
      </trkpt>
      <trkpt lat="48.94242" lon="1.96874">
        <ele>162.19999694824</ele>
        <time>2016-06-12T12:57:12.000Z</time>
      </trkpt>
      <trkpt lat="48.94251" lon="1.96874">
        <ele>163.80000305176</ele>
        <time>2016-06-12T12:57:15.000Z</time>
      </trkpt>
      <trkpt lat="48.94256" lon="1.96877">
        <ele>165</ele>
        <time>2016-06-12T12:57:19.000Z</time>
      </trkpt>
      <trkpt lat="48.94258" lon="1.96879">
        <ele>165.60000610352</ele>
        <time>2016-06-12T12:57:21.000Z</time>
      </trkpt>
      <trkpt lat="48.94262" lon="1.96882">
        <ele>166.39999389648</ele>
        <time>2016-06-12T12:57:24.000Z</time>
      </trkpt>
      <trkpt lat="48.94265" lon="1.96883">
        <ele>167</ele>
        <time>2016-06-12T12:57:26.000Z</time>
      </trkpt>
      <trkpt lat="48.94268" lon="1.96884">
        <ele>167.60000610352</ele>
        <time>2016-06-12T12:57:28.000Z</time>
      </trkpt>
      <trkpt lat="48.94276" lon="1.9689">
        <ele>169.19999694824</ele>
        <time>2016-06-12T12:57:31.000Z</time>
      </trkpt>
      <trkpt lat="48.94278" lon="1.96892">
        <ele>169.39999389648</ele>
        <time>2016-06-12T12:57:32.000Z</time>
      </trkpt>
      <trkpt lat="48.94285" lon="1.96898">
        <ele>170</ele>
        <time>2016-06-12T12:57:35.000Z</time>
      </trkpt>
      <trkpt lat="48.94295" lon="1.96906">
        <ele>171</ele>
        <time>2016-06-12T12:57:39.000Z</time>
      </trkpt>
      <trkpt lat="48.94309" lon="1.96917">
        <ele>171.80000305176</ele>
        <time>2016-06-12T12:57:44.000Z</time>
      </trkpt>
      <trkpt lat="48.94316" lon="1.96924">
        <ele>172.19999694824</ele>
        <time>2016-06-12T12:57:47.000Z</time>
      </trkpt>
      <trkpt lat="48.94325" lon="1.9693">
        <ele>172.80000305176</ele>
        <time>2016-06-12T12:57:52.000Z</time>
      </trkpt>
      <trkpt lat="48.94327" lon="1.96932">
        <ele>172.80000305176</ele>
        <time>2016-06-12T12:57:54.000Z</time>
      </trkpt>
      <trkpt lat="48.94329" lon="1.96934">
        <ele>173</ele>
        <time>2016-06-12T12:57:56.000Z</time>
      </trkpt>
      <trkpt lat="48.94337" lon="1.96937">
        <ele>173.39999389648</ele>
        <time>2016-06-12T12:58:01.000Z</time>
      </trkpt>
      <trkpt lat="48.94339" lon="1.96938">
        <ele>173.39999389648</ele>
        <time>2016-06-12T12:58:03.000Z</time>
      </trkpt>
      <trkpt lat="48.94346" lon="1.96943">
        <ele>173.80000305176</ele>
        <time>2016-06-12T12:58:07.000Z</time>
      </trkpt>
      <trkpt lat="48.94349" lon="1.96944">
        <ele>174</ele>
        <time>2016-06-12T12:58:10.000Z</time>
      </trkpt>
      <trkpt lat="48.9435" lon="1.96945">
        <ele>174</ele>
        <time>2016-06-12T12:58:11.000Z</time>
      </trkpt>
      <trkpt lat="48.94353" lon="1.96945">
        <ele>174.19999694824</ele>
        <time>2016-06-12T12:58:14.000Z</time>
      </trkpt>
      <trkpt lat="48.94354" lon="1.96946">
        <ele>174.19999694824</ele>
        <time>2016-06-12T12:58:15.000Z</time>
      </trkpt>
      <trkpt lat="48.94361" lon="1.96948">
        <ele>174.39999389648</ele>
        <time>2016-06-12T12:58:19.000Z</time>
      </trkpt>
      <trkpt lat="48.94371" lon="1.96951">
        <ele>174</ele>
        <time>2016-06-12T12:58:24.000Z</time>
      </trkpt>
      <trkpt lat="48.94376" lon="1.9695">
        <ele>173.80000305176</ele>
        <time>2016-06-12T12:58:26.000Z</time>
      </trkpt>
      <trkpt lat="48.94378" lon="1.96951">
        <ele>173.80000305176</ele>
        <time>2016-06-12T12:58:27.000Z</time>
      </trkpt>
      <trkpt lat="48.94379" lon="1.96952">
        <ele>173.80000305176</ele>
        <time>2016-06-12T12:58:28.000Z</time>
      </trkpt>
      <trkpt lat="48.94388" lon="1.96955">
        <ele>173.39999389648</ele>
        <time>2016-06-12T12:58:33.000Z</time>
      </trkpt>
      <trkpt lat="48.9439" lon="1.96955">
        <ele>173.39999389648</ele>
        <time>2016-06-12T12:58:34.000Z</time>
      </trkpt>
      <trkpt lat="48.94395" lon="1.96958">
        <ele>173.19999694824</ele>
        <time>2016-06-12T12:58:37.000Z</time>
      </trkpt>
      <trkpt lat="48.94397" lon="1.96962">
        <ele>173.19999694824</ele>
        <time>2016-06-12T12:58:39.000Z</time>
      </trkpt>
      <trkpt lat="48.944" lon="1.96976">
        <ele>173.39999389648</ele>
        <time>2016-06-12T12:58:44.000Z</time>
      </trkpt>
      <trkpt lat="48.94399" lon="1.96988">
        <ele>173.39999389648</ele>
        <time>2016-06-12T12:58:47.000Z</time>
      </trkpt>
      <trkpt lat="48.94398" lon="1.97002">
        <ele>174</ele>
        <time>2016-06-12T12:58:51.000Z</time>
      </trkpt>
      <trkpt lat="48.94402" lon="1.9702">
        <ele>174.80000305176</ele>
        <time>2016-06-12T12:58:55.000Z</time>
      </trkpt>
      <trkpt lat="48.944" lon="1.97034">
        <ele>175.60000610352</ele>
        <time>2016-06-12T12:58:58.000Z</time>
      </trkpt>
      <trkpt lat="48.94401" lon="1.97049">
        <ele>175.60000610352</ele>
        <time>2016-06-12T12:59:01.000Z</time>
      </trkpt>
      <trkpt lat="48.94404" lon="1.97062">
        <ele>175.60000610352</ele>
        <time>2016-06-12T12:59:04.000Z</time>
      </trkpt>
      <trkpt lat="48.94409" lon="1.97069">
        <ele>175.60000610352</ele>
        <time>2016-06-12T12:59:07.000Z</time>
      </trkpt>
      <trkpt lat="48.94411" lon="1.97072">
        <ele>175.60000610352</ele>
        <time>2016-06-12T12:59:08.000Z</time>
      </trkpt>
      <trkpt lat="48.94417" lon="1.9708">
        <ele>175.60000610352</ele>
        <time>2016-06-12T12:59:11.000Z</time>
      </trkpt>
      <trkpt lat="48.94427" lon="1.97092">
        <ele>175.60000610352</ele>
        <time>2016-06-12T12:59:15.000Z</time>
      </trkpt>
      <trkpt lat="48.94441" lon="1.97106">
        <ele>175.60000610352</ele>
        <time>2016-06-12T12:59:19.000Z</time>
      </trkpt>
      <trkpt lat="48.94455" lon="1.97118">
        <ele>175.80000305176</ele>
        <time>2016-06-12T12:59:23.000Z</time>
      </trkpt>
      <trkpt lat="48.94459" lon="1.97123">
        <ele>175.80000305176</ele>
        <time>2016-06-12T12:59:25.000Z</time>
      </trkpt>
      <trkpt lat="48.94464" lon="1.97128">
        <ele>176</ele>
        <time>2016-06-12T12:59:27.000Z</time>
      </trkpt>
      <trkpt lat="48.94473" lon="1.97142">
        <ele>176</ele>
        <time>2016-06-12T12:59:30.000Z</time>
      </trkpt>
      <trkpt lat="48.94477" lon="1.97164">
        <ele>175.60000610352</ele>
        <time>2016-06-12T12:59:34.000Z</time>
      </trkpt>
      <trkpt lat="48.94479" lon="1.97176">
        <ele>175.19999694824</ele>
        <time>2016-06-12T12:59:36.000Z</time>
      </trkpt>
      <trkpt lat="48.94481" lon="1.97191">
        <ele>174.80000305176</ele>
        <time>2016-06-12T12:59:39.000Z</time>
      </trkpt>
      <trkpt lat="48.94485" lon="1.97208">
        <ele>174.60000610352</ele>
        <time>2016-06-12T12:59:43.000Z</time>
      </trkpt>
      <trkpt lat="48.94492" lon="1.9722">
        <ele>174.60000610352</ele>
        <time>2016-06-12T12:59:47.000Z</time>
      </trkpt>
      <trkpt lat="48.94502" lon="1.97224">
        <ele>174.39999389648</ele>
        <time>2016-06-12T12:59:50.000Z</time>
      </trkpt>
      <trkpt lat="48.94508" lon="1.97227">
        <ele>174.19999694824</ele>
        <time>2016-06-12T12:59:52.000Z</time>
      </trkpt>
      <trkpt lat="48.94525" lon="1.9723">
        <ele>174.39999389648</ele>
        <time>2016-06-12T12:59:57.000Z</time>
      </trkpt>
      <trkpt lat="48.94546" lon="1.97235">
        <ele>174.80000305176</ele>
        <time>2016-06-12T13:00:03.000Z</time>
      </trkpt>
      <trkpt lat="48.94562" lon="1.97239">
        <ele>175</ele>
        <time>2016-06-12T13:00:07.000Z</time>
      </trkpt>
      <trkpt lat="48.94578" lon="1.97247">
        <ele>174.60000610352</ele>
        <time>2016-06-12T13:00:11.000Z</time>
      </trkpt>
      <trkpt lat="48.94586" lon="1.97251">
        <ele>174.19999694824</ele>
        <time>2016-06-12T13:00:14.000Z</time>
      </trkpt>
      <trkpt lat="48.94589" lon="1.97251">
        <ele>174</ele>
        <time>2016-06-12T13:00:15.000Z</time>
      </trkpt>
      <trkpt lat="48.946" lon="1.97257">
        <ele>173.60000610352</ele>
        <time>2016-06-12T13:00:19.000Z</time>
      </trkpt>
      <trkpt lat="48.9461" lon="1.97263">
        <ele>173</ele>
        <time>2016-06-12T13:00:23.000Z</time>
      </trkpt>
      <trkpt lat="48.94614" lon="1.97266">
        <ele>172.80000305176</ele>
        <time>2016-06-12T13:00:25.000Z</time>
      </trkpt>
      <trkpt lat="48.94618" lon="1.97269">
        <ele>172.60000610352</ele>
        <time>2016-06-12T13:00:27.000Z</time>
      </trkpt>
      <trkpt lat="48.94631" lon="1.97276">
        <ele>172.39999389648</ele>
        <time>2016-06-12T13:00:32.000Z</time>
      </trkpt>
      <trkpt lat="48.94644" lon="1.97284">
        <ele>172</ele>
        <time>2016-06-12T13:00:38.000Z</time>
      </trkpt>
      <trkpt lat="48.9465" lon="1.97287">
        <ele>172</ele>
        <time>2016-06-12T13:00:43.000Z</time>
      </trkpt>
      <trkpt lat="48.94652" lon="1.97288">
        <ele>172</ele>
        <time>2016-06-12T13:00:44.000Z</time>
      </trkpt>
      <trkpt lat="48.94657" lon="1.97293">
        <ele>171.60000610352</ele>
        <time>2016-06-12T13:00:48.000Z</time>
      </trkpt>
      <trkpt lat="48.94659" lon="1.97293">
        <ele>171.60000610352</ele>
        <time>2016-06-12T13:00:49.000Z</time>
      </trkpt>
      <trkpt lat="48.94661" lon="1.97295">
        <ele>171.39999389648</ele>
        <time>2016-06-12T13:00:51.000Z</time>
      </trkpt>
      <trkpt lat="48.94664" lon="1.97297">
        <ele>171.19999694824</ele>
        <time>2016-06-12T13:00:53.000Z</time>
      </trkpt>
      <trkpt lat="48.9467" lon="1.973">
        <ele>171</ele>
        <time>2016-06-12T13:00:57.000Z</time>
      </trkpt>
      <trkpt lat="48.9468" lon="1.97306">
        <ele>170.39999389648</ele>
        <time>2016-06-12T13:01:03.000Z</time>
      </trkpt>
      <trkpt lat="48.9469" lon="1.9731">
        <ele>170</ele>
        <time>2016-06-12T13:01:08.000Z</time>
      </trkpt>
      <trkpt lat="48.94691" lon="1.97311">
        <ele>170</ele>
        <time>2016-06-12T13:01:09.000Z</time>
      </trkpt>
      <trkpt lat="48.94695" lon="1.97314">
        <ele>169.80000305176</ele>
        <time>2016-06-12T13:01:12.000Z</time>
      </trkpt>
      <trkpt lat="48.94697" lon="1.97314">
        <ele>169.80000305176</ele>
        <time>2016-06-12T13:01:13.000Z</time>
      </trkpt>
      <trkpt lat="48.94705" lon="1.9732">
        <ele>169.39999389648</ele>
        <time>2016-06-12T13:01:19.000Z</time>
      </trkpt>
      <trkpt lat="48.94707" lon="1.97323">
        <ele>169.19999694824</ele>
        <time>2016-06-12T13:01:23.000Z</time>
      </trkpt>
      <trkpt lat="48.94715" lon="1.97328">
        <ele>169</ele>
        <time>2016-06-12T13:01:28.000Z</time>
      </trkpt>
      <trkpt lat="48.94722" lon="1.97333">
        <ele>168.39999389648</ele>
        <time>2016-06-12T13:01:33.000Z</time>
      </trkpt>
      <trkpt lat="48.94733" lon="1.9734">
        <ele>167.60000610352</ele>
        <time>2016-06-12T13:01:39.000Z</time>
      </trkpt>
      <trkpt lat="48.94738" lon="1.97343">
        <ele>167.39999389648</ele>
        <time>2016-06-12T13:01:43.000Z</time>
      </trkpt>
      <trkpt lat="48.94743" lon="1.97351">
        <ele>166.60000610352</ele>
        <time>2016-06-12T13:01:46.000Z</time>
      </trkpt>
      <trkpt lat="48.94753" lon="1.97357">
        <ele>165.80000305176</ele>
        <time>2016-06-12T13:01:51.000Z</time>
      </trkpt>
      <trkpt lat="48.94755" lon="1.97362">
        <ele>165.39999389648</ele>
        <time>2016-06-12T13:01:56.000Z</time>
      </trkpt>
      <trkpt lat="48.94757" lon="1.97364">
        <ele>165</ele>
        <time>2016-06-12T13:01:58.000Z</time>
      </trkpt>
      <trkpt lat="48.94761" lon="1.97367">
        <ele>164.80000305176</ele>
        <time>2016-06-12T13:02:01.000Z</time>
      </trkpt>
      <trkpt lat="48.94767" lon="1.97372">
        <ele>164.19999694824</ele>
        <time>2016-06-12T13:02:06.000Z</time>
      </trkpt>
      <trkpt lat="48.9477" lon="1.97375">
        <ele>164</ele>
        <time>2016-06-12T13:02:08.000Z</time>
      </trkpt>
      <trkpt lat="48.94773" lon="1.97376">
        <ele>163.80000305176</ele>
        <time>2016-06-12T13:02:10.000Z</time>
      </trkpt>
      <trkpt lat="48.94774" lon="1.97377">
        <ele>163.60000610352</ele>
        <time>2016-06-12T13:02:11.000Z</time>
      </trkpt>
      <trkpt lat="48.9478" lon="1.97381">
        <ele>163.19999694824</ele>
        <time>2016-06-12T13:02:14.000Z</time>
      </trkpt>
      <trkpt lat="48.94781" lon="1.97382">
        <ele>163.19999694824</ele>
        <time>2016-06-12T13:02:15.000Z</time>
      </trkpt>
      <trkpt lat="48.94781" lon="1.97383">
        <ele>163.19999694824</ele>
        <time>2016-06-12T13:02:16.000Z</time>
      </trkpt>
      <trkpt lat="48.94787" lon="1.97389">
        <ele>162.39999389648</ele>
        <time>2016-06-12T13:02:20.000Z</time>
      </trkpt>
      <trkpt lat="48.94788" lon="1.97391">
        <ele>162.19999694824</ele>
        <time>2016-06-12T13:02:21.000Z</time>
      </trkpt>
      <trkpt lat="48.94793" lon="1.97395">
        <ele>161.80000305176</ele>
        <time>2016-06-12T13:02:24.000Z</time>
      </trkpt>
      <trkpt lat="48.94797" lon="1.97397">
        <ele>161.60000610352</ele>
        <time>2016-06-12T13:02:26.000Z</time>
      </trkpt>
      <trkpt lat="48.94804" lon="1.97405">
        <ele>160.80000305176</ele>
        <time>2016-06-12T13:02:31.000Z</time>
      </trkpt>
      <trkpt lat="48.94812" lon="1.97414">
        <ele>159.80000305176</ele>
        <time>2016-06-12T13:02:37.000Z</time>
      </trkpt>
      <trkpt lat="48.94814" lon="1.97421">
        <ele>159</ele>
        <time>2016-06-12T13:02:42.000Z</time>
      </trkpt>
      <trkpt lat="48.94816" lon="1.97424">
        <ele>158.80000305176</ele>
        <time>2016-06-12T13:02:44.000Z</time>
      </trkpt>
      <trkpt lat="48.94816" lon="1.97426">
        <ele>158.60000610352</ele>
        <time>2016-06-12T13:02:46.000Z</time>
      </trkpt>
      <trkpt lat="48.94819" lon="1.9743">
        <ele>158</ele>
        <time>2016-06-12T13:02:50.000Z</time>
      </trkpt>
      <trkpt lat="48.94819" lon="1.97431">
        <ele>158</ele>
        <time>2016-06-12T13:02:51.000Z</time>
      </trkpt>
      <trkpt lat="48.94825" lon="1.97442">
        <ele>156.80000305176</ele>
        <time>2016-06-12T13:02:59.000Z</time>
      </trkpt>
      <trkpt lat="48.94828" lon="1.97447">
        <ele>156.39999389648</ele>
        <time>2016-06-12T13:03:02.000Z</time>
      </trkpt>
      <trkpt lat="48.94831" lon="1.97454">
        <ele>155.60000610352</ele>
        <time>2016-06-12T13:03:07.000Z</time>
      </trkpt>
      <trkpt lat="48.94838" lon="1.97462">
        <ele>154.80000305176</ele>
        <time>2016-06-12T13:03:12.000Z</time>
      </trkpt>
      <trkpt lat="48.9484" lon="1.97467">
        <ele>154.39999389648</ele>
        <time>2016-06-12T13:03:16.000Z</time>
      </trkpt>
      <trkpt lat="48.94843" lon="1.97472">
        <ele>154</ele>
        <time>2016-06-12T13:03:19.000Z</time>
      </trkpt>
      <trkpt lat="48.94843" lon="1.97475">
        <ele>153.60000610352</ele>
        <time>2016-06-12T13:03:21.000Z</time>
      </trkpt>
      <trkpt lat="48.94847" lon="1.9748">
        <ele>153</ele>
        <time>2016-06-12T13:03:25.000Z</time>
      </trkpt>
      <trkpt lat="48.94854" lon="1.97487">
        <ele>152.39999389648</ele>
        <time>2016-06-12T13:03:30.000Z</time>
      </trkpt>
      <trkpt lat="48.94862" lon="1.97499">
        <ele>151.39999389648</ele>
        <time>2016-06-12T13:03:36.000Z</time>
      </trkpt>
      <trkpt lat="48.94866" lon="1.97505">
        <ele>151</ele>
        <time>2016-06-12T13:03:39.000Z</time>
      </trkpt>
      <trkpt lat="48.94867" lon="1.97507">
        <ele>150.80000305176</ele>
        <time>2016-06-12T13:03:40.000Z</time>
      </trkpt>
      <trkpt lat="48.94868" lon="1.97508">
        <ele>150.60000610352</ele>
        <time>2016-06-12T13:03:41.000Z</time>
      </trkpt>
      <trkpt lat="48.94875" lon="1.97518">
        <ele>150</ele>
        <time>2016-06-12T13:03:47.000Z</time>
      </trkpt>
      <trkpt lat="48.9488" lon="1.97523">
        <ele>149.60000610352</ele>
        <time>2016-06-12T13:03:51.000Z</time>
      </trkpt>
      <trkpt lat="48.94883" lon="1.97527">
        <ele>149.19999694824</ele>
        <time>2016-06-12T13:03:53.000Z</time>
      </trkpt>
      <trkpt lat="48.94889" lon="1.97533">
        <ele>148.80000305176</ele>
        <time>2016-06-12T13:03:56.000Z</time>
      </trkpt>
      <trkpt lat="48.94894" lon="1.97537">
        <ele>148.60000610352</ele>
        <time>2016-06-12T13:04:00.000Z</time>
      </trkpt>
      <trkpt lat="48.94898" lon="1.9754">
        <ele>148.39999389648</ele>
        <time>2016-06-12T13:04:02.000Z</time>
      </trkpt>
      <trkpt lat="48.94899" lon="1.97541">
        <ele>148.19999694824</ele>
        <time>2016-06-12T13:04:03.000Z</time>
      </trkpt>
      <trkpt lat="48.94906" lon="1.97554">
        <ele>147.39999389648</ele>
        <time>2016-06-12T13:04:09.000Z</time>
      </trkpt>
      <trkpt lat="48.9491" lon="1.97563">
        <ele>146.60000610352</ele>
        <time>2016-06-12T13:04:13.000Z</time>
      </trkpt>
      <trkpt lat="48.94913" lon="1.97571">
        <ele>146</ele>
        <time>2016-06-12T13:04:17.000Z</time>
      </trkpt>
      <trkpt lat="48.94919" lon="1.9758">
        <ele>145.39999389648</ele>
        <time>2016-06-12T13:04:22.000Z</time>
      </trkpt>
      <trkpt lat="48.94925" lon="1.97591">
        <ele>144.60000610352</ele>
        <time>2016-06-12T13:04:27.000Z</time>
      </trkpt>
      <trkpt lat="48.94932" lon="1.97603">
        <ele>143.80000305176</ele>
        <time>2016-06-12T13:04:33.000Z</time>
      </trkpt>
      <trkpt lat="48.94938" lon="1.97608">
        <ele>143.60000610352</ele>
        <time>2016-06-12T13:04:37.000Z</time>
      </trkpt>
      <trkpt lat="48.94942" lon="1.97617">
        <ele>142.80000305176</ele>
        <time>2016-06-12T13:04:41.000Z</time>
      </trkpt>
      <trkpt lat="48.94944" lon="1.9762">
        <ele>142.39999389648</ele>
        <time>2016-06-12T13:04:43.000Z</time>
      </trkpt>
      <trkpt lat="48.94945" lon="1.97622">
        <ele>142.19999694824</ele>
        <time>2016-06-12T13:04:46.000Z</time>
      </trkpt>
      <trkpt lat="48.9495" lon="1.97625">
        <ele>141.60000610352</ele>
        <time>2016-06-12T13:04:51.000Z</time>
      </trkpt>
      <trkpt lat="48.94955" lon="1.97624">
        <ele>141</ele>
        <time>2016-06-12T13:04:55.000Z</time>
      </trkpt>
      <trkpt lat="48.94957" lon="1.97621">
        <ele>141.19999694824</ele>
        <time>2016-06-12T13:04:56.000Z</time>
      </trkpt>
      <trkpt lat="48.9496" lon="1.97618">
        <ele>141</ele>
        <time>2016-06-12T13:04:58.000Z</time>
      </trkpt>
      <trkpt lat="48.9496" lon="1.97617">
        <ele>141.19999694824</ele>
        <time>2016-06-12T13:04:59.000Z</time>
      </trkpt>
      <trkpt lat="48.94966" lon="1.97619">
        <ele>140.39999389648</ele>
        <time>2016-06-12T13:05:02.000Z</time>
      </trkpt>
      <trkpt lat="48.9497" lon="1.97628">
        <ele>139.39999389648</ele>
        <time>2016-06-12T13:05:06.000Z</time>
      </trkpt>
      <trkpt lat="48.94977" lon="1.97637">
        <ele>138</ele>
        <time>2016-06-12T13:05:12.000Z</time>
      </trkpt>
      <trkpt lat="48.94982" lon="1.97635">
        <ele>137.80000305176</ele>
        <time>2016-06-12T13:05:16.000Z</time>
      </trkpt>
      <trkpt lat="48.94991" lon="1.97634">
        <ele>137</ele>
        <time>2016-06-12T13:05:21.000Z</time>
      </trkpt>
      <trkpt lat="48.94994" lon="1.97633">
        <ele>136.60000610352</ele>
        <time>2016-06-12T13:05:23.000Z</time>
      </trkpt>
      <trkpt lat="48.95" lon="1.97634">
        <ele>136</ele>
        <time>2016-06-12T13:05:26.000Z</time>
      </trkpt>
      <trkpt lat="48.95008" lon="1.97634">
        <ele>135.39999389648</ele>
        <time>2016-06-12T13:05:31.000Z</time>
      </trkpt>
      <trkpt lat="48.95012" lon="1.97634">
        <ele>135</ele>
        <time>2016-06-12T13:05:35.000Z</time>
      </trkpt>
      <trkpt lat="48.95017" lon="1.97638">
        <ele>134.39999389648</ele>
        <time>2016-06-12T13:05:39.000Z</time>
      </trkpt>
      <trkpt lat="48.9502" lon="1.97642">
        <ele>133.60000610352</ele>
        <time>2016-06-12T13:05:43.000Z</time>
      </trkpt>
      <trkpt lat="48.9502" lon="1.97642">
        <ele>133.60000610352</ele>
        <time>2016-06-12T13:05:44.000Z</time>
      </trkpt>
      <trkpt lat="48.95027" lon="1.97652">
        <ele>132.39999389648</ele>
        <time>2016-06-12T13:05:54.000Z</time>
      </trkpt>
      <trkpt lat="48.95027" lon="1.97654">
        <ele>132.19999694824</ele>
        <time>2016-06-12T13:05:55.000Z</time>
      </trkpt>
      <trkpt lat="48.95026" lon="1.97657">
        <ele>132</ele>
        <time>2016-06-12T13:05:56.000Z</time>
      </trkpt>
      <trkpt lat="48.95028" lon="1.97662">
        <ele>131.60000610352</ele>
        <time>2016-06-12T13:05:59.000Z</time>
      </trkpt>
      <trkpt lat="48.9503" lon="1.97666">
        <ele>131.19999694824</ele>
        <time>2016-06-12T13:06:01.000Z</time>
      </trkpt>
      <trkpt lat="48.95033" lon="1.9767">
        <ele>130.80000305176</ele>
        <time>2016-06-12T13:06:04.000Z</time>
      </trkpt>
      <trkpt lat="48.95036" lon="1.97679">
        <ele>130</ele>
        <time>2016-06-12T13:06:09.000Z</time>
      </trkpt>
      <trkpt lat="48.95036" lon="1.9768">
        <ele>130</ele>
        <time>2016-06-12T13:06:10.000Z</time>
      </trkpt>
      <trkpt lat="48.95041" lon="1.97689">
        <ele>129.19999694824</ele>
        <time>2016-06-12T13:06:15.000Z</time>
      </trkpt>
      <trkpt lat="48.95042" lon="1.97692">
        <ele>129</ele>
        <time>2016-06-12T13:06:16.000Z</time>
      </trkpt>
      <trkpt lat="48.95046" lon="1.97704">
        <ele>127.80000305176</ele>
        <time>2016-06-12T13:06:22.000Z</time>
      </trkpt>
      <trkpt lat="48.95045" lon="1.97714">
        <ele>127.19999694824</ele>
        <time>2016-06-12T13:06:27.000Z</time>
      </trkpt>
      <trkpt lat="48.95045" lon="1.97716">
        <ele>127</ele>
        <time>2016-06-12T13:06:28.000Z</time>
      </trkpt>
      <trkpt lat="48.95046" lon="1.97718">
        <ele>126.80000305176</ele>
        <time>2016-06-12T13:06:29.000Z</time>
      </trkpt>
      <trkpt lat="48.95048" lon="1.97721">
        <ele>126.59999847412</ele>
        <time>2016-06-12T13:06:31.000Z</time>
      </trkpt>
      <trkpt lat="48.95051" lon="1.97722">
        <ele>126.40000152588</ele>
        <time>2016-06-12T13:06:34.000Z</time>
      </trkpt>
      <trkpt lat="48.95053" lon="1.97722">
        <ele>126.40000152588</ele>
        <time>2016-06-12T13:06:35.000Z</time>
      </trkpt>
      <trkpt lat="48.95061" lon="1.97719">
        <ele>126.19999694824</ele>
        <time>2016-06-12T13:06:40.000Z</time>
      </trkpt>
      <trkpt lat="48.95066" lon="1.9772">
        <ele>126</ele>
        <time>2016-06-12T13:06:43.000Z</time>
      </trkpt>
      <trkpt lat="48.95067" lon="1.97721">
        <ele>126</ele>
        <time>2016-06-12T13:06:45.000Z</time>
      </trkpt>
      <trkpt lat="48.95068" lon="1.97721">
        <ele>125.80000305176</ele>
        <time>2016-06-12T13:06:48.000Z</time>
      </trkpt>
      <trkpt lat="48.9508" lon="1.97722">
        <ele>125.40000152588</ele>
        <time>2016-06-12T13:07:03.000Z</time>
      </trkpt>
      <trkpt lat="48.95081" lon="1.9772">
        <ele>125.40000152588</ele>
        <time>2016-06-12T13:07:04.000Z</time>
      </trkpt>
      <trkpt lat="48.95085" lon="1.97718">
        <ele>125.40000152588</ele>
        <time>2016-06-12T13:07:06.000Z</time>
      </trkpt>
      <trkpt lat="48.95089" lon="1.97715">
        <ele>125.59999847412</ele>
        <time>2016-06-12T13:07:08.000Z</time>
      </trkpt>
      <trkpt lat="48.95098" lon="1.97708">
        <ele>125.80000305176</ele>
        <time>2016-06-12T13:07:13.000Z</time>
      </trkpt>
      <trkpt lat="48.95103" lon="1.97706">
        <ele>125.80000305176</ele>
        <time>2016-06-12T13:07:20.000Z</time>
      </trkpt>
      <trkpt lat="48.95106" lon="1.97689">
        <ele>126.80000305176</ele>
        <time>2016-06-12T13:07:36.000Z</time>
      </trkpt>
      <trkpt lat="48.95108" lon="1.97687">
        <ele>126.80000305176</ele>
        <time>2016-06-12T13:07:38.000Z</time>
      </trkpt>
      <trkpt lat="48.95112" lon="1.97681">
        <ele>127.19999694824</ele>
        <time>2016-06-12T13:07:42.000Z</time>
      </trkpt>
      <trkpt lat="48.95112" lon="1.97681">
        <ele>127.19999694824</ele>
        <time>2016-06-12T13:07:43.000Z</time>
      </trkpt>
      <trkpt lat="48.95114" lon="1.97681">
        <ele>127.19999694824</ele>
        <time>2016-06-12T13:07:44.000Z</time>
      </trkpt>
      <trkpt lat="48.95119" lon="1.97674">
        <ele>127.40000152588</ele>
        <time>2016-06-12T13:07:48.000Z</time>
      </trkpt>
      <trkpt lat="48.9512" lon="1.97672">
        <ele>127.59999847412</ele>
        <time>2016-06-12T13:07:49.000Z</time>
      </trkpt>
      <trkpt lat="48.95124" lon="1.97665">
        <ele>127.80000305176</ele>
        <time>2016-06-12T13:07:54.000Z</time>
      </trkpt>
      <trkpt lat="48.9513" lon="1.97657">
        <ele>128.39999389648</ele>
        <time>2016-06-12T13:07:59.000Z</time>
      </trkpt>
      <trkpt lat="48.95131" lon="1.97651">
        <ele>128.80000305176</ele>
        <time>2016-06-12T13:08:02.000Z</time>
      </trkpt>
      <trkpt lat="48.95132" lon="1.97649">
        <ele>129</ele>
        <time>2016-06-12T13:08:03.000Z</time>
      </trkpt>
      <trkpt lat="48.95133" lon="1.97642">
        <ele>129.60000610352</ele>
        <time>2016-06-12T13:08:08.000Z</time>
      </trkpt>
      <trkpt lat="48.95137" lon="1.9763">
        <ele>130.60000610352</ele>
        <time>2016-06-12T13:08:14.000Z</time>
      </trkpt>
      <trkpt lat="48.9514" lon="1.97619">
        <ele>131.60000610352</ele>
        <time>2016-06-12T13:08:19.000Z</time>
      </trkpt>
      <trkpt lat="48.95141" lon="1.97608">
        <ele>132.60000610352</ele>
        <time>2016-06-12T13:08:24.000Z</time>
      </trkpt>
      <trkpt lat="48.95145" lon="1.97598">
        <ele>133.39999389648</ele>
        <time>2016-06-12T13:08:27.000Z</time>
      </trkpt>
      <trkpt lat="48.95146" lon="1.97596">
        <ele>133.60000610352</ele>
        <time>2016-06-12T13:08:28.000Z</time>
      </trkpt>
      <trkpt lat="48.95147" lon="1.9759">
        <ele>134</ele>
        <time>2016-06-12T13:08:30.000Z</time>
      </trkpt>
      <trkpt lat="48.95149" lon="1.97587">
        <ele>134.39999389648</ele>
        <time>2016-06-12T13:08:32.000Z</time>
      </trkpt>
      <trkpt lat="48.95152" lon="1.97576">
        <ele>135.39999389648</ele>
        <time>2016-06-12T13:08:37.000Z</time>
      </trkpt>
      <trkpt lat="48.95153" lon="1.97568">
        <ele>136</ele>
        <time>2016-06-12T13:08:42.000Z</time>
      </trkpt>
      <trkpt lat="48.95153" lon="1.97559">
        <ele>136.60000610352</ele>
        <time>2016-06-12T13:08:46.000Z</time>
      </trkpt>
      <trkpt lat="48.95154" lon="1.97558">
        <ele>136.80000305176</ele>
        <time>2016-06-12T13:08:47.000Z</time>
      </trkpt>
      <trkpt lat="48.95158" lon="1.97551">
        <ele>137.19999694824</ele>
        <time>2016-06-12T13:08:50.000Z</time>
      </trkpt>
      <trkpt lat="48.95159" lon="1.97549">
        <ele>137.39999389648</ele>
        <time>2016-06-12T13:08:51.000Z</time>
      </trkpt>
      <trkpt lat="48.95163" lon="1.97537">
        <ele>137.39999389648</ele>
        <time>2016-06-12T13:08:56.000Z</time>
      </trkpt>
      <trkpt lat="48.95164" lon="1.97526">
        <ele>137.39999389648</ele>
        <time>2016-06-12T13:09:01.000Z</time>
      </trkpt>
      <trkpt lat="48.95166" lon="1.97515">
        <ele>137.39999389648</ele>
        <time>2016-06-12T13:09:05.000Z</time>
      </trkpt>
      <trkpt lat="48.95168" lon="1.97507">
        <ele>137.39999389648</ele>
        <time>2016-06-12T13:09:09.000Z</time>
      </trkpt>
      <trkpt lat="48.95168" lon="1.97504">
        <ele>137.19999694824</ele>
        <time>2016-06-12T13:09:10.000Z</time>
      </trkpt>
      <trkpt lat="48.95171" lon="1.97494">
        <ele>137.19999694824</ele>
        <time>2016-06-12T13:09:15.000Z</time>
      </trkpt>
      <trkpt lat="48.95172" lon="1.97491">
        <ele>137</ele>
        <time>2016-06-12T13:09:17.000Z</time>
      </trkpt>
      <trkpt lat="48.95174" lon="1.97484">
        <ele>137</ele>
        <time>2016-06-12T13:09:21.000Z</time>
      </trkpt>
      <trkpt lat="48.95175" lon="1.97474">
        <ele>137</ele>
        <time>2016-06-12T13:09:26.000Z</time>
      </trkpt>
      <trkpt lat="48.95177" lon="1.97461">
        <ele>136.19999694824</ele>
        <time>2016-06-12T13:09:32.000Z</time>
      </trkpt>
      <trkpt lat="48.95179" lon="1.9745">
        <ele>135.39999389648</ele>
        <time>2016-06-12T13:09:37.000Z</time>
      </trkpt>
      <trkpt lat="48.95179" lon="1.97444">
        <ele>135.19999694824</ele>
        <time>2016-06-12T13:09:40.000Z</time>
      </trkpt>
      <trkpt lat="48.95179" lon="1.97442">
        <ele>135.19999694824</ele>
        <time>2016-06-12T13:09:41.000Z</time>
      </trkpt>
      <trkpt lat="48.9518" lon="1.97436">
        <ele>134.80000305176</ele>
        <time>2016-06-12T13:09:44.000Z</time>
      </trkpt>
      <trkpt lat="48.95181" lon="1.97433">
        <ele>134.39999389648</ele>
        <time>2016-06-12T13:09:45.000Z</time>
      </trkpt>
      <trkpt lat="48.95184" lon="1.97424">
        <ele>133.60000610352</ele>
        <time>2016-06-12T13:09:50.000Z</time>
      </trkpt>
      <trkpt lat="48.95185" lon="1.97412">
        <ele>133</ele>
        <time>2016-06-12T13:09:56.000Z</time>
      </trkpt>
      <trkpt lat="48.95184" lon="1.9741">
        <ele>133.19999694824</ele>
        <time>2016-06-12T13:09:57.000Z</time>
      </trkpt>
      <trkpt lat="48.95183" lon="1.97402">
        <ele>133.60000610352</ele>
        <time>2016-06-12T13:10:00.000Z</time>
      </trkpt>
      <trkpt lat="48.95183" lon="1.97395">
        <ele>133.80000305176</ele>
        <time>2016-06-12T13:10:03.000Z</time>
      </trkpt>
      <trkpt lat="48.95182" lon="1.97392">
        <ele>134</ele>
        <time>2016-06-12T13:10:04.000Z</time>
      </trkpt>
      <trkpt lat="48.95181" lon="1.97381">
        <ele>134.19999694824</ele>
        <time>2016-06-12T13:10:09.000Z</time>
      </trkpt>
      <trkpt lat="48.95181" lon="1.97378">
        <ele>134.19999694824</ele>
        <time>2016-06-12T13:10:10.000Z</time>
      </trkpt>
      <trkpt lat="48.95181" lon="1.97365">
        <ele>134.39999389648</ele>
        <time>2016-06-12T13:10:16.000Z</time>
      </trkpt>
      <trkpt lat="48.95182" lon="1.97363">
        <ele>134.19999694824</ele>
        <time>2016-06-12T13:10:17.000Z</time>
      </trkpt>
      <trkpt lat="48.95179" lon="1.97347">
        <ele>135.19999694824</ele>
        <time>2016-06-12T13:10:23.000Z</time>
      </trkpt>
      <trkpt lat="48.95178" lon="1.97333">
        <ele>135.60000610352</ele>
        <time>2016-06-12T13:10:26.000Z</time>
      </trkpt>
      <trkpt lat="48.95177" lon="1.97319">
        <ele>135.80000305176</ele>
        <time>2016-06-12T13:10:31.000Z</time>
      </trkpt>
      <trkpt lat="48.9518" lon="1.97311">
        <ele>135.39999389648</ele>
        <time>2016-06-12T13:10:35.000Z</time>
      </trkpt>
      <trkpt lat="48.9518" lon="1.97309">
        <ele>135.39999389648</ele>
        <time>2016-06-12T13:10:37.000Z</time>
      </trkpt>
      <trkpt lat="48.9518" lon="1.97308">
        <ele>135.39999389648</ele>
        <time>2016-06-12T13:10:39.000Z</time>
      </trkpt>
      <trkpt lat="48.95175" lon="1.97298">
        <ele>136.39999389648</ele>
        <time>2016-06-12T13:11:03.000Z</time>
      </trkpt>
      <trkpt lat="48.95177" lon="1.97294">
        <ele>136.19999694824</ele>
        <time>2016-06-12T13:11:05.000Z</time>
      </trkpt>
      <trkpt lat="48.95179" lon="1.97288">
        <ele>136</ele>
        <time>2016-06-12T13:11:08.000Z</time>
      </trkpt>
      <trkpt lat="48.95179" lon="1.97285">
        <ele>136.19999694824</ele>
        <time>2016-06-12T13:11:10.000Z</time>
      </trkpt>
      <trkpt lat="48.95178" lon="1.97279">
        <ele>136.39999389648</ele>
        <time>2016-06-12T13:11:14.000Z</time>
      </trkpt>
      <trkpt lat="48.95175" lon="1.97268">
        <ele>137.19999694824</ele>
        <time>2016-06-12T13:11:19.000Z</time>
      </trkpt>
      <trkpt lat="48.95174" lon="1.97259">
        <ele>137.60000610352</ele>
        <time>2016-06-12T13:11:24.000Z</time>
      </trkpt>
      <trkpt lat="48.95173" lon="1.97249">
        <ele>138</ele>
        <time>2016-06-12T13:11:27.000Z</time>
      </trkpt>
      <trkpt lat="48.95172" lon="1.97245">
        <ele>138.39999389648</ele>
        <time>2016-06-12T13:11:28.000Z</time>
      </trkpt>
      <trkpt lat="48.95171" lon="1.97241">
        <ele>138.39999389648</ele>
        <time>2016-06-12T13:11:29.000Z</time>
      </trkpt>
      <trkpt lat="48.95169" lon="1.97225">
        <ele>138</ele>
        <time>2016-06-12T13:11:36.000Z</time>
      </trkpt>
      <trkpt lat="48.95173" lon="1.97218">
        <ele>137.39999389648</ele>
        <time>2016-06-12T13:11:41.000Z</time>
      </trkpt>
      <trkpt lat="48.9517" lon="1.97211">
        <ele>137.80000305176</ele>
        <time>2016-06-12T13:11:45.000Z</time>
      </trkpt>
      <trkpt lat="48.95165" lon="1.972">
        <ele>138.39999389648</ele>
        <time>2016-06-12T13:11:50.000Z</time>
      </trkpt>
      <trkpt lat="48.95163" lon="1.97186">
        <ele>138.60000610352</ele>
        <time>2016-06-12T13:11:56.000Z</time>
      </trkpt>
      <trkpt lat="48.95165" lon="1.9718">
        <ele>138.39999389648</ele>
        <time>2016-06-12T13:11:59.000Z</time>
      </trkpt>
      <trkpt lat="48.95166" lon="1.97176">
        <ele>138.39999389648</ele>
        <time>2016-06-12T13:12:01.000Z</time>
      </trkpt>
      <trkpt lat="48.95165" lon="1.97173">
        <ele>138.39999389648</ele>
        <time>2016-06-12T13:12:02.000Z</time>
      </trkpt>
      <trkpt lat="48.95164" lon="1.97165">
        <ele>138.60000610352</ele>
        <time>2016-06-12T13:12:06.000Z</time>
      </trkpt>
      <trkpt lat="48.95164" lon="1.97162">
        <ele>138.60000610352</ele>
        <time>2016-06-12T13:12:08.000Z</time>
      </trkpt>
      <trkpt lat="48.95165" lon="1.97152">
        <ele>138</ele>
        <time>2016-06-12T13:12:13.000Z</time>
      </trkpt>
      <trkpt lat="48.95167" lon="1.97135">
        <ele>136.39999389648</ele>
        <time>2016-06-12T13:12:21.000Z</time>
      </trkpt>
      <trkpt lat="48.95167" lon="1.97132">
        <ele>136.39999389648</ele>
        <time>2016-06-12T13:12:22.000Z</time>
      </trkpt>
      <trkpt lat="48.95168" lon="1.97128">
        <ele>136</ele>
        <time>2016-06-12T13:12:24.000Z</time>
      </trkpt>
      <trkpt lat="48.9517" lon="1.97122">
        <ele>135.60000610352</ele>
        <time>2016-06-12T13:12:27.000Z</time>
      </trkpt>
      <trkpt lat="48.95173" lon="1.97115">
        <ele>135</ele>
        <time>2016-06-12T13:12:31.000Z</time>
      </trkpt>
      <trkpt lat="48.95177" lon="1.97107">
        <ele>134.19999694824</ele>
        <time>2016-06-12T13:12:35.000Z</time>
      </trkpt>
      <trkpt lat="48.95177" lon="1.97106">
        <ele>134</ele>
        <time>2016-06-12T13:12:36.000Z</time>
      </trkpt>
      <trkpt lat="48.95181" lon="1.97096">
        <ele>133</ele>
        <time>2016-06-12T13:12:41.000Z</time>
      </trkpt>
      <trkpt lat="48.95187" lon="1.97085">
        <ele>132</ele>
        <time>2016-06-12T13:12:47.000Z</time>
      </trkpt>
      <trkpt lat="48.95188" lon="1.97084">
        <ele>131.80000305176</ele>
        <time>2016-06-12T13:12:48.000Z</time>
      </trkpt>
      <trkpt lat="48.95188" lon="1.97081">
        <ele>131.60000610352</ele>
        <time>2016-06-12T13:12:52.000Z</time>
      </trkpt>
      <trkpt lat="48.95196" lon="1.97059">
        <ele>130</ele>
        <time>2016-06-12T13:13:22.000Z</time>
      </trkpt>
      <trkpt lat="48.95197" lon="1.97054">
        <ele>129.60000610352</ele>
        <time>2016-06-12T13:13:25.000Z</time>
      </trkpt>
      <trkpt lat="48.95198" lon="1.97049">
        <ele>129.19999694824</ele>
        <time>2016-06-12T13:13:28.000Z</time>
      </trkpt>
      <trkpt lat="48.952" lon="1.97045">
        <ele>129</ele>
        <time>2016-06-12T13:13:30.000Z</time>
      </trkpt>
      <trkpt lat="48.95202" lon="1.97038">
        <ele>128.60000610352</ele>
        <time>2016-06-12T13:13:34.000Z</time>
      </trkpt>
      <trkpt lat="48.95203" lon="1.97035">
        <ele>128.19999694824</ele>
        <time>2016-06-12T13:13:38.000Z</time>
      </trkpt>
      <trkpt lat="48.95203" lon="1.97035">
        <ele>128.19999694824</ele>
        <time>2016-06-12T13:13:39.000Z</time>
      </trkpt>
      <trkpt lat="48.95215" lon="1.97029">
        <ele>126.80000305176</ele>
        <time>2016-06-12T13:13:51.000Z</time>
      </trkpt>
      <trkpt lat="48.95218" lon="1.9703">
        <ele>126.40000152588</ele>
        <time>2016-06-12T13:13:53.000Z</time>
      </trkpt>
      <trkpt lat="48.95232" lon="1.97036">
        <ele>125.19999694824</ele>
        <time>2016-06-12T13:14:03.000Z</time>
      </trkpt>
      <trkpt lat="48.95241" lon="1.97043">
        <ele>124.40000152588</ele>
        <time>2016-06-12T13:14:09.000Z</time>
      </trkpt>
      <trkpt lat="48.95248" lon="1.97052">
        <ele>124</ele>
        <time>2016-06-12T13:14:16.000Z</time>
      </trkpt>
      <trkpt lat="48.95254" lon="1.97059">
        <ele>123.59999847412</ele>
        <time>2016-06-12T13:14:22.000Z</time>
      </trkpt>
      <trkpt lat="48.95262" lon="1.97063">
        <ele>123</ele>
        <time>2016-06-12T13:14:28.000Z</time>
      </trkpt>
      <trkpt lat="48.95272" lon="1.97069">
        <ele>122.19999694824</ele>
        <time>2016-06-12T13:14:35.000Z</time>
      </trkpt>
      <trkpt lat="48.9528" lon="1.97073">
        <ele>121.40000152588</ele>
        <time>2016-06-12T13:14:41.000Z</time>
      </trkpt>
      <trkpt lat="48.95282" lon="1.97075">
        <ele>121</ele>
        <time>2016-06-12T13:14:43.000Z</time>
      </trkpt>
      <trkpt lat="48.95294" lon="1.97078">
        <ele>119.40000152588</ele>
        <time>2016-06-12T13:14:51.000Z</time>
      </trkpt>
      <trkpt lat="48.95305" lon="1.97075">
        <ele>118</ele>
        <time>2016-06-12T13:14:59.000Z</time>
      </trkpt>
      <trkpt lat="48.95314" lon="1.97065">
        <ele>117</ele>
        <time>2016-06-12T13:15:07.000Z</time>
      </trkpt>
      <trkpt lat="48.95321" lon="1.97057">
        <ele>116.40000152588</ele>
        <time>2016-06-12T13:15:13.000Z</time>
      </trkpt>
      <trkpt lat="48.95323" lon="1.97053">
        <ele>116</ele>
        <time>2016-06-12T13:15:16.000Z</time>
      </trkpt>
      <trkpt lat="48.95327" lon="1.97053">
        <ele>115.59999847412</ele>
        <time>2016-06-12T13:15:18.000Z</time>
      </trkpt>
      <trkpt lat="48.95334" lon="1.97059">
        <ele>114.40000152588</ele>
        <time>2016-06-12T13:15:23.000Z</time>
      </trkpt>
      <trkpt lat="48.9534" lon="1.97068">
        <ele>113.59999847412</ele>
        <time>2016-06-12T13:15:27.000Z</time>
      </trkpt>
      <trkpt lat="48.95344" lon="1.97074">
        <ele>112.80000305176</ele>
        <time>2016-06-12T13:15:30.000Z</time>
      </trkpt>
      <trkpt lat="48.9535" lon="1.97085">
        <ele>111.80000305176</ele>
        <time>2016-06-12T13:15:36.000Z</time>
      </trkpt>
      <trkpt lat="48.95361" lon="1.97102">
        <ele>110.40000152588</ele>
        <time>2016-06-12T13:15:46.000Z</time>
      </trkpt>
      <trkpt lat="48.95371" lon="1.97116">
        <ele>109.19999694824</ele>
        <time>2016-06-12T13:15:54.000Z</time>
      </trkpt>
      <trkpt lat="48.95381" lon="1.97129">
        <ele>108</ele>
        <time>2016-06-12T13:16:03.000Z</time>
      </trkpt>
      <trkpt lat="48.95392" lon="1.97141">
        <ele>107</ele>
        <time>2016-06-12T13:16:12.000Z</time>
      </trkpt>
      <trkpt lat="48.95397" lon="1.97149">
        <ele>106.19999694824</ele>
        <time>2016-06-12T13:16:17.000Z</time>
      </trkpt>
      <trkpt lat="48.95406" lon="1.9716">
        <ele>105.40000152588</ele>
        <time>2016-06-12T13:16:24.000Z</time>
      </trkpt>
      <trkpt lat="48.95408" lon="1.97164">
        <ele>105.19999694824</ele>
        <time>2016-06-12T13:16:27.000Z</time>
      </trkpt>
      <trkpt lat="48.9541" lon="1.97166">
        <ele>105.19999694824</ele>
        <time>2016-06-12T13:16:29.000Z</time>
      </trkpt>
      <trkpt lat="48.95417" lon="1.97175">
        <ele>104.59999847412</ele>
        <time>2016-06-12T13:16:35.000Z</time>
      </trkpt>
      <trkpt lat="48.95418" lon="1.97176">
        <ele>104.40000152588</ele>
        <time>2016-06-12T13:16:36.000Z</time>
      </trkpt>
      <trkpt lat="48.95428" lon="1.9719">
        <ele>103.59999847412</ele>
        <time>2016-06-12T13:16:45.000Z</time>
      </trkpt>
      <trkpt lat="48.9543" lon="1.97192">
        <ele>103.40000152588</ele>
        <time>2016-06-12T13:16:49.000Z</time>
      </trkpt>
      <trkpt lat="48.95431" lon="1.97203">
        <ele>103.40000152588</ele>
        <time>2016-06-12T13:17:01.000Z</time>
      </trkpt>
      <trkpt lat="48.9543" lon="1.97204">
        <ele>103.59999847412</ele>
        <time>2016-06-12T13:17:02.000Z</time>
      </trkpt>
      <trkpt lat="48.95421" lon="1.97215">
        <ele>104.59999847412</ele>
        <time>2016-06-12T13:17:10.000Z</time>
      </trkpt>
      <trkpt lat="48.95413" lon="1.97225">
        <ele>105.19999694824</ele>
        <time>2016-06-12T13:17:17.000Z</time>
      </trkpt>
      <trkpt lat="48.9541" lon="1.97242">
        <ele>105.19999694824</ele>
        <time>2016-06-12T13:17:25.000Z</time>
      </trkpt>
      <trkpt lat="48.95409" lon="1.97258">
        <ele>106</ele>
        <time>2016-06-12T13:17:32.000Z</time>
      </trkpt>
      <trkpt lat="48.95409" lon="1.97269">
        <ele>106.59999847412</ele>
        <time>2016-06-12T13:17:37.000Z</time>
      </trkpt>
      <trkpt lat="48.95408" lon="1.97276">
        <ele>107</ele>
        <time>2016-06-12T13:17:40.000Z</time>
      </trkpt>
      <trkpt lat="48.95409" lon="1.97284">
        <ele>107.40000152588</ele>
        <time>2016-06-12T13:17:45.000Z</time>
      </trkpt>
      <trkpt lat="48.9541" lon="1.97284">
        <ele>107.40000152588</ele>
        <time>2016-06-12T13:17:46.000Z</time>
      </trkpt>
      <trkpt lat="48.95409" lon="1.97292">
        <ele>107.80000305176</ele>
        <time>2016-06-12T13:17:50.000Z</time>
      </trkpt>
      <trkpt lat="48.95409" lon="1.97297">
        <ele>107.80000305176</ele>
        <time>2016-06-12T13:17:53.000Z</time>
      </trkpt>
      <trkpt lat="48.95409" lon="1.97309">
        <ele>108.19999694824</ele>
        <time>2016-06-12T13:17:58.000Z</time>
      </trkpt>
      <trkpt lat="48.95409" lon="1.97319">
        <ele>108.40000152588</ele>
        <time>2016-06-12T13:18:03.000Z</time>
      </trkpt>
      <trkpt lat="48.95409" lon="1.9732">
        <ele>108.40000152588</ele>
        <time>2016-06-12T13:18:04.000Z</time>
      </trkpt>
      <trkpt lat="48.95409" lon="1.9732">
        <ele>108.40000152588</ele>
        <time>2016-06-12T13:18:05.000Z</time>
      </trkpt>
      <trkpt lat="48.95423" lon="1.97345">
        <ele>108.80000305176</ele>
        <time>2016-06-12T13:18:49.000Z</time>
      </trkpt>
      <trkpt lat="48.95425" lon="1.97347">
        <ele>108.80000305176</ele>
        <time>2016-06-12T13:18:51.000Z</time>
      </trkpt>
      <trkpt lat="48.95425" lon="1.97349">
        <ele>109</ele>
        <time>2016-06-12T13:18:52.000Z</time>
      </trkpt>
      <trkpt lat="48.95429" lon="1.97353">
        <ele>109</ele>
        <time>2016-06-12T13:18:55.000Z</time>
      </trkpt>
      <trkpt lat="48.95435" lon="1.97359">
        <ele>109</ele>
        <time>2016-06-12T13:18:59.000Z</time>
      </trkpt>
      <trkpt lat="48.95437" lon="1.97362">
        <ele>109</ele>
        <time>2016-06-12T13:19:01.000Z</time>
      </trkpt>
      <trkpt lat="48.95444" lon="1.97368">
        <ele>108.80000305176</ele>
        <time>2016-06-12T13:19:06.000Z</time>
      </trkpt>
      <trkpt lat="48.95454" lon="1.97379">
        <ele>108.40000152588</ele>
        <time>2016-06-12T13:19:12.000Z</time>
      </trkpt>
      <trkpt lat="48.95454" lon="1.9738">
        <ele>108.40000152588</ele>
        <time>2016-06-12T13:19:13.000Z</time>
      </trkpt>
      <trkpt lat="48.95457" lon="1.97387">
        <ele>108.40000152588</ele>
        <time>2016-06-12T13:19:18.000Z</time>
      </trkpt>
      <trkpt lat="48.95465" lon="1.97394">
        <ele>108</ele>
        <time>2016-06-12T13:19:23.000Z</time>
      </trkpt>
      <trkpt lat="48.9547" lon="1.97402">
        <ele>108</ele>
        <time>2016-06-12T13:19:28.000Z</time>
      </trkpt>
      <trkpt lat="48.95475" lon="1.97408">
        <ele>107.80000305176</ele>
        <time>2016-06-12T13:19:32.000Z</time>
      </trkpt>
      <trkpt lat="48.95478" lon="1.9741">
        <ele>107.40000152588</ele>
        <time>2016-06-12T13:19:34.000Z</time>
      </trkpt>
      <trkpt lat="48.95482" lon="1.97414">
        <ele>107.19999694824</ele>
        <time>2016-06-12T13:19:36.000Z</time>
      </trkpt>
      <trkpt lat="48.95484" lon="1.97415">
        <ele>107</ele>
        <time>2016-06-12T13:19:39.000Z</time>
      </trkpt>
      <trkpt lat="48.95484" lon="1.97415">
        <ele>107</ele>
        <time>2016-06-12T13:19:40.000Z</time>
      </trkpt>
      <trkpt lat="48.95499" lon="1.97421">
        <ele>105.80000305176</ele>
        <time>2016-06-12T13:20:29.000Z</time>
      </trkpt>
      <trkpt lat="48.95508" lon="1.97423">
        <ele>105</ele>
        <time>2016-06-12T13:20:33.000Z</time>
      </trkpt>
      <trkpt lat="48.9551" lon="1.97424">
        <ele>104.80000305176</ele>
        <time>2016-06-12T13:20:34.000Z</time>
      </trkpt>
      <trkpt lat="48.95516" lon="1.97426">
        <ele>104.19999694824</ele>
        <time>2016-06-12T13:20:38.000Z</time>
      </trkpt>
      <trkpt lat="48.9552" lon="1.97427">
        <ele>103.80000305176</ele>
        <time>2016-06-12T13:20:40.000Z</time>
      </trkpt>
      <trkpt lat="48.95522" lon="1.97428">
        <ele>103.80000305176</ele>
        <time>2016-06-12T13:20:42.000Z</time>
      </trkpt>
      <trkpt lat="48.95523" lon="1.97428">
        <ele>103.59999847412</ele>
        <time>2016-06-12T13:20:43.000Z</time>
      </trkpt>
      <trkpt lat="48.95526" lon="1.97431">
        <ele>103.40000152588</ele>
        <time>2016-06-12T13:20:47.000Z</time>
      </trkpt>
      <trkpt lat="48.95528" lon="1.97432">
        <ele>103.19999694824</ele>
        <time>2016-06-12T13:20:48.000Z</time>
      </trkpt>
      <trkpt lat="48.95533" lon="1.97434">
        <ele>102.80000305176</ele>
        <time>2016-06-12T13:20:51.000Z</time>
      </trkpt>
      <trkpt lat="48.95537" lon="1.97437">
        <ele>102.40000152588</ele>
        <time>2016-06-12T13:20:54.000Z</time>
      </trkpt>
      <trkpt lat="48.95544" lon="1.97443">
        <ele>101.80000305176</ele>
        <time>2016-06-12T13:21:00.000Z</time>
      </trkpt>
      <trkpt lat="48.95547" lon="1.97446">
        <ele>101.40000152588</ele>
        <time>2016-06-12T13:21:04.000Z</time>
      </trkpt>
      <trkpt lat="48.95549" lon="1.97449">
        <ele>101.19999694824</ele>
        <time>2016-06-12T13:21:06.000Z</time>
      </trkpt>
      <trkpt lat="48.9555" lon="1.97449">
        <ele>101.19999694824</ele>
        <time>2016-06-12T13:21:07.000Z</time>
      </trkpt>
      <trkpt lat="48.95553" lon="1.97448">
        <ele>100.80000305176</ele>
        <time>2016-06-12T13:21:09.000Z</time>
      </trkpt>
      <trkpt lat="48.95554" lon="1.97449">
        <ele>100.80000305176</ele>
        <time>2016-06-12T13:21:10.000Z</time>
      </trkpt>
      <trkpt lat="48.95558" lon="1.97452">
        <ele>100.40000152588</ele>
        <time>2016-06-12T13:21:14.000Z</time>
      </trkpt>
      <trkpt lat="48.95559" lon="1.97453">
        <ele>100.40000152588</ele>
        <time>2016-06-12T13:21:15.000Z</time>
      </trkpt>
      <trkpt lat="48.9556" lon="1.97453">
        <ele>100.19999694824</ele>
        <time>2016-06-12T13:21:16.000Z</time>
      </trkpt>
      <trkpt lat="48.95564" lon="1.97456">
        <ele>99.800003051758</ele>
        <time>2016-06-12T13:21:19.000Z</time>
      </trkpt>
      <trkpt lat="48.95569" lon="1.97458">
        <ele>99.400001525879</ele>
        <time>2016-06-12T13:21:24.000Z</time>
      </trkpt>
      <trkpt lat="48.95576" lon="1.97463">
        <ele>98.599998474121</ele>
        <time>2016-06-12T13:21:29.000Z</time>
      </trkpt>
      <trkpt lat="48.95582" lon="1.97467">
        <ele>98.199996948242</ele>
        <time>2016-06-12T13:21:33.000Z</time>
      </trkpt>
      <trkpt lat="48.95583" lon="1.97469">
        <ele>98.199996948242</ele>
        <time>2016-06-12T13:21:34.000Z</time>
      </trkpt>
      <trkpt lat="48.95587" lon="1.97475">
        <ele>97.800003051758</ele>
        <time>2016-06-12T13:21:37.000Z</time>
      </trkpt>
      <trkpt lat="48.95588" lon="1.9748">
        <ele>97.800003051758</ele>
        <time>2016-06-12T13:21:39.000Z</time>
      </trkpt>
      <trkpt lat="48.95597" lon="1.97491">
        <ele>97.199996948242</ele>
        <time>2016-06-12T13:21:45.000Z</time>
      </trkpt>
      <trkpt lat="48.95599" lon="1.97495">
        <ele>96.599998474121</ele>
        <time>2016-06-12T13:21:47.000Z</time>
      </trkpt>
      <trkpt lat="48.95604" lon="1.975">
        <ele>95.599998474121</ele>
        <time>2016-06-12T13:21:50.000Z</time>
      </trkpt>
      <trkpt lat="48.95609" lon="1.97504">
        <ele>94.800003051758</ele>
        <time>2016-06-12T13:21:55.000Z</time>
      </trkpt>
      <trkpt lat="48.9561" lon="1.97506">
        <ele>94.599998474121</ele>
        <time>2016-06-12T13:21:56.000Z</time>
      </trkpt>
      <trkpt lat="48.95611" lon="1.97507">
        <ele>94.400001525879</ele>
        <time>2016-06-12T13:21:57.000Z</time>
      </trkpt>
      <trkpt lat="48.95617" lon="1.97513">
        <ele>93.800003051758</ele>
        <time>2016-06-12T13:22:01.000Z</time>
      </trkpt>
      <trkpt lat="48.95622" lon="1.9752">
        <ele>93</ele>
        <time>2016-06-12T13:22:05.000Z</time>
      </trkpt>
      <trkpt lat="48.95627" lon="1.97524">
        <ele>92.400001525879</ele>
        <time>2016-06-12T13:22:08.000Z</time>
      </trkpt>
      <trkpt lat="48.95627" lon="1.97525">
        <ele>92.199996948242</ele>
        <time>2016-06-12T13:22:09.000Z</time>
      </trkpt>
      <trkpt lat="48.95633" lon="1.97533">
        <ele>91.199996948242</ele>
        <time>2016-06-12T13:22:13.000Z</time>
      </trkpt>
      <trkpt lat="48.95635" lon="1.97538">
        <ele>90.800003051758</ele>
        <time>2016-06-12T13:22:16.000Z</time>
      </trkpt>
      <trkpt lat="48.95635" lon="1.97539">
        <ele>90.599998474121</ele>
        <time>2016-06-12T13:22:17.000Z</time>
      </trkpt>
      <trkpt lat="48.95635" lon="1.9755">
        <ele>89.800003051758</ele>
        <time>2016-06-12T13:22:23.000Z</time>
      </trkpt>
      <trkpt lat="48.95641" lon="1.97558">
        <ele>88.800003051758</ele>
        <time>2016-06-12T13:22:27.000Z</time>
      </trkpt>
      <trkpt lat="48.9565" lon="1.97571">
        <ele>87.199996948242</ele>
        <time>2016-06-12T13:22:33.000Z</time>
      </trkpt>
      <trkpt lat="48.95655" lon="1.97578">
        <ele>86.599998474121</ele>
        <time>2016-06-12T13:22:36.000Z</time>
      </trkpt>
      <trkpt lat="48.95658" lon="1.97581">
        <ele>86.400001525879</ele>
        <time>2016-06-12T13:22:38.000Z</time>
      </trkpt>
      <trkpt lat="48.9566" lon="1.97585">
        <ele>86</ele>
        <time>2016-06-12T13:22:40.000Z</time>
      </trkpt>
      <trkpt lat="48.95665" lon="1.97592">
        <ele>85.599998474121</ele>
        <time>2016-06-12T13:22:44.000Z</time>
      </trkpt>
      <trkpt lat="48.95673" lon="1.97603">
        <ele>84.800003051758</ele>
        <time>2016-06-12T13:22:49.000Z</time>
      </trkpt>
      <trkpt lat="48.95674" lon="1.97605">
        <ele>84.800003051758</ele>
        <time>2016-06-12T13:22:50.000Z</time>
      </trkpt>
      <trkpt lat="48.95683" lon="1.97616">
        <ele>83.800003051758</ele>
        <time>2016-06-12T13:22:56.000Z</time>
      </trkpt>
      <trkpt lat="48.95684" lon="1.97619">
        <ele>83.800003051758</ele>
        <time>2016-06-12T13:22:57.000Z</time>
      </trkpt>
      <trkpt lat="48.95689" lon="1.97624">
        <ele>83.199996948242</ele>
        <time>2016-06-12T13:23:01.000Z</time>
      </trkpt>
      <trkpt lat="48.95695" lon="1.97635">
        <ele>82.599998474121</ele>
        <time>2016-06-12T13:23:06.000Z</time>
      </trkpt>
      <trkpt lat="48.95697" lon="1.97639">
        <ele>82.400001525879</ele>
        <time>2016-06-12T13:23:08.000Z</time>
      </trkpt>
      <trkpt lat="48.95705" lon="1.9765">
        <ele>81.599998474121</ele>
        <time>2016-06-12T13:23:14.000Z</time>
      </trkpt>
      <trkpt lat="48.95717" lon="1.9767">
        <ele>80.400001525879</ele>
        <time>2016-06-12T13:23:19.000Z</time>
      </trkpt>
      <trkpt lat="48.95741" lon="1.97711">
        <ele>78.400001525879</ele>
        <time>2016-06-12T13:23:28.000Z</time>
      </trkpt>
      <trkpt lat="48.9577" lon="1.9776">
        <ele>76</ele>
        <time>2016-06-12T13:23:38.000Z</time>
      </trkpt>
      <trkpt lat="48.95797" lon="1.97807">
        <ele>74.400001525879</ele>
        <time>2016-06-12T13:23:48.000Z</time>
      </trkpt>
      <trkpt lat="48.95814" lon="1.97835">
        <ele>73.599998474121</ele>
        <time>2016-06-12T13:23:55.000Z</time>
      </trkpt>
      <trkpt lat="48.95829" lon="1.97859">
        <ele>73</ele>
        <time>2016-06-12T13:24:00.000Z</time>
      </trkpt>
      <trkpt lat="48.95852" lon="1.979">
        <ele>72.199996948242</ele>
        <time>2016-06-12T13:24:08.000Z</time>
      </trkpt>
      <trkpt lat="48.95871" lon="1.97931">
        <ele>71.599998474121</ele>
        <time>2016-06-12T13:24:15.000Z</time>
      </trkpt>
      <trkpt lat="48.95884" lon="1.9795">
        <ele>71</ele>
        <time>2016-06-12T13:24:21.000Z</time>
      </trkpt>
      <trkpt lat="48.95893" lon="1.97959">
        <ele>70.800003051758</ele>
        <time>2016-06-12T13:24:27.000Z</time>
      </trkpt>
      <trkpt lat="48.95901" lon="1.97967">
        <ele>70.400001525879</ele>
        <time>2016-06-12T13:24:33.000Z</time>
      </trkpt>
      <trkpt lat="48.95911" lon="1.97972">
        <ele>70</ele>
        <time>2016-06-12T13:24:39.000Z</time>
      </trkpt>
      <trkpt lat="48.95911" lon="1.97974">
        <ele>70</ele>
        <time>2016-06-12T13:24:41.000Z</time>
      </trkpt>
      <trkpt lat="48.95911" lon="1.97977">
        <ele>70</ele>
        <time>2016-06-12T13:24:44.000Z</time>
      </trkpt>
      <trkpt lat="48.9591" lon="1.97981">
        <ele>70.199996948242</ele>
        <time>2016-06-12T13:24:46.000Z</time>
      </trkpt>
      <trkpt lat="48.95909" lon="1.97989">
        <ele>70.199996948242</ele>
        <time>2016-06-12T13:24:50.000Z</time>
      </trkpt>
      <trkpt lat="48.95909" lon="1.97991">
        <ele>70.199996948242</ele>
        <time>2016-06-12T13:24:51.000Z</time>
      </trkpt>
      <trkpt lat="48.95912" lon="1.97993">
        <ele>70</ele>
        <time>2016-06-12T13:24:53.000Z</time>
      </trkpt>
      <trkpt lat="48.95919" lon="1.97994">
        <ele>69.800003051758</ele>
        <time>2016-06-12T13:24:55.000Z</time>
      </trkpt>
      <trkpt lat="48.95936" lon="1.97991">
        <ele>69.199996948242</ele>
        <time>2016-06-12T13:25:01.000Z</time>
      </trkpt>
      <trkpt lat="48.95948" lon="1.97988">
        <ele>69</ele>
        <time>2016-06-12T13:25:06.000Z</time>
      </trkpt>
      <trkpt lat="48.95958" lon="1.97989">
        <ele>68.599998474121</ele>
        <time>2016-06-12T13:25:12.000Z</time>
      </trkpt>
      <trkpt lat="48.95967" lon="1.97987">
        <ele>68.400001525879</ele>
        <time>2016-06-12T13:25:18.000Z</time>
      </trkpt>
      <trkpt lat="48.9597" lon="1.97987">
        <ele>68.400001525879</ele>
        <time>2016-06-12T13:25:20.000Z</time>
      </trkpt>
      <trkpt lat="48.95971" lon="1.9799">
        <ele>68.400001525879</ele>
        <time>2016-06-12T13:25:22.000Z</time>
      </trkpt>
      <trkpt lat="48.95973" lon="1.97991">
        <ele>68.199996948242</ele>
        <time>2016-06-12T13:25:25.000Z</time>
      </trkpt>
      <trkpt lat="48.95974" lon="1.98012">
        <ele>67.599998474121</ele>
        <time>2016-06-12T13:27:22.000Z</time>
      </trkpt>
      <trkpt lat="48.95975" lon="1.98011">
        <ele>67.800003051758</ele>
        <time>2016-06-12T13:27:23.000Z</time>
      </trkpt>
      <trkpt lat="48.95977" lon="1.98005">
        <ele>67.800003051758</ele>
        <time>2016-06-12T13:27:26.000Z</time>
      </trkpt>
      <trkpt lat="48.95979" lon="1.98002">
        <ele>67.800003051758</ele>
        <time>2016-06-12T13:27:28.000Z</time>
      </trkpt>
      <trkpt lat="48.9598" lon="1.98001">
        <ele>67.800003051758</ele>
        <time>2016-06-12T13:27:29.000Z</time>
      </trkpt>
      <trkpt lat="48.95994" lon="1.97994">
        <ele>67.599998474121</ele>
        <time>2016-06-12T13:27:36.000Z</time>
      </trkpt>
      <trkpt lat="48.96004" lon="1.9799">
        <ele>67.599998474121</ele>
        <time>2016-06-12T13:27:42.000Z</time>
      </trkpt>
      <trkpt lat="48.96008" lon="1.9799">
        <ele>67.400001525879</ele>
        <time>2016-06-12T13:27:44.000Z</time>
      </trkpt>
      <trkpt lat="48.96012" lon="1.97989">
        <ele>67.400001525879</ele>
        <time>2016-06-12T13:27:47.000Z</time>
      </trkpt>
      <trkpt lat="48.96025" lon="1.97988">
        <ele>67</ele>
        <time>2016-06-12T13:27:55.000Z</time>
      </trkpt>
      <trkpt lat="48.96033" lon="1.97987">
        <ele>67.599998474121</ele>
        <time>2016-06-12T13:28:01.000Z</time>
      </trkpt>
      <trkpt lat="48.96034" lon="1.97988">
        <ele>67.599998474121</ele>
        <time>2016-06-12T13:28:02.000Z</time>
      </trkpt>
      <trkpt lat="48.96041" lon="1.97994">
        <ele>67.800003051758</ele>
        <time>2016-06-12T13:28:07.000Z</time>
      </trkpt>
      <trkpt lat="48.96047" lon="1.98001">
        <ele>67.800003051758</ele>
        <time>2016-06-12T13:28:12.000Z</time>
      </trkpt>
      <trkpt lat="48.9605" lon="1.98003">
        <ele>68</ele>
        <time>2016-06-12T13:28:14.000Z</time>
      </trkpt>
      <trkpt lat="48.96052" lon="1.98005">
        <ele>68</ele>
        <time>2016-06-12T13:28:15.000Z</time>
      </trkpt>
      <trkpt lat="48.96059" lon="1.98014">
        <ele>68.199996948242</ele>
        <time>2016-06-12T13:28:21.000Z</time>
      </trkpt>
      <trkpt lat="48.96065" lon="1.98024">
        <ele>68.199996948242</ele>
        <time>2016-06-12T13:28:26.000Z</time>
      </trkpt>
      <trkpt lat="48.96072" lon="1.98031">
        <ele>68.400001525879</ele>
        <time>2016-06-12T13:28:31.000Z</time>
      </trkpt>
      <trkpt lat="48.96078" lon="1.98043">
        <ele>68.400001525879</ele>
        <time>2016-06-12T13:28:38.000Z</time>
      </trkpt>
      <trkpt lat="48.96086" lon="1.9806">
        <ele>68.400001525879</ele>
        <time>2016-06-12T13:28:46.000Z</time>
      </trkpt>
      <trkpt lat="48.96088" lon="1.98066">
        <ele>68.199996948242</ele>
        <time>2016-06-12T13:28:49.000Z</time>
      </trkpt>
      <trkpt lat="48.96092" lon="1.98071">
        <ele>68.400001525879</ele>
        <time>2016-06-12T13:28:51.000Z</time>
      </trkpt>
      <trkpt lat="48.96099" lon="1.98084">
        <ele>68</ele>
        <time>2016-06-12T13:28:56.000Z</time>
      </trkpt>
      <trkpt lat="48.96101" lon="1.98085">
        <ele>68</ele>
        <time>2016-06-12T13:28:59.000Z</time>
      </trkpt>
      <trkpt lat="48.96102" lon="1.98087">
        <ele>68</ele>
        <time>2016-06-12T13:29:00.000Z</time>
      </trkpt>
      <trkpt lat="48.96107" lon="1.98097">
        <ele>67.599998474121</ele>
        <time>2016-06-12T13:29:05.000Z</time>
      </trkpt>
      <trkpt lat="48.96112" lon="1.98108">
        <ele>67.199996948242</ele>
        <time>2016-06-12T13:29:10.000Z</time>
      </trkpt>
      <trkpt lat="48.96119" lon="1.98121">
        <ele>66.599998474121</ele>
        <time>2016-06-12T13:29:16.000Z</time>
      </trkpt>
      <trkpt lat="48.96129" lon="1.98138">
        <ele>66</ele>
        <time>2016-06-12T13:29:25.000Z</time>
      </trkpt>
      <trkpt lat="48.96132" lon="1.9815">
        <ele>65.400001525879</ele>
        <time>2016-06-12T13:29:31.000Z</time>
      </trkpt>
      <trkpt lat="48.96136" lon="1.98158">
        <ele>65</ele>
        <time>2016-06-12T13:29:35.000Z</time>
      </trkpt>
      <trkpt lat="48.9614" lon="1.98171">
        <ele>64.599998474121</ele>
        <time>2016-06-12T13:29:42.000Z</time>
      </trkpt>
      <trkpt lat="48.96145" lon="1.98185">
        <ele>64.400001525879</ele>
        <time>2016-06-12T13:29:48.000Z</time>
      </trkpt>
      <trkpt lat="48.9615" lon="1.98198">
        <ele>64</ele>
        <time>2016-06-12T13:29:54.000Z</time>
      </trkpt>
      <trkpt lat="48.96151" lon="1.98203">
        <ele>64</ele>
        <time>2016-06-12T13:29:56.000Z</time>
      </trkpt>
      <trkpt lat="48.96153" lon="1.9821">
        <ele>63.599998474121</ele>
        <time>2016-06-12T13:29:59.000Z</time>
      </trkpt>
      <trkpt lat="48.96158" lon="1.98229">
        <ele>63</ele>
        <time>2016-06-12T13:30:07.000Z</time>
      </trkpt>
      <trkpt lat="48.96161" lon="1.9824">
        <ele>62.599998474121</ele>
        <time>2016-06-12T13:30:12.000Z</time>
      </trkpt>
      <trkpt lat="48.96166" lon="1.98255">
        <ele>62.599998474121</ele>
        <time>2016-06-12T13:30:19.000Z</time>
      </trkpt>
      <trkpt lat="48.9617" lon="1.98272">
        <ele>62.599998474121</ele>
        <time>2016-06-12T13:30:24.000Z</time>
      </trkpt>
      <trkpt lat="48.96172" lon="1.98285">
        <ele>62.599998474121</ele>
        <time>2016-06-12T13:30:29.000Z</time>
      </trkpt>
      <trkpt lat="48.96173" lon="1.98296">
        <ele>62.400001525879</ele>
        <time>2016-06-12T13:30:34.000Z</time>
      </trkpt>
      <trkpt lat="48.96175" lon="1.98308">
        <ele>62.400001525879</ele>
        <time>2016-06-12T13:30:39.000Z</time>
      </trkpt>
      <trkpt lat="48.96176" lon="1.98313">
        <ele>62.400001525879</ele>
        <time>2016-06-12T13:30:42.000Z</time>
      </trkpt>
      <trkpt lat="48.96177" lon="1.98315">
        <ele>62.400001525879</ele>
        <time>2016-06-12T13:30:43.000Z</time>
      </trkpt>
      <trkpt lat="48.96181" lon="1.98329">
        <ele>62.400001525879</ele>
        <time>2016-06-12T13:30:48.000Z</time>
      </trkpt>
      <trkpt lat="48.96184" lon="1.98337">
        <ele>62.200000762939</ele>
        <time>2016-06-12T13:30:52.000Z</time>
      </trkpt>
      <trkpt lat="48.96184" lon="1.98339">
        <ele>62.200000762939</ele>
        <time>2016-06-12T13:30:53.000Z</time>
      </trkpt>
      <trkpt lat="48.96187" lon="1.98344">
        <ele>62</ele>
        <time>2016-06-12T13:30:56.000Z</time>
      </trkpt>
      <trkpt lat="48.9619" lon="1.9835">
        <ele>62</ele>
        <time>2016-06-12T13:30:59.000Z</time>
      </trkpt>
      <trkpt lat="48.96191" lon="1.98353">
        <ele>62</ele>
        <time>2016-06-12T13:31:00.000Z</time>
      </trkpt>
      <trkpt lat="48.96192" lon="1.98359">
        <ele>61.799999237061</ele>
        <time>2016-06-12T13:31:04.000Z</time>
      </trkpt>
      <trkpt lat="48.96193" lon="1.98362">
        <ele>61.599998474121</ele>
        <time>2016-06-12T13:31:05.000Z</time>
      </trkpt>
      <trkpt lat="48.96197" lon="1.98371">
        <ele>61.200000762939</ele>
        <time>2016-06-12T13:31:09.000Z</time>
      </trkpt>
      <trkpt lat="48.96199" lon="1.98379">
        <ele>61</ele>
        <time>2016-06-12T13:31:12.000Z</time>
      </trkpt>
      <trkpt lat="48.96199" lon="1.98382">
        <ele>60.799999237061</ele>
        <time>2016-06-12T13:31:14.000Z</time>
      </trkpt>
      <trkpt lat="48.96201" lon="1.98397">
        <ele>60.200000762939</ele>
        <time>2016-06-12T13:31:20.000Z</time>
      </trkpt>
      <trkpt lat="48.96204" lon="1.9841">
        <ele>59.799999237061</ele>
        <time>2016-06-12T13:31:25.000Z</time>
      </trkpt>
      <trkpt lat="48.96208" lon="1.98423">
        <ele>59.400001525879</ele>
        <time>2016-06-12T13:31:31.000Z</time>
      </trkpt>
      <trkpt lat="48.96216" lon="1.98438">
        <ele>59</ele>
        <time>2016-06-12T13:31:36.000Z</time>
      </trkpt>
      <trkpt lat="48.96219" lon="1.98443">
        <ele>58.799999237061</ele>
        <time>2016-06-12T13:31:38.000Z</time>
      </trkpt>
      <trkpt lat="48.96224" lon="1.9845">
        <ele>58.599998474121</ele>
        <time>2016-06-12T13:31:41.000Z</time>
      </trkpt>
      <trkpt lat="48.96229" lon="1.9846">
        <ele>58.400001525879</ele>
        <time>2016-06-12T13:31:46.000Z</time>
      </trkpt>
      <trkpt lat="48.9623" lon="1.98462">
        <ele>58.200000762939</ele>
        <time>2016-06-12T13:31:47.000Z</time>
      </trkpt>
      <trkpt lat="48.96233" lon="1.98471">
        <ele>58</ele>
        <time>2016-06-12T13:31:51.000Z</time>
      </trkpt>
      <trkpt lat="48.96236" lon="1.98477">
        <ele>57.799999237061</ele>
        <time>2016-06-12T13:31:54.000Z</time>
      </trkpt>
      <trkpt lat="48.96242" lon="1.98494">
        <ele>57.200000762939</ele>
        <time>2016-06-12T13:32:01.000Z</time>
      </trkpt>
      <trkpt lat="48.9625" lon="1.98514">
        <ele>56.400001525879</ele>
        <time>2016-06-12T13:32:10.000Z</time>
      </trkpt>
      <trkpt lat="48.96257" lon="1.98528">
        <ele>55.799999237061</ele>
        <time>2016-06-12T13:32:15.000Z</time>
      </trkpt>
      <trkpt lat="48.96263" lon="1.98538">
        <ele>55.400001525879</ele>
        <time>2016-06-12T13:32:20.000Z</time>
      </trkpt>
      <trkpt lat="48.96269" lon="1.98554">
        <ele>54.799999237061</ele>
        <time>2016-06-12T13:32:28.000Z</time>
      </trkpt>
      <trkpt lat="48.96277" lon="1.98574">
        <ele>54</ele>
        <time>2016-06-12T13:32:38.000Z</time>
      </trkpt>
      <trkpt lat="48.96282" lon="1.98584">
        <ele>54</ele>
        <time>2016-06-12T13:32:44.000Z</time>
      </trkpt>
      <trkpt lat="48.96282" lon="1.98587">
        <ele>54</ele>
        <time>2016-06-12T13:32:45.000Z</time>
      </trkpt>
      <trkpt lat="48.96287" lon="1.98599">
        <ele>53.799999237061</ele>
        <time>2016-06-12T13:32:52.000Z</time>
      </trkpt>
      <trkpt lat="48.96291" lon="1.98606">
        <ele>53.599998474121</ele>
        <time>2016-06-12T13:32:58.000Z</time>
      </trkpt>
      <trkpt lat="48.96299" lon="1.98625">
        <ele>53.400001525879</ele>
        <time>2016-06-12T13:33:24.000Z</time>
      </trkpt>
      <trkpt lat="48.96303" lon="1.9863">
        <ele>53.400001525879</ele>
        <time>2016-06-12T13:33:27.000Z</time>
      </trkpt>
      <trkpt lat="48.96313" lon="1.98647">
        <ele>53.200000762939</ele>
        <time>2016-06-12T13:33:37.000Z</time>
      </trkpt>
      <trkpt lat="48.96322" lon="1.98663">
        <ele>53</ele>
        <time>2016-06-12T13:33:46.000Z</time>
      </trkpt>
      <trkpt lat="48.9633" lon="1.98676">
        <ele>53.200000762939</ele>
        <time>2016-06-12T13:33:52.000Z</time>
      </trkpt>
      <trkpt lat="48.96344" lon="1.98698">
        <ele>53.200000762939</ele>
        <time>2016-06-12T13:33:58.000Z</time>
      </trkpt>
      <trkpt lat="48.96372" lon="1.98733">
        <ele>52.799999237061</ele>
        <time>2016-06-12T13:34:07.000Z</time>
      </trkpt>
      <trkpt lat="48.96397" lon="1.98756">
        <ele>51.599998474121</ele>
        <time>2016-06-12T13:34:14.000Z</time>
      </trkpt>
      <trkpt lat="48.96423" lon="1.98788">
        <ele>49.799999237061</ele>
        <time>2016-06-12T13:34:21.000Z</time>
      </trkpt>
      <trkpt lat="48.96448" lon="1.98824">
        <ele>48.200000762939</ele>
        <time>2016-06-12T13:34:29.000Z</time>
      </trkpt>
      <trkpt lat="48.96456" lon="1.98833">
        <ele>47.599998474121</ele>
        <time>2016-06-12T13:34:32.000Z</time>
      </trkpt>
      <trkpt lat="48.96466" lon="1.98837">
        <ele>47.599998474121</ele>
        <time>2016-06-12T13:34:35.000Z</time>
      </trkpt>
      <trkpt lat="48.96469" lon="1.98838">
        <ele>47.599998474121</ele>
        <time>2016-06-12T13:34:36.000Z</time>
      </trkpt>
      <trkpt lat="48.96482" lon="1.98843">
        <ele>47.400001525879</ele>
        <time>2016-06-12T13:34:40.000Z</time>
      </trkpt>
      <trkpt lat="48.96494" lon="1.98842">
        <ele>47.799999237061</ele>
        <time>2016-06-12T13:34:44.000Z</time>
      </trkpt>
      <trkpt lat="48.96514" lon="1.98829">
        <ele>49.400001525879</ele>
        <time>2016-06-12T13:34:50.000Z</time>
      </trkpt>
      <trkpt lat="48.96535" lon="1.98814">
        <ele>49.400001525879</ele>
        <time>2016-06-12T13:34:56.000Z</time>
      </trkpt>
      <trkpt lat="48.96568" lon="1.9879">
        <ele>47.599998474121</ele>
        <time>2016-06-12T13:35:04.000Z</time>
      </trkpt>
      <trkpt lat="48.96598" lon="1.98762">
        <ele>45.799999237061</ele>
        <time>2016-06-12T13:35:12.000Z</time>
      </trkpt>
      <trkpt lat="48.96601" lon="1.98759">
        <ele>45.599998474121</ele>
        <time>2016-06-12T13:35:13.000Z</time>
      </trkpt>
      <trkpt lat="48.96618" lon="1.98737">
        <ele>45</ele>
        <time>2016-06-12T13:35:20.000Z</time>
      </trkpt>
      <trkpt lat="48.96622" lon="1.98732">
        <ele>45.200000762939</ele>
        <time>2016-06-12T13:35:24.000Z</time>
      </trkpt>
      <trkpt lat="48.96629" lon="1.98726">
        <ele>45.400001525879</ele>
        <time>2016-06-12T13:35:30.000Z</time>
      </trkpt>
      <trkpt lat="48.96634" lon="1.98725">
        <ele>45.400001525879</ele>
        <time>2016-06-12T13:35:33.000Z</time>
      </trkpt>
      <trkpt lat="48.96636" lon="1.98723">
        <ele>45.400001525879</ele>
        <time>2016-06-12T13:35:35.000Z</time>
      </trkpt>
      <trkpt lat="48.96642" lon="1.98711">
        <ele>45.799999237061</ele>
        <time>2016-06-12T13:35:41.000Z</time>
      </trkpt>
      <trkpt lat="48.96649" lon="1.98699">
        <ele>46</ele>
        <time>2016-06-12T13:35:48.000Z</time>
      </trkpt>
      <trkpt lat="48.96657" lon="1.98688">
        <ele>45.799999237061</ele>
        <time>2016-06-12T13:35:55.000Z</time>
      </trkpt>
      <trkpt lat="48.96664" lon="1.98673">
        <ele>45.599998474121</ele>
        <time>2016-06-12T13:36:02.000Z</time>
      </trkpt>
      <trkpt lat="48.96673" lon="1.98656">
        <ele>45.599998474121</ele>
        <time>2016-06-12T13:36:09.000Z</time>
      </trkpt>
      <trkpt lat="48.96684" lon="1.98629">
        <ele>45.400001525879</ele>
        <time>2016-06-12T13:36:19.000Z</time>
      </trkpt>
      <trkpt lat="48.96686" lon="1.98625">
        <ele>45.400001525879</ele>
        <time>2016-06-12T13:36:21.000Z</time>
      </trkpt>
      <trkpt lat="48.96689" lon="1.98618">
        <ele>45.200000762939</ele>
        <time>2016-06-12T13:36:24.000Z</time>
      </trkpt>
      <trkpt lat="48.9669" lon="1.98613">
        <ele>45</ele>
        <time>2016-06-12T13:36:26.000Z</time>
      </trkpt>
      <trkpt lat="48.96693" lon="1.98611">
        <ele>45</ele>
        <time>2016-06-12T13:36:28.000Z</time>
      </trkpt>
      <trkpt lat="48.96697" lon="1.98601">
        <ele>45</ele>
        <time>2016-06-12T13:36:33.000Z</time>
      </trkpt>
      <trkpt lat="48.96699" lon="1.98598">
        <ele>45</ele>
        <time>2016-06-12T13:36:35.000Z</time>
      </trkpt>
      <trkpt lat="48.96701" lon="1.98592">
        <ele>45</ele>
        <time>2016-06-12T13:36:38.000Z</time>
      </trkpt>
      <trkpt lat="48.96703" lon="1.98582">
        <ele>44.799999237061</ele>
        <time>2016-06-12T13:36:43.000Z</time>
      </trkpt>
      <trkpt lat="48.96708" lon="1.98567">
        <ele>44.599998474121</ele>
        <time>2016-06-12T13:36:50.000Z</time>
      </trkpt>
      <trkpt lat="48.96712" lon="1.98555">
        <ele>44.200000762939</ele>
        <time>2016-06-12T13:36:57.000Z</time>
      </trkpt>
      <trkpt lat="48.9672" lon="1.98543">
        <ele>44</ele>
        <time>2016-06-12T13:37:05.000Z</time>
      </trkpt>
      <trkpt lat="48.96725" lon="1.98531">
        <ele>43.599998474121</ele>
        <time>2016-06-12T13:37:11.000Z</time>
      </trkpt>
      <trkpt lat="48.96727" lon="1.98518">
        <ele>43.200000762939</ele>
        <time>2016-06-12T13:37:16.000Z</time>
      </trkpt>
      <trkpt lat="48.9673" lon="1.98508">
        <ele>42.400001525879</ele>
        <time>2016-06-12T13:37:21.000Z</time>
      </trkpt>
      <trkpt lat="48.96734" lon="1.98487">
        <ele>41.200000762939</ele>
        <time>2016-06-12T13:37:30.000Z</time>
      </trkpt>
      <trkpt lat="48.96739" lon="1.98467">
        <ele>40.200000762939</ele>
        <time>2016-06-12T13:37:39.000Z</time>
      </trkpt>
      <trkpt lat="48.96745" lon="1.98447">
        <ele>39.799999237061</ele>
        <time>2016-06-12T13:37:47.000Z</time>
      </trkpt>
      <trkpt lat="48.96749" lon="1.98438">
        <ele>40</ele>
        <time>2016-06-12T13:37:54.000Z</time>
      </trkpt>
      <trkpt lat="48.96753" lon="1.98421">
        <ele>40</ele>
        <time>2016-06-12T13:37:59.000Z</time>
      </trkpt>
      <trkpt lat="48.96762" lon="1.98409">
        <ele>40.200000762939</ele>
        <time>2016-06-12T13:38:04.000Z</time>
      </trkpt>
      <trkpt lat="48.96778" lon="1.98394">
        <ele>40.599998474121</ele>
        <time>2016-06-12T13:38:11.000Z</time>
      </trkpt>
      <trkpt lat="48.96797" lon="1.98378">
        <ele>42.200000762939</ele>
        <time>2016-06-12T13:38:18.000Z</time>
      </trkpt>
      <trkpt lat="48.96808" lon="1.98361">
        <ele>43.400001525879</ele>
        <time>2016-06-12T13:38:24.000Z</time>
      </trkpt>
      <trkpt lat="48.96817" lon="1.98349">
        <ele>44.200000762939</ele>
        <time>2016-06-12T13:38:31.000Z</time>
      </trkpt>
      <trkpt lat="48.96825" lon="1.98333">
        <ele>45.200000762939</ele>
        <time>2016-06-12T13:38:40.000Z</time>
      </trkpt>
      <trkpt lat="48.9683" lon="1.9832">
        <ele>45.799999237061</ele>
        <time>2016-06-12T13:38:47.000Z</time>
      </trkpt>
      <trkpt lat="48.96837" lon="1.98303">
        <ele>46.799999237061</ele>
        <time>2016-06-12T13:38:56.000Z</time>
      </trkpt>
      <trkpt lat="48.96842" lon="1.98291">
        <ele>47.200000762939</ele>
        <time>2016-06-12T13:39:03.000Z</time>
      </trkpt>
      <trkpt lat="48.9685" lon="1.98274">
        <ele>48</ele>
        <time>2016-06-12T13:39:12.000Z</time>
      </trkpt>
      <trkpt lat="48.96859" lon="1.98262">
        <ele>48.400001525879</ele>
        <time>2016-06-12T13:39:20.000Z</time>
      </trkpt>
      <trkpt lat="48.9687" lon="1.98246">
        <ele>48.799999237061</ele>
        <time>2016-06-12T13:39:28.000Z</time>
      </trkpt>
      <trkpt lat="48.96882" lon="1.98229">
        <ele>49.200000762939</ele>
        <time>2016-06-12T13:39:35.000Z</time>
      </trkpt>
      <trkpt lat="48.96886" lon="1.98223">
        <ele>49.400001525879</ele>
        <time>2016-06-12T13:39:42.000Z</time>
      </trkpt>
      <trkpt lat="48.9689" lon="1.98217">
        <ele>49.599998474121</ele>
        <time>2016-06-12T13:39:46.000Z</time>
      </trkpt>
      <trkpt lat="48.96896" lon="1.98207">
        <ele>49.799999237061</ele>
        <time>2016-06-12T13:39:52.000Z</time>
      </trkpt>
      <trkpt lat="48.96908" lon="1.98197">
        <ele>50</ele>
        <time>2016-06-12T13:39:58.000Z</time>
      </trkpt>
      <trkpt lat="48.9692" lon="1.98185">
        <ele>50.400001525879</ele>
        <time>2016-06-12T13:40:05.000Z</time>
      </trkpt>
      <trkpt lat="48.96925" lon="1.9818">
        <ele>50.400001525879</ele>
        <time>2016-06-12T13:40:09.000Z</time>
      </trkpt>
      <trkpt lat="48.96927" lon="1.98177">
        <ele>50.599998474121</ele>
        <time>2016-06-12T13:40:11.000Z</time>
      </trkpt>
      <trkpt lat="48.96936" lon="1.98168">
        <ele>50.799999237061</ele>
        <time>2016-06-12T13:40:17.000Z</time>
      </trkpt>
      <trkpt lat="48.9694" lon="1.98169">
        <ele>50.799999237061</ele>
        <time>2016-06-12T13:40:21.000Z</time>
      </trkpt>
      <trkpt lat="48.96942" lon="1.9817">
        <ele>50.799999237061</ele>
        <time>2016-06-12T13:40:22.000Z</time>
      </trkpt>
      <trkpt lat="48.96945" lon="1.98181">
        <ele>50.400001525879</ele>
        <time>2016-06-12T13:40:27.000Z</time>
      </trkpt>
      <trkpt lat="48.96948" lon="1.98195">
        <ele>50.200000762939</ele>
        <time>2016-06-12T13:40:33.000Z</time>
      </trkpt>
      <trkpt lat="48.96954" lon="1.98211">
        <ele>49.799999237061</ele>
        <time>2016-06-12T13:40:41.000Z</time>
      </trkpt>
      <trkpt lat="48.96959" lon="1.98229">
        <ele>49.200000762939</ele>
        <time>2016-06-12T13:40:50.000Z</time>
      </trkpt>
      <trkpt lat="48.9696" lon="1.98235">
        <ele>49.200000762939</ele>
        <time>2016-06-12T13:40:53.000Z</time>
      </trkpt>
      <trkpt lat="48.96963" lon="1.98243">
        <ele>49</ele>
        <time>2016-06-12T13:40:57.000Z</time>
      </trkpt>
      <trkpt lat="48.96968" lon="1.98257">
        <ele>48.200000762939</ele>
        <time>2016-06-12T13:41:04.000Z</time>
      </trkpt>
      <trkpt lat="48.96972" lon="1.98269">
        <ele>47.599998474121</ele>
        <time>2016-06-12T13:41:10.000Z</time>
      </trkpt>
      <trkpt lat="48.96975" lon="1.98272">
        <ele>47.599998474121</ele>
        <time>2016-06-12T13:41:13.000Z</time>
      </trkpt>
      <trkpt lat="48.96976" lon="1.98272">
        <ele>47.599998474121</ele>
        <time>2016-06-12T13:41:16.000Z</time>
      </trkpt>
      <trkpt lat="48.96979" lon="1.9829">
        <ele>46.799999237061</ele>
        <time>2016-06-12T13:41:28.000Z</time>
      </trkpt>
      <trkpt lat="48.96981" lon="1.98297">
        <ele>46.599998474121</ele>
        <time>2016-06-12T13:41:31.000Z</time>
      </trkpt>
      <trkpt lat="48.96988" lon="1.98312">
        <ele>45.799999237061</ele>
        <time>2016-06-12T13:41:39.000Z</time>
      </trkpt>
      <trkpt lat="48.96994" lon="1.98326">
        <ele>45.200000762939</ele>
        <time>2016-06-12T13:41:48.000Z</time>
      </trkpt>
      <trkpt lat="48.96999" lon="1.9833">
        <ele>45</ele>
        <time>2016-06-12T13:41:53.000Z</time>
      </trkpt>
      <trkpt lat="48.97" lon="1.98329">
        <ele>45</ele>
        <time>2016-06-12T13:41:54.000Z</time>
      </trkpt>
      <trkpt lat="48.97012" lon="1.98322">
        <ele>45.200000762939</ele>
        <time>2016-06-12T13:42:03.000Z</time>
      </trkpt>
      <trkpt lat="48.97025" lon="1.98312">
        <ele>45.599998474121</ele>
        <time>2016-06-12T13:42:13.000Z</time>
      </trkpt>
      <trkpt lat="48.97036" lon="1.98305">
        <ele>45.799999237061</ele>
        <time>2016-06-12T13:42:21.000Z</time>
      </trkpt>
      <trkpt lat="48.97044" lon="1.98297">
        <ele>46</ele>
        <time>2016-06-12T13:42:29.000Z</time>
      </trkpt>
      <trkpt lat="48.97056" lon="1.98287">
        <ele>46.400001525879</ele>
        <time>2016-06-12T13:42:38.000Z</time>
      </trkpt>
      <trkpt lat="48.97062" lon="1.98282">
        <ele>46.599998474121</ele>
        <time>2016-06-12T13:42:45.000Z</time>
      </trkpt>
      <trkpt lat="48.97073" lon="1.98275">
        <ele>46.799999237061</ele>
        <time>2016-06-12T13:43:39.000Z</time>
      </trkpt>
      <trkpt lat="48.97084" lon="1.98263">
        <ele>47.200000762939</ele>
        <time>2016-06-12T13:43:48.000Z</time>
      </trkpt>
      <trkpt lat="48.97093" lon="1.98257">
        <ele>47.400001525879</ele>
        <time>2016-06-12T13:43:55.000Z</time>
      </trkpt>
      <trkpt lat="48.97106" lon="1.98248">
        <ele>47.799999237061</ele>
        <time>2016-06-12T13:44:05.000Z</time>
      </trkpt>
      <trkpt lat="48.9711" lon="1.98246">
        <ele>47.799999237061</ele>
        <time>2016-06-12T13:44:08.000Z</time>
      </trkpt>
      <trkpt lat="48.97113" lon="1.98241">
        <ele>48</ele>
        <time>2016-06-12T13:44:11.000Z</time>
      </trkpt>
      <trkpt lat="48.97119" lon="1.9824">
        <ele>48</ele>
        <time>2016-06-12T13:44:16.000Z</time>
      </trkpt>
      <trkpt lat="48.97124" lon="1.98249">
        <ele>47.799999237061</ele>
        <time>2016-06-12T13:44:22.000Z</time>
      </trkpt>
      <trkpt lat="48.97127" lon="1.98256">
        <ele>47.400001525879</ele>
        <time>2016-06-12T13:44:26.000Z</time>
      </trkpt>
      <trkpt lat="48.9713" lon="1.98262">
        <ele>47.200000762939</ele>
        <time>2016-06-12T13:44:29.000Z</time>
      </trkpt>
      <trkpt lat="48.97137" lon="1.98275">
        <ele>46.799999237061</ele>
        <time>2016-06-12T13:44:36.000Z</time>
      </trkpt>
      <trkpt lat="48.97143" lon="1.98287">
        <ele>46.200000762939</ele>
        <time>2016-06-12T13:44:43.000Z</time>
      </trkpt>
      <trkpt lat="48.97144" lon="1.98289">
        <ele>46.200000762939</ele>
        <time>2016-06-12T13:44:44.000Z</time>
      </trkpt>
      <trkpt lat="48.9715" lon="1.98305">
        <ele>45.400001525879</ele>
        <time>2016-06-12T13:44:52.000Z</time>
      </trkpt>
      <trkpt lat="48.97156" lon="1.98319">
        <ele>44.799999237061</ele>
        <time>2016-06-12T13:44:59.000Z</time>
      </trkpt>
      <trkpt lat="48.97163" lon="1.98323">
        <ele>44.799999237061</ele>
        <time>2016-06-12T13:45:06.000Z</time>
      </trkpt>
      <trkpt lat="48.97172" lon="1.98318">
        <ele>45.200000762939</ele>
        <time>2016-06-12T13:45:14.000Z</time>
      </trkpt>
      <trkpt lat="48.97178" lon="1.98312">
        <ele>45.400001525879</ele>
        <time>2016-06-12T13:45:20.000Z</time>
      </trkpt>
      <trkpt lat="48.97183" lon="1.9831">
        <ele>45.599998474121</ele>
        <time>2016-06-12T13:45:25.000Z</time>
      </trkpt>
      <trkpt lat="48.97188" lon="1.98312">
        <ele>45.400001525879</ele>
        <time>2016-06-12T13:45:30.000Z</time>
      </trkpt>
      <trkpt lat="48.97191" lon="1.98316">
        <ele>45.400001525879</ele>
        <time>2016-06-12T13:45:33.000Z</time>
      </trkpt>
      <trkpt lat="48.97193" lon="1.9832">
        <ele>45.200000762939</ele>
        <time>2016-06-12T13:45:35.000Z</time>
      </trkpt>
      <trkpt lat="48.97196" lon="1.98338">
        <ele>44.200000762939</ele>
        <time>2016-06-12T13:45:44.000Z</time>
      </trkpt>
      <trkpt lat="48.97199" lon="1.98346">
        <ele>43.599998474121</ele>
        <time>2016-06-12T13:45:49.000Z</time>
      </trkpt>
      <trkpt lat="48.972" lon="1.9835">
        <ele>43.400001525879</ele>
        <time>2016-06-12T13:45:51.000Z</time>
      </trkpt>
      <trkpt lat="48.97201" lon="1.98364">
        <ele>42.400001525879</ele>
        <time>2016-06-12T13:45:58.000Z</time>
      </trkpt>
      <trkpt lat="48.97203" lon="1.98372">
        <ele>42</ele>
        <time>2016-06-12T13:46:02.000Z</time>
      </trkpt>
      <trkpt lat="48.97203" lon="1.98374">
        <ele>42</ele>
        <time>2016-06-12T13:46:04.000Z</time>
      </trkpt>
      <trkpt lat="48.97203" lon="1.98374">
        <ele>41.799999237061</ele>
        <time>2016-06-12T13:46:06.000Z</time>
      </trkpt>
      <trkpt lat="48.97213" lon="1.98397">
        <ele>40.400001525879</ele>
        <time>2016-06-12T13:46:24.000Z</time>
      </trkpt>
      <trkpt lat="48.97214" lon="1.98398">
        <ele>40.400001525879</ele>
        <time>2016-06-12T13:46:25.000Z</time>
      </trkpt>
      <trkpt lat="48.97221" lon="1.98402">
        <ele>40</ele>
        <time>2016-06-12T13:46:31.000Z</time>
      </trkpt>
      <trkpt lat="48.97222" lon="1.98402">
        <ele>40</ele>
        <time>2016-06-12T13:46:33.000Z</time>
      </trkpt>
      <trkpt lat="48.97236" lon="1.98399">
        <ele>40</ele>
        <time>2016-06-12T13:46:44.000Z</time>
      </trkpt>
      <trkpt lat="48.97237" lon="1.98398">
        <ele>40</ele>
        <time>2016-06-12T13:46:45.000Z</time>
      </trkpt>
      <trkpt lat="48.9725" lon="1.98392">
        <ele>40.200000762939</ele>
        <time>2016-06-12T13:46:55.000Z</time>
      </trkpt>
      <trkpt lat="48.97258" lon="1.98398">
        <ele>39.799999237061</ele>
        <time>2016-06-12T13:47:02.000Z</time>
      </trkpt>
      <trkpt lat="48.97266" lon="1.98411">
        <ele>39</ele>
        <time>2016-06-12T13:47:10.000Z</time>
      </trkpt>
      <trkpt lat="48.97275" lon="1.98425">
        <ele>38</ele>
        <time>2016-06-12T13:47:17.000Z</time>
      </trkpt>
      <trkpt lat="48.97279" lon="1.98429">
        <ele>37.599998474121</ele>
        <time>2016-06-12T13:47:20.000Z</time>
      </trkpt>
      <trkpt lat="48.9728" lon="1.98433">
        <ele>37.400001525879</ele>
        <time>2016-06-12T13:47:22.000Z</time>
      </trkpt>
      <trkpt lat="48.97285" lon="1.98445">
        <ele>36.599998474121</ele>
        <time>2016-06-12T13:47:29.000Z</time>
      </trkpt>
      <trkpt lat="48.97286" lon="1.98446">
        <ele>36.599998474121</ele>
        <time>2016-06-12T13:47:30.000Z</time>
      </trkpt>
      <trkpt lat="48.97291" lon="1.98451">
        <ele>36.200000762939</ele>
        <time>2016-06-12T13:47:34.000Z</time>
      </trkpt>
      <trkpt lat="48.97294" lon="1.98456">
        <ele>36</ele>
        <time>2016-06-12T13:47:37.000Z</time>
      </trkpt>
      <trkpt lat="48.97296" lon="1.98458">
        <ele>35.799999237061</ele>
        <time>2016-06-12T13:47:39.000Z</time>
      </trkpt>
      <trkpt lat="48.97301" lon="1.98464">
        <ele>35.400001525879</ele>
        <time>2016-06-12T13:47:45.000Z</time>
      </trkpt>
      <trkpt lat="48.97301" lon="1.98464">
        <ele>35.400001525879</ele>
        <time>2016-06-12T13:47:46.000Z</time>
      </trkpt>
      <trkpt lat="48.97301" lon="1.98464">
        <ele>35.200000762939</ele>
        <time>2016-06-12T13:47:47.000Z</time>
      </trkpt>
      <trkpt lat="48.9731" lon="1.98479">
        <ele>34.200000762939</ele>
        <time>2016-06-12T13:48:00.000Z</time>
      </trkpt>
      <trkpt lat="48.97313" lon="1.98482">
        <ele>34.200000762939</ele>
        <time>2016-06-12T13:48:02.000Z</time>
      </trkpt>
      <trkpt lat="48.97319" lon="1.98494">
        <ele>33.400001525879</ele>
        <time>2016-06-12T13:48:10.000Z</time>
      </trkpt>
      <trkpt lat="48.97325" lon="1.98506">
        <ele>32.599998474121</ele>
        <time>2016-06-12T13:48:17.000Z</time>
      </trkpt>
      <trkpt lat="48.97329" lon="1.98517">
        <ele>32.200000762939</ele>
        <time>2016-06-12T13:48:23.000Z</time>
      </trkpt>
      <trkpt lat="48.97334" lon="1.98529">
        <ele>31.39999961853</ele>
        <time>2016-06-12T13:48:29.000Z</time>
      </trkpt>
      <trkpt lat="48.9734" lon="1.98542">
        <ele>30.799999237061</ele>
        <time>2016-06-12T13:48:36.000Z</time>
      </trkpt>
      <trkpt lat="48.97342" lon="1.98545">
        <ele>30.60000038147</ele>
        <time>2016-06-12T13:48:38.000Z</time>
      </trkpt>
      <trkpt lat="48.97344" lon="1.9855">
        <ele>30.39999961853</ele>
        <time>2016-06-12T13:48:41.000Z</time>
      </trkpt>
      <trkpt lat="48.97346" lon="1.98559">
        <ele>30</ele>
        <time>2016-06-12T13:48:46.000Z</time>
      </trkpt>
      <trkpt lat="48.97351" lon="1.98564">
        <ele>29.60000038147</ele>
        <time>2016-06-12T13:48:49.000Z</time>
      </trkpt>
      <trkpt lat="48.97355" lon="1.98569">
        <ele>29.200000762939</ele>
        <time>2016-06-12T13:48:52.000Z</time>
      </trkpt>
      <trkpt lat="48.97359" lon="1.98577">
        <ele>29</ele>
        <time>2016-06-12T13:48:56.000Z</time>
      </trkpt>
      <trkpt lat="48.97364" lon="1.9859">
        <ele>28.799999237061</ele>
        <time>2016-06-12T13:49:03.000Z</time>
      </trkpt>
      <trkpt lat="48.97369" lon="1.98603">
        <ele>28.39999961853</ele>
        <time>2016-06-12T13:49:10.000Z</time>
      </trkpt>
      <trkpt lat="48.97374" lon="1.98619">
        <ele>28.200000762939</ele>
        <time>2016-06-12T13:49:18.000Z</time>
      </trkpt>
      <trkpt lat="48.97378" lon="1.98626">
        <ele>28</ele>
        <time>2016-06-12T13:49:23.000Z</time>
      </trkpt>
      <trkpt lat="48.9738" lon="1.9863">
        <ele>28</ele>
        <time>2016-06-12T13:49:25.000Z</time>
      </trkpt>
      <trkpt lat="48.97385" lon="1.98642">
        <ele>27.799999237061</ele>
        <time>2016-06-12T13:49:31.000Z</time>
      </trkpt>
      <trkpt lat="48.9739" lon="1.98656">
        <ele>27.39999961853</ele>
        <time>2016-06-12T13:49:39.000Z</time>
      </trkpt>
      <trkpt lat="48.97391" lon="1.98659">
        <ele>27.39999961853</ele>
        <time>2016-06-12T13:49:40.000Z</time>
      </trkpt>
      <trkpt lat="48.97393" lon="1.98664">
        <ele>27.200000762939</ele>
        <time>2016-06-12T13:49:43.000Z</time>
      </trkpt>
      <trkpt lat="48.97397" lon="1.98673">
        <ele>27</ele>
        <time>2016-06-12T13:49:47.000Z</time>
      </trkpt>
      <trkpt lat="48.97402" lon="1.98686">
        <ele>26.60000038147</ele>
        <time>2016-06-12T13:49:54.000Z</time>
      </trkpt>
      <trkpt lat="48.97408" lon="1.98703">
        <ele>26</ele>
        <time>2016-06-12T13:49:59.000Z</time>
      </trkpt>
      <trkpt lat="48.97422" lon="1.98733">
        <ele>25.200000762939</ele>
        <time>2016-06-12T13:50:07.000Z</time>
      </trkpt>
      <trkpt lat="48.97427" lon="1.98745">
        <ele>25</ele>
        <time>2016-06-12T13:50:12.000Z</time>
      </trkpt>
      <trkpt lat="48.97432" lon="1.98756">
        <ele>24.799999237061</ele>
        <time>2016-06-12T13:50:18.000Z</time>
      </trkpt>
      <trkpt lat="48.97433" lon="1.98758">
        <ele>24.799999237061</ele>
        <time>2016-06-12T13:50:19.000Z</time>
      </trkpt>
      <trkpt lat="48.97439" lon="1.9877">
        <ele>24.60000038147</ele>
        <time>2016-06-12T13:50:26.000Z</time>
      </trkpt>
      <trkpt lat="48.97441" lon="1.98774">
        <ele>24.60000038147</ele>
        <time>2016-06-12T13:50:28.000Z</time>
      </trkpt>
      <trkpt lat="48.97444" lon="1.98779">
        <ele>24.60000038147</ele>
        <time>2016-06-12T13:50:31.000Z</time>
      </trkpt>
      <trkpt lat="48.9745" lon="1.98792">
        <ele>24.39999961853</ele>
        <time>2016-06-12T13:50:38.000Z</time>
      </trkpt>
      <trkpt lat="48.97457" lon="1.98808">
        <ele>24.200000762939</ele>
        <time>2016-06-12T13:50:46.000Z</time>
      </trkpt>
      <trkpt lat="48.97457" lon="1.9881">
        <ele>24.200000762939</ele>
        <time>2016-06-12T13:50:47.000Z</time>
      </trkpt>
      <trkpt lat="48.97457" lon="1.98812">
        <ele>24.200000762939</ele>
        <time>2016-06-12T13:50:49.000Z</time>
      </trkpt>
      <trkpt lat="48.97457" lon="1.98813">
        <ele>24.200000762939</ele>
        <time>2016-06-12T13:50:52.000Z</time>
      </trkpt>
      <trkpt lat="48.97467" lon="1.98831">
        <ele>24</ele>
        <time>2016-06-12T13:51:05.000Z</time>
      </trkpt>
      <trkpt lat="48.97469" lon="1.98837">
        <ele>23.799999237061</ele>
        <time>2016-06-12T13:51:08.000Z</time>
      </trkpt>
      <trkpt lat="48.97471" lon="1.98843">
        <ele>23.799999237061</ele>
        <time>2016-06-12T13:51:11.000Z</time>
      </trkpt>
      <trkpt lat="48.97474" lon="1.98849">
        <ele>23.799999237061</ele>
        <time>2016-06-12T13:51:13.000Z</time>
      </trkpt>
      <trkpt lat="48.9748" lon="1.98864">
        <ele>23.60000038147</ele>
        <time>2016-06-12T13:51:19.000Z</time>
      </trkpt>
      <trkpt lat="48.97486" lon="1.98876">
        <ele>23.60000038147</ele>
        <time>2016-06-12T13:51:26.000Z</time>
      </trkpt>
      <trkpt lat="48.97492" lon="1.98886">
        <ele>23.60000038147</ele>
        <time>2016-06-12T13:51:32.000Z</time>
      </trkpt>
      <trkpt lat="48.975" lon="1.98904">
        <ele>23.799999237061</ele>
        <time>2016-06-12T13:51:43.000Z</time>
      </trkpt>
      <trkpt lat="48.97504" lon="1.98909">
        <ele>23.799999237061</ele>
        <time>2016-06-12T13:51:46.000Z</time>
      </trkpt>
      <trkpt lat="48.97505" lon="1.98912">
        <ele>23.799999237061</ele>
        <time>2016-06-12T13:51:48.000Z</time>
      </trkpt>
      <trkpt lat="48.97511" lon="1.98925">
        <ele>23.39999961853</ele>
        <time>2016-06-12T13:51:55.000Z</time>
      </trkpt>
      <trkpt lat="48.97516" lon="1.98939">
        <ele>23.200000762939</ele>
        <time>2016-06-12T13:52:04.000Z</time>
      </trkpt>
      <trkpt lat="48.97524" lon="1.98951">
        <ele>23</ele>
        <time>2016-06-12T13:52:16.000Z</time>
      </trkpt>
      <trkpt lat="48.97526" lon="1.98959">
        <ele>23</ele>
        <time>2016-06-12T13:52:19.000Z</time>
      </trkpt>
      <trkpt lat="48.97532" lon="1.9897">
        <ele>23</ele>
        <time>2016-06-12T13:52:25.000Z</time>
      </trkpt>
      <trkpt lat="48.97538" lon="1.98981">
        <ele>23</ele>
        <time>2016-06-12T13:52:32.000Z</time>
      </trkpt>
      <trkpt lat="48.97546" lon="1.99">
        <ele>23</ele>
        <time>2016-06-12T13:52:43.000Z</time>
      </trkpt>
      <trkpt lat="48.97551" lon="1.9901">
        <ele>23</ele>
        <time>2016-06-12T13:52:49.000Z</time>
      </trkpt>
      <trkpt lat="48.97558" lon="1.99024">
        <ele>23</ele>
        <time>2016-06-12T13:52:58.000Z</time>
      </trkpt>
      <trkpt lat="48.97564" lon="1.99037">
        <ele>23</ele>
        <time>2016-06-12T13:53:05.000Z</time>
      </trkpt>
      <trkpt lat="48.97566" lon="1.99036">
        <ele>23</ele>
        <time>2016-06-12T13:53:07.000Z</time>
      </trkpt>
      <trkpt lat="48.97566" lon="1.99035">
        <ele>23</ele>
        <time>2016-06-12T13:53:08.000Z</time>
      </trkpt>
      <trkpt lat="48.9757" lon="1.99034">
        <ele>23</ele>
        <time>2016-06-12T13:53:12.000Z</time>
      </trkpt>
      <trkpt lat="48.97571" lon="1.99039">
        <ele>23</ele>
        <time>2016-06-12T13:53:14.000Z</time>
      </trkpt>
      <trkpt lat="48.97575" lon="1.99055">
        <ele>23</ele>
        <time>2016-06-12T13:53:21.000Z</time>
      </trkpt>
      <trkpt lat="48.97581" lon="1.99071">
        <ele>23</ele>
        <time>2016-06-12T13:53:29.000Z</time>
      </trkpt>
      <trkpt lat="48.97585" lon="1.99078">
        <ele>23</ele>
        <time>2016-06-12T13:53:33.000Z</time>
      </trkpt>
      <trkpt lat="48.97587" lon="1.99085">
        <ele>23</ele>
        <time>2016-06-12T13:53:36.000Z</time>
      </trkpt>
      <trkpt lat="48.97596" lon="1.99101">
        <ele>23</ele>
        <time>2016-06-12T13:53:45.000Z</time>
      </trkpt>
      <trkpt lat="48.97601" lon="1.99113">
        <ele>23</ele>
        <time>2016-06-12T13:53:51.000Z</time>
      </trkpt>
      <trkpt lat="48.97607" lon="1.99128">
        <ele>23</ele>
        <time>2016-06-12T13:54:00.000Z</time>
      </trkpt>
      <trkpt lat="48.97615" lon="1.99146">
        <ele>22.799999237061</ele>
        <time>2016-06-12T13:54:09.000Z</time>
      </trkpt>
      <trkpt lat="48.97622" lon="1.99159">
        <ele>22.60000038147</ele>
        <time>2016-06-12T13:54:16.000Z</time>
      </trkpt>
      <trkpt lat="48.97632" lon="1.99181">
        <ele>22.39999961853</ele>
        <time>2016-06-12T13:54:28.000Z</time>
      </trkpt>
      <trkpt lat="48.97638" lon="1.99194">
        <ele>22.200000762939</ele>
        <time>2016-06-12T13:54:35.000Z</time>
      </trkpt>
      <trkpt lat="48.97648" lon="1.99214">
        <ele>21.60000038147</ele>
        <time>2016-06-12T13:54:46.000Z</time>
      </trkpt>
      <trkpt lat="48.97658" lon="1.99235">
        <ele>21.200000762939</ele>
        <time>2016-06-12T13:54:58.000Z</time>
      </trkpt>
      <trkpt lat="48.97665" lon="1.99251">
        <ele>20.799999237061</ele>
        <time>2016-06-12T13:55:06.000Z</time>
      </trkpt>
      <trkpt lat="48.97671" lon="1.99268">
        <ele>20.60000038147</ele>
        <time>2016-06-12T13:55:15.000Z</time>
      </trkpt>
      <trkpt lat="48.97677" lon="1.99279">
        <ele>20.60000038147</ele>
        <time>2016-06-12T13:55:21.000Z</time>
      </trkpt>
      <trkpt lat="48.97679" lon="1.99283">
        <ele>20.39999961853</ele>
        <time>2016-06-12T13:55:23.000Z</time>
      </trkpt>
      <trkpt lat="48.97685" lon="1.99297">
        <ele>20.39999961853</ele>
        <time>2016-06-12T13:55:32.000Z</time>
      </trkpt>
      <trkpt lat="48.97685" lon="1.99297">
        <ele>20.39999961853</ele>
        <time>2016-06-12T13:55:34.000Z</time>
      </trkpt>
      <trkpt lat="48.977" lon="1.99304">
        <ele>20.39999961853</ele>
        <time>2016-06-12T13:55:48.000Z</time>
      </trkpt>
      <trkpt lat="48.97702" lon="1.99302">
        <ele>20.39999961853</ele>
        <time>2016-06-12T13:55:50.000Z</time>
      </trkpt>
      <trkpt lat="48.97717" lon="1.99293">
        <ele>20.60000038147</ele>
        <time>2016-06-12T13:56:01.000Z</time>
      </trkpt>
      <trkpt lat="48.97731" lon="1.99283">
        <ele>21</ele>
        <time>2016-06-12T13:56:12.000Z</time>
      </trkpt>
      <trkpt lat="48.97748" lon="1.99273">
        <ele>21.39999961853</ele>
        <time>2016-06-12T13:56:24.000Z</time>
      </trkpt>
      <trkpt lat="48.97761" lon="1.99263">
        <ele>21.60000038147</ele>
        <time>2016-06-12T13:56:34.000Z</time>
      </trkpt>
      <trkpt lat="48.97778" lon="1.99254">
        <ele>22</ele>
        <time>2016-06-12T13:56:46.000Z</time>
      </trkpt>
      <trkpt lat="48.97788" lon="1.99247">
        <ele>22.200000762939</ele>
        <time>2016-06-12T13:56:54.000Z</time>
      </trkpt>
      <trkpt lat="48.9779" lon="1.99246">
        <ele>22.200000762939</ele>
        <time>2016-06-12T13:56:55.000Z</time>
      </trkpt>
      <trkpt lat="48.97798" lon="1.99241">
        <ele>22</ele>
        <time>2016-06-12T13:56:58.000Z</time>
      </trkpt>
      <trkpt lat="48.97804" lon="1.99241">
        <ele>22</ele>
        <time>2016-06-12T13:57:02.000Z</time>
      </trkpt>
      <trkpt lat="48.97804" lon="1.9924">
        <ele>22</ele>
        <time>2016-06-12T13:57:04.000Z</time>
      </trkpt>
      <trkpt lat="48.97816" lon="1.9923">
        <ele>22</ele>
        <time>2016-06-12T13:58:10.000Z</time>
      </trkpt>
      <trkpt lat="48.97817" lon="1.99229">
        <ele>22</ele>
        <time>2016-06-12T13:58:11.000Z</time>
      </trkpt>
      <trkpt lat="48.9783" lon="1.99219">
        <ele>22</ele>
        <time>2016-06-12T13:58:21.000Z</time>
      </trkpt>
      <trkpt lat="48.97841" lon="1.99212">
        <ele>21.799999237061</ele>
        <time>2016-06-12T13:58:29.000Z</time>
      </trkpt>
      <trkpt lat="48.97845" lon="1.99209">
        <ele>21.799999237061</ele>
        <time>2016-06-12T13:58:32.000Z</time>
      </trkpt>
      <trkpt lat="48.9785" lon="1.99205">
        <ele>21.60000038147</ele>
        <time>2016-06-12T13:58:36.000Z</time>
      </trkpt>
      <trkpt lat="48.97862" lon="1.99199">
        <ele>21.60000038147</ele>
        <time>2016-06-12T13:58:44.000Z</time>
      </trkpt>
      <trkpt lat="48.9787" lon="1.99194">
        <ele>21.60000038147</ele>
        <time>2016-06-12T13:58:50.000Z</time>
      </trkpt>
      <trkpt lat="48.9788" lon="1.99186">
        <ele>21.60000038147</ele>
        <time>2016-06-12T13:58:58.000Z</time>
      </trkpt>
      <trkpt lat="48.9789" lon="1.99179">
        <ele>22</ele>
        <time>2016-06-12T13:59:07.000Z</time>
      </trkpt>
      <trkpt lat="48.97897" lon="1.99178">
        <ele>22.200000762939</ele>
        <time>2016-06-12T13:59:13.000Z</time>
      </trkpt>
      <trkpt lat="48.97905" lon="1.99176">
        <ele>22.39999961853</ele>
        <time>2016-06-12T13:59:20.000Z</time>
      </trkpt>
      <trkpt lat="48.97906" lon="1.99177">
        <ele>22.60000038147</ele>
        <time>2016-06-12T13:59:21.000Z</time>
      </trkpt>
      <trkpt lat="48.9791" lon="1.99181">
        <ele>22.60000038147</ele>
        <time>2016-06-12T13:59:25.000Z</time>
      </trkpt>
      <trkpt lat="48.97913" lon="1.99198">
        <ele>22.60000038147</ele>
        <time>2016-06-12T13:59:33.000Z</time>
      </trkpt>
      <trkpt lat="48.97917" lon="1.99214">
        <ele>22.39999961853</ele>
        <time>2016-06-12T13:59:41.000Z</time>
      </trkpt>
      <trkpt lat="48.97923" lon="1.9923">
        <ele>22.60000038147</ele>
        <time>2016-06-12T13:59:49.000Z</time>
      </trkpt>
      <trkpt lat="48.97929" lon="1.99252">
        <ele>22.799999237061</ele>
        <time>2016-06-12T14:00:00.000Z</time>
      </trkpt>
      <trkpt lat="48.97935" lon="1.99265">
        <ele>23</ele>
        <time>2016-06-12T14:00:07.000Z</time>
      </trkpt>
      <trkpt lat="48.97942" lon="1.99281">
        <ele>23</ele>
        <time>2016-06-12T14:00:16.000Z</time>
      </trkpt>
      <trkpt lat="48.97944" lon="1.99283">
        <ele>23</ele>
        <time>2016-06-12T14:00:18.000Z</time>
      </trkpt>
      <trkpt lat="48.97945" lon="1.99283">
        <ele>22.799999237061</ele>
        <time>2016-06-12T14:00:21.000Z</time>
      </trkpt>
      <trkpt lat="48.97945" lon="1.99283">
        <ele>22.799999237061</ele>
        <time>2016-06-12T14:00:22.000Z</time>
      </trkpt>
      <trkpt lat="48.97948" lon="1.99305">
        <ele>22.799999237061</ele>
        <time>2016-06-12T14:01:15.000Z</time>
      </trkpt>
      <trkpt lat="48.97949" lon="1.99311">
        <ele>22.799999237061</ele>
        <time>2016-06-12T14:01:18.000Z</time>
      </trkpt>
      <trkpt lat="48.97952" lon="1.99324">
        <ele>22.60000038147</ele>
        <time>2016-06-12T14:01:25.000Z</time>
      </trkpt>
      <trkpt lat="48.97954" lon="1.99339">
        <ele>22.60000038147</ele>
        <time>2016-06-12T14:01:32.000Z</time>
      </trkpt>
      <trkpt lat="48.97956" lon="1.99352">
        <ele>22.39999961853</ele>
        <time>2016-06-12T14:01:38.000Z</time>
      </trkpt>
      <trkpt lat="48.97959" lon="1.99362">
        <ele>22.39999961853</ele>
        <time>2016-06-12T14:01:43.000Z</time>
      </trkpt>
      <trkpt lat="48.97964" lon="1.99379">
        <ele>22.200000762939</ele>
        <time>2016-06-12T14:01:51.000Z</time>
      </trkpt>
      <trkpt lat="48.9797" lon="1.99406">
        <ele>22</ele>
        <time>2016-06-12T14:02:03.000Z</time>
      </trkpt>
      <trkpt lat="48.97975" lon="1.99425">
        <ele>22.39999961853</ele>
        <time>2016-06-12T14:02:12.000Z</time>
      </trkpt>
      <trkpt lat="48.97981" lon="1.99447">
        <ele>23</ele>
        <time>2016-06-12T14:02:23.000Z</time>
      </trkpt>
      <trkpt lat="48.97984" lon="1.99453">
        <ele>23</ele>
        <time>2016-06-12T14:02:27.000Z</time>
      </trkpt>
      <trkpt lat="48.97985" lon="1.99453">
        <ele>23</ele>
        <time>2016-06-12T14:02:28.000Z</time>
      </trkpt>
      <trkpt lat="48.97991" lon="1.99453">
        <ele>22.799999237061</ele>
        <time>2016-06-12T14:02:31.000Z</time>
      </trkpt>
      <trkpt lat="48.97994" lon="1.99454">
        <ele>22.799999237061</ele>
        <time>2016-06-12T14:02:32.000Z</time>
      </trkpt>
      <trkpt lat="48.98004" lon="1.99457">
        <ele>22.60000038147</ele>
        <time>2016-06-12T14:02:36.000Z</time>
      </trkpt>
      <trkpt lat="48.98013" lon="1.99456">
        <ele>22.200000762939</ele>
        <time>2016-06-12T14:02:42.000Z</time>
      </trkpt>
      <trkpt lat="48.98019" lon="1.99452">
        <ele>21.799999237061</ele>
        <time>2016-06-12T14:02:47.000Z</time>
      </trkpt>
      <trkpt lat="48.98022" lon="1.9945">
        <ele>21.60000038147</ele>
        <time>2016-06-12T14:02:49.000Z</time>
      </trkpt>
      <trkpt lat="48.98027" lon="1.99446">
        <ele>21.39999961853</ele>
        <time>2016-06-12T14:02:53.000Z</time>
      </trkpt>
      <trkpt lat="48.98032" lon="1.9944">
        <ele>21.200000762939</ele>
        <time>2016-06-12T14:02:57.000Z</time>
      </trkpt>
      <trkpt lat="48.98035" lon="1.99437">
        <ele>21</ele>
        <time>2016-06-12T14:03:00.000Z</time>
      </trkpt>
      <trkpt lat="48.98037" lon="1.99434">
        <ele>21</ele>
        <time>2016-06-12T14:03:02.000Z</time>
      </trkpt>
      <trkpt lat="48.98041" lon="1.99427">
        <ele>20.60000038147</ele>
        <time>2016-06-12T14:03:06.000Z</time>
      </trkpt>
      <trkpt lat="48.98043" lon="1.99424">
        <ele>20.60000038147</ele>
        <time>2016-06-12T14:03:08.000Z</time>
      </trkpt>
      <trkpt lat="48.98044" lon="1.99421">
        <ele>20.799999237061</ele>
        <time>2016-06-12T14:03:13.000Z</time>
      </trkpt>
      <trkpt lat="48.98051" lon="1.99415">
        <ele>21</ele>
        <time>2016-06-12T14:03:20.000Z</time>
      </trkpt>
      <trkpt lat="48.98059" lon="1.99409">
        <ele>21.200000762939</ele>
        <time>2016-06-12T14:03:26.000Z</time>
      </trkpt>
      <trkpt lat="48.98065" lon="1.99403">
        <ele>21.39999961853</ele>
        <time>2016-06-12T14:03:31.000Z</time>
      </trkpt>
      <trkpt lat="48.98066" lon="1.99401">
        <ele>21.39999961853</ele>
        <time>2016-06-12T14:03:32.000Z</time>
      </trkpt>
      <trkpt lat="48.98077" lon="1.99388">
        <ele>21.799999237061</ele>
        <time>2016-06-12T14:03:40.000Z</time>
      </trkpt>
      <trkpt lat="48.98087" lon="1.99379">
        <ele>22</ele>
        <time>2016-06-12T14:03:46.000Z</time>
      </trkpt>
      <trkpt lat="48.98093" lon="1.99373">
        <ele>21.799999237061</ele>
        <time>2016-06-12T14:03:51.000Z</time>
      </trkpt>
      <trkpt lat="48.98105" lon="1.99368">
        <ele>21.60000038147</ele>
        <time>2016-06-12T14:03:59.000Z</time>
      </trkpt>
      <trkpt lat="48.98117" lon="1.99363">
        <ele>21.200000762939</ele>
        <time>2016-06-12T14:04:04.000Z</time>
      </trkpt>
      <trkpt lat="48.98133" lon="1.99354">
        <ele>20.39999961853</ele>
        <time>2016-06-12T14:04:11.000Z</time>
      </trkpt>
      <trkpt lat="48.98138" lon="1.99351">
        <ele>20.200000762939</ele>
        <time>2016-06-12T14:04:16.000Z</time>
      </trkpt>
      <trkpt lat="48.98138" lon="1.9935">
        <ele>20.200000762939</ele>
        <time>2016-06-12T14:04:18.000Z</time>
      </trkpt>
      <trkpt lat="48.98146" lon="1.9935">
        <ele>20</ele>
        <time>2016-06-12T14:04:27.000Z</time>
      </trkpt>
      <trkpt lat="48.98153" lon="1.9935">
        <ele>19.799999237061</ele>
        <time>2016-06-12T14:04:30.000Z</time>
      </trkpt>
      <trkpt lat="48.98155" lon="1.99349">
        <ele>19.799999237061</ele>
        <time>2016-06-12T14:04:31.000Z</time>
      </trkpt>
      <trkpt lat="48.9816" lon="1.99346">
        <ele>19.60000038147</ele>
        <time>2016-06-12T14:04:33.000Z</time>
      </trkpt>
      <trkpt lat="48.98184" lon="1.99327">
        <ele>18.200000762939</ele>
        <time>2016-06-12T14:04:40.000Z</time>
      </trkpt>
      <trkpt lat="48.98212" lon="1.99298">
        <ele>19.200000762939</ele>
        <time>2016-06-12T14:04:47.000Z</time>
      </trkpt>
      <trkpt lat="48.98219" lon="1.99288">
        <ele>19.60000038147</ele>
        <time>2016-06-12T14:04:49.000Z</time>
      </trkpt>
      <trkpt lat="48.98238" lon="1.99256">
        <ele>20.39999961853</ele>
        <time>2016-06-12T14:04:55.000Z</time>
      </trkpt>
      <trkpt lat="48.98241" lon="1.99251">
        <ele>20.39999961853</ele>
        <time>2016-06-12T14:04:56.000Z</time>
      </trkpt>
      <trkpt lat="48.98249" lon="1.99241">
        <ele>20.60000038147</ele>
        <time>2016-06-12T14:04:59.000Z</time>
      </trkpt>
      <trkpt lat="48.98254" lon="1.99238">
        <ele>20.799999237061</ele>
        <time>2016-06-12T14:05:01.000Z</time>
      </trkpt>
      <trkpt lat="48.98256" lon="1.99237">
        <ele>20.799999237061</ele>
        <time>2016-06-12T14:05:03.000Z</time>
      </trkpt>
      <trkpt lat="48.98254" lon="1.99234">
        <ele>20.799999237061</ele>
        <time>2016-06-12T14:05:04.000Z</time>
      </trkpt>
      <trkpt lat="48.98248" lon="1.99224">
        <ele>20.60000038147</ele>
        <time>2016-06-12T14:05:10.000Z</time>
      </trkpt>
      <trkpt lat="48.98246" lon="1.99218">
        <ele>20.60000038147</ele>
        <time>2016-06-12T14:05:13.000Z</time>
      </trkpt>
      <trkpt lat="48.98247" lon="1.99216">
        <ele>20.60000038147</ele>
        <time>2016-06-12T14:05:14.000Z</time>
      </trkpt>
      <trkpt lat="48.98249" lon="1.99212">
        <ele>20.799999237061</ele>
        <time>2016-06-12T14:05:16.000Z</time>
      </trkpt>
      <trkpt lat="48.98249" lon="1.99211">
        <ele>20.799999237061</ele>
        <time>2016-06-12T14:05:17.000Z</time>
      </trkpt>
      <trkpt lat="48.98249" lon="1.99207">
        <ele>20.799999237061</ele>
        <time>2016-06-12T14:05:21.000Z</time>
      </trkpt>
      <trkpt lat="48.98249" lon="1.99207">
        <ele>21</ele>
        <time>2016-06-12T14:05:23.000Z</time>
      </trkpt>
      <trkpt lat="48.9827" lon="1.99185">
        <ele>22.200000762939</ele>
        <time>2016-06-12T14:05:53.000Z</time>
      </trkpt>
      <trkpt lat="48.98271" lon="1.99185">
        <ele>22.200000762939</ele>
        <time>2016-06-12T14:05:54.000Z</time>
      </trkpt>
      <trkpt lat="48.98278" lon="1.99191">
        <ele>22.200000762939</ele>
        <time>2016-06-12T14:06:00.000Z</time>
      </trkpt>
      <trkpt lat="48.98286" lon="1.99201">
        <ele>22.200000762939</ele>
        <time>2016-06-12T14:06:07.000Z</time>
      </trkpt>
      <trkpt lat="48.98298" lon="1.99201">
        <ele>22.200000762939</ele>
        <time>2016-06-12T14:06:15.000Z</time>
      </trkpt>
      <trkpt lat="48.98308" lon="1.99197">
        <ele>22.39999961853</ele>
        <time>2016-06-12T14:06:23.000Z</time>
      </trkpt>
      <trkpt lat="48.98321" lon="1.99184">
        <ele>23</ele>
        <time>2016-06-12T14:06:32.000Z</time>
      </trkpt>
      <trkpt lat="48.9833" lon="1.99175">
        <ele>23.200000762939</ele>
        <time>2016-06-12T14:06:39.000Z</time>
      </trkpt>
      <trkpt lat="48.98331" lon="1.99174">
        <ele>23.39999961853</ele>
        <time>2016-06-12T14:06:41.000Z</time>
      </trkpt>
      <trkpt lat="48.98335" lon="1.99171">
        <ele>23.39999961853</ele>
        <time>2016-06-12T14:06:44.000Z</time>
      </trkpt>
      <trkpt lat="48.98342" lon="1.99159">
        <ele>23.799999237061</ele>
        <time>2016-06-12T14:06:53.000Z</time>
      </trkpt>
      <trkpt lat="48.98345" lon="1.99149">
        <ele>23.60000038147</ele>
        <time>2016-06-12T14:06:59.000Z</time>
      </trkpt>
      <trkpt lat="48.98351" lon="1.99142">
        <ele>23.39999961853</ele>
        <time>2016-06-12T14:07:03.000Z</time>
      </trkpt>
      <trkpt lat="48.98351" lon="1.99141">
        <ele>23.39999961853</ele>
        <time>2016-06-12T14:07:04.000Z</time>
      </trkpt>
      <trkpt lat="48.98356" lon="1.99137">
        <ele>23.39999961853</ele>
        <time>2016-06-12T14:07:08.000Z</time>
      </trkpt>
      <trkpt lat="48.98357" lon="1.99134">
        <ele>23.39999961853</ele>
        <time>2016-06-12T14:07:09.000Z</time>
      </trkpt>
      <trkpt lat="48.98367" lon="1.99122">
        <ele>23.200000762939</ele>
        <time>2016-06-12T14:07:18.000Z</time>
      </trkpt>
      <trkpt lat="48.98373" lon="1.99116">
        <ele>23.200000762939</ele>
        <time>2016-06-12T14:07:22.000Z</time>
      </trkpt>
      <trkpt lat="48.98376" lon="1.99113">
        <ele>23.200000762939</ele>
        <time>2016-06-12T14:07:24.000Z</time>
      </trkpt>
      <trkpt lat="48.9838" lon="1.99108">
        <ele>23</ele>
        <time>2016-06-12T14:07:28.000Z</time>
      </trkpt>
      <trkpt lat="48.98381" lon="1.99106">
        <ele>23</ele>
        <time>2016-06-12T14:07:29.000Z</time>
      </trkpt>
      <trkpt lat="48.98386" lon="1.99098">
        <ele>23</ele>
        <time>2016-06-12T14:07:35.000Z</time>
      </trkpt>
      <trkpt lat="48.98392" lon="1.99088">
        <ele>23</ele>
        <time>2016-06-12T14:07:41.000Z</time>
      </trkpt>
      <trkpt lat="48.98395" lon="1.99086">
        <ele>23</ele>
        <time>2016-06-12T14:07:43.000Z</time>
      </trkpt>
      <trkpt lat="48.98402" lon="1.99076">
        <ele>23</ele>
        <time>2016-06-12T14:07:49.000Z</time>
      </trkpt>
      <trkpt lat="48.98406" lon="1.99071">
        <ele>23</ele>
        <time>2016-06-12T14:07:52.000Z</time>
      </trkpt>
      <trkpt lat="48.98408" lon="1.99067">
        <ele>23</ele>
        <time>2016-06-12T14:07:54.000Z</time>
      </trkpt>
      <trkpt lat="48.98416" lon="1.99059">
        <ele>23</ele>
        <time>2016-06-12T14:07:58.000Z</time>
      </trkpt>
      <trkpt lat="48.98418" lon="1.99058">
        <ele>23</ele>
        <time>2016-06-12T14:07:59.000Z</time>
      </trkpt>
      <trkpt lat="48.9842" lon="1.99056">
        <ele>23</ele>
        <time>2016-06-12T14:08:00.000Z</time>
      </trkpt>
      <trkpt lat="48.98424" lon="1.9905">
        <ele>23</ele>
        <time>2016-06-12T14:08:04.000Z</time>
      </trkpt>
      <trkpt lat="48.9843" lon="1.99044">
        <ele>23</ele>
        <time>2016-06-12T14:08:08.000Z</time>
      </trkpt>
      <trkpt lat="48.98435" lon="1.99038">
        <ele>23</ele>
        <time>2016-06-12T14:08:12.000Z</time>
      </trkpt>
      <trkpt lat="48.98435" lon="1.99037">
        <ele>23</ele>
        <time>2016-06-12T14:08:13.000Z</time>
      </trkpt>
      <trkpt lat="48.98437" lon="1.99035">
        <ele>23</ele>
        <time>2016-06-12T14:08:14.000Z</time>
      </trkpt>
      <trkpt lat="48.9844" lon="1.99029">
        <ele>22.799999237061</ele>
        <time>2016-06-12T14:08:17.000Z</time>
      </trkpt>
      <trkpt lat="48.98444" lon="1.99022">
        <ele>22.799999237061</ele>
        <time>2016-06-12T14:08:22.000Z</time>
      </trkpt>
      <trkpt lat="48.98446" lon="1.9902">
        <ele>22.799999237061</ele>
        <time>2016-06-12T14:08:24.000Z</time>
      </trkpt>
      <trkpt lat="48.98451" lon="1.99015">
        <ele>22.799999237061</ele>
        <time>2016-06-12T14:08:28.000Z</time>
      </trkpt>
      <trkpt lat="48.98452" lon="1.99012">
        <ele>22.799999237061</ele>
        <time>2016-06-12T14:08:29.000Z</time>
      </trkpt>
      <trkpt lat="48.98453" lon="1.99009">
        <ele>22.799999237061</ele>
        <time>2016-06-12T14:08:30.000Z</time>
      </trkpt>
      <trkpt lat="48.98456" lon="1.99003">
        <ele>22.60000038147</ele>
        <time>2016-06-12T14:08:33.000Z</time>
      </trkpt>
      <trkpt lat="48.98457" lon="1.98998">
        <ele>22.60000038147</ele>
        <time>2016-06-12T14:08:35.000Z</time>
      </trkpt>
      <trkpt lat="48.98459" lon="1.98992">
        <ele>22.60000038147</ele>
        <time>2016-06-12T14:08:38.000Z</time>
      </trkpt>
      <trkpt lat="48.98463" lon="1.98981">
        <ele>22.60000038147</ele>
        <time>2016-06-12T14:08:44.000Z</time>
      </trkpt>
      <trkpt lat="48.98467" lon="1.98971">
        <ele>22.39999961853</ele>
        <time>2016-06-12T14:08:50.000Z</time>
      </trkpt>
      <trkpt lat="48.98468" lon="1.98966">
        <ele>22.39999961853</ele>
        <time>2016-06-12T14:08:53.000Z</time>
      </trkpt>
      <trkpt lat="48.98471" lon="1.98958">
        <ele>22.200000762939</ele>
        <time>2016-06-12T14:08:57.000Z</time>
      </trkpt>
      <trkpt lat="48.98472" lon="1.98954">
        <ele>22.200000762939</ele>
        <time>2016-06-12T14:08:59.000Z</time>
      </trkpt>
      <trkpt lat="48.98474" lon="1.98947">
        <ele>22</ele>
        <time>2016-06-12T14:09:02.000Z</time>
      </trkpt>
      <trkpt lat="48.98475" lon="1.98944">
        <ele>22</ele>
        <time>2016-06-12T14:09:04.000Z</time>
      </trkpt>
      <trkpt lat="48.98479" lon="1.98938">
        <ele>22.200000762939</ele>
        <time>2016-06-12T14:09:08.000Z</time>
      </trkpt>
      <trkpt lat="48.98481" lon="1.98937">
        <ele>22.39999961853</ele>
        <time>2016-06-12T14:09:09.000Z</time>
      </trkpt>
      <trkpt lat="48.98484" lon="1.98932">
        <ele>22.60000038147</ele>
        <time>2016-06-12T14:09:13.000Z</time>
      </trkpt>
      <trkpt lat="48.98486" lon="1.98927">
        <ele>22.60000038147</ele>
        <time>2016-06-12T14:09:15.000Z</time>
      </trkpt>
      <trkpt lat="48.9849" lon="1.98923">
        <ele>23</ele>
        <time>2016-06-12T14:09:19.000Z</time>
      </trkpt>
      <trkpt lat="48.98491" lon="1.9892">
        <ele>23</ele>
        <time>2016-06-12T14:09:21.000Z</time>
      </trkpt>
      <trkpt lat="48.98493" lon="1.98909">
        <ele>23.200000762939</ele>
        <time>2016-06-12T14:09:27.000Z</time>
      </trkpt>
      <trkpt lat="48.98494" lon="1.98908">
        <ele>23.200000762939</ele>
        <time>2016-06-12T14:09:28.000Z</time>
      </trkpt>
      <trkpt lat="48.98495" lon="1.98905">
        <ele>23.200000762939</ele>
        <time>2016-06-12T14:09:29.000Z</time>
      </trkpt>
      <trkpt lat="48.98497" lon="1.98892">
        <ele>23.39999961853</ele>
        <time>2016-06-12T14:09:34.000Z</time>
      </trkpt>
      <trkpt lat="48.98502" lon="1.98882">
        <ele>23.60000038147</ele>
        <time>2016-06-12T14:09:39.000Z</time>
      </trkpt>
      <trkpt lat="48.98502" lon="1.98881">
        <ele>23.60000038147</ele>
        <time>2016-06-12T14:09:40.000Z</time>
      </trkpt>
      <trkpt lat="48.98505" lon="1.98875">
        <ele>23.39999961853</ele>
        <time>2016-06-12T14:09:42.000Z</time>
      </trkpt>
      <trkpt lat="48.98506" lon="1.98871">
        <ele>23.39999961853</ele>
        <time>2016-06-12T14:09:44.000Z</time>
      </trkpt>
      <trkpt lat="48.98507" lon="1.98869">
        <ele>23.39999961853</ele>
        <time>2016-06-12T14:09:45.000Z</time>
      </trkpt>
      <trkpt lat="48.98512" lon="1.98859">
        <ele>23.39999961853</ele>
        <time>2016-06-12T14:09:50.000Z</time>
      </trkpt>
      <trkpt lat="48.98515" lon="1.98851">
        <ele>23.39999961853</ele>
        <time>2016-06-12T14:09:54.000Z</time>
      </trkpt>
      <trkpt lat="48.98517" lon="1.98849">
        <ele>23.39999961853</ele>
        <time>2016-06-12T14:09:56.000Z</time>
      </trkpt>
      <trkpt lat="48.9852" lon="1.98848">
        <ele>23.39999961853</ele>
        <time>2016-06-12T14:09:58.000Z</time>
      </trkpt>
      <trkpt lat="48.98523" lon="1.98844">
        <ele>23.39999961853</ele>
        <time>2016-06-12T14:10:00.000Z</time>
      </trkpt>
      <trkpt lat="48.98526" lon="1.9884">
        <ele>23.39999961853</ele>
        <time>2016-06-12T14:10:03.000Z</time>
      </trkpt>
      <trkpt lat="48.98531" lon="1.98831">
        <ele>23.39999961853</ele>
        <time>2016-06-12T14:10:08.000Z</time>
      </trkpt>
      <trkpt lat="48.98536" lon="1.98822">
        <ele>23.39999961853</ele>
        <time>2016-06-12T14:10:14.000Z</time>
      </trkpt>
      <trkpt lat="48.98537" lon="1.9882">
        <ele>23.200000762939</ele>
        <time>2016-06-12T14:10:15.000Z</time>
      </trkpt>
      <trkpt lat="48.98542" lon="1.98817">
        <ele>23.39999961853</ele>
        <time>2016-06-12T14:10:19.000Z</time>
      </trkpt>
      <trkpt lat="48.98543" lon="1.98815">
        <ele>23.39999961853</ele>
        <time>2016-06-12T14:10:20.000Z</time>
      </trkpt>
      <trkpt lat="48.9855" lon="1.98805">
        <ele>23.200000762939</ele>
        <time>2016-06-12T14:10:26.000Z</time>
      </trkpt>
      <trkpt lat="48.98558" lon="1.98792">
        <ele>23</ele>
        <time>2016-06-12T14:10:33.000Z</time>
      </trkpt>
      <trkpt lat="48.98559" lon="1.9879">
        <ele>23</ele>
        <time>2016-06-12T14:10:34.000Z</time>
      </trkpt>
      <trkpt lat="48.98563" lon="1.98782">
        <ele>22.799999237061</ele>
        <time>2016-06-12T14:10:38.000Z</time>
      </trkpt>
      <trkpt lat="48.98567" lon="1.98775">
        <ele>22.799999237061</ele>
        <time>2016-06-12T14:10:42.000Z</time>
      </trkpt>
      <trkpt lat="48.98576" lon="1.98764">
        <ele>23</ele>
        <time>2016-06-12T14:10:49.000Z</time>
      </trkpt>
      <trkpt lat="48.98582" lon="1.98758">
        <ele>23.200000762939</ele>
        <time>2016-06-12T14:10:55.000Z</time>
      </trkpt>
      <trkpt lat="48.98587" lon="1.98752">
        <ele>23.200000762939</ele>
        <time>2016-06-12T14:10:59.000Z</time>
      </trkpt>
      <trkpt lat="48.9859" lon="1.98748">
        <ele>23.200000762939</ele>
        <time>2016-06-12T14:11:02.000Z</time>
      </trkpt>
      <trkpt lat="48.98593" lon="1.98744">
        <ele>23.39999961853</ele>
        <time>2016-06-12T14:11:04.000Z</time>
      </trkpt>
      <trkpt lat="48.98597" lon="1.98738">
        <ele>23.39999961853</ele>
        <time>2016-06-12T14:11:08.000Z</time>
      </trkpt>
      <trkpt lat="48.98602" lon="1.9873">
        <ele>23.39999961853</ele>
        <time>2016-06-12T14:11:12.000Z</time>
      </trkpt>
      <trkpt lat="48.98603" lon="1.98729">
        <ele>23.39999961853</ele>
        <time>2016-06-12T14:11:13.000Z</time>
      </trkpt>
      <trkpt lat="48.9861" lon="1.98718">
        <ele>23</ele>
        <time>2016-06-12T14:11:19.000Z</time>
      </trkpt>
      <trkpt lat="48.98616" lon="1.98708">
        <ele>22.60000038147</ele>
        <time>2016-06-12T14:11:25.000Z</time>
      </trkpt>
      <trkpt lat="48.98622" lon="1.98698">
        <ele>22.39999961853</ele>
        <time>2016-06-12T14:11:31.000Z</time>
      </trkpt>
      <trkpt lat="48.98627" lon="1.98688">
        <ele>22.200000762939</ele>
        <time>2016-06-12T14:11:37.000Z</time>
      </trkpt>
      <trkpt lat="48.98628" lon="1.98687">
        <ele>22</ele>
        <time>2016-06-12T14:11:38.000Z</time>
      </trkpt>
      <trkpt lat="48.98631" lon="1.98679">
        <ele>21.799999237061</ele>
        <time>2016-06-12T14:11:42.000Z</time>
      </trkpt>
      <trkpt lat="48.98632" lon="1.98678">
        <ele>21.799999237061</ele>
        <time>2016-06-12T14:11:43.000Z</time>
      </trkpt>
      <trkpt lat="48.98634" lon="1.98673">
        <ele>21.799999237061</ele>
        <time>2016-06-12T14:11:46.000Z</time>
      </trkpt>
      <trkpt lat="48.98637" lon="1.98668">
        <ele>21.799999237061</ele>
        <time>2016-06-12T14:11:49.000Z</time>
      </trkpt>
      <trkpt lat="48.98642" lon="1.98663">
        <ele>21.799999237061</ele>
        <time>2016-06-12T14:11:54.000Z</time>
      </trkpt>
      <trkpt lat="48.98647" lon="1.9866">
        <ele>22</ele>
        <time>2016-06-12T14:11:58.000Z</time>
      </trkpt>
      <trkpt lat="48.98649" lon="1.98658">
        <ele>22</ele>
        <time>2016-06-12T14:11:59.000Z</time>
      </trkpt>
      <trkpt lat="48.98651" lon="1.98657">
        <ele>22</ele>
        <time>2016-06-12T14:12:01.000Z</time>
      </trkpt>
      <trkpt lat="48.98654" lon="1.98654">
        <ele>22.200000762939</ele>
        <time>2016-06-12T14:12:04.000Z</time>
      </trkpt>
      <trkpt lat="48.98655" lon="1.98652">
        <ele>22.200000762939</ele>
        <time>2016-06-12T14:12:05.000Z</time>
      </trkpt>
      <trkpt lat="48.98658" lon="1.98648">
        <ele>22.39999961853</ele>
        <time>2016-06-12T14:12:08.000Z</time>
      </trkpt>
      <trkpt lat="48.9866" lon="1.98647">
        <ele>22.39999961853</ele>
        <time>2016-06-12T14:12:09.000Z</time>
      </trkpt>
      <trkpt lat="48.98664" lon="1.98643">
        <ele>22.60000038147</ele>
        <time>2016-06-12T14:12:13.000Z</time>
      </trkpt>
      <trkpt lat="48.98667" lon="1.98641">
        <ele>22.799999237061</ele>
        <time>2016-06-12T14:12:15.000Z</time>
      </trkpt>
      <trkpt lat="48.98674" lon="1.98632">
        <ele>23</ele>
        <time>2016-06-12T14:12:21.000Z</time>
      </trkpt>
      <trkpt lat="48.98679" lon="1.98625">
        <ele>23.200000762939</ele>
        <time>2016-06-12T14:12:25.000Z</time>
      </trkpt>
      <trkpt lat="48.9868" lon="1.98624">
        <ele>23.200000762939</ele>
        <time>2016-06-12T14:12:26.000Z</time>
      </trkpt>
      <trkpt lat="48.98686" lon="1.98609">
        <ele>23.200000762939</ele>
        <time>2016-06-12T14:12:34.000Z</time>
      </trkpt>
      <trkpt lat="48.98688" lon="1.98606">
        <ele>23.200000762939</ele>
        <time>2016-06-12T14:12:38.000Z</time>
      </trkpt>
      <trkpt lat="48.98692" lon="1.98594">
        <ele>23.200000762939</ele>
        <time>2016-06-12T14:12:45.000Z</time>
      </trkpt>
      <trkpt lat="48.98695" lon="1.98583">
        <ele>23.200000762939</ele>
        <time>2016-06-12T14:12:50.000Z</time>
      </trkpt>
      <trkpt lat="48.98696" lon="1.98581">
        <ele>23.200000762939</ele>
        <time>2016-06-12T14:12:51.000Z</time>
      </trkpt>
      <trkpt lat="48.98697" lon="1.98579">
        <ele>23.200000762939</ele>
        <time>2016-06-12T14:12:52.000Z</time>
      </trkpt>
      <trkpt lat="48.98702" lon="1.98571">
        <ele>23</ele>
        <time>2016-06-12T14:12:57.000Z</time>
      </trkpt>
      <trkpt lat="48.98709" lon="1.98564">
        <ele>22.799999237061</ele>
        <time>2016-06-12T14:13:03.000Z</time>
      </trkpt>
      <trkpt lat="48.98711" lon="1.98561">
        <ele>22.799999237061</ele>
        <time>2016-06-12T14:13:05.000Z</time>
      </trkpt>
      <trkpt lat="48.98714" lon="1.98558">
        <ele>22.60000038147</ele>
        <time>2016-06-12T14:13:07.000Z</time>
      </trkpt>
      <trkpt lat="48.98717" lon="1.9855">
        <ele>22.39999961853</ele>
        <time>2016-06-12T14:13:11.000Z</time>
      </trkpt>
      <trkpt lat="48.98725" lon="1.9854">
        <ele>22.200000762939</ele>
        <time>2016-06-12T14:13:18.000Z</time>
      </trkpt>
      <trkpt lat="48.98726" lon="1.98538">
        <ele>22.200000762939</ele>
        <time>2016-06-12T14:13:19.000Z</time>
      </trkpt>
      <trkpt lat="48.98729" lon="1.98531">
        <ele>21.799999237061</ele>
        <time>2016-06-12T14:13:23.000Z</time>
      </trkpt>
      <trkpt lat="48.98734" lon="1.98529">
        <ele>22</ele>
        <time>2016-06-12T14:13:28.000Z</time>
      </trkpt>
      <trkpt lat="48.98741" lon="1.98526">
        <ele>22.200000762939</ele>
        <time>2016-06-12T14:13:33.000Z</time>
      </trkpt>
      <trkpt lat="48.98743" lon="1.98524">
        <ele>22.200000762939</ele>
        <time>2016-06-12T14:13:35.000Z</time>
      </trkpt>
      <trkpt lat="48.98746" lon="1.98523">
        <ele>22.39999961853</ele>
        <time>2016-06-12T14:13:38.000Z</time>
      </trkpt>
      <trkpt lat="48.98749" lon="1.9852">
        <ele>22.39999961853</ele>
        <time>2016-06-12T14:13:41.000Z</time>
      </trkpt>
      <trkpt lat="48.98753" lon="1.98518">
        <ele>22.60000038147</ele>
        <time>2016-06-12T14:13:44.000Z</time>
      </trkpt>
      <trkpt lat="48.9876" lon="1.98515">
        <ele>22.799999237061</ele>
        <time>2016-06-12T14:13:49.000Z</time>
      </trkpt>
      <trkpt lat="48.98766" lon="1.98512">
        <ele>23</ele>
        <time>2016-06-12T14:13:54.000Z</time>
      </trkpt>
      <trkpt lat="48.98768" lon="1.98509">
        <ele>23</ele>
        <time>2016-06-12T14:13:56.000Z</time>
      </trkpt>
      <trkpt lat="48.98771" lon="1.98504">
        <ele>23</ele>
        <time>2016-06-12T14:14:00.000Z</time>
      </trkpt>
      <trkpt lat="48.98774" lon="1.98502">
        <ele>23</ele>
        <time>2016-06-12T14:14:02.000Z</time>
      </trkpt>
      <trkpt lat="48.98776" lon="1.985">
        <ele>23.200000762939</ele>
        <time>2016-06-12T14:14:04.000Z</time>
      </trkpt>
      <trkpt lat="48.98785" lon="1.98499">
        <ele>23.200000762939</ele>
        <time>2016-06-12T14:14:08.000Z</time>
      </trkpt>
      <trkpt lat="48.98798" lon="1.98502">
        <ele>23.39999961853</ele>
        <time>2016-06-12T14:14:12.000Z</time>
      </trkpt>
      <trkpt lat="48.98811" lon="1.98512">
        <ele>23.60000038147</ele>
        <time>2016-06-12T14:14:18.000Z</time>
      </trkpt>
      <trkpt lat="48.98828" lon="1.98523">
        <ele>24</ele>
        <time>2016-06-12T14:14:23.000Z</time>
      </trkpt>
      <trkpt lat="48.98845" lon="1.98529">
        <ele>24.200000762939</ele>
        <time>2016-06-12T14:14:27.000Z</time>
      </trkpt>
      <trkpt lat="48.98862" lon="1.98525">
        <ele>24.200000762939</ele>
        <time>2016-06-12T14:14:32.000Z</time>
      </trkpt>
      <trkpt lat="48.9888" lon="1.98512">
        <ele>23.200000762939</ele>
        <time>2016-06-12T14:14:37.000Z</time>
      </trkpt>
      <trkpt lat="48.98907" lon="1.98488">
        <ele>23.39999961853</ele>
        <time>2016-06-12T14:14:44.000Z</time>
      </trkpt>
      <trkpt lat="48.9891" lon="1.98485">
        <ele>23.39999961853</ele>
        <time>2016-06-12T14:14:45.000Z</time>
      </trkpt>
      <trkpt lat="48.98919" lon="1.98474">
        <ele>23.200000762939</ele>
        <time>2016-06-12T14:14:49.000Z</time>
      </trkpt>
      <trkpt lat="48.98926" lon="1.9845">
        <ele>24.200000762939</ele>
        <time>2016-06-12T14:14:53.000Z</time>
      </trkpt>
      <trkpt lat="48.98928" lon="1.98444">
        <ele>24.39999961853</ele>
        <time>2016-06-12T14:14:54.000Z</time>
      </trkpt>
      <trkpt lat="48.98939" lon="1.98424">
        <ele>25.39999961853</ele>
        <time>2016-06-12T14:14:58.000Z</time>
      </trkpt>
      <trkpt lat="48.98945" lon="1.98419">
        <ele>25.39999961853</ele>
        <time>2016-06-12T14:15:00.000Z</time>
      </trkpt>
      <trkpt lat="48.98951" lon="1.98413">
        <ele>25.60000038147</ele>
        <time>2016-06-12T14:15:02.000Z</time>
      </trkpt>
      <trkpt lat="48.98957" lon="1.98401">
        <ele>25.60000038147</ele>
        <time>2016-06-12T14:15:05.000Z</time>
      </trkpt>
      <trkpt lat="48.98965" lon="1.9838">
        <ele>25.799999237061</ele>
        <time>2016-06-12T14:15:09.000Z</time>
      </trkpt>
      <trkpt lat="48.98976" lon="1.98368">
        <ele>25.799999237061</ele>
        <time>2016-06-12T14:15:13.000Z</time>
      </trkpt>
      <trkpt lat="48.98987" lon="1.98347">
        <ele>26.39999961853</ele>
        <time>2016-06-12T14:15:18.000Z</time>
      </trkpt>
      <trkpt lat="48.98997" lon="1.98324">
        <ele>27.200000762939</ele>
        <time>2016-06-12T14:15:22.000Z</time>
      </trkpt>
      <trkpt lat="48.98999" lon="1.9832">
        <ele>27.200000762939</ele>
        <time>2016-06-12T14:15:23.000Z</time>
      </trkpt>
      <trkpt lat="48.99006" lon="1.98312">
        <ele>26.799999237061</ele>
        <time>2016-06-12T14:15:25.000Z</time>
      </trkpt>
      <trkpt lat="48.9901" lon="1.9831">
        <ele>26.60000038147</ele>
        <time>2016-06-12T14:15:26.000Z</time>
      </trkpt>
      <trkpt lat="48.99021" lon="1.98301">
        <ele>26.39999961853</ele>
        <time>2016-06-12T14:15:29.000Z</time>
      </trkpt>
      <trkpt lat="48.99036" lon="1.98292">
        <ele>25.799999237061</ele>
        <time>2016-06-12T14:15:33.000Z</time>
      </trkpt>
      <trkpt lat="48.99044" lon="1.98278">
        <ele>25.200000762939</ele>
        <time>2016-06-12T14:15:36.000Z</time>
      </trkpt>
      <trkpt lat="48.99046" lon="1.98274">
        <ele>25</ele>
        <time>2016-06-12T14:15:37.000Z</time>
      </trkpt>
      <trkpt lat="48.99054" lon="1.98258">
        <ele>24.39999961853</ele>
        <time>2016-06-12T14:15:41.000Z</time>
      </trkpt>
      <trkpt lat="48.99059" lon="1.98247">
        <ele>24</ele>
        <time>2016-06-12T14:15:45.000Z</time>
      </trkpt>
      <trkpt lat="48.99073" lon="1.98235">
        <ele>23.200000762939</ele>
        <time>2016-06-12T14:15:52.000Z</time>
      </trkpt>
      <trkpt lat="48.99083" lon="1.98226">
        <ele>22.799999237061</ele>
        <time>2016-06-12T14:15:56.000Z</time>
      </trkpt>
      <trkpt lat="48.9909" lon="1.98217">
        <ele>22.60000038147</ele>
        <time>2016-06-12T14:15:59.000Z</time>
      </trkpt>
      <trkpt lat="48.99094" lon="1.98206">
        <ele>23</ele>
        <time>2016-06-12T14:16:01.000Z</time>
      </trkpt>
      <trkpt lat="48.991" lon="1.98197">
        <ele>23.39999961853</ele>
        <time>2016-06-12T14:16:04.000Z</time>
      </trkpt>
      <trkpt lat="48.99102" lon="1.98194">
        <ele>23.60000038147</ele>
        <time>2016-06-12T14:16:05.000Z</time>
      </trkpt>
      <trkpt lat="48.99109" lon="1.98186">
        <ele>24</ele>
        <time>2016-06-12T14:16:08.000Z</time>
      </trkpt>
      <trkpt lat="48.99113" lon="1.98178">
        <ele>24</ele>
        <time>2016-06-12T14:16:10.000Z</time>
      </trkpt>
      <trkpt lat="48.99119" lon="1.98162">
        <ele>24.200000762939</ele>
        <time>2016-06-12T14:16:15.000Z</time>
      </trkpt>
      <trkpt lat="48.99123" lon="1.98154">
        <ele>24.200000762939</ele>
        <time>2016-06-12T14:16:19.000Z</time>
      </trkpt>
      <trkpt lat="48.99124" lon="1.98152">
        <ele>24.200000762939</ele>
        <time>2016-06-12T14:16:20.000Z</time>
      </trkpt>
      <trkpt lat="48.99127" lon="1.98146">
        <ele>24</ele>
        <time>2016-06-12T14:16:23.000Z</time>
      </trkpt>
      <trkpt lat="48.99128" lon="1.98137">
        <ele>24</ele>
        <time>2016-06-12T14:16:27.000Z</time>
      </trkpt>
      <trkpt lat="48.99127" lon="1.98116">
        <ele>24.39999961853</ele>
        <time>2016-06-12T14:16:32.000Z</time>
      </trkpt>
      <trkpt lat="48.99128" lon="1.98101">
        <ele>24.60000038147</ele>
        <time>2016-06-12T14:16:39.000Z</time>
      </trkpt>
      <trkpt lat="48.99131" lon="1.98093">
        <ele>24.60000038147</ele>
        <time>2016-06-12T14:16:44.000Z</time>
      </trkpt>
      <trkpt lat="48.99131" lon="1.98091">
        <ele>24.60000038147</ele>
        <time>2016-06-12T14:16:45.000Z</time>
      </trkpt>
      <trkpt lat="48.99128" lon="1.98084">
        <ele>25</ele>
        <time>2016-06-12T14:16:49.000Z</time>
      </trkpt>
      <trkpt lat="48.99127" lon="1.98083">
        <ele>25.200000762939</ele>
        <time>2016-06-12T14:16:50.000Z</time>
      </trkpt>
      <trkpt lat="48.99125" lon="1.98078">
        <ele>25.39999961853</ele>
        <time>2016-06-12T14:16:53.000Z</time>
      </trkpt>
      <trkpt lat="48.99124" lon="1.98073">
        <ele>25.60000038147</ele>
        <time>2016-06-12T14:16:55.000Z</time>
      </trkpt>
      <trkpt lat="48.99124" lon="1.98069">
        <ele>25.60000038147</ele>
        <time>2016-06-12T14:16:57.000Z</time>
      </trkpt>
      <trkpt lat="48.99124" lon="1.9806">
        <ele>25.39999961853</ele>
        <time>2016-06-12T14:17:01.000Z</time>
      </trkpt>
      <trkpt lat="48.99122" lon="1.9804">
        <ele>25.200000762939</ele>
        <time>2016-06-12T14:17:10.000Z</time>
      </trkpt>
      <trkpt lat="48.99123" lon="1.98026">
        <ele>25</ele>
        <time>2016-06-12T14:17:18.000Z</time>
      </trkpt>
      <trkpt lat="48.99123" lon="1.98026">
        <ele>25</ele>
        <time>2016-06-12T14:17:19.000Z</time>
      </trkpt>
      <trkpt lat="48.99136" lon="1.98009">
        <ele>24.799999237061</ele>
        <time>2016-06-12T14:17:52.000Z</time>
      </trkpt>
      <trkpt lat="48.99138" lon="1.98007">
        <ele>24.799999237061</ele>
        <time>2016-06-12T14:17:54.000Z</time>
      </trkpt>
      <trkpt lat="48.99142" lon="1.98005">
        <ele>24.799999237061</ele>
        <time>2016-06-12T14:17:58.000Z</time>
      </trkpt>
      <trkpt lat="48.99143" lon="1.98005">
        <ele>24.799999237061</ele>
        <time>2016-06-12T14:18:00.000Z</time>
      </trkpt>
      <trkpt lat="48.99144" lon="1.98005">
        <ele>24.799999237061</ele>
        <time>2016-06-12T14:18:01.000Z</time>
      </trkpt>
      <trkpt lat="48.99152" lon="1.98008">
        <ele>24.799999237061</ele>
        <time>2016-06-12T14:18:09.000Z</time>
      </trkpt>
      <trkpt lat="48.99158" lon="1.98018">
        <ele>24.60000038147</ele>
        <time>2016-06-12T14:18:16.000Z</time>
      </trkpt>
      <trkpt lat="48.99159" lon="1.98019">
        <ele>24.60000038147</ele>
        <time>2016-06-12T14:18:17.000Z</time>
      </trkpt>
      <trkpt lat="48.9916" lon="1.98021">
        <ele>24.60000038147</ele>
        <time>2016-06-12T14:18:19.000Z</time>
      </trkpt>
      <trkpt lat="48.99162" lon="1.98024">
        <ele>24.60000038147</ele>
        <time>2016-06-12T14:18:21.000Z</time>
      </trkpt>
      <trkpt lat="48.99165" lon="1.98026">
        <ele>24.60000038147</ele>
        <time>2016-06-12T14:18:23.000Z</time>
      </trkpt>
      <trkpt lat="48.9917" lon="1.98032">
        <ele>24.60000038147</ele>
        <time>2016-06-12T14:18:28.000Z</time>
      </trkpt>
      <trkpt lat="48.99179" lon="1.98042">
        <ele>24.39999961853</ele>
        <time>2016-06-12T14:18:36.000Z</time>
      </trkpt>
      <trkpt lat="48.99185" lon="1.98046">
        <ele>24.39999961853</ele>
        <time>2016-06-12T14:18:41.000Z</time>
      </trkpt>
      <trkpt lat="48.99189" lon="1.98043">
        <ele>24.39999961853</ele>
        <time>2016-06-12T14:18:44.000Z</time>
      </trkpt>
      <trkpt lat="48.99196" lon="1.98041">
        <ele>24</ele>
        <time>2016-06-12T14:18:49.000Z</time>
      </trkpt>
      <trkpt lat="48.99198" lon="1.9804">
        <ele>23.799999237061</ele>
        <time>2016-06-12T14:18:50.000Z</time>
      </trkpt>
      <trkpt lat="48.99205" lon="1.98034">
        <ele>23.200000762939</ele>
        <time>2016-06-12T14:18:56.000Z</time>
      </trkpt>
      <trkpt lat="48.9921" lon="1.98029">
        <ele>22.799999237061</ele>
        <time>2016-06-12T14:19:01.000Z</time>
      </trkpt>
      <trkpt lat="48.99211" lon="1.98026">
        <ele>22.799999237061</ele>
        <time>2016-06-12T14:19:03.000Z</time>
      </trkpt>
      <trkpt lat="48.99213" lon="1.98022">
        <ele>22.60000038147</ele>
        <time>2016-06-12T14:19:05.000Z</time>
      </trkpt>
      <trkpt lat="48.99217" lon="1.98015">
        <ele>22.39999961853</ele>
        <time>2016-06-12T14:19:09.000Z</time>
      </trkpt>
      <trkpt lat="48.99223" lon="1.98005">
        <ele>22.60000038147</ele>
        <time>2016-06-12T14:19:15.000Z</time>
      </trkpt>
      <trkpt lat="48.99227" lon="1.98">
        <ele>22.799999237061</ele>
        <time>2016-06-12T14:19:19.000Z</time>
      </trkpt>
      <trkpt lat="48.99229" lon="1.97999">
        <ele>22.799999237061</ele>
        <time>2016-06-12T14:19:21.000Z</time>
      </trkpt>
      <trkpt lat="48.99231" lon="1.97998">
        <ele>22.60000038147</ele>
        <time>2016-06-12T14:19:23.000Z</time>
      </trkpt>
      <trkpt lat="48.99233" lon="1.97996">
        <ele>22.799999237061</ele>
        <time>2016-06-12T14:19:24.000Z</time>
      </trkpt>
      <trkpt lat="48.99235" lon="1.97991">
        <ele>22.799999237061</ele>
        <time>2016-06-12T14:19:27.000Z</time>
      </trkpt>
      <trkpt lat="48.99238" lon="1.97985">
        <ele>22.60000038147</ele>
        <time>2016-06-12T14:19:30.000Z</time>
      </trkpt>
      <trkpt lat="48.9924" lon="1.97982">
        <ele>22.60000038147</ele>
        <time>2016-06-12T14:19:32.000Z</time>
      </trkpt>
      <trkpt lat="48.99243" lon="1.97979">
        <ele>22.39999961853</ele>
        <time>2016-06-12T14:19:34.000Z</time>
      </trkpt>
      <trkpt lat="48.99245" lon="1.97976">
        <ele>22.200000762939</ele>
        <time>2016-06-12T14:19:36.000Z</time>
      </trkpt>
      <trkpt lat="48.99247" lon="1.97973">
        <ele>22.200000762939</ele>
        <time>2016-06-12T14:19:38.000Z</time>
      </trkpt>
      <trkpt lat="48.99251" lon="1.97962">
        <ele>22</ele>
        <time>2016-06-12T14:19:43.000Z</time>
      </trkpt>
      <trkpt lat="48.99252" lon="1.9796">
        <ele>22</ele>
        <time>2016-06-12T14:19:44.000Z</time>
      </trkpt>
      <trkpt lat="48.99255" lon="1.9795">
        <ele>22</ele>
        <time>2016-06-12T14:19:49.000Z</time>
      </trkpt>
      <trkpt lat="48.99256" lon="1.97948">
        <ele>22</ele>
        <time>2016-06-12T14:19:51.000Z</time>
      </trkpt>
      <trkpt lat="48.99256" lon="1.97948">
        <ele>22</ele>
        <time>2016-06-12T14:19:52.000Z</time>
      </trkpt>
      <trkpt lat="48.99248" lon="1.97913">
        <ele>22.60000038147</ele>
        <time>2016-06-12T14:20:16.000Z</time>
      </trkpt>
      <trkpt lat="48.99249" lon="1.97913">
        <ele>22.60000038147</ele>
        <time>2016-06-12T14:20:17.000Z</time>
      </trkpt>
      <trkpt lat="48.99251" lon="1.97913">
        <ele>22.60000038147</ele>
        <time>2016-06-12T14:20:18.000Z</time>
      </trkpt>
      <trkpt lat="48.99254" lon="1.97919">
        <ele>22.39999961853</ele>
        <time>2016-06-12T14:20:21.000Z</time>
      </trkpt>
      <trkpt lat="48.99255" lon="1.97922">
        <ele>22.39999961853</ele>
        <time>2016-06-12T14:20:23.000Z</time>
      </trkpt>
      <trkpt lat="48.9926" lon="1.97931">
        <ele>22</ele>
        <time>2016-06-12T14:20:29.000Z</time>
      </trkpt>
      <trkpt lat="48.99264" lon="1.97937">
        <ele>22</ele>
        <time>2016-06-12T14:20:34.000Z</time>
      </trkpt>
      <trkpt lat="48.99266" lon="1.97938">
        <ele>21.799999237061</ele>
        <time>2016-06-12T14:20:38.000Z</time>
      </trkpt>
      <trkpt lat="48.99277" lon="1.97924">
        <ele>21.60000038147</ele>
        <time>2016-06-12T14:21:07.000Z</time>
      </trkpt>
      <trkpt lat="48.99284" lon="1.97919">
        <ele>21.39999961853</ele>
        <time>2016-06-12T14:21:12.000Z</time>
      </trkpt>
      <trkpt lat="48.99285" lon="1.97918">
        <ele>21.200000762939</ele>
        <time>2016-06-12T14:21:13.000Z</time>
      </trkpt>
      <trkpt lat="48.99288" lon="1.97911">
        <ele>21</ele>
        <time>2016-06-12T14:21:17.000Z</time>
      </trkpt>
      <trkpt lat="48.99289" lon="1.97909">
        <ele>21</ele>
        <time>2016-06-12T14:21:18.000Z</time>
      </trkpt>
      <trkpt lat="48.99291" lon="1.97901">
        <ele>21</ele>
        <time>2016-06-12T14:21:22.000Z</time>
      </trkpt>
      <trkpt lat="48.99293" lon="1.97898">
        <ele>20.799999237061</ele>
        <time>2016-06-12T14:21:24.000Z</time>
      </trkpt>
      <trkpt lat="48.99297" lon="1.97892">
        <ele>20.60000038147</ele>
        <time>2016-06-12T14:21:28.000Z</time>
      </trkpt>
      <trkpt lat="48.99299" lon="1.97889">
        <ele>20.60000038147</ele>
        <time>2016-06-12T14:21:30.000Z</time>
      </trkpt>
      <trkpt lat="48.99299" lon="1.97887">
        <ele>20.60000038147</ele>
        <time>2016-06-12T14:21:31.000Z</time>
      </trkpt>
      <trkpt lat="48.99303" lon="1.97876">
        <ele>20.39999961853</ele>
        <time>2016-06-12T14:21:38.000Z</time>
      </trkpt>
      <trkpt lat="48.99303" lon="1.97874">
        <ele>20.39999961853</ele>
        <time>2016-06-12T14:21:39.000Z</time>
      </trkpt>
      <trkpt lat="48.99306" lon="1.97866">
        <ele>20.200000762939</ele>
        <time>2016-06-12T14:21:43.000Z</time>
      </trkpt>
      <trkpt lat="48.99307" lon="1.97865">
        <ele>20.200000762939</ele>
        <time>2016-06-12T14:21:44.000Z</time>
      </trkpt>
      <trkpt lat="48.99312" lon="1.97855">
        <ele>20.60000038147</ele>
        <time>2016-06-12T14:21:50.000Z</time>
      </trkpt>
      <trkpt lat="48.99314" lon="1.97854">
        <ele>20.60000038147</ele>
        <time>2016-06-12T14:21:51.000Z</time>
      </trkpt>
      <trkpt lat="48.99318" lon="1.97853">
        <ele>20.799999237061</ele>
        <time>2016-06-12T14:21:53.000Z</time>
      </trkpt>
      <trkpt lat="48.99325" lon="1.97843">
        <ele>21.799999237061</ele>
        <time>2016-06-12T14:22:00.000Z</time>
      </trkpt>
      <trkpt lat="48.99326" lon="1.9784">
        <ele>22.200000762939</ele>
        <time>2016-06-12T14:22:02.000Z</time>
      </trkpt>
      <trkpt lat="48.99332" lon="1.97826">
        <ele>23.60000038147</ele>
        <time>2016-06-12T14:22:09.000Z</time>
      </trkpt>
      <trkpt lat="48.99338" lon="1.9781">
        <ele>23.799999237061</ele>
        <time>2016-06-12T14:22:16.000Z</time>
      </trkpt>
      <trkpt lat="48.99349" lon="1.97788">
        <ele>24.60000038147</ele>
        <time>2016-06-12T14:22:22.000Z</time>
      </trkpt>
      <trkpt lat="48.99354" lon="1.97778">
        <ele>25</ele>
        <time>2016-06-12T14:22:27.000Z</time>
      </trkpt>
      <trkpt lat="48.99357" lon="1.97771">
        <ele>25.200000762939</ele>
        <time>2016-06-12T14:22:32.000Z</time>
      </trkpt>
      <trkpt lat="48.99357" lon="1.97771">
        <ele>25.200000762939</ele>
        <time>2016-06-12T14:22:34.000Z</time>
      </trkpt>
      <trkpt lat="48.99367" lon="1.97755">
        <ele>24.799999237061</ele>
        <time>2016-06-12T14:22:50.000Z</time>
      </trkpt>
      <trkpt lat="48.99368" lon="1.97754">
        <ele>24.799999237061</ele>
        <time>2016-06-12T14:22:51.000Z</time>
      </trkpt>
      <trkpt lat="48.99371" lon="1.97747">
        <ele>24.39999961853</ele>
        <time>2016-06-12T14:22:55.000Z</time>
      </trkpt>
      <trkpt lat="48.99374" lon="1.97742">
        <ele>24.200000762939</ele>
        <time>2016-06-12T14:22:58.000Z</time>
      </trkpt>
      <trkpt lat="48.99379" lon="1.9773">
        <ele>23.200000762939</ele>
        <time>2016-06-12T14:23:04.000Z</time>
      </trkpt>
      <trkpt lat="48.99387" lon="1.97715">
        <ele>22</ele>
        <time>2016-06-12T14:23:12.000Z</time>
      </trkpt>
      <trkpt lat="48.99392" lon="1.97705">
        <ele>21</ele>
        <time>2016-06-12T14:23:17.000Z</time>
      </trkpt>
      <trkpt lat="48.99397" lon="1.97694">
        <ele>20.60000038147</ele>
        <time>2016-06-12T14:23:23.000Z</time>
      </trkpt>
      <trkpt lat="48.99404" lon="1.97683">
        <ele>21.60000038147</ele>
        <time>2016-06-12T14:23:29.000Z</time>
      </trkpt>
      <trkpt lat="48.99409" lon="1.97667">
        <ele>23.200000762939</ele>
        <time>2016-06-12T14:23:36.000Z</time>
      </trkpt>
      <trkpt lat="48.99411" lon="1.97662">
        <ele>23.60000038147</ele>
        <time>2016-06-12T14:23:41.000Z</time>
      </trkpt>
      <trkpt lat="48.99419" lon="1.97634">
        <ele>23.200000762939</ele>
        <time>2016-06-12T14:26:50.000Z</time>
      </trkpt>
      <trkpt lat="48.99421" lon="1.97632">
        <ele>23.200000762939</ele>
        <time>2016-06-12T14:26:51.000Z</time>
      </trkpt>
      <trkpt lat="48.99423" lon="1.97628">
        <ele>23.200000762939</ele>
        <time>2016-06-12T14:26:54.000Z</time>
      </trkpt>
      <trkpt lat="48.99426" lon="1.97624">
        <ele>23.200000762939</ele>
        <time>2016-06-12T14:26:58.000Z</time>
      </trkpt>
      <trkpt lat="48.99429" lon="1.97621">
        <ele>23.200000762939</ele>
        <time>2016-06-12T14:27:00.000Z</time>
      </trkpt>
      <trkpt lat="48.99435" lon="1.97611">
        <ele>23.200000762939</ele>
        <time>2016-06-12T14:27:07.000Z</time>
      </trkpt>
      <trkpt lat="48.99436" lon="1.9761">
        <ele>23.200000762939</ele>
        <time>2016-06-12T14:27:08.000Z</time>
      </trkpt>
      <trkpt lat="48.99444" lon="1.97598">
        <ele>23</ele>
        <time>2016-06-12T14:27:17.000Z</time>
      </trkpt>
      <trkpt lat="48.99444" lon="1.97596">
        <ele>23</ele>
        <time>2016-06-12T14:27:18.000Z</time>
      </trkpt>
      <trkpt lat="48.99447" lon="1.97592">
        <ele>22.60000038147</ele>
        <time>2016-06-12T14:27:22.000Z</time>
      </trkpt>
      <trkpt lat="48.99448" lon="1.97591">
        <ele>22.60000038147</ele>
        <time>2016-06-12T14:27:23.000Z</time>
      </trkpt>
      <trkpt lat="48.99453" lon="1.97582">
        <ele>22</ele>
        <time>2016-06-12T14:27:29.000Z</time>
      </trkpt>
      <trkpt lat="48.99454" lon="1.97581">
        <ele>22</ele>
        <time>2016-06-12T14:27:30.000Z</time>
      </trkpt>
      <trkpt lat="48.99459" lon="1.9757">
        <ele>21.39999961853</ele>
        <time>2016-06-12T14:27:37.000Z</time>
      </trkpt>
      <trkpt lat="48.99462" lon="1.97563">
        <ele>21.200000762939</ele>
        <time>2016-06-12T14:27:41.000Z</time>
      </trkpt>
      <trkpt lat="48.99463" lon="1.97562">
        <ele>21</ele>
        <time>2016-06-12T14:27:42.000Z</time>
      </trkpt>
      <trkpt lat="48.99464" lon="1.97561">
        <ele>21</ele>
        <time>2016-06-12T14:27:43.000Z</time>
      </trkpt>
      <trkpt lat="48.99467" lon="1.97552">
        <ele>20.60000038147</ele>
        <time>2016-06-12T14:27:48.000Z</time>
      </trkpt>
      <trkpt lat="48.99469" lon="1.97543">
        <ele>20.200000762939</ele>
        <time>2016-06-12T14:27:53.000Z</time>
      </trkpt>
      <trkpt lat="48.99476" lon="1.97527">
        <ele>19.60000038147</ele>
        <time>2016-06-12T14:28:01.000Z</time>
      </trkpt>
      <trkpt lat="48.99481" lon="1.97515">
        <ele>20.60000038147</ele>
        <time>2016-06-12T14:28:08.000Z</time>
      </trkpt>
      <trkpt lat="48.99486" lon="1.97502">
        <ele>22</ele>
        <time>2016-06-12T14:28:15.000Z</time>
      </trkpt>
      <trkpt lat="48.99489" lon="1.97492">
        <ele>23</ele>
        <time>2016-06-12T14:28:21.000Z</time>
      </trkpt>
      <trkpt lat="48.99493" lon="1.97481">
        <ele>23.200000762939</ele>
        <time>2016-06-12T14:28:27.000Z</time>
      </trkpt>
      <trkpt lat="48.99495" lon="1.97472">
        <ele>23</ele>
        <time>2016-06-12T14:28:31.000Z</time>
      </trkpt>
      <trkpt lat="48.99497" lon="1.97465">
        <ele>23</ele>
        <time>2016-06-12T14:28:35.000Z</time>
      </trkpt>
      <trkpt lat="48.99501" lon="1.97458">
        <ele>23</ele>
        <time>2016-06-12T14:28:40.000Z</time>
      </trkpt>
      <trkpt lat="48.99504" lon="1.97446">
        <ele>23</ele>
        <time>2016-06-12T14:28:45.000Z</time>
      </trkpt>
      <trkpt lat="48.99507" lon="1.97438">
        <ele>23</ele>
        <time>2016-06-12T14:28:49.000Z</time>
      </trkpt>
      <trkpt lat="48.99512" lon="1.9743">
        <ele>23</ele>
        <time>2016-06-12T14:28:54.000Z</time>
      </trkpt>
      <trkpt lat="48.99517" lon="1.9742">
        <ele>23</ele>
        <time>2016-06-12T14:28:59.000Z</time>
      </trkpt>
      <trkpt lat="48.9952" lon="1.97414">
        <ele>23</ele>
        <time>2016-06-12T14:29:02.000Z</time>
      </trkpt>
      <trkpt lat="48.9952" lon="1.97412">
        <ele>23</ele>
        <time>2016-06-12T14:29:03.000Z</time>
      </trkpt>
      <trkpt lat="48.99521" lon="1.97409">
        <ele>23</ele>
        <time>2016-06-12T14:29:05.000Z</time>
      </trkpt>
      <trkpt lat="48.99524" lon="1.97402">
        <ele>22.60000038147</ele>
        <time>2016-06-12T14:29:08.000Z</time>
      </trkpt>
      <trkpt lat="48.99529" lon="1.9739">
        <ele>21.39999961853</ele>
        <time>2016-06-12T14:29:14.000Z</time>
      </trkpt>
      <trkpt lat="48.9953" lon="1.97389">
        <ele>21.200000762939</ele>
        <time>2016-06-12T14:29:15.000Z</time>
      </trkpt>
      <trkpt lat="48.99532" lon="1.97383">
        <ele>20.60000038147</ele>
        <time>2016-06-12T14:29:18.000Z</time>
      </trkpt>
      <trkpt lat="48.99536" lon="1.97377">
        <ele>19.799999237061</ele>
        <time>2016-06-12T14:29:22.000Z</time>
      </trkpt>
      <trkpt lat="48.99541" lon="1.97363">
        <ele>18.39999961853</ele>
        <time>2016-06-12T14:29:28.000Z</time>
      </trkpt>
      <trkpt lat="48.99545" lon="1.97356">
        <ele>17.60000038147</ele>
        <time>2016-06-12T14:29:33.000Z</time>
      </trkpt>
      <trkpt lat="48.9955" lon="1.97347">
        <ele>16.799999237061</ele>
        <time>2016-06-12T14:29:39.000Z</time>
      </trkpt>
      <trkpt lat="48.99557" lon="1.97337">
        <ele>16.799999237061</ele>
        <time>2016-06-12T14:29:45.000Z</time>
      </trkpt>
      <trkpt lat="48.99557" lon="1.97337">
        <ele>16.799999237061</ele>
        <time>2016-06-12T14:29:46.000Z</time>
      </trkpt>
      <trkpt lat="48.99558" lon="1.97335">
        <ele>16.799999237061</ele>
        <time>2016-06-12T14:29:47.000Z</time>
      </trkpt>
      <trkpt lat="48.99559" lon="1.97333">
        <ele>16.799999237061</ele>
        <time>2016-06-12T14:29:48.000Z</time>
      </trkpt>
      <trkpt lat="48.99565" lon="1.97324">
        <ele>17</ele>
        <time>2016-06-12T14:29:54.000Z</time>
      </trkpt>
      <trkpt lat="48.99573" lon="1.97312">
        <ele>17</ele>
        <time>2016-06-12T14:30:02.000Z</time>
      </trkpt>
      <trkpt lat="48.99581" lon="1.97301">
        <ele>17</ele>
        <time>2016-06-12T14:30:09.000Z</time>
      </trkpt>
      <trkpt lat="48.99585" lon="1.97296">
        <ele>17.200000762939</ele>
        <time>2016-06-12T14:30:13.000Z</time>
      </trkpt>
      <trkpt lat="48.99588" lon="1.97293">
        <ele>17.200000762939</ele>
        <time>2016-06-12T14:30:16.000Z</time>
      </trkpt>
      <trkpt lat="48.99596" lon="1.97282">
        <ele>17.799999237061</ele>
        <time>2016-06-12T14:30:23.000Z</time>
      </trkpt>
      <trkpt lat="48.99597" lon="1.9728">
        <ele>17.799999237061</ele>
        <time>2016-06-12T14:30:24.000Z</time>
      </trkpt>
      <trkpt lat="48.99599" lon="1.97277">
        <ele>18</ele>
        <time>2016-06-12T14:30:26.000Z</time>
      </trkpt>
      <trkpt lat="48.99603" lon="1.97271">
        <ele>18.200000762939</ele>
        <time>2016-06-12T14:30:30.000Z</time>
      </trkpt>
      <trkpt lat="48.99605" lon="1.97265">
        <ele>18.39999961853</ele>
        <time>2016-06-12T14:30:33.000Z</time>
      </trkpt>
      <trkpt lat="48.99609" lon="1.97259">
        <ele>18.60000038147</ele>
        <time>2016-06-12T14:30:37.000Z</time>
      </trkpt>
      <trkpt lat="48.99614" lon="1.9725">
        <ele>18.799999237061</ele>
        <time>2016-06-12T14:30:42.000Z</time>
      </trkpt>
      <trkpt lat="48.99618" lon="1.97245">
        <ele>18.60000038147</ele>
        <time>2016-06-12T14:30:46.000Z</time>
      </trkpt>
      <trkpt lat="48.99624" lon="1.97237">
        <ele>18.200000762939</ele>
        <time>2016-06-12T14:30:51.000Z</time>
      </trkpt>
      <trkpt lat="48.99625" lon="1.97233">
        <ele>18</ele>
        <time>2016-06-12T14:30:54.000Z</time>
      </trkpt>
      <trkpt lat="48.99632" lon="1.97212">
        <ele>16.799999237061</ele>
        <time>2016-06-12T14:31:05.000Z</time>
      </trkpt>
      <trkpt lat="48.99634" lon="1.97206">
        <ele>16.39999961853</ele>
        <time>2016-06-12T14:31:08.000Z</time>
      </trkpt>
      <trkpt lat="48.99634" lon="1.97202">
        <ele>16.200000762939</ele>
        <time>2016-06-12T14:31:10.000Z</time>
      </trkpt>
      <trkpt lat="48.99638" lon="1.97195">
        <ele>15.60000038147</ele>
        <time>2016-06-12T14:31:15.000Z</time>
      </trkpt>
      <trkpt lat="48.99643" lon="1.97187">
        <ele>15.60000038147</ele>
        <time>2016-06-12T14:31:20.000Z</time>
      </trkpt>
      <trkpt lat="48.99648" lon="1.97177">
        <ele>16.200000762939</ele>
        <time>2016-06-12T14:31:26.000Z</time>
      </trkpt>
      <trkpt lat="48.99651" lon="1.97172">
        <ele>16.60000038147</ele>
        <time>2016-06-12T14:31:29.000Z</time>
      </trkpt>
      <trkpt lat="48.99653" lon="1.97169">
        <ele>16.799999237061</ele>
        <time>2016-06-12T14:31:31.000Z</time>
      </trkpt>
      <trkpt lat="48.99658" lon="1.97161">
        <ele>17.200000762939</ele>
        <time>2016-06-12T14:31:36.000Z</time>
      </trkpt>
      <trkpt lat="48.99659" lon="1.97158">
        <ele>17.39999961853</ele>
        <time>2016-06-12T14:31:38.000Z</time>
      </trkpt>
      <trkpt lat="48.99663" lon="1.9715">
        <ele>17.799999237061</ele>
        <time>2016-06-12T14:31:43.000Z</time>
      </trkpt>
      <trkpt lat="48.9967" lon="1.97134">
        <ele>18.60000038147</ele>
        <time>2016-06-12T14:31:52.000Z</time>
      </trkpt>
      <trkpt lat="48.99676" lon="1.97122">
        <ele>19</ele>
        <time>2016-06-12T14:31:59.000Z</time>
      </trkpt>
      <trkpt lat="48.99682" lon="1.97105">
        <ele>19.799999237061</ele>
        <time>2016-06-12T14:32:08.000Z</time>
      </trkpt>
      <trkpt lat="48.99689" lon="1.97094">
        <ele>20.39999961853</ele>
        <time>2016-06-12T14:32:15.000Z</time>
      </trkpt>
      <trkpt lat="48.99689" lon="1.97093">
        <ele>20.39999961853</ele>
        <time>2016-06-12T14:32:16.000Z</time>
      </trkpt>
      <trkpt lat="48.99696" lon="1.97084">
        <ele>20.60000038147</ele>
        <time>2016-06-12T14:32:22.000Z</time>
      </trkpt>
      <trkpt lat="48.99697" lon="1.97083">
        <ele>20.60000038147</ele>
        <time>2016-06-12T14:32:23.000Z</time>
      </trkpt>
      <trkpt lat="48.99703" lon="1.97073">
        <ele>20.39999961853</ele>
        <time>2016-06-12T14:32:29.000Z</time>
      </trkpt>
      <trkpt lat="48.99711" lon="1.97062">
        <ele>19.60000038147</ele>
        <time>2016-06-12T14:32:37.000Z</time>
      </trkpt>
      <trkpt lat="48.99717" lon="1.9705">
        <ele>18.799999237061</ele>
        <time>2016-06-12T14:32:44.000Z</time>
      </trkpt>
      <trkpt lat="48.99724" lon="1.9704">
        <ele>18.200000762939</ele>
        <time>2016-06-12T14:32:51.000Z</time>
      </trkpt>
      <trkpt lat="48.9973" lon="1.97031">
        <ele>17.60000038147</ele>
        <time>2016-06-12T14:32:57.000Z</time>
      </trkpt>
      <trkpt lat="48.99731" lon="1.97031">
        <ele>17.60000038147</ele>
        <time>2016-06-12T14:32:58.000Z</time>
      </trkpt>
      <trkpt lat="48.99734" lon="1.97028">
        <ele>18</ele>
        <time>2016-06-12T14:33:01.000Z</time>
      </trkpt>
      <trkpt lat="48.99735" lon="1.97027">
        <ele>18</ele>
        <time>2016-06-12T14:33:02.000Z</time>
      </trkpt>
      <trkpt lat="48.99739" lon="1.97021">
        <ele>18.60000038147</ele>
        <time>2016-06-12T14:33:06.000Z</time>
      </trkpt>
      <trkpt lat="48.99746" lon="1.97012">
        <ele>19.39999961853</ele>
        <time>2016-06-12T14:33:13.000Z</time>
      </trkpt>
      <trkpt lat="48.99752" lon="1.97008">
        <ele>20</ele>
        <time>2016-06-12T14:33:17.000Z</time>
      </trkpt>
      <trkpt lat="48.99752" lon="1.97006">
        <ele>20.200000762939</ele>
        <time>2016-06-12T14:33:18.000Z</time>
      </trkpt>
      <trkpt lat="48.99754" lon="1.96997">
        <ele>20.799999237061</ele>
        <time>2016-06-12T14:33:22.000Z</time>
      </trkpt>
      <trkpt lat="48.99754" lon="1.96995">
        <ele>21</ele>
        <time>2016-06-12T14:33:23.000Z</time>
      </trkpt>
      <trkpt lat="48.99755" lon="1.96994">
        <ele>21</ele>
        <time>2016-06-12T14:33:24.000Z</time>
      </trkpt>
      <trkpt lat="48.9976" lon="1.96989">
        <ele>21.39999961853</ele>
        <time>2016-06-12T14:33:28.000Z</time>
      </trkpt>
      <trkpt lat="48.99761" lon="1.96988">
        <ele>21.39999961853</ele>
        <time>2016-06-12T14:33:29.000Z</time>
      </trkpt>
      <trkpt lat="48.99767" lon="1.96978">
        <ele>21.60000038147</ele>
        <time>2016-06-12T14:33:36.000Z</time>
      </trkpt>
      <trkpt lat="48.99771" lon="1.96971">
        <ele>22.200000762939</ele>
        <time>2016-06-12T14:33:42.000Z</time>
      </trkpt>
      <trkpt lat="48.99772" lon="1.96969">
        <ele>22.200000762939</ele>
        <time>2016-06-12T14:33:43.000Z</time>
      </trkpt>
      <trkpt lat="48.99776" lon="1.9696">
        <ele>22.60000038147</ele>
        <time>2016-06-12T14:33:49.000Z</time>
      </trkpt>
      <trkpt lat="48.99776" lon="1.96958">
        <ele>22.799999237061</ele>
        <time>2016-06-12T14:33:51.000Z</time>
      </trkpt>
      <trkpt lat="48.99776" lon="1.96955">
        <ele>22.799999237061</ele>
        <time>2016-06-12T14:33:53.000Z</time>
      </trkpt>
      <trkpt lat="48.99777" lon="1.96952">
        <ele>22.799999237061</ele>
        <time>2016-06-12T14:33:55.000Z</time>
      </trkpt>
      <trkpt lat="48.9978" lon="1.96943">
        <ele>22.799999237061</ele>
        <time>2016-06-12T14:34:01.000Z</time>
      </trkpt>
      <trkpt lat="48.99782" lon="1.96938">
        <ele>22.799999237061</ele>
        <time>2016-06-12T14:34:05.000Z</time>
      </trkpt>
      <trkpt lat="48.99782" lon="1.96937">
        <ele>22.799999237061</ele>
        <time>2016-06-12T14:34:06.000Z</time>
      </trkpt>
      <trkpt lat="48.99783" lon="1.96933">
        <ele>22.799999237061</ele>
        <time>2016-06-12T14:34:09.000Z</time>
      </trkpt>
      <trkpt lat="48.99785" lon="1.9693">
        <ele>22.799999237061</ele>
        <time>2016-06-12T14:34:12.000Z</time>
      </trkpt>
      <trkpt lat="48.9979" lon="1.96923">
        <ele>22.60000038147</ele>
        <time>2016-06-12T14:34:17.000Z</time>
      </trkpt>
      <trkpt lat="48.99793" lon="1.96916">
        <ele>23.200000762939</ele>
        <time>2016-06-12T14:34:20.000Z</time>
      </trkpt>
      <trkpt lat="48.99793" lon="1.96916">
        <ele>23.200000762939</ele>
        <time>2016-06-12T14:34:21.000Z</time>
      </trkpt>
      <trkpt lat="48.99795" lon="1.96911">
        <ele>23.60000038147</ele>
        <time>2016-06-12T14:34:25.000Z</time>
      </trkpt>
      <trkpt lat="48.99798" lon="1.96909">
        <ele>24</ele>
        <time>2016-06-12T14:34:29.000Z</time>
      </trkpt>
      <trkpt lat="48.99798" lon="1.96907">
        <ele>24</ele>
        <time>2016-06-12T14:34:30.000Z</time>
      </trkpt>
      <trkpt lat="48.99805" lon="1.96892">
        <ele>23.799999237061</ele>
        <time>2016-06-12T14:34:38.000Z</time>
      </trkpt>
      <trkpt lat="48.99809" lon="1.96882">
        <ele>23.60000038147</ele>
        <time>2016-06-12T14:34:44.000Z</time>
      </trkpt>
      <trkpt lat="48.99813" lon="1.96876">
        <ele>23.60000038147</ele>
        <time>2016-06-12T14:34:50.000Z</time>
      </trkpt>
      <trkpt lat="48.99816" lon="1.9687">
        <ele>23.60000038147</ele>
        <time>2016-06-12T14:34:54.000Z</time>
      </trkpt>
      <trkpt lat="48.99817" lon="1.96866">
        <ele>23.60000038147</ele>
        <time>2016-06-12T14:34:56.000Z</time>
      </trkpt>
      <trkpt lat="48.99819" lon="1.96861">
        <ele>23.60000038147</ele>
        <time>2016-06-12T14:34:59.000Z</time>
      </trkpt>
      <trkpt lat="48.9982" lon="1.96856">
        <ele>23.799999237061</ele>
        <time>2016-06-12T14:35:02.000Z</time>
      </trkpt>
      <trkpt lat="48.99825" lon="1.96847">
        <ele>24</ele>
        <time>2016-06-12T14:35:08.000Z</time>
      </trkpt>
      <trkpt lat="48.99831" lon="1.9684">
        <ele>24.200000762939</ele>
        <time>2016-06-12T14:35:13.000Z</time>
      </trkpt>
      <trkpt lat="48.99836" lon="1.96832">
        <ele>24.39999961853</ele>
        <time>2016-06-12T14:35:18.000Z</time>
      </trkpt>
      <trkpt lat="48.99836" lon="1.96831">
        <ele>24.39999961853</ele>
        <time>2016-06-12T14:35:19.000Z</time>
      </trkpt>
      <trkpt lat="48.99837" lon="1.9683">
        <ele>24.39999961853</ele>
        <time>2016-06-12T14:35:20.000Z</time>
      </trkpt>
      <trkpt lat="48.99842" lon="1.96826">
        <ele>24.60000038147</ele>
        <time>2016-06-12T14:35:24.000Z</time>
      </trkpt>
      <trkpt lat="48.99845" lon="1.96823">
        <ele>24.60000038147</ele>
        <time>2016-06-12T14:35:26.000Z</time>
      </trkpt>
      <trkpt lat="48.99849" lon="1.96817">
        <ele>24.200000762939</ele>
        <time>2016-06-12T14:35:30.000Z</time>
      </trkpt>
      <trkpt lat="48.99851" lon="1.96813">
        <ele>24.200000762939</ele>
        <time>2016-06-12T14:35:33.000Z</time>
      </trkpt>
      <trkpt lat="48.99855" lon="1.96807">
        <ele>24.39999961853</ele>
        <time>2016-06-12T14:35:37.000Z</time>
      </trkpt>
      <trkpt lat="48.99856" lon="1.96805">
        <ele>24.60000038147</ele>
        <time>2016-06-12T14:35:38.000Z</time>
      </trkpt>
      <trkpt lat="48.9986" lon="1.96797">
        <ele>24.39999961853</ele>
        <time>2016-06-12T14:35:44.000Z</time>
      </trkpt>
      <trkpt lat="48.99864" lon="1.9679">
        <ele>24</ele>
        <time>2016-06-12T14:35:49.000Z</time>
      </trkpt>
      <trkpt lat="48.99865" lon="1.96789">
        <ele>23.799999237061</ele>
        <time>2016-06-12T14:35:50.000Z</time>
      </trkpt>
      <trkpt lat="48.99868" lon="1.96784">
        <ele>23.39999961853</ele>
        <time>2016-06-12T14:35:54.000Z</time>
      </trkpt>
      <trkpt lat="48.99869" lon="1.96781">
        <ele>23.39999961853</ele>
        <time>2016-06-12T14:35:56.000Z</time>
      </trkpt>
      <trkpt lat="48.99871" lon="1.96778">
        <ele>23</ele>
        <time>2016-06-12T14:35:58.000Z</time>
      </trkpt>
      <trkpt lat="48.99874" lon="1.96773">
        <ele>22.60000038147</ele>
        <time>2016-06-12T14:36:02.000Z</time>
      </trkpt>
      <trkpt lat="48.9988" lon="1.96766">
        <ele>22</ele>
        <time>2016-06-12T14:36:07.000Z</time>
      </trkpt>
      <trkpt lat="48.99883" lon="1.96765">
        <ele>21.799999237061</ele>
        <time>2016-06-12T14:36:09.000Z</time>
      </trkpt>
      <trkpt lat="48.99885" lon="1.96761">
        <ele>22</ele>
        <time>2016-06-12T14:36:12.000Z</time>
      </trkpt>
      <trkpt lat="48.99886" lon="1.9676">
        <ele>22.200000762939</ele>
        <time>2016-06-12T14:36:13.000Z</time>
      </trkpt>
      <trkpt lat="48.9989" lon="1.96753">
        <ele>22.60000038147</ele>
        <time>2016-06-12T14:36:17.000Z</time>
      </trkpt>
      <trkpt lat="48.99891" lon="1.96751">
        <ele>22.799999237061</ele>
        <time>2016-06-12T14:36:18.000Z</time>
      </trkpt>
      <trkpt lat="48.99897" lon="1.9674">
        <ele>23.39999961853</ele>
        <time>2016-06-12T14:36:24.000Z</time>
      </trkpt>
      <trkpt lat="48.99901" lon="1.96726">
        <ele>22.200000762939</ele>
        <time>2016-06-12T14:36:31.000Z</time>
      </trkpt>
      <trkpt lat="48.99902" lon="1.96724">
        <ele>22</ele>
        <time>2016-06-12T14:36:32.000Z</time>
      </trkpt>
      <trkpt lat="48.99907" lon="1.96704">
        <ele>20.60000038147</ele>
        <time>2016-06-12T14:36:41.000Z</time>
      </trkpt>
      <trkpt lat="48.99914" lon="1.96687">
        <ele>21.60000038147</ele>
        <time>2016-06-12T14:36:50.000Z</time>
      </trkpt>
      <trkpt lat="48.99919" lon="1.96674">
        <ele>22.39999961853</ele>
        <time>2016-06-12T14:36:57.000Z</time>
      </trkpt>
      <trkpt lat="48.9992" lon="1.96673">
        <ele>22.60000038147</ele>
        <time>2016-06-12T14:36:58.000Z</time>
      </trkpt>
      <trkpt lat="48.99926" lon="1.96667">
        <ele>23.200000762939</ele>
        <time>2016-06-12T14:37:03.000Z</time>
      </trkpt>
      <trkpt lat="48.99933" lon="1.96656">
        <ele>24.200000762939</ele>
        <time>2016-06-12T14:37:10.000Z</time>
      </trkpt>
      <trkpt lat="48.9994" lon="1.96647">
        <ele>24.799999237061</ele>
        <time>2016-06-12T14:37:16.000Z</time>
      </trkpt>
      <trkpt lat="48.99941" lon="1.96646">
        <ele>24.799999237061</ele>
        <time>2016-06-12T14:37:17.000Z</time>
      </trkpt>
      <trkpt lat="48.99946" lon="1.96637">
        <ele>24.39999961853</ele>
        <time>2016-06-12T14:37:23.000Z</time>
      </trkpt>
      <trkpt lat="48.99947" lon="1.9663">
        <ele>24</ele>
        <time>2016-06-12T14:37:26.000Z</time>
      </trkpt>
      <trkpt lat="48.9995" lon="1.96623">
        <ele>23.60000038147</ele>
        <time>2016-06-12T14:37:30.000Z</time>
      </trkpt>
      <trkpt lat="48.99956" lon="1.96609">
        <ele>23</ele>
        <time>2016-06-12T14:37:37.000Z</time>
      </trkpt>
      <trkpt lat="48.99961" lon="1.96596">
        <ele>22.200000762939</ele>
        <time>2016-06-12T14:37:45.000Z</time>
      </trkpt>
      <trkpt lat="48.99965" lon="1.96589">
        <ele>22.60000038147</ele>
        <time>2016-06-12T14:37:50.000Z</time>
      </trkpt>
      <trkpt lat="48.99967" lon="1.96581">
        <ele>23.39999961853</ele>
        <time>2016-06-12T14:37:55.000Z</time>
      </trkpt>
      <trkpt lat="48.99968" lon="1.9658">
        <ele>23.60000038147</ele>
        <time>2016-06-12T14:37:56.000Z</time>
      </trkpt>
      <trkpt lat="48.99974" lon="1.96571">
        <ele>24</ele>
        <time>2016-06-12T14:38:02.000Z</time>
      </trkpt>
      <trkpt lat="48.99978" lon="1.96563">
        <ele>23.799999237061</ele>
        <time>2016-06-12T14:38:08.000Z</time>
      </trkpt>
      <trkpt lat="48.9998" lon="1.9656">
        <ele>23.60000038147</ele>
        <time>2016-06-12T14:38:10.000Z</time>
      </trkpt>
      <trkpt lat="48.99982" lon="1.96553">
        <ele>23.39999961853</ele>
        <time>2016-06-12T14:38:14.000Z</time>
      </trkpt>
      <trkpt lat="48.99983" lon="1.96553">
        <ele>23.39999961853</ele>
        <time>2016-06-12T14:38:15.000Z</time>
      </trkpt>
      <trkpt lat="48.99986" lon="1.96549">
        <ele>23.39999961853</ele>
        <time>2016-06-12T14:38:19.000Z</time>
      </trkpt>
      <trkpt lat="48.99989" lon="1.96539">
        <ele>23.200000762939</ele>
        <time>2016-06-12T14:38:24.000Z</time>
      </trkpt>
      <trkpt lat="48.99991" lon="1.96538">
        <ele>23.200000762939</ele>
        <time>2016-06-12T14:38:25.000Z</time>
      </trkpt>
      <trkpt lat="48.99992" lon="1.96534">
        <ele>23.200000762939</ele>
        <time>2016-06-12T14:38:27.000Z</time>
      </trkpt>
      <trkpt lat="48.99995" lon="1.96529">
        <ele>23.200000762939</ele>
        <time>2016-06-12T14:38:30.000Z</time>
      </trkpt>
      <trkpt lat="48.99997" lon="1.96522">
        <ele>23.39999961853</ele>
        <time>2016-06-12T14:38:33.000Z</time>
      </trkpt>
      <trkpt lat="48.99999" lon="1.96518">
        <ele>23.39999961853</ele>
        <time>2016-06-12T14:38:35.000Z</time>
      </trkpt>
      <trkpt lat="49.00005" lon="1.96508">
        <ele>23.60000038147</ele>
        <time>2016-06-12T14:38:41.000Z</time>
      </trkpt>
      <trkpt lat="49.0001" lon="1.96495">
        <ele>23.60000038147</ele>
        <time>2016-06-12T14:38:48.000Z</time>
      </trkpt>
      <trkpt lat="49.00016" lon="1.96484">
        <ele>23.39999961853</ele>
        <time>2016-06-12T14:38:55.000Z</time>
      </trkpt>
      <trkpt lat="49.00019" lon="1.96477">
        <ele>23.39999961853</ele>
        <time>2016-06-12T14:39:00.000Z</time>
      </trkpt>
      <trkpt lat="49.00021" lon="1.96472">
        <ele>23.39999961853</ele>
        <time>2016-06-12T14:39:03.000Z</time>
      </trkpt>
      <trkpt lat="49.00021" lon="1.96469">
        <ele>23.39999961853</ele>
        <time>2016-06-12T14:39:05.000Z</time>
      </trkpt>
      <trkpt lat="49.00022" lon="1.96467">
        <ele>23.60000038147</ele>
        <time>2016-06-12T14:39:06.000Z</time>
      </trkpt>
      <trkpt lat="49.00027" lon="1.96453">
        <ele>23.39999961853</ele>
        <time>2016-06-12T14:39:13.000Z</time>
      </trkpt>
      <trkpt lat="49.00029" lon="1.96446">
        <ele>23</ele>
        <time>2016-06-12T14:39:17.000Z</time>
      </trkpt>
      <trkpt lat="49.00031" lon="1.96439">
        <ele>22.799999237061</ele>
        <time>2016-06-12T14:39:20.000Z</time>
      </trkpt>
      <trkpt lat="49.00034" lon="1.96427">
        <ele>22.39999961853</ele>
        <time>2016-06-12T14:39:25.000Z</time>
      </trkpt>
      <trkpt lat="49.00039" lon="1.96413">
        <ele>21.799999237061</ele>
        <time>2016-06-12T14:39:32.000Z</time>
      </trkpt>
      <trkpt lat="49.00041" lon="1.96407">
        <ele>21.60000038147</ele>
        <time>2016-06-12T14:39:37.000Z</time>
      </trkpt>
      <trkpt lat="49.00049" lon="1.96377">
        <ele>19.799999237061</ele>
        <time>2016-06-12T14:40:11.000Z</time>
      </trkpt>
      <trkpt lat="49.0005" lon="1.96375">
        <ele>19.799999237061</ele>
        <time>2016-06-12T14:40:12.000Z</time>
      </trkpt>
      <trkpt lat="49.00053" lon="1.96368">
        <ele>19.200000762939</ele>
        <time>2016-06-12T14:40:16.000Z</time>
      </trkpt>
      <trkpt lat="49.00055" lon="1.96365">
        <ele>19</ele>
        <time>2016-06-12T14:40:18.000Z</time>
      </trkpt>
      <trkpt lat="49.00057" lon="1.96358">
        <ele>18.60000038147</ele>
        <time>2016-06-12T14:40:21.000Z</time>
      </trkpt>
      <trkpt lat="49.00058" lon="1.96357">
        <ele>18.39999961853</ele>
        <time>2016-06-12T14:40:22.000Z</time>
      </trkpt>
      <trkpt lat="49.00064" lon="1.96344">
        <ele>19.60000038147</ele>
        <time>2016-06-12T14:40:29.000Z</time>
      </trkpt>
      <trkpt lat="49.00065" lon="1.96341">
        <ele>19.799999237061</ele>
        <time>2016-06-12T14:40:31.000Z</time>
      </trkpt>
      <trkpt lat="49.00066" lon="1.96338">
        <ele>20</ele>
        <time>2016-06-12T14:40:33.000Z</time>
      </trkpt>
      <trkpt lat="49.00067" lon="1.96334">
        <ele>20.39999961853</ele>
        <time>2016-06-12T14:40:35.000Z</time>
      </trkpt>
      <trkpt lat="49.00068" lon="1.9633">
        <ele>20.60000038147</ele>
        <time>2016-06-12T14:40:39.000Z</time>
      </trkpt>
      <trkpt lat="49.00068" lon="1.96329">
        <ele>20.60000038147</ele>
        <time>2016-06-12T14:40:40.000Z</time>
      </trkpt>
      <trkpt lat="49.00069" lon="1.9632">
        <ele>21</ele>
        <time>2016-06-12T14:40:50.000Z</time>
      </trkpt>
      <trkpt lat="49.0007" lon="1.96317">
        <ele>20.799999237061</ele>
        <time>2016-06-12T14:40:52.000Z</time>
      </trkpt>
      <trkpt lat="49.0007" lon="1.96313">
        <ele>20.799999237061</ele>
        <time>2016-06-12T14:40:54.000Z</time>
      </trkpt>
      <trkpt lat="49.00071" lon="1.96308">
        <ele>20.799999237061</ele>
        <time>2016-06-12T14:40:57.000Z</time>
      </trkpt>
      <trkpt lat="49.00071" lon="1.96306">
        <ele>20.60000038147</ele>
        <time>2016-06-12T14:40:58.000Z</time>
      </trkpt>
      <trkpt lat="49.00069" lon="1.96294">
        <ele>20.39999961853</ele>
        <time>2016-06-12T14:41:04.000Z</time>
      </trkpt>
      <trkpt lat="49.00066" lon="1.96284">
        <ele>20</ele>
        <time>2016-06-12T14:41:10.000Z</time>
      </trkpt>
      <trkpt lat="49.00064" lon="1.96273">
        <ele>19.799999237061</ele>
        <time>2016-06-12T14:41:16.000Z</time>
      </trkpt>
      <trkpt lat="49.00059" lon="1.96262">
        <ele>19.60000038147</ele>
        <time>2016-06-12T14:41:23.000Z</time>
      </trkpt>
      <trkpt lat="49.00059" lon="1.96261">
        <ele>19.60000038147</ele>
        <time>2016-06-12T14:41:24.000Z</time>
      </trkpt>
      <trkpt lat="49.00055" lon="1.96254">
        <ele>19.39999961853</ele>
        <time>2016-06-12T14:41:29.000Z</time>
      </trkpt>
      <trkpt lat="49.00053" lon="1.96249">
        <ele>19.39999961853</ele>
        <time>2016-06-12T14:41:32.000Z</time>
      </trkpt>
      <trkpt lat="49.0005" lon="1.96246">
        <ele>19.200000762939</ele>
        <time>2016-06-12T14:41:34.000Z</time>
      </trkpt>
      <trkpt lat="49.00047" lon="1.96243">
        <ele>19</ele>
        <time>2016-06-12T14:41:36.000Z</time>
      </trkpt>
      <trkpt lat="49.00045" lon="1.9624">
        <ele>19</ele>
        <time>2016-06-12T14:41:39.000Z</time>
      </trkpt>
      <trkpt lat="49.00041" lon="1.96229">
        <ele>18.799999237061</ele>
        <time>2016-06-12T14:41:46.000Z</time>
      </trkpt>
      <trkpt lat="49.00036" lon="1.96223">
        <ele>18.60000038147</ele>
        <time>2016-06-12T14:41:50.000Z</time>
      </trkpt>
      <trkpt lat="49.00036" lon="1.96221">
        <ele>18.60000038147</ele>
        <time>2016-06-12T14:41:51.000Z</time>
      </trkpt>
      <trkpt lat="49.00034" lon="1.96216">
        <ele>18.39999961853</ele>
        <time>2016-06-12T14:41:54.000Z</time>
      </trkpt>
      <trkpt lat="49.00028" lon="1.96205">
        <ele>18.200000762939</ele>
        <time>2016-06-12T14:42:01.000Z</time>
      </trkpt>
      <trkpt lat="49.00024" lon="1.96195">
        <ele>18</ele>
        <time>2016-06-12T14:42:07.000Z</time>
      </trkpt>
      <trkpt lat="49.00019" lon="1.96182">
        <ele>18</ele>
        <time>2016-06-12T14:42:15.000Z</time>
      </trkpt>
      <trkpt lat="49.00014" lon="1.96175">
        <ele>18.200000762939</ele>
        <time>2016-06-12T14:42:20.000Z</time>
      </trkpt>
      <trkpt lat="49.0001" lon="1.96164">
        <ele>18.200000762939</ele>
        <time>2016-06-12T14:42:27.000Z</time>
      </trkpt>
      <trkpt lat="49.00008" lon="1.96161">
        <ele>18.200000762939</ele>
        <time>2016-06-12T14:42:30.000Z</time>
      </trkpt>
      <trkpt lat="49.00007" lon="1.96158">
        <ele>18.200000762939</ele>
        <time>2016-06-12T14:42:33.000Z</time>
      </trkpt>
      <trkpt lat="49.00007" lon="1.96158">
        <ele>18.200000762939</ele>
        <time>2016-06-12T14:42:34.000Z</time>
      </trkpt>
      <trkpt lat="48.99995" lon="1.96137">
        <ele>18.60000038147</ele>
        <time>2016-06-12T14:42:52.000Z</time>
      </trkpt>
      <trkpt lat="48.99993" lon="1.96132">
        <ele>18.60000038147</ele>
        <time>2016-06-12T14:42:55.000Z</time>
      </trkpt>
      <trkpt lat="48.99984" lon="1.96115">
        <ele>19</ele>
        <time>2016-06-12T14:43:05.000Z</time>
      </trkpt>
      <trkpt lat="48.99978" lon="1.96101">
        <ele>19.200000762939</ele>
        <time>2016-06-12T14:43:13.000Z</time>
      </trkpt>
      <trkpt lat="48.99971" lon="1.96088">
        <ele>19.39999961853</ele>
        <time>2016-06-12T14:43:21.000Z</time>
      </trkpt>
      <trkpt lat="48.99963" lon="1.96075">
        <ele>19.799999237061</ele>
        <time>2016-06-12T14:43:29.000Z</time>
      </trkpt>
      <trkpt lat="48.99956" lon="1.96061">
        <ele>19.799999237061</ele>
        <time>2016-06-12T14:43:38.000Z</time>
      </trkpt>
      <trkpt lat="48.99945" lon="1.96044">
        <ele>20</ele>
        <time>2016-06-12T14:43:49.000Z</time>
      </trkpt>
      <trkpt lat="48.99933" lon="1.96029">
        <ele>20.39999961853</ele>
        <time>2016-06-12T14:44:00.000Z</time>
      </trkpt>
      <trkpt lat="48.99923" lon="1.96017">
        <ele>20.60000038147</ele>
        <time>2016-06-12T14:44:09.000Z</time>
      </trkpt>
      <trkpt lat="48.99916" lon="1.96008">
        <ele>21</ele>
        <time>2016-06-12T14:44:16.000Z</time>
      </trkpt>
      <trkpt lat="48.99911" lon="1.95993">
        <ele>21.200000762939</ele>
        <time>2016-06-12T14:44:24.000Z</time>
      </trkpt>
      <trkpt lat="48.99908" lon="1.95978">
        <ele>21.200000762939</ele>
        <time>2016-06-12T14:44:31.000Z</time>
      </trkpt>
      <trkpt lat="48.99907" lon="1.95964">
        <ele>21.200000762939</ele>
        <time>2016-06-12T14:44:38.000Z</time>
      </trkpt>
      <trkpt lat="48.99906" lon="1.95944">
        <ele>21</ele>
        <time>2016-06-12T14:44:48.000Z</time>
      </trkpt>
      <trkpt lat="48.99904" lon="1.95927">
        <ele>20.799999237061</ele>
        <time>2016-06-12T14:44:57.000Z</time>
      </trkpt>
      <trkpt lat="48.99901" lon="1.95921">
        <ele>20.799999237061</ele>
        <time>2016-06-12T14:45:01.000Z</time>
      </trkpt>
      <trkpt lat="48.99898" lon="1.95918">
        <ele>20.799999237061</ele>
        <time>2016-06-12T14:45:04.000Z</time>
      </trkpt>
      <trkpt lat="48.99896" lon="1.95913">
        <ele>20.799999237061</ele>
        <time>2016-06-12T14:45:08.000Z</time>
      </trkpt>
      <trkpt lat="48.99894" lon="1.95909">
        <ele>20.799999237061</ele>
        <time>2016-06-12T14:45:10.000Z</time>
      </trkpt>
      <trkpt lat="48.99887" lon="1.95895">
        <ele>21.200000762939</ele>
        <time>2016-06-12T14:45:19.000Z</time>
      </trkpt>
      <trkpt lat="48.99882" lon="1.95885">
        <ele>21.60000038147</ele>
        <time>2016-06-12T14:45:27.000Z</time>
      </trkpt>
      <trkpt lat="48.99875" lon="1.95876">
        <ele>22</ele>
        <time>2016-06-12T14:45:34.000Z</time>
      </trkpt>
      <trkpt lat="48.99869" lon="1.95865">
        <ele>22.39999961853</ele>
        <time>2016-06-12T14:45:42.000Z</time>
      </trkpt>
      <trkpt lat="48.99864" lon="1.95859">
        <ele>22.60000038147</ele>
        <time>2016-06-12T14:45:48.000Z</time>
      </trkpt>
      <trkpt lat="48.99862" lon="1.95858">
        <ele>22.799999237061</ele>
        <time>2016-06-12T14:45:50.000Z</time>
      </trkpt>
      <trkpt lat="48.9986" lon="1.95855">
        <ele>22.799999237061</ele>
        <time>2016-06-12T14:45:52.000Z</time>
      </trkpt>
      <trkpt lat="48.99858" lon="1.95852">
        <ele>23</ele>
        <time>2016-06-12T14:45:55.000Z</time>
      </trkpt>
      <trkpt lat="48.99856" lon="1.95852">
        <ele>23</ele>
        <time>2016-06-12T14:45:58.000Z</time>
      </trkpt>
      <trkpt lat="48.99855" lon="1.9585">
        <ele>23</ele>
        <time>2016-06-12T14:46:01.000Z</time>
      </trkpt>
    </trkseg>
  </trk>
</gpx>